# Wetter Temperatur Luftdruck Luftfeuchtigkeit Sichtweite Windgeschwindigkeit Windrichtung Zeit
1 Clouds 19 1016 82 10000 5.14 20 12:20 22.04.2021
2 Clouds 20 1015 83 10000 3.6 30 11:45 22.04.2021
3 Clouds 20 1015 83 10000 3.6 30 11:22 22.04.2021
4 Rain 20 1015 83 10000 4.63 20 10:44 22.04.2021
5 Rain 20 1015 83 10000 4.63 20 10:21 22.04.2021
6 Rain 20 1015 83 10000 4.63 20 09:42 22.04.2021
7 Rain 20 1015 83 10000 4.63 20 09:19 22.04.2021
8 Rain 21 1016 83 10000 4.63 20 08:38 22.04.2021
9 Rain 21 1016 83 10000 4.63 20 08:18 22.04.2021
10 Clear 21 1016 83 10000 4.63 30 07:38 22.04.2021
11 Clear 21 1016 83 10000 4.63 30 07:19 22.04.2021
12 Clear 21 1016 83 10000 6.17 50 06:23 22.04.2021
13 Clear 21 1015 83 10000 8.23 60 05:25 22.04.2021
14 Rain 22 1017 78 10000 4.12 100 03:25 22.04.2021
15 Clear 23 1016 73 10000 3.09 30 00:45 22.04.2021
16 Clear 23 1015 73 10000 3.6 60 23:44 21.04.2021
17 Clear 23 1015 73 10000 3.6 60 23:23 21.04.2021
18 Clear 24 1015 69 10000 3.6 60 22:41 21.04.2021
19 Clear 24 1015 69 10000 3.6 60 22:23 21.04.2021
20 Clear 24 1015 73 10000 4.12 80 21:42 21.04.2021
21 Clear 24 1015 73 10000 4.12 80 21:42 21.04.2021
22 Clear 24 1015 73 10000 4.12 80 21:23 21.04.2021
23 Clear 24 1015 73 10000 4.12 80 21:23 21.04.2021
24 Clear 24 1016 73 10000 4.63 80 20:40 21.04.2021
25 Clear 24 1016 73 10000 4.63 80 20:18 21.04.2021
26 Clear 24 1016 73 10000 3.09 70 19:41 21.04.2021
27 Clear 24 1016 73 10000 3.09 70 19:23 21.04.2021
28 Clear 24 1017 73 10000 4.12 60 18:45 21.04.2021
29 Clear 24 1017 73 10000 4.12 60 18:24 21.04.2021
30 Clouds 23 1018 73 10000 4.12 60 17:46 21.04.2021
31 Clouds 22 1018 73 10000 4.12 60 17:24 21.04.2021
32 Clouds 21 1019 73 10000 4.63 60 16:42 21.04.2021
33 Clouds 21 1036 76 10000 3.13 59 15:56 21.04.2021
34 Clouds 21 1020 77 10000 6.69 60 15:37 21.04.2021
35 Clouds 20 1020 77 10000 6.69 60 14:47 21.04.2021
36 Clouds 20 1020 77 10000 6.69 60 14:29 21.04.2021
37 Clouds 20 1019 82 10000 6.69 60 13:51 21.04.2021
38 Clouds 19 1019 82 10000 6.69 60 13:24 21.04.2021
39 Clouds 19 1019 88 10000 7.72 60 12:56 21.04.2021
40 Clouds 19 1019 88 10000 7.72 60 12:29 21.04.2021
41 Clouds 19 1018 88 10000 7.72 60 11:47 21.04.2021
42 Clouds 19 1018 88 10000 7.72 60 11:25 21.04.2021
43 Clouds 19 1018 88 10000 7.72 60 10:43 21.04.2021
44 Clouds 19 1018 82 10000 8.75 60 09:59 21.04.2021
45 Clouds 19 1018 82 10000 8.75 60 09:35 21.04.2021
46 Clouds 19 1018 83 10000 8.23 60 08:54 21.04.2021
47 Clouds 20 1018 83 10000 8.23 60 08:27 21.04.2021
48 Clear 19 1019 97 10000 0.89 135 07:59 21.04.2021
49 Clouds 20 1018 83 10000 8.75 60 07:29 21.04.2021
50 Clouds 20 1018 77 10000 10.29 70 06:23 21.04.2021
51 Clear 21 1019 73 10000 9.77 70 04:18 21.04.2021
52 Clear 23 1018 68 10000 6.17 80 00:49 21.04.2021
53 Clear 22 1018 78 10000 4.63 100 23:47 20.04.2021
54 Clouds 23 1018 68 10000 4.12 70 22:50 20.04.2021
55 Clouds 23 1018 68 10000 4.12 70 22:24 20.04.2021
56 Clouds 24 1019 64 10000 4.12 80 21:59 20.04.2021
57 Clouds 24 1019 64 10000 4.12 80 21:41 20.04.2021
58 Clouds 25 1019 64 10000 4.12 80 21:22 20.04.2021
59 Clouds 24 1019 68 10000 4.63 70 20:41 20.04.2021
60 Clouds 23 1019 68 10000 4.63 70 20:21 20.04.2021
61 Clouds 24 1020 68 10000 5.66 70 19:51 20.04.2021
62 Clouds 24 1020 68 10000 5.66 70 19:33 20.04.2021
63 Clouds 23 1020 73 10000 5.14 70 18:50 20.04.2021
64 Clouds 23 1020 73 10000 5.14 70 18:31 20.04.2021
65 Clouds 22 1021 73 10000 5.66 60 17:43 20.04.2021
66 Clouds 22 1022 83 10000 6.17 60 16:55 20.04.2021
67 Clouds 21 1022 83 10000 6.17 60 16:35 20.04.2021
68 Clouds 20 1022 83 10000 6.17 50 15:41 20.04.2021
69 Clouds 20 1022 83 10000 6.17 50 15:21 20.04.2021
70 Clouds 20 1022 88 10000 5.14 50 14:48 20.04.2021
71 Clouds 19 1022 88 10000 5.14 50 14:23 20.04.2021
72 Clouds 19 1022 88 10000 5.14 50 14:23 20.04.2021
73 Clouds 19 1021 82 10000 4.63 50 13:29 20.04.2021
74 Clouds 19 1021 88 10000 5.14 50 12:55 20.04.2021
75 Clouds 19 1021 88 10000 5.14 50 12:28 20.04.2021
76 Clouds 19 1020 82 10000 4.63 60 11:47 20.04.2021
77 Clouds 19 1020 82 10000 4.63 60 11:47 20.04.2021
78 Clouds 19 1020 82 10000 4.63 60 11:28 20.04.2021
79 Clouds 19 1020 82 10000 5.66 50 10:48 20.04.2021
80 Clouds 19 1020 82 10000 5.66 50 10:26 20.04.2021
81 Clear 19 1020 82 10000 6.69 60 09:50 20.04.2021
82 Clear 19 1020 82 10000 6.69 60 09:18 20.04.2021
83 Clear 19 1021 93 10000 0.89 68 08:42 20.04.2021
84 Clear 19 1022 91 10000 0.89 338 07:58 20.04.2021
85 Clear 20 1021 77 10000 7.2 60 07:31 20.04.2021
86 Clear 21 1020 68 10000 7.72 60 05:42 20.04.2021
87 Clear 21 1020 73 10000 6.17 70 04:43 20.04.2021
88 Clear 22 1020 73 10000 6.17 70 03:34 20.04.2021
89 Clear 22 1019 64 10000 4.12 80 00:50 20.04.2021
90 Clear 22 1019 78 10000 5.14 110 23:52 19.04.2021
91 Clear 22 1019 78 10000 5.14 110 23:29 19.04.2021
92 Clear 23 1019 64 10000 4.12 110 22:38 19.04.2021
93 Clear 24 1019 64 10000 4.12 110 22:19 19.04.2021
94 Clear 24 1019 60 10000 3.6 70 21:38 19.04.2021
95 Clear 24 1019 60 10000 3.6 70 21:19 19.04.2021
96 Clear 24 1019 64 10000 3.6 70 20:40 19.04.2021
97 Clear 24 1019 64 10000 3.6 70 20:20 19.04.2021
98 Clear 24 1020 60 10000 3.6 50 19:44 19.04.2021
99 Clear 23 1020 60 10000 3.6 50 19:25 19.04.2021
100 Clear 23 1021 68 10000 3.09 40 18:48 19.04.2021
101 Clear 23 1021 68 10000 3.09 40 18:48 19.04.2021
102 Clear 23 1021 68 10000 3.09 40 18:24 19.04.2021
103 Clouds 22 1021 73 10000 3.6 20 17:58 19.04.2021
104 Clouds 22 1021 73 10000 3.6 20 17:35 19.04.2021
105 Clouds 22 1022 73 10000 4.12 360 16:59 19.04.2021
106 Clouds 21 1022 73 10000 4.12 360 16:40 19.04.2021
107 Clouds 21 1022 73 10000 4.12 360 16:21 19.04.2021
108 Clouds 21 1022 77 10000 3.6 10 15:40 19.04.2021
109 Clouds 20 1022 77 10000 3.6 10 15:22 19.04.2021
110 Clouds 20 1022 82 10000 5.14 360 14:38 19.04.2021
111 Clouds 20 1022 82 10000 5.14 360 14:19 19.04.2021
112 Clear 20 1021 82 10000 5.14 360 13:44 19.04.2021
113 Clear 19 1021 82 10000 5.14 360 13:24 19.04.2021
114 Clear 19 1020 82 10000 5.14 360 12:42 19.04.2021
115 Clear 19 1020 82 10000 5.14 360 12:23 19.04.2021
116 Clear 19 1020 82 10000 4.63 10 11:54 19.04.2021
117 Clear 19 1020 82 10000 4.63 10 11:25 19.04.2021
118 Clear 19 1019 77 10000 6.17 10 10:46 19.04.2021
119 Clear 19 1019 77 10000 6.17 10 10:25 19.04.2021
120 Clear 19 1019 83 10000 5.14 20 09:49 19.04.2021
121 Clear 20 1019 83 10000 5.14 20 09:28 19.04.2021
122 Clear 20 1019 78 10000 4.63 30 08:58 19.04.2021
123 Clear 20 1019 78 10000 4.63 30 08:26 19.04.2021
124 Clear 20 1019 83 10000 4.12 50 07:48 19.04.2021
125 Clear 20 1019 83 10000 4.12 50 07:19 19.04.2021
126 Clear 20 1019 83 10000 2.57 30 06:28 19.04.2021
127 Clear 20 1018 88 10000 3.6 90 02:35 19.04.2021
128 Clear 20 1018 82 10000 1.54 130 00:47 19.04.2021
129 Clouds 20 1018 77 10000 0.51 0 23:49 18.04.2021
130 Clouds 21 1018 77 10000 0.51 0 23:18 18.04.2021
131 Clear 21 1018 77 10000 2.06 10 22:46 18.04.2021
132 Clear 22 1018 77 10000 2.06 10 22:24 18.04.2021
133 Clouds 21 1018 77 10000 2.57 30 21:29 18.04.2021
134 Clouds 22 1018 78 10000 3.09 30 20:57 18.04.2021
135 Clouds 22 1018 78 10000 3.09 30 20:38 18.04.2021
136 Clouds 22 1018 78 10000 3.09 30 20:38 18.04.2021
137 Clouds 22 1018 78 10000 3.09 30 20:20 18.04.2021
138 Clouds 21 1019 83 10000 3.09 30 19:44 18.04.2021
139 Clouds 22 1019 83 10000 3.09 30 19:23 18.04.2021
140 Clouds 21 1020 88 10000 3.09 30 18:50 18.04.2021
141 Clouds 20 1020 88 10000 3.09 30 18:27 18.04.2021
142 Clouds 21 1020 88 10000 3.6 30 17:49 18.04.2021
143 Clouds 20 1020 88 10000 3.6 30 17:29 18.04.2021
144 Clouds 20 1020 88 10000 4.12 10 16:53 18.04.2021
145 Clouds 20 1020 88 10000 4.12 10 16:35 18.04.2021
146 Clouds 20 1021 88 10000 4.63 360 15:51 18.04.2021
147 Clouds 20 1021 88 10000 4.63 360 15:28 18.04.2021
148 Clouds 21 1020 83 10000 6.17 360 14:54 18.04.2021
149 Clouds 21 1020 83 10000 6.17 360 14:36 18.04.2021
150 Clouds 21 1020 83 10000 6.17 360 14:18 18.04.2021
151 Clouds 20 1019 83 10000 4.63 10 13:38 18.04.2021
152 Clouds 20 1019 83 10000 4.63 10 13:19 18.04.2021
153 Clouds 20 1018 83 10000 3.6 20 12:33 18.04.2021
154 Clear 20 1018 83 10000 3.09 30 11:45 18.04.2021
155 Clear 20 1018 83 10000 3.09 30 11:22 18.04.2021
156 Clear 20 1018 83 10000 3.09 20 10:48 18.04.2021
157 Clear 20 1018 83 10000 3.09 20 10:28 18.04.2021
158 Clear 20 1017 83 10000 3.6 30 09:54 18.04.2021
159 Clear 20 1017 83 10000 3.6 30 09:36 18.04.2021
160 Clear 20 1018 83 10000 3.6 50 08:58 18.04.2021
161 Clear 20 1018 83 10000 3.6 50 08:39 18.04.2021
162 Clear 20 1018 83 10000 3.6 50 08:18 18.04.2021
163 Clouds 20 1018 83 10000 4.12 60 07:39 18.04.2021
164 Clear 21 1018 83 10000 4.12 80 05:45 18.04.2021
165 Clear 21 1018 83 10000 4.12 80 05:45 18.04.2021
166 Clear 21 1018 83 10000 4.12 80 05:24 18.04.2021
167 Clouds 22 1017 83 10000 4.63 50 03:26 18.04.2021
168 Clear 22 1017 83 10000 6.17 80 02:22 18.04.2021
169 Clear 21 1017 88 10000 6.17 110 00:40 18.04.2021
170 Clear 21 1017 83 10000 6.17 120 23:39 17.04.2021
171 Clear 23 1016 73 10000 4.63 120 22:54 17.04.2021
172 Clear 23 1016 73 10000 4.63 120 22:31 17.04.2021
173 Clear 23 1016 73 10000 4.63 120 22:30 17.04.2021
174 Clear 23 1016 73 10000 4.63 120 22:30 17.04.2021
175 Clear 24 1016 73 10000 3.6 100 21:45 17.04.2021
176 Clear 24 1016 73 10000 3.6 100 21:25 17.04.2021
177 Clear 24 1017 73 10000 2.57 80 20:43 17.04.2021
178 Clear 24 1017 73 10000 2.57 80 20:23 17.04.2021
179 Clear 24 1017 73 10000 2.06 70 19:43 17.04.2021
180 Clear 24 1017 73 10000 2.06 70 19:20 17.04.2021
181 Clear 24 1018 78 10000 2.06 40 18:51 17.04.2021
182 Clear 24 1018 78 10000 2.06 40 18:25 17.04.2021
183 Clear 23 1019 78 10000 2.57 40 17:43 17.04.2021
184 Clear 23 1019 78 10000 2.57 40 17:21 17.04.2021
185 Clouds 23 1019 83 10000 2.57 50 16:40 17.04.2021
186 Clouds 23 1019 83 10000 2.57 50 16:22 17.04.2021
187 Clouds 22 1019 78 10000 2.57 60 15:22 17.04.2021
188 Clouds 22 1019 83 10000 2.06 70 14:44 17.04.2021
189 Clouds 21 1019 83 10000 2.06 70 14:20 17.04.2021
190 Clouds 21 1018 83 10000 2.06 20 13:43 17.04.2021
191 Clouds 20 1018 83 10000 1.54 40 12:55 17.04.2021
192 Clouds 19 1018 83 10000 1.54 40 12:32 17.04.2021
193 Clouds 19 1017 88 10000 2.06 60 11:51 17.04.2021
194 Clouds 19 1017 88 10000 2.06 60 11:33 17.04.2021
195 Clouds 19 1016 88 10000 2.06 70 10:51 17.04.2021
196 Clouds 19 1016 88 10000 2.06 70 10:33 17.04.2021
197 Fog 19 1016 94 8000 1.03 0 09:47 17.04.2021
198 Clouds 19 1016 88 10000 1.54 60 08:54 17.04.2021
199 Clouds 20 1016 88 10000 1.54 60 08:29 17.04.2021
200 Clouds 19 1016 94 10000 1.03 0 07:45 17.04.2021
201 Clouds 20 1016 88 10000 2.06 60 05:42 17.04.2021
202 Clear 21 1015 88 10000 1.03 0 03:43 17.04.2021
203 Clear 22 1014 78 10000 2.57 80 00:56 17.04.2021
204 Clear 22 1014 78 10000 2.57 80 00:30 17.04.2021
205 Clear 22 1014 78 10000 2.57 70 23:58 16.04.2021
206 Clear 22 1014 78 10000 2.57 70 23:33 16.04.2021
207 Clear 23 1014 68 10000 2.57 70 22:51 16.04.2021
208 Clear 24 1014 68 10000 2.57 70 22:22 16.04.2021
209 Clear 24 1014 73 10000 2.06 60 21:56 16.04.2021
210 Clear 24 1014 73 10000 2.06 60 21:38 16.04.2021
211 Clear 24 1014 78 10000 2.06 40 20:55 16.04.2021
212 Clear 24 1014 78 10000 2.06 40 20:35 16.04.2021
213 Clear 25 1015 78 10000 2.57 50 19:56 16.04.2021
214 Clear 25 1015 78 10000 2.57 50 19:37 16.04.2021
215 Clouds 24 1015 88 10000 2.57 60 18:47 16.04.2021
216 Clouds 24 1015 88 10000 2.57 60 18:21 16.04.2021
217 Clouds 24 1016 88 10000 2.57 60 17:46 16.04.2021
218 Clouds 24 1016 88 10000 2.57 60 17:19 16.04.2021
219 Mist 24 1016 88 3800 2.06 70 16:44 16.04.2021
220 Mist 24 1016 88 3800 2.06 70 16:44 16.04.2021
221 Mist 24 1016 88 3800 2.06 70 16:25 16.04.2021
222 Mist 22 1016 88 2000 2.57 60 15:52 16.04.2021
223 Clear 22 1016 83 9000 1.54 30 15:23 16.04.2021
224 Clear 21 1015 83 9000 1.03 0 14:43 16.04.2021
225 Clear 20 1014 88 9000 1.03 0 14:20 16.04.2021
226 Clear 20 1014 88 9000 1.03 0 13:50 16.04.2021
227 Clear 19 1014 88 9000 1.03 0 13:21 16.04.2021
228 Clear 18 1014 94 8000 1.03 0 12:49 16.04.2021
229 Clear 18 1014 94 8000 1.03 0 12:29 16.04.2021
230 Fog 18 1013 100 8000 1.54 230 11:55 16.04.2021
231 Fog 18 1013 100 8000 1.54 230 11:27 16.04.2021
232 Clear 18 1013 100 10000 1.03 0 10:56 16.04.2021
233 Clear 18 1013 100 10000 1.03 0 10:37 16.04.2021
234 Clear 18 1013 100 10000 1.03 0 10:19 16.04.2021
235 Fog 19 1013 94 10000 0.69 341 09:42 16.04.2021
236 Fog 19 1013 94 10000 1.76 23 09:20 16.04.2021
237 Fog 18 1014 100 10000 1.76 23 08:41 16.04.2021
238 Fog 19 1014 100 10000 0.45 68 08:18 16.04.2021
239 Fog 19 1014 94 10000 0.48 67 07:36 16.04.2021
240 Clear 19 1013 88 10000 0.51 0 06:58 16.04.2021
241 Clear 20 1014 88 10000 1.03 0 05:34 16.04.2021
242 Clear 20 1014 88 10000 0.51 0 04:21 16.04.2021
243 Clouds 22 1013 73 10000 1.03 80 00:58 16.04.2021
244 Clouds 22 1013 73 10000 1.03 80 00:40 16.04.2021
245 Clouds 22 1013 73 10000 1.03 80 00:18 16.04.2021
246 Clear 23 1012 68 10000 1.54 60 23:37 15.04.2021
247 Clouds 23 1012 68 10000 2.06 60 22:54 15.04.2021
248 Clouds 24 1012 68 10000 2.06 60 22:35 15.04.2021
249 Clouds 25 1013 69 10000 2.57 60 21:59 15.04.2021
250 Clouds 24 1013 69 10000 2.57 60 21:41 15.04.2021
251 Clouds 25 1013 69 10000 2.57 60 21:20 15.04.2021
252 Clouds 25 1013 68 10000 2.57 40 20:42 15.04.2021
253 Clouds 24 1013 68 10000 2.57 40 20:21 15.04.2021
254 Clouds 24 1013 73 10000 2.57 20 19:44 15.04.2021
255 Clouds 24 1013 73 10000 2.57 20 19:24 15.04.2021
256 Clouds 24 1014 83 10000 2.57 20 18:42 15.04.2021
257 Clouds 24 1014 83 10000 2.57 20 18:21 15.04.2021
258 Clear 24 1015 78 10000 2.06 30 17:55 15.04.2021
259 Clear 23 1015 78 10000 2.06 30 17:36 15.04.2021
260 Clear 23 1015 78 10000 3.09 20 16:57 15.04.2021
261 Clear 23 1015 78 10000 3.09 20 16:39 15.04.2021
262 Clear 23 1015 78 10000 3.09 20 16:20 15.04.2021
263 Clear 22 1015 78 10000 2.06 10 15:44 15.04.2021
264 Clear 22 1015 78 10000 2.06 10 15:25 15.04.2021
265 Clear 21 1014 88 10000 1.03 0 14:39 15.04.2021
266 Clear 20 1014 88 10000 1.03 0 14:21 15.04.2021
267 Clear 19 1014 83 10000 1.03 0 13:41 15.04.2021
268 Clear 19 1014 83 10000 1.03 0 13:18 15.04.2021
269 Clear 18 1014 88 10000 1.54 329 12:39 15.04.2021
270 Clear 18 1014 88 10000 1.98 333 12:20 15.04.2021
271 Clear 19 1013 83 10000 1.03 0 11:44 15.04.2021
272 Clear 19 1013 83 10000 1.03 0 11:22 15.04.2021
273 Clear 19 1013 83 10000 1.03 0 10:48 15.04.2021
274 Clear 19 1013 83 10000 1.03 0 10:26 15.04.2021
275 Clear 19 1014 83 10000 1.54 40 09:37 15.04.2021
276 Clear 19 1014 83 10000 1.54 40 09:18 15.04.2021
277 Clear 19 1014 78 10000 2.06 40 08:41 15.04.2021
278 Clear 20 1014 78 10000 2.06 30 07:50 15.04.2021
279 Clear 20 1014 78 10000 2.06 30 07:22 15.04.2021
280 Clear 20 1014 78 10000 2.06 30 07:22 15.04.2021
281 Clear 20 1014 78 10000 3.09 50 06:38 15.04.2021
282 Clear 20 1014 78 10000 3.09 50 06:20 15.04.2021
283 Clear 21 1015 68 10000 3.6 60 04:49 15.04.2021
284 Clear 21 1014 68 10000 4.12 120 00:24 15.04.2021
285 Clear 21 1014 60 10000 3.09 90 23:37 14.04.2021
286 Clear 22 1014 60 10000 3.09 90 23:18 14.04.2021
287 Clear 22 1015 60 10000 3.09 70 22:43 14.04.2021
288 Clear 23 1015 60 10000 3.09 70 22:22 14.04.2021
289 Clouds 23 1015 53 10000 3.09 60 21:43 14.04.2021
290 Clouds 23 1015 53 10000 3.09 60 21:23 14.04.2021
291 Clouds 23 1016 56 10000 3.09 30 20:55 14.04.2021
292 Clouds 23 1016 56 10000 3.09 30 20:32 14.04.2021
293 Clouds 23 1017 60 10000 3.09 30 19:51 14.04.2021
294 Clouds 23 1017 60 10000 3.09 30 19:19 14.04.2021
295 Clouds 23 1018 60 10000 3.6 40 18:55 14.04.2021
296 Clouds 22 1018 60 10000 3.6 40 18:21 14.04.2021
297 Clear 22 1018 64 10000 4.12 30 17:58 14.04.2021
298 Clear 22 1018 64 10000 4.12 30 17:25 14.04.2021
299 Clear 21 1019 60 10000 4.63 30 16:53 14.04.2021
300 Clear 21 1019 60 10000 4.63 30 16:25 14.04.2021
301 Clear 21 1019 64 10000 4.63 20 15:42 14.04.2021
302 Clear 20 1019 64 10000 4.63 20 15:22 14.04.2021
303 Clear 21 1019 73 10000 3.09 40 14:46 14.04.2021
304 Clear 19 1019 73 10000 3.09 40 14:24 14.04.2021
305 Rain 20 1019 73 10000 3.09 30 13:54 14.04.2021
306 Clear 19 1019 73 10000 3.09 30 13:19 14.04.2021
307 Clear 17 1018 73 10000 2.57 20 12:37 14.04.2021
308 Clear 16 1018 82 10000 3.84 22 11:43 14.04.2021
309 Clear 17 1018 82 10000 3.63 21 11:25 14.04.2021
310 Clear 17 1018 73 10000 2.57 340 10:38 14.04.2021
311 Clear 18 1019 68 10000 3.09 20 09:59 14.04.2021
312 Clear 18 1019 68 10000 3.09 20 09:59 14.04.2021
313 Clear 18 1019 68 10000 3.09 20 09:41 14.04.2021
314 Clear 18 1019 68 10000 3.09 20 09:20 14.04.2021
315 Clear 18 1019 68 10000 3.09 30 08:34 14.04.2021
316 Clear 18 1020 83 10000 3.6 60 07:58 14.04.2021
317 Clear 19 1020 77 10000 3.6 60 06:48 14.04.2021
318 Clear 19 1020 77 10000 3.6 60 06:23 14.04.2021
319 Clear 19 1020 77 10000 2.57 90 03:59 14.04.2021
320 Clear 19 1020 68 10000 2.79 57 01:42 14.04.2021
321 Clear 19 1020 68 10000 2.79 57 01:42 14.04.2021
322 Clear 20 1020 64 10000 2.39 57 00:34 14.04.2021
323 Clear 21 1020 56 10000 2.06 60 23:39 13.04.2021
324 Clear 22 1021 60 10000 2.57 60 22:59 13.04.2021
325 Clear 23 1021 60 10000 2.57 60 22:40 13.04.2021
326 Clear 23 1021 60 10000 2.57 60 22:18 13.04.2021
327 Clear 23 1021 56 10000 2.57 40 21:44 13.04.2021
328 Clear 23 1021 56 10000 2.57 40 21:24 13.04.2021
329 Clear 24 1021 60 10000 2.57 40 20:41 13.04.2021
330 Clear 24 1021 60 10000 2.57 40 20:21 13.04.2021
331 Clear 23 1022 60 10000 2.57 20 19:40 13.04.2021
332 Clear 23 1022 60 10000 2.57 20 19:22 13.04.2021
333 Clear 23 1022 64 10000 3.09 10 18:37 13.04.2021
334 Clear 22 1023 64 10000 3.09 360 17:47 13.04.2021
335 Clear 22 1023 64 10000 3.09 360 17:25 13.04.2021
336 Clear 22 1023 60 10000 3.09 360 16:59 13.04.2021
337 Clear 22 1023 60 10000 3.09 360 16:41 13.04.2021
338 Clear 22 1023 60 10000 3.09 360 16:20 13.04.2021
339 Clear 21 1023 56 10000 2.06 320 15:40 13.04.2021
340 Clear 19 1023 63 10000 1.54 280 14:59 13.04.2021
341 Clear 19 1023 63 10000 1.54 280 14:41 13.04.2021
342 Clear 19 1023 63 10000 1.54 280 14:18 13.04.2021
343 Clear 18 1022 67 10000 1.03 0 13:41 13.04.2021
344 Clear 17 1022 67 10000 1.03 0 13:22 13.04.2021
345 Clear 15 1022 72 10000 1.03 0 12:53 13.04.2021
346 Clear 14 1022 72 10000 1.03 0 12:23 13.04.2021
347 Clear 14 1021 72 10000 1.03 0 11:48 13.04.2021
348 Clear 15 1021 72 10000 1.03 0 11:28 13.04.2021
349 Clear 15 1021 77 10000 0.51 0 10:44 13.04.2021
350 Clear 16 1021 77 10000 0.51 0 10:20 13.04.2021
351 Clear 16 1020 77 10000 2.51 289 09:52 13.04.2021
352 Clear 16 1020 77 10000 2.74 295 09:27 13.04.2021
353 Clear 16 1021 67 10000 1.54 320 08:49 13.04.2021
354 Clear 17 1021 67 10000 1.54 320 08:24 13.04.2021
355 Clear 17 1021 72 10000 2.6 299 07:51 13.04.2021
356 Clear 17 1021 72 10000 2.7 306 07:29 13.04.2021
357 Clear 18 1021 59 10000 2.06 300 06:27 13.04.2021
358 Clear 19 1021 68 10000 2.57 300 03:55 13.04.2021
359 Clear 20 1020 60 10000 2.57 310 01:35 13.04.2021
360 Clear 20 1020 60 10000 2.57 310 01:35 13.04.2021
361 Clear 22 1019 49 10000 3.6 330 23:55 12.04.2021
362 Clear 22 1019 49 10000 3.6 330 23:33 12.04.2021
363 Clear 24 1019 53 10000 3.6 340 22:55 12.04.2021
364 Clear 24 1019 53 10000 3.6 340 22:36 12.04.2021
365 Clear 24 1019 53 10000 4.12 340 21:49 12.04.2021
366 Clear 24 1019 53 10000 4.12 340 21:25 12.04.2021
367 Clear 24 1019 46 10000 4.63 340 20:59 12.04.2021
368 Clear 24 1019 46 10000 4.63 340 20:36 12.04.2021
369 Clear 24 1019 46 10000 4.63 340 20:18 12.04.2021
370 Clear 24 1020 53 10000 3.6 350 19:40 12.04.2021
371 Clear 24 1020 53 10000 3.6 350 19:21 12.04.2021
372 Clear 23 1021 60 10000 3.6 360 18:51 12.04.2021
373 Clear 23 1021 60 10000 3.6 360 18:33 12.04.2021
374 Clear 23 1021 43 10000 2.57 300 17:59 12.04.2021
375 Clear 23 1021 43 10000 2.57 300 17:40 12.04.2021
376 Clear 22 1021 43 10000 2.57 300 17:19 12.04.2021
377 Clear 22 1020 46 10000 1.03 0 16:38 12.04.2021
378 Clear 22 1020 46 10000 1.03 0 16:19 12.04.2021
379 Clear 20 1020 56 10000 1.03 0 15:39 12.04.2021
380 Clear 19 1020 59 10000 1.03 0 14:57 12.04.2021
381 Clear 18 1020 59 10000 1.03 0 14:39 12.04.2021
382 Clear 18 1020 59 10000 1.03 0 14:19 12.04.2021
383 Clear 16 1019 72 10000 0.51 0 13:40 12.04.2021
384 Clear 15 1019 72 10000 0.51 0 13:19 12.04.2021
385 Clear 14 1019 72 10000 1.03 0 12:43 12.04.2021
386 Clear 14 1019 72 10000 1.03 0 12:22 12.04.2021
387 Clear 15 1019 72 10000 1.03 0 11:35 12.04.2021
388 Clear 15 1018 72 10000 1.03 0 10:51 12.04.2021
389 Clear 15 1018 72 10000 1.03 0 10:28 12.04.2021
390 Clear 15 1018 77 10000 1.03 230 09:52 12.04.2021
391 Clear 15 1018 77 10000 1.03 230 09:23 12.04.2021
392 Clear 15 1018 77 10000 1.54 240 08:51 12.04.2021
393 Clear 16 1018 82 10000 0.51 0 07:55 12.04.2021
394 Clear 16 1018 82 10000 0.51 0 07:30 12.04.2021
395 Clear 16 1018 82 10000 1.03 0 06:39 12.04.2021
396 Clear 16 1019 82 10000 1.03 240 05:47 12.04.2021
397 Clear 18 1017 68 10000 1.03 0 02:27 12.04.2021
398 Clouds 19 1016 60 10000 1.54 0 00:27 12.04.2021
399 Clouds 20 1015 56 10000 2.57 220 23:54 11.04.2021
400 Clouds 20 1015 56 10000 2.57 220 23:32 11.04.2021
401 Clouds 21 1015 56 10000 3.09 190 22:50 11.04.2021
402 Clouds 21 1015 56 10000 3.09 190 22:28 11.04.2021
403 Clouds 21 1014 56 10000 4.12 220 21:58 11.04.2021
404 Clouds 20 1014 56 10000 4.12 220 21:39 11.04.2021
405 Clouds 20 1014 56 10000 4.12 220 21:20 11.04.2021
406 Clouds 20 1014 60 10000 4.63 0 20:39 11.04.2021
407 Clouds 20 1014 60 10000 4.63 0 20:20 11.04.2021
408 Clouds 19 1014 63 10000 5.14 200 19:41 11.04.2021
409 Clouds 19 1014 63 10000 5.14 200 19:19 11.04.2021
410 Clouds 19 1014 63 10000 5.14 200 19:19 11.04.2021
411 Clouds 19 1013 68 10000 4.12 190 18:47 11.04.2021
412 Clouds 19 1013 68 10000 4.12 190 18:26 11.04.2021
413 Clouds 18 1013 72 10000 4.63 200 17:50 11.04.2021
414 Clouds 18 1013 72 10000 4.63 200 17:30 11.04.2021
415 Clouds 18 1013 72 10000 4.63 200 17:30 11.04.2021
416 Clouds 18 1013 72 10000 4.63 200 17:30 11.04.2021
417 Clouds 18 1012 77 10000 5.14 190 16:59 11.04.2021
418 Clouds 18 1012 77 10000 5.14 190 16:40 11.04.2021
419 Clouds 18 1012 77 10000 5.14 190 16:20 11.04.2021
420 Clouds 17 1011 77 10000 5.14 190 15:42 11.04.2021
421 Clouds 17 1011 77 10000 5.14 190 15:22 11.04.2021
422 Clouds 16 1009 82 10000 5.14 200 14:48 11.04.2021
423 Clouds 16 1009 82 10000 5.14 200 14:19 11.04.2021
424 Clouds 15 1007 88 10000 5.66 200 13:40 11.04.2021
425 Clouds 15 1007 88 10000 5.66 200 13:22 11.04.2021
426 Clouds 16 1005 88 8000 5.66 220 12:26 11.04.2021
427 Clouds 17 1004 94 7000 3.09 0 11:53 11.04.2021
428 Clouds 17 1004 94 7000 3.09 0 11:33 11.04.2021
429 Clouds 19 1004 94 8000 4.12 240 10:58 11.04.2021
430 Clouds 19 1003 94 3500 4.63 280 10:39 11.04.2021
431 Clouds 20 1003 94 3500 4.63 280 10:20 11.04.2021
432 Clouds 20 1003 100 9000 4.12 270 09:38 11.04.2021
433 Rain 20 1003 100 9000 4.12 270 09:20 11.04.2021
434 Clouds 21 1003 94 9000 4.12 300 08:38 11.04.2021
435 Clouds 21 1005 99 9046 0.45 90 07:37 11.04.2021
436 Clouds 21 1005 99 7586 0.89 0 07:18 11.04.2021
437 Rain 21 1005 94 10000 2.57 330 05:44 11.04.2021
438 Clouds 22 1005 94 10000 2.57 330 05:21 11.04.2021
439 Clouds 22 1005 94 8000 2.57 60 04:35 11.04.2021
440 Rain 21 1006 94 3500 3.6 80 02:58 11.04.2021
441 Drizzle 21 1005 88 9000 3.09 90 00:40 11.04.2021
442 Drizzle 21 1005 88 9000 3.09 90 00:40 11.04.2021
443 Rain 21 1006 88 5000 5.14 70 23:52 10.04.2021
444 Rain 22 1006 88 5000 5.14 70 23:30 10.04.2021
445 Drizzle 22 1005 88 9000 4.12 80 22:52 10.04.2021
446 Rain 22 1007 99 6087 6.25 42 22:25 10.04.2021
447 Rain 22 1006 88 10000 6.69 90 21:52 10.04.2021
448 Clouds 22 1008 99 10000 0.89 338 21:23 10.04.2021
449 Drizzle 21 1006 94 8000 6.69 100 20:53 10.04.2021
450 Rain 21 1006 94 8000 6.69 100 20:29 10.04.2021
451 Drizzle 21 1007 94 8000 7.2 100 19:46 10.04.2021
452 Rain 21 1007 94 8000 7.2 100 19:27 10.04.2021
453 Drizzle 21 1009 94 8000 7.72 90 18:54 10.04.2021
454 Rain 21 1009 94 8000 7.72 90 18:34 10.04.2021
455 Rain 21 1010 88 8000 7.2 80 17:44 10.04.2021
456 Rain 21 1010 88 8000 7.2 80 17:23 10.04.2021
457 Rain 21 1011 88 6000 7.2 90 16:31 10.04.2021
458 Rain 22 1012 88 7000 7.72 80 15:56 10.04.2021
459 Rain 22 1012 88 7000 7.72 80 15:34 10.04.2021
460 Clouds 22 1012 88 10000 6.69 90 14:47 10.04.2021
461 Clouds 21 1012 88 10000 6.69 90 14:23 10.04.2021
462 Rain 21 1012 94 10000 6.17 80 13:43 10.04.2021
463 Rain 21 1012 94 10000 6.17 80 13:25 10.04.2021
464 Clouds 21 1012 94 10000 5.66 80 12:35 10.04.2021
465 Rain 21 1012 88 10000 6.69 90 11:52 10.04.2021
466 Rain 21 1012 88 10000 6.69 90 11:26 10.04.2021
467 Clouds 21 1012 100 10000 10.29 100 10:54 10.04.2021
468 Rain 21 1012 94 1500 9.77 100 10:32 10.04.2021
469 Drizzle 21 1013 94 8000 11.83 100 09:59 10.04.2021
470 Drizzle 21 1013 94 8000 11.83 100 09:29 10.04.2021
471 Rain 21 1013 94 8000 9.26 120 08:54 10.04.2021
472 Rain 21 1013 94 8000 9.26 120 08:29 10.04.2021
473 Rain 21 1013 94 8000 9.26 120 08:29 10.04.2021
474 Drizzle 21 1013 94 5000 8.23 120 07:52 10.04.2021
475 Clouds 21 1014 94 10000 7.2 130 07:21 10.04.2021
476 Clouds 21 1014 94 10000 5.14 130 06:26 10.04.2021
477 Clouds 21 1015 94 10000 3.6 130 04:40 10.04.2021
478 Clouds 21 1014 88 10000 2.06 150 02:53 10.04.2021
479 Clouds 21 1014 88 10000 2.06 150 02:34 10.04.2021
480 Rain 22 1014 94 4000 3.6 110 00:45 10.04.2021
481 Drizzle 22 1014 94 4000 3.6 110 00:26 10.04.2021
482 Clouds 22 1014 83 7000 1.54 170 23:42 09.04.2021
483 Clouds 22 1013 78 10000 2.57 340 22:59 09.04.2021
484 Clouds 22 1013 78 10000 2.57 340 22:38 09.04.2021
485 Clouds 22 1013 78 10000 2.57 340 22:38 09.04.2021
486 Clouds 22 1013 78 10000 1.03 0 21:59 09.04.2021
487 Clouds 22 1013 78 10000 1.03 0 21:38 09.04.2021
488 Clouds 23 1013 78 10000 1.03 0 21:19 09.04.2021
489 Clouds 23 1013 88 10000 2.06 320 20:43 09.04.2021
490 Clouds 23 1013 88 10000 2.06 320 20:22 09.04.2021
491 Clouds 22 1013 88 10000 2.57 350 19:44 09.04.2021
492 Rain 22 1013 88 10000 2.57 350 19:24 09.04.2021
493 Clouds 22 1013 94 10000 3.09 330 18:54 09.04.2021
494 Clouds 22 1013 94 10000 3.09 330 18:32 09.04.2021
495 Rain 21 1015 94 5000 3.09 340 17:54 09.04.2021
496 Rain 21 1015 94 5000 3.09 340 17:36 09.04.2021
497 Rain 21 1013 94 9000 1.03 0 16:56 09.04.2021
498 Rain 21 1013 94 9000 1.03 0 16:34 09.04.2021
499 Rain 21 1013 94 5000 1.54 20 15:51 09.04.2021
500 Rain 21 1013 94 3000 1.54 20 15:33 09.04.2021
501 Rain 21 1013 94 1600 1.03 0 14:57 09.04.2021
502 Rain 21 1013 94 8000 2.57 360 14:33 09.04.2021
503 Drizzle 21 1013 94 4900 1.54 280 13:52 09.04.2021
504 Rain 21 1013 94 4900 1.54 280 13:24 09.04.2021
505 Rain 21 1013 88 10000 2.57 300 12:51 09.04.2021
506 Rain 21 1013 88 10000 2.57 300 12:32 09.04.2021
507 Rain 21 1011 94 10000 1.03 0 11:46 09.04.2021
508 Rain 21 1011 94 10000 1.03 0 11:46 09.04.2021
509 Rain 21 1011 94 10000 1.03 0 11:22 09.04.2021
510 Rain 21 1011 94 10000 1.54 290 10:46 09.04.2021
511 Clouds 21 1011 94 10000 1.54 290 10:20 09.04.2021
512 Rain 21 1010 94 10000 2.57 310 09:30 09.04.2021
513 Rain 21 1010 94 10000 4.12 350 08:57 09.04.2021
514 Rain 21 1010 94 10000 4.12 350 08:37 09.04.2021
515 Rain 21 1010 94 7000 3.09 20 07:35 09.04.2021
516 Rain 21 1011 94 9000 5.14 360 06:34 09.04.2021
517 Rain 21 1009 94 7000 5.66 70 05:53 09.04.2021
518 Rain 21 1010 94 6000 2.06 140 03:50 09.04.2021
519 Mist 21 1012 94 1000 4.63 200 01:27 09.04.2021
520 Rain 22 1010 88 3000 4.63 190 00:36 09.04.2021
521 Rain 23 1009 73 5000 4.12 180 00:18 09.04.2021
522 Rain 25 1009 73 10000 4.12 110 22:58 08.04.2021
523 Rain 25 1009 73 10000 4.12 110 22:40 08.04.2021
524 Rain 25 1009 73 10000 4.12 110 22:40 08.04.2021
525 Rain 26 1009 73 10000 4.12 110 22:20 08.04.2021
526 Rain 26 1010 69 10000 1.54 90 21:54 08.04.2021
527 Rain 26 1010 69 10000 1.54 90 21:54 08.04.2021
528 Rain 26 1010 69 10000 1.54 90 21:36 08.04.2021
529 Rain 26 1010 69 10000 1.54 90 21:18 08.04.2021
530 Rain 26 1010 65 10000 1.03 0 20:42 08.04.2021
531 Rain 26 1010 65 10000 1.03 0 20:20 08.04.2021
532 Clear 26 1011 73 10000 1.03 0 19:42 08.04.2021
533 Rain 26 1011 73 10000 1.03 0 19:19 08.04.2021
534 Rain 25 1011 73 10000 2.57 340 18:44 08.04.2021
535 Rain 25 1011 73 10000 2.57 340 18:20 08.04.2021
536 Rain 25 1011 73 10000 4.63 350 17:48 08.04.2021
537 Rain 25 1011 73 10000 4.63 350 17:21 08.04.2021
538 Rain 25 1012 73 10000 6.69 360 16:45 08.04.2021
539 Rain 25 1012 73 10000 6.69 360 16:25 08.04.2021
540 Clear 25 1012 78 10000 5.14 350 15:47 08.04.2021
541 Clear 24 1012 78 10000 5.14 350 15:28 08.04.2021
542 Clear 24 1013 73 10000 6.17 350 14:44 08.04.2021
543 Clear 24 1013 73 10000 6.17 350 14:23 08.04.2021
544 Rain 24 1013 73 10000 6.17 350 13:50 08.04.2021
545 Clear 23 1013 73 10000 6.17 350 13:25 08.04.2021
546 Clear 23 1013 78 10000 6.17 350 12:59 08.04.2021
547 Clear 23 1013 78 10000 6.17 350 12:37 08.04.2021
548 Clear 23 1013 78 10000 5.14 360 11:58 08.04.2021
549 Clear 23 1013 78 10000 5.14 360 11:29 08.04.2021
550 Clear 23 1013 78 10000 5.66 360 10:56 08.04.2021
551 Clear 23 1013 78 10000 5.66 360 10:26 08.04.2021
552 Clear 23 1013 78 10000 5.66 360 10:26 08.04.2021
553 Clear 23 1013 78 10000 5.66 360 10:26 08.04.2021
554 Clear 23 1013 78 10000 5.66 360 10:26 08.04.2021
555 Clear 23 1013 78 10000 5.66 360 10:26 08.04.2021
556 Clear 23 1013 78 10000 5.14 360 09:49 08.04.2021
557 Clear 23 1013 78 10000 5.14 360 09:30 08.04.2021
558 Clear 23 1013 73 10000 3.09 20 08:45 08.04.2021
559 Clear 24 1013 73 10000 3.09 20 08:22 08.04.2021
560 Clear 24 1014 73 10000 4.12 20 07:47 08.04.2021
561 Clear 24 1014 78 10000 3.09 20 06:46 08.04.2021
562 Clear 25 1014 83 10000 3.09 90 01:28 08.04.2021
563 Clear 25 1014 73 10000 4.63 110 00:32 08.04.2021
564 Clear 26 1013 73 10000 5.14 100 23:50 07.04.2021
565 Clear 26 1013 73 10000 5.14 100 23:27 07.04.2021
566 Clouds 27 1014 69 10000 4.63 100 22:58 07.04.2021
567 Clouds 27 1014 69 10000 4.63 100 22:39 07.04.2021
568 Clouds 27 1014 69 10000 4.63 100 22:20 07.04.2021
569 Clouds 28 1014 69 10000 3.6 90 21:34 07.04.2021
570 Clouds 28 1014 69 10000 3.6 90 21:34 07.04.2021
571 Clouds 28 1014 69 10000 3.6 80 20:56 07.04.2021
572 Clouds 28 1014 69 10000 3.6 80 20:37 07.04.2021
573 Clouds 28 1014 69 10000 3.6 80 20:19 07.04.2021
574 Clouds 27 1015 78 10000 3.6 70 19:40 07.04.2021
575 Clouds 27 1015 78 10000 3.6 70 19:22 07.04.2021
576 Clear 27 1016 73 10000 3.6 30 18:42 07.04.2021
577 Clear 27 1016 73 10000 3.6 30 18:18 07.04.2021
578 Clear 26 1017 78 10000 3.09 30 17:47 07.04.2021
579 Clear 26 1017 78 10000 3.09 30 17:28 07.04.2021
580 Clear 25 1017 78 10000 5.14 360 16:46 07.04.2021
581 Clear 25 1017 78 10000 5.14 360 16:21 07.04.2021
582 Clear 25 1017 78 10000 4.63 350 15:53 07.04.2021
583 Clear 24 1017 78 10000 4.63 350 15:32 07.04.2021
584 Clear 24 1017 83 10000 3.6 10 14:43 07.04.2021
585 Clear 23 1017 83 10000 3.6 10 14:20 07.04.2021
586 Clear 23 1017 83 10000 3.6 20 13:39 07.04.2021
587 Clear 23 1017 83 10000 3.6 20 13:20 07.04.2021
588 Clear 22 1016 83 10000 4.63 10 12:43 07.04.2021
589 Clear 22 1016 83 10000 4.63 10 12:18 07.04.2021
590 Clear 22 1016 83 10000 3.6 10 11:43 07.04.2021
591 Clear 22 1016 83 10000 3.6 10 11:22 07.04.2021
592 Clear 23 1016 83 10000 4.12 10 10:47 07.04.2021
593 Clear 22 1016 83 10000 3.09 10 09:47 07.04.2021
594 Clear 22 1016 83 10000 3.09 10 09:28 07.04.2021
595 Clear 22 1016 83 10000 3.09 30 08:52 07.04.2021
596 Clear 23 1016 83 10000 3.09 30 08:31 07.04.2021
597 Clear 23 1016 83 10000 3.6 50 07:52 07.04.2021
598 Clear 23 1016 83 10000 3.6 50 07:28 07.04.2021
599 Clear 23 1016 88 10000 4.63 60 06:42 07.04.2021
600 Clear 23 1016 83 10000 4.63 70 05:22 07.04.2021
601 Clouds 23 1016 94 8000 5.66 120 01:23 07.04.2021
602 Clouds 24 1015 88 10000 6.17 110 23:47 06.04.2021
603 Clouds 24 1015 88 10000 6.17 110 23:22 06.04.2021
604 Clear 25 1015 83 10000 6.17 110 22:55 06.04.2021
605 Clear 25 1015 83 10000 6.17 110 22:21 06.04.2021
606 Clouds 25 1016 83 10000 5.66 110 21:44 06.04.2021
607 Clouds 25 1016 83 10000 5.66 110 21:24 06.04.2021
608 Clouds 26 1016 83 10000 6.17 100 20:57 06.04.2021
609 Clouds 26 1016 83 10000 6.17 100 20:37 06.04.2021
610 Clouds 26 1016 83 10000 6.17 100 20:18 06.04.2021
611 Clouds 26 1017 78 10000 6.17 100 19:41 06.04.2021
612 Clouds 26 1017 78 10000 6.17 100 19:41 06.04.2021
613 Clouds 26 1017 78 10000 6.17 100 19:23 06.04.2021
614 Clouds 26 1017 83 10000 5.14 100 18:43 06.04.2021
615 Clouds 26 1017 83 10000 5.14 100 18:20 06.04.2021
616 Clear 26 1018 78 10000 2.57 80 17:45 06.04.2021
617 Clear 26 1018 78 10000 2.57 80 17:19 06.04.2021
618 Clear 26 1018 83 10000 2.06 50 16:46 06.04.2021
619 Clear 25 1018 83 10000 2.06 50 16:27 06.04.2021
620 Clouds 24 1018 88 10000 2.57 70 15:27 06.04.2021
621 Clouds 23 1018 88 10000 2.57 80 14:47 06.04.2021
622 Clouds 23 1018 88 10000 2.57 80 14:28 06.04.2021
623 Clouds 22 1017 94 9000 3.6 70 13:47 06.04.2021
624 Clouds 22 1017 94 9000 3.6 70 13:27 06.04.2021
625 Clouds 22 1016 88 10000 2.57 90 12:58 06.04.2021
626 Clouds 21 1016 88 10000 2.57 90 12:37 06.04.2021
627 Clouds 21 1016 88 10000 2.57 90 12:18 06.04.2021
628 Clear 22 1016 88 10000 2.06 70 11:43 06.04.2021
629 Clear 21 1016 88 10000 2.06 70 11:20 06.04.2021
630 Clear 22 1016 88 10000 2.57 80 10:44 06.04.2021
631 Clear 22 1016 88 10000 2.57 80 10:22 06.04.2021
632 Clear 22 1016 88 10000 2.57 90 09:45 06.04.2021
633 Clear 22 1016 88 10000 2.57 90 09:25 06.04.2021
634 Clear 22 1016 94 10000 2.06 110 08:34 06.04.2021
635 Clear 22 1016 88 10000 3.09 120 07:32 06.04.2021
636 Clear 23 1016 88 10000 4.12 120 06:54 06.04.2021
637 Clear 23 1016 94 10000 5.66 120 04:52 06.04.2021
638 Clouds 24 1014 73 10000 2.57 130 00:59 06.04.2021
639 Clouds 24 1014 73 10000 2.57 130 00:38 06.04.2021
640 Clouds 25 1014 73 10000 2.57 130 00:20 06.04.2021
641 Clouds 25 1014 73 10000 5.14 110 23:41 05.04.2021
642 Clouds 25 1014 73 10000 5.14 110 23:18 05.04.2021
643 Clouds 26 1014 73 10000 4.63 100 22:41 05.04.2021
644 Clouds 26 1014 73 10000 4.63 100 22:20 05.04.2021
645 Clouds 26 1014 78 10000 4.63 100 21:38 05.04.2021
646 Clouds 26 1014 78 10000 4.63 100 21:19 05.04.2021
647 Clouds 27 1014 73 10000 3.09 100 20:42 05.04.2021
648 Clouds 27 1014 73 10000 3.09 100 20:42 05.04.2021
649 Clouds 27 1014 73 10000 3.09 100 20:42 05.04.2021
650 Clouds 27 1014 73 10000 3.09 100 20:22 05.04.2021
651 Clear 26 1014 73 10000 3.6 90 19:38 05.04.2021
652 Clear 26 1014 73 10000 3.6 90 19:19 05.04.2021
653 Clear 25 1015 83 10000 3.09 90 18:41 05.04.2021
654 Clear 25 1015 83 10000 3.09 90 18:19 05.04.2021
655 Clouds 24 1016 83 10000 3.6 90 17:47 05.04.2021
656 Clouds 24 1016 83 10000 3.6 90 17:24 05.04.2021
657 Clouds 24 1016 78 10000 3.6 100 16:47 05.04.2021
658 Clouds 24 1016 78 10000 3.6 100 16:23 05.04.2021
659 Clouds 23 1016 78 10000 3.6 50 15:58 05.04.2021
660 Clouds 23 1016 78 10000 3.6 50 15:35 05.04.2021
661 Clouds 23 1016 83 10000 2.57 50 14:59 05.04.2021
662 Clouds 22 1016 83 10000 2.57 50 14:36 05.04.2021
663 Clouds 22 1016 83 10000 2.57 10 13:52 05.04.2021
664 Clouds 22 1016 83 10000 2.57 10 13:27 05.04.2021
665 Clouds 21 1016 88 10000 2.06 50 12:46 05.04.2021
666 Clouds 21 1016 88 10000 2.06 50 12:25 05.04.2021
667 Clouds 21 1015 83 10000 3.09 20 11:48 05.04.2021
668 Clouds 21 1015 83 10000 3.09 20 11:28 05.04.2021
669 Clear 21 1015 83 10000 2.06 30 10:55 05.04.2021
670 Clear 21 1015 83 10000 2.06 30 10:29 05.04.2021
671 Rain 21 1015 78 10000 2.06 60 09:48 05.04.2021
672 Clear 21 1015 78 10000 2.06 60 09:26 05.04.2021
673 Rain 21 1015 83 10000 1.54 50 08:46 05.04.2021
674 Clear 21 1015 83 10000 1.54 50 08:26 05.04.2021
675 Rain 21 1015 88 10000 4.12 100 07:38 05.04.2021
676 Clear 21 1015 88 10000 4.12 100 07:18 05.04.2021
677 Clear 21 1016 94 10000 6.17 110 03:42 05.04.2021
678 Clear 22 1015 83 10000 5.14 110 00:54 05.04.2021
679 Clear 22 1015 78 10000 5.66 110 23:53 04.04.2021
680 Clear 23 1015 78 10000 5.66 110 23:30 04.04.2021
681 Clear 23 1015 73 10000 6.17 100 22:56 04.04.2021
682 Clear 23 1015 73 10000 6.17 100 22:33 04.04.2021
683 Clear 24 1015 73 10000 6.17 110 21:48 04.04.2021
684 Clear 24 1015 73 10000 6.17 110 21:21 04.04.2021
685 Clouds 24 1016 78 10000 5.66 100 20:42 04.04.2021
686 Clouds 25 1016 78 10000 5.66 100 20:20 04.04.2021
687 Clouds 25 1017 73 10000 4.63 100 19:38 04.04.2021
688 Clouds 25 1017 73 10000 4.63 100 19:38 04.04.2021
689 Clouds 24 1017 73 10000 4.63 100 19:19 04.04.2021
690 Clouds 24 1018 83 10000 4.63 100 18:47 04.04.2021
691 Clouds 24 1018 83 10000 4.63 100 18:24 04.04.2021
692 Clouds 24 1019 83 10000 3.6 90 17:55 04.04.2021
693 Clouds 23 1019 83 10000 3.6 90 17:24 04.04.2021
694 Clouds 22 1019 83 10000 3.6 80 16:52 04.04.2021
695 Clouds 21 1019 83 10000 3.6 80 16:21 04.04.2021
696 Clouds 21 1019 88 10000 3.6 100 15:36 04.04.2021
697 Clouds 21 1019 88 10000 3.09 80 14:51 04.04.2021
698 Clouds 20 1019 88 10000 3.09 80 14:28 04.04.2021
699 Clouds 20 1019 88 9000 2.57 80 13:53 04.04.2021
700 Clouds 20 1019 88 9000 2.57 80 13:25 04.04.2021
701 Clouds 20 1018 83 10000 2.06 40 12:50 04.04.2021
702 Clouds 20 1018 83 10000 2.06 40 12:27 04.04.2021
703 Clear 20 1018 83 10000 2.57 30 11:43 04.04.2021
704 Clear 20 1018 83 10000 2.57 30 11:25 04.04.2021
705 Clear 20 1018 83 10000 3.6 20 10:46 04.04.2021
706 Clouds 20 1018 83 10000 2.06 50 09:59 04.04.2021
707 Clouds 20 1018 83 10000 2.06 50 09:27 04.04.2021
708 Clear 20 1018 78 10000 3.6 60 08:55 04.04.2021
709 Clear 20 1018 78 10000 3.6 60 08:37 04.04.2021
710 Clear 20 1018 78 10000 3.6 60 08:19 04.04.2021
711 Clear 20 1019 78 10000 4.12 90 06:39 04.04.2021
712 Clear 21 1019 83 10000 5.14 100 05:33 04.04.2021
713 Clear 21 1019 83 10000 8.23 100 01:33 04.04.2021
714 Clouds 22 1018 83 10000 7.72 100 00:23 04.04.2021
715 Clouds 22 1018 78 10000 6.17 100 23:51 03.04.2021
716 Clouds 22 1018 78 10000 6.17 100 23:32 03.04.2021
717 Clouds 23 1018 73 10000 5.66 100 22:53 03.04.2021
718 Clouds 23 1018 73 10000 5.66 100 22:22 03.04.2021
719 Clouds 23 1019 73 10000 5.66 100 21:55 03.04.2021
720 Clouds 24 1019 73 10000 5.66 100 21:25 03.04.2021
721 Clouds 24 1019 68 10000 4.12 90 20:59 03.04.2021
722 Clouds 24 1019 68 10000 4.12 90 20:28 03.04.2021
723 Clouds 23 1019 68 10000 4.63 90 19:51 03.04.2021
724 Clouds 24 1019 68 10000 4.63 90 19:29 03.04.2021
725 Clouds 23 1020 73 10000 3.6 70 18:54 03.04.2021
726 Clouds 23 1020 73 10000 3.6 70 18:36 03.04.2021
727 Clear 23 1021 78 10000 2.57 60 17:56 03.04.2021
728 Clear 23 1021 78 10000 2.57 60 17:27 03.04.2021
729 Clear 22 1021 73 10000 2.57 30 16:55 03.04.2021
730 Clear 22 1021 73 10000 2.57 30 16:28 03.04.2021
731 Clear 22 1021 73 10000 3.6 20 15:52 03.04.2021
732 Clear 22 1021 73 10000 3.6 20 15:32 03.04.2021
733 Clear 21 1021 77 10000 4.12 10 14:52 03.04.2021
734 Clear 21 1021 77 10000 4.12 10 14:26 03.04.2021
735 Clear 21 1020 77 10000 3.6 10 13:58 03.04.2021
736 Clear 20 1020 77 10000 3.6 10 13:35 03.04.2021
737 Clear 20 1020 77 10000 4.12 20 12:59 03.04.2021
738 Clear 19 1020 77 10000 4.12 20 12:35 03.04.2021
739 Clear 19 1019 77 10000 3.6 20 11:45 03.04.2021
740 Clear 19 1019 77 10000 3.6 20 11:26 03.04.2021
741 Clear 19 1019 77 10000 3.6 20 10:45 03.04.2021
742 Clear 20 1019 77 10000 3.6 20 10:26 03.04.2021
743 Clear 20 1019 77 10000 5.14 20 09:39 03.04.2021
744 Clear 20 1019 77 10000 5.14 20 09:21 03.04.2021
745 Rain 20 1019 77 10000 4.63 50 08:35 03.04.2021
746 Clear 20 1019 73 10000 6.17 60 07:40 03.04.2021
747 Clear 20 1019 73 10000 6.17 60 07:40 03.04.2021
748 Clear 20 1019 73 10000 6.17 60 07:22 03.04.2021
749 Clear 20 1019 78 10000 7.2 110 03:54 03.04.2021
750 Clear 21 1019 78 10000 6.69 110 02:55 03.04.2021
751 Clear 21 1019 78 10000 6.69 110 02:30 03.04.2021
752 Clear 21 1019 77 10000 6.17 110 00:32 03.04.2021
753 Clear 22 1019 64 10000 6.69 110 23:59 02.04.2021
754 Clear 22 1019 64 10000 6.69 110 23:38 02.04.2021
755 Clear 22 1019 64 10000 6.69 110 23:18 02.04.2021
756 Clouds 23 1019 64 10000 6.69 100 22:43 02.04.2021
757 Clouds 23 1019 64 10000 6.69 100 22:24 02.04.2021
758 Clouds 23 1019 64 10000 6.17 100 21:41 02.04.2021
759 Clouds 23 1019 64 10000 6.17 100 21:19 02.04.2021
760 Clouds 23 1019 64 10000 5.14 100 20:42 02.04.2021
761 Clouds 23 1019 64 10000 5.14 100 20:20 02.04.2021
762 Clouds 23 1020 68 10000 4.63 100 19:42 02.04.2021
763 Clouds 23 1020 68 10000 4.63 100 19:22 02.04.2021
764 Clouds 23 1021 73 10000 4.63 90 18:46 02.04.2021
765 Clouds 23 1021 73 10000 4.63 90 18:28 02.04.2021
766 Clouds 22 1021 78 10000 4.12 80 17:56 02.04.2021
767 Clouds 22 1021 78 10000 4.12 80 17:25 02.04.2021
768 Clouds 21 1022 77 10000 3.09 70 16:24 02.04.2021
769 Clouds 21 1021 77 10000 4.12 90 15:43 02.04.2021
770 Clouds 21 1021 77 10000 4.12 90 15:20 02.04.2021
771 Clouds 20 1021 77 10000 4.12 80 14:33 02.04.2021
772 Clouds 20 1021 77 10000 4.12 80 14:33 02.04.2021
773 Clouds 20 1021 82 9000 3.6 80 13:50 02.04.2021
774 Clouds 19 1021 82 9000 3.6 80 13:27 02.04.2021
775 Clouds 19 1020 82 10000 2.57 60 12:53 02.04.2021
776 Clouds 19 1020 82 10000 2.57 60 12:21 02.04.2021
777 Clouds 19 1020 77 10000 2.06 50 11:58 02.04.2021
778 Clouds 19 1020 77 10000 2.06 50 11:21 02.04.2021
779 Clouds 19 1020 73 10000 2.57 40 10:51 02.04.2021
780 Clouds 19 1020 73 10000 2.57 40 10:33 02.04.2021
781 Clear 19 1019 77 10000 5.14 60 09:57 02.04.2021
782 Clear 19 1019 77 10000 5.14 60 09:37 02.04.2021
783 Clear 19 1019 77 10000 5.14 60 09:18 02.04.2021
784 Clear 19 1019 73 10000 6.17 60 08:37 02.04.2021
785 Clear 19 1019 73 10000 6.69 70 07:52 02.04.2021
786 Clear 20 1019 73 10000 6.69 70 07:19 02.04.2021
787 Clear 20 1019 73 10000 7.2 80 06:31 02.04.2021
788 Clear 20 1019 73 10000 8.23 100 02:59 02.04.2021
789 Clear 20 1018 73 10000 7.72 110 00:54 02.04.2021
790 Clear 21 1018 73 10000 7.72 110 00:33 02.04.2021
791 Clear 21 1018 64 10000 6.69 110 23:42 01.04.2021
792 Clear 21 1018 64 10000 6.69 110 23:24 01.04.2021
793 Clouds 22 1018 64 10000 6.17 110 22:22 01.04.2021
794 Clouds 22 1018 64 10000 6.17 110 22:22 01.04.2021
795 Clouds 22 1018 56 10000 6.17 100 21:52 01.04.2021
796 Clouds 23 1018 56 10000 6.17 100 21:29 01.04.2021
797 Clouds 23 1018 60 10000 6.17 100 20:58 01.04.2021
798 Clouds 23 1018 60 10000 6.17 100 20:29 01.04.2021
799 Clouds 22 1019 64 10000 4.12 110 19:57 01.04.2021
800 Clouds 23 1019 64 10000 4.12 110 19:37 01.04.2021
801 Clouds 22 1019 73 10000 3.09 80 18:47 01.04.2021
802 Clouds 22 1019 73 10000 3.09 80 18:19 01.04.2021
803 Clouds 22 1020 73 10000 3.6 80 17:54 01.04.2021
804 Clouds 22 1020 73 10000 3.6 80 17:33 01.04.2021
805 Clouds 21 1020 73 10000 3.6 70 16:54 01.04.2021
806 Clouds 21 1020 73 10000 3.6 70 16:34 01.04.2021
807 Clouds 21 1020 77 10000 3.09 80 15:49 01.04.2021
808 Clouds 20 1020 77 10000 3.09 80 15:20 01.04.2021
809 Clouds 20 1019 77 10000 3.6 80 14:47 01.04.2021
810 Clouds 20 1019 77 10000 3.6 80 14:27 01.04.2021
811 Clouds 20 1019 73 10000 4.12 70 13:58 01.04.2021
812 Clouds 20 1019 73 10000 4.12 70 13:31 01.04.2021
813 Clouds 19 1019 82 10000 4.12 60 12:54 01.04.2021
814 Clouds 19 1019 82 10000 4.12 60 12:33 01.04.2021
815 Clouds 19 1018 72 10000 5.14 70 11:57 01.04.2021
816 Clouds 19 1018 72 10000 5.14 70 11:38 01.04.2021
817 Clouds 19 1018 72 10000 5.14 70 11:18 01.04.2021
818 Clouds 19 1018 68 10000 4.63 70 10:45 01.04.2021
819 Clouds 19 1018 68 10000 4.63 70 10:22 01.04.2021
820 Clouds 19 1018 68 10000 5.14 70 09:31 01.04.2021
821 Clouds 19 1018 73 10000 5.66 80 08:42 01.04.2021
822 Clouds 19 1018 73 10000 5.66 80 08:24 01.04.2021
823 Clouds 19 1018 77 10000 6.17 80 07:21 01.04.2021
824 Clouds 19 1018 77 10000 6.17 80 06:54 01.04.2021
825 Clouds 19 1018 73 10000 7.2 100 05:32 01.04.2021
826 Clear 19 1018 68 10000 5.66 120 02:58 01.04.2021
827 Clouds 21 1017 60 10000 5.14 100 23:52 31.03.2021
828 Clouds 21 1017 60 10000 5.14 100 23:33 31.03.2021
829 Clouds 22 1017 64 10000 4.12 100 22:43 31.03.2021
830 Clouds 22 1017 64 10000 4.12 100 22:21 31.03.2021
831 Clouds 22 1018 60 10000 5.14 110 21:47 31.03.2021
832 Clouds 22 1018 60 10000 5.14 110 21:24 31.03.2021
833 Clouds 22 1018 53 10000 5.14 90 20:58 31.03.2021
834 Clouds 23 1018 53 10000 5.14 90 20:40 31.03.2021
835 Clouds 22 1018 53 10000 5.14 90 20:19 31.03.2021
836 Clouds 22 1019 56 10000 4.12 90 19:42 31.03.2021
837 Clouds 23 1019 56 10000 4.12 90 19:19 31.03.2021
838 Clouds 22 1020 60 10000 3.6 70 18:52 31.03.2021
839 Clouds 22 1020 60 10000 3.6 70 18:22 31.03.2021
840 Clouds 22 1020 64 10000 3.09 60 17:37 31.03.2021
841 Clouds 22 1020 64 10000 3.09 60 17:18 31.03.2021
842 Clouds 21 1020 68 10000 3.09 60 16:49 31.03.2021
843 Clouds 21 1020 68 10000 3.09 60 16:49 31.03.2021
844 Clouds 21 1020 68 10000 3.09 60 16:29 31.03.2021
845 Clouds 21 1020 68 10000 2.57 40 15:51 31.03.2021
846 Clouds 20 1020 68 10000 2.57 40 15:20 31.03.2021
847 Clouds 20 1020 68 10000 2.06 50 14:46 31.03.2021
848 Clouds 19 1020 68 10000 2.06 50 14:24 31.03.2021
849 Clouds 19 1020 68 10000 2.06 50 14:24 31.03.2021
850 Clouds 19 1020 68 10000 2.06 50 14:24 31.03.2021
851 Clouds 18 1019 77 10000 2.57 40 13:43 31.03.2021
852 Clouds 17 1019 77 10000 2.57 40 13:19 31.03.2021
853 Clouds 17 1019 77 10000 2.06 50 12:37 31.03.2021
854 Clouds 17 1019 77 10000 2.06 50 12:18 31.03.2021
855 Clouds 17 1019 72 10000 3.6 60 11:22 31.03.2021
856 Clouds 17 1018 72 10000 4.12 60 10:48 31.03.2021
857 Clouds 17 1018 72 10000 4.12 60 10:27 31.03.2021
858 Clouds 18 1018 72 10000 4.63 60 09:45 31.03.2021
859 Clouds 18 1018 72 10000 4.63 60 09:26 31.03.2021
860 Clouds 18 1018 68 10000 5.14 70 08:41 31.03.2021
861 Clouds 18 1018 68 10000 5.14 70 08:21 31.03.2021
862 Clouds 18 1018 73 10000 5.66 70 07:19 31.03.2021
863 Clouds 19 1019 73 10000 6.69 100 04:34 31.03.2021
864 Clouds 20 1018 77 10000 6.17 110 02:32 31.03.2021
865 Clear 20 1018 73 10000 4.63 110 00:54 31.03.2021
866 Clear 20 1018 73 10000 4.63 110 00:22 31.03.2021
867 Clear 21 1018 68 10000 3.6 100 23:54 30.03.2021
868 Clear 22 1018 68 10000 3.6 100 23:19 30.03.2021
869 Clear 22 1018 64 10000 3.6 90 22:47 30.03.2021
870 Clear 22 1018 64 10000 3.6 90 22:29 30.03.2021
871 Clear 22 1018 68 10000 4.12 70 21:55 30.03.2021
872 Clear 22 1018 68 10000 4.12 70 21:25 30.03.2021
873 Clouds 22 1018 68 10000 3.6 60 20:58 30.03.2021
874 Clouds 23 1018 68 10000 3.6 60 20:30 30.03.2021
875 Clouds 23 1019 68 10000 4.12 70 19:52 30.03.2021
876 Clouds 23 1019 68 10000 4.12 70 19:29 30.03.2021
877 Clear 23 1019 68 10000 4.63 80 18:47 30.03.2021
878 Clear 22 1019 68 10000 4.63 80 18:24 30.03.2021
879 Clear 22 1019 64 10000 4.63 80 17:42 30.03.2021
880 Clear 22 1019 64 10000 4.63 80 17:24 30.03.2021
881 Clear 21 1019 68 10000 4.12 100 16:46 30.03.2021
882 Clear 20 1019 68 10000 4.12 100 16:25 30.03.2021
883 Clear 19 1019 68 10000 2.06 180 15:22 30.03.2021
884 Clear 18 1019 77 8000 2.06 170 14:59 30.03.2021
885 Clear 17 1019 77 8000 2.06 170 14:40 30.03.2021
886 Clear 17 1019 77 8000 2.06 170 14:19 30.03.2021
887 Clear 16 1019 82 8000 1.54 190 13:42 30.03.2021
888 Clear 15 1018 88 10000 1.54 200 12:58 30.03.2021
889 Clear 15 1018 88 10000 1.54 200 12:39 30.03.2021
890 Clear 15 1018 88 10000 1.54 200 12:19 30.03.2021
891 Clear 15 1018 82 10000 1.54 200 11:24 30.03.2021
892 Clear 15 1017 82 10000 1.54 170 10:59 30.03.2021
893 Clear 15 1017 82 10000 1.54 170 10:37 30.03.2021
894 Clear 15 1017 82 10000 1.54 170 10:18 30.03.2021
895 Clear 15 1017 88 10000 1.54 160 09:38 30.03.2021
896 Clear 15 1017 88 10000 1.54 160 09:20 30.03.2021
897 Clear 16 1018 82 10000 2.06 140 08:39 30.03.2021
898 Clear 17 1018 77 10000 2.57 140 07:53 30.03.2021
899 Clear 17 1018 77 10000 2.57 140 07:22 30.03.2021
900 Clear 18 1018 72 10000 3.6 140 05:53 30.03.2021
901 Clear 18 1018 72 10000 3.6 140 05:19 30.03.2021
902 Clouds 22 1016 53 10000 3.09 180 00:58 30.03.2021
903 Clouds 23 1016 49 10000 3.6 170 23:51 29.03.2021
904 Clouds 24 1016 50 10000 3.09 160 22:54 29.03.2021
905 Clouds 24 1016 50 10000 3.09 160 22:32 29.03.2021
906 Clouds 24 1016 57 10000 3.09 160 21:51 29.03.2021
907 Clouds 24 1016 57 10000 3.09 160 21:31 29.03.2021
908 Clouds 23 1016 64 10000 3.09 170 20:50 29.03.2021
909 Clouds 22 1016 64 10000 3.09 170 20:28 29.03.2021
910 Clouds 22 1016 68 10000 3.09 200 19:50 29.03.2021
911 Clouds 22 1016 68 10000 3.09 200 19:25 29.03.2021
912 Clouds 21 1017 73 10000 3.09 200 18:51 29.03.2021
913 Clouds 21 1017 73 10000 3.09 200 18:27 29.03.2021
914 Clouds 21 1017 77 10000 3.09 200 17:52 29.03.2021
915 Clouds 20 1017 77 10000 3.09 200 17:32 29.03.2021
916 Clouds 20 1017 73 10000 3.09 190 16:45 29.03.2021
917 Clouds 19 1017 73 10000 3.09 190 16:24 29.03.2021
918 Clouds 18 1016 82 10000 3.09 210 15:36 29.03.2021
919 Clouds 18 1016 82 10000 3.09 210 15:18 29.03.2021
920 Clouds 18 1016 82 10000 2.57 190 14:46 29.03.2021
921 Clouds 18 1016 82 10000 3.6 200 13:55 29.03.2021
922 Clouds 18 1016 82 10000 3.6 200 13:33 29.03.2021
923 Clouds 17 1015 88 10000 3.09 200 12:55 29.03.2021
924 Clouds 17 1015 88 10000 3.09 200 12:36 29.03.2021
925 Clouds 17 1015 94 10000 2.57 190 11:43 29.03.2021
926 Clouds 17 1015 94 10000 2.57 190 11:24 29.03.2021
927 Clouds 18 1014 88 10000 3.09 180 10:41 29.03.2021
928 Clouds 18 1014 88 10000 3.09 180 10:18 29.03.2021
929 Clouds 18 1014 82 10000 3.09 200 09:25 29.03.2021
930 Clouds 19 1014 88 10000 2.57 180 08:30 29.03.2021
931 Clear 19 1014 77 10000 2.06 170 07:52 29.03.2021
932 Clouds 19 1014 83 10000 2.57 170 06:53 29.03.2021
933 Clouds 20 1014 78 10000 1.54 180 05:19 29.03.2021
934 Clear 21 1013 73 10000 0.51 0 02:22 29.03.2021
935 Clouds 22 1012 73 10000 2.06 330 00:26 29.03.2021
936 Clouds 22 1012 68 10000 2.57 10 23:53 28.03.2021
937 Clouds 22 1012 68 10000 2.57 10 23:24 28.03.2021
938 Clouds 23 1012 73 10000 2.57 360 22:42 28.03.2021
939 Clouds 23 1012 73 10000 2.57 360 22:23 28.03.2021
940 Clouds 23 1012 73 10000 2.57 30 21:45 28.03.2021
941 Clouds 23 1012 73 10000 2.57 30 21:23 28.03.2021
942 Clouds 23 1012 73 10000 2.57 40 20:50 28.03.2021
943 Clouds 24 1012 73 10000 2.57 40 20:32 28.03.2021
944 Clouds 24 1012 73 10000 3.09 60 19:46 28.03.2021
945 Clouds 24 1012 73 10000 3.09 60 19:23 28.03.2021
946 Clouds 23 1013 78 10000 2.06 30 18:58 28.03.2021
947 Clouds 22 1013 78 10000 2.06 30 18:33 28.03.2021
948 Clouds 22 1013 78 10000 2.57 40 17:56 28.03.2021
949 Clouds 22 1013 78 10000 2.57 40 17:34 28.03.2021
950 Clouds 22 1013 73 10000 3.09 60 16:55 28.03.2021
951 Clouds 22 1013 73 10000 3.09 60 16:24 28.03.2021
952 Clouds 21 1012 78 10000 1.54 10 15:48 28.03.2021
953 Clouds 21 1012 78 10000 1.54 10 15:22 28.03.2021
954 Clouds 19 1012 82 10000 1.03 0 14:38 28.03.2021
955 Clouds 19 1012 88 10000 1.03 0 13:52 28.03.2021
956 Clouds 18 1012 88 10000 1.03 0 13:33 28.03.2021
957 Clouds 18 1012 88 10000 1.03 0 12:53 28.03.2021
958 Clouds 18 1012 88 10000 1.03 0 12:33 28.03.2021
959 Clouds 18 1011 88 10000 1.03 0 11:49 28.03.2021
960 Clouds 18 1011 88 10000 1.03 0 11:26 28.03.2021
961 Clouds 18 1011 88 10000 1.03 0 10:45 28.03.2021
962 Clouds 18 1011 88 10000 1.03 0 10:27 28.03.2021
963 Clouds 18 1010 94 7000 1.03 0 09:49 28.03.2021
964 Clouds 18 1010 94 7000 1.03 0 09:25 28.03.2021
965 Clouds 18 1010 94 7000 1.03 0 09:25 28.03.2021
966 Clouds 17 1012 99 10000 2.09 300 08:46 28.03.2021
967 Clouds 18 1011 82 10000 2.57 300 07:51 28.03.2021
968 Clouds 18 1011 82 10000 2.57 300 07:33 28.03.2021
969 Clear 19 1011 77 10000 2.57 310 04:54 28.03.2021
970 Clouds 19 1011 72 10000 2.57 300 01:26 28.03.2021
971 Clouds 20 1011 73 10000 3.6 290 00:21 28.03.2021
972 Rain 21 1011 68 10000 3.09 290 23:44 27.03.2021
973 Clouds 21 1011 68 10000 3.09 290 23:19 27.03.2021
974 Clouds 21 1011 68 10000 3.6 290 22:37 27.03.2021
975 Clouds 23 1010 68 10000 4.63 300 21:59 27.03.2021
976 Clouds 23 1010 68 10000 4.63 300 21:38 27.03.2021
977 Clouds 23 1010 68 10000 4.63 300 21:19 27.03.2021
978 Clouds 23 1010 68 10000 4.63 300 20:38 27.03.2021
979 Clouds 23 1010 68 10000 4.63 300 20:20 27.03.2021
980 Clouds 22 1011 78 10000 5.14 300 19:42 27.03.2021
981 Clouds 23 1011 78 10000 5.14 300 19:23 27.03.2021
982 Clouds 22 1012 83 10000 5.14 300 18:48 27.03.2021
983 Clouds 21 1012 83 10000 5.14 300 18:28 27.03.2021
984 Clouds 22 1012 78 10000 3.09 290 17:50 27.03.2021
985 Clouds 21 1012 78 10000 3.09 290 17:23 27.03.2021
986 Clouds 22 1012 83 8000 1.54 280 16:49 27.03.2021
987 Clouds 21 1012 83 8000 1.54 280 16:28 27.03.2021
988 Clouds 21 1012 88 7000 1.03 0 15:48 27.03.2021
989 Clouds 21 1012 88 7000 1.03 0 15:22 27.03.2021
990 Drizzle 21 1012 94 2500 1.03 0 14:45 27.03.2021
991 Drizzle 20 1012 94 4000 1.03 0 13:44 27.03.2021
992 Drizzle 20 1012 94 4000 1.03 0 13:22 27.03.2021
993 Drizzle 19 1011 100 3000 0.51 0 12:51 27.03.2021
994 Drizzle 19 1011 100 3000 1.03 0 11:59 27.03.2021
995 Drizzle 19 1011 100 3000 1.03 0 11:39 27.03.2021
996 Drizzle 19 1011 100 3000 1.03 0 11:19 27.03.2021
997 Clouds 19 1010 94 10000 1.54 190 10:42 27.03.2021
998 Clouds 19 1010 94 10000 1.54 190 10:22 27.03.2021
999 Clouds 19 1010 88 10000 1.54 190 09:22 27.03.2021
1000 Clouds 19 1011 88 10000 1.03 0 08:42 27.03.2021
1001 Clouds 19 1011 88 10000 1.03 0 08:18 27.03.2021
1002 Clouds 19 1011 88 10000 1.54 230 07:31 27.03.2021
1003 Clouds 19 1011 88 10000 1.54 210 06:43 27.03.2021
1004 Clouds 19 1011 94 8000 2.06 160 04:42 27.03.2021
1005 Clouds 20 1011 88 10000 2.06 200 03:29 27.03.2021
1006 Clouds 22 1009 78 10000 2.06 240 00:45 27.03.2021
1007 Clouds 22 1009 78 10000 2.06 240 00:26 27.03.2021
1008 Clouds 23 1009 88 10000 1.54 40 23:38 26.03.2021
1009 Clouds 23 1008 83 10000 1.54 350 22:45 26.03.2021
1010 Clouds 24 1008 83 10000 1.54 350 22:24 26.03.2021
1011 Clouds 24 1008 83 10000 2.57 340 21:25 26.03.2021
1012 Clouds 23 1009 88 10000 2.57 20 20:58 26.03.2021
1013 Clouds 23 1009 88 10000 2.57 20 20:58 26.03.2021
1014 Clouds 24 1009 88 10000 2.57 20 20:31 26.03.2021
1015 Clouds 23 1010 88 10000 3.09 60 19:53 26.03.2021
1016 Clouds 23 1010 88 10000 3.09 60 19:34 26.03.2021
1017 Clouds 23 1010 88 10000 3.09 70 18:55 26.03.2021
1018 Clouds 23 1010 88 10000 3.09 70 18:55 26.03.2021
1019 Clouds 23 1010 88 10000 3.09 70 18:36 26.03.2021
1020 Clouds 23 1010 88 10000 3.09 70 18:18 26.03.2021
1021 Clouds 23 1011 88 10000 3.6 70 17:41 26.03.2021
1022 Clouds 22 1011 88 10000 4.63 100 16:50 26.03.2021
1023 Clouds 23 1011 88 10000 4.63 100 16:23 26.03.2021
1024 Clouds 23 1011 88 10000 4.63 110 15:42 26.03.2021
1025 Clouds 22 1010 83 10000 4.12 120 14:50 26.03.2021
1026 Clouds 22 1010 88 10000 4.63 120 13:52 26.03.2021
1027 Clouds 22 1010 88 10000 4.63 120 13:52 26.03.2021
1028 Clouds 21 1010 88 10000 4.63 120 13:33 26.03.2021
1029 Clouds 20 1010 94 5000 1.54 120 12:40 26.03.2021
1030 Clouds 19 1010 94 10000 1.03 0 11:49 26.03.2021
1031 Clouds 19 1010 94 10000 1.03 0 11:31 26.03.2021
1032 Clouds 19 1010 94 10000 1.03 0 11:31 26.03.2021
1033 Clouds 20 1010 94 10000 1.03 0 10:44 26.03.2021
1034 Clouds 20 1010 94 10000 1.03 0 10:23 26.03.2021
1035 Clouds 20 1010 94 10000 1.03 0 10:23 26.03.2021
1036 Clouds 19 1010 94 10000 1.03 280 09:41 26.03.2021
1037 Clear 19 1010 100 10000 1.54 230 08:49 26.03.2021
1038 Clear 19 1010 100 10000 1.54 230 08:31 26.03.2021
1039 Clear 19 1011 94 10000 1.03 300 07:57 26.03.2021
1040 Clear 19 1011 94 10000 1.03 300 07:22 26.03.2021
1041 Clear 19 1011 94 10000 0.51 0 06:56 26.03.2021
1042 Clear 20 1011 88 10000 2.06 330 05:32 26.03.2021
1043 Clouds 20 1011 88 10000 1.54 60 04:18 26.03.2021
1044 Clouds 21 1010 88 10000 2.57 50 00:52 26.03.2021
1045 Rain 21 1010 88 10000 4.12 40 23:53 25.03.2021
1046 Rain 21 1010 88 10000 4.12 40 23:33 25.03.2021
1047 Rain 20 1011 88 10000 6.69 360 22:41 25.03.2021
1048 Rain 21 1011 88 10000 6.69 360 22:19 25.03.2021
1049 Rain 21 1011 88 10000 6.69 360 22:19 25.03.2021
1050 Clouds 20 1011 94 10000 6.17 360 21:45 25.03.2021
1051 Rain 21 1011 94 10000 6.17 360 21:24 25.03.2021
1052 Rain 21 1011 94 6000 5.66 360 20:38 25.03.2021
1053 Rain 21 1011 94 6000 5.66 360 20:18 25.03.2021
1054 Rain 21 1008 88 9000 8.23 50 19:40 25.03.2021
1055 Rain 21 1008 88 9000 8.23 50 19:21 25.03.2021
1056 Rain 21 1008 88 9000 8.75 50 18:44 25.03.2021
1057 Rain 21 1009 94 4000 9.26 50 18:25 25.03.2021
1058 Rain 21 1010 94 9000 9.26 70 17:40 25.03.2021
1059 Rain 21 1010 94 9000 9.26 70 17:21 25.03.2021
1060 Rain 21 1013 94 7000 8.75 70 16:37 25.03.2021
1061 Rain 21 1013 94 4000 9.26 60 16:19 25.03.2021
1062 Rain 21 1013 94 3000 9.26 60 15:41 25.03.2021
1063 Rain 21 1013 94 3000 9.26 60 15:19 25.03.2021
1064 Rain 21 1013 100 3000 6.69 60 14:41 25.03.2021
1065 Rain 21 1013 100 3000 5.66 60 13:38 25.03.2021
1066 Rain 21 1013 100 3000 5.66 60 13:19 25.03.2021
1067 Rain 21 1013 94 5000 5.14 70 12:37 25.03.2021
1068 Rain 21 1013 94 5000 5.14 70 12:18 25.03.2021
1069 Rain 21 1012 94 3000 7.2 60 11:44 25.03.2021
1070 Rain 21 1012 94 3000 7.72 70 11:26 25.03.2021
1071 Rain 21 1012 94 3000 7.72 70 11:26 25.03.2021
1072 Rain 21 1012 94 5000 7.2 90 10:49 25.03.2021
1073 Rain 20 1012 94 8000 6.69 100 10:22 25.03.2021
1074 Rain 20 1012 100 7000 7.72 100 09:53 25.03.2021
1075 Rain 20 1012 100 7000 7.72 100 09:35 25.03.2021
1076 Rain 20 1012 100 7000 7.72 100 09:35 25.03.2021
1077 Rain 21 1013 94 2000 3.6 140 08:37 25.03.2021
1078 Rain 20 1013 94 8000 4.12 100 07:51 25.03.2021
1079 Rain 21 1014 88 9000 2.57 50 06:57 25.03.2021
1080 Rain 21 1014 88 9000 2.57 50 06:24 25.03.2021
1081 Rain 21 1015 94 8000 4.12 70 05:46 25.03.2021
1082 Clear 24 1014 83 10000 4.63 110 02:28 25.03.2021
1083 Clear 23 1014 78 10000 3.09 100 00:20 25.03.2021
1084 Clouds 23 1015 88 10000 4.12 340 23:42 24.03.2021
1085 Clouds 23 1015 88 10000 4.12 340 23:23 24.03.2021
1086 Clouds 24 1014 78 10000 3.09 80 22:40 24.03.2021
1087 Clouds 25 1014 69 10000 1.03 0 21:59 24.03.2021
1088 Clouds 25 1014 69 10000 1.03 0 21:39 24.03.2021
1089 Clouds 26 1014 69 10000 1.03 0 21:19 24.03.2021
1090 Clouds 26 1015 69 10000 1.54 20 20:41 24.03.2021
1091 Clouds 26 1015 69 10000 1.54 20 20:19 24.03.2021
1092 Clouds 26 1015 73 10000 3.6 20 19:34 24.03.2021
1093 Clouds 27 1016 73 10000 3.09 30 18:56 24.03.2021
1094 Clouds 27 1016 73 10000 3.09 30 18:38 24.03.2021
1095 Clouds 26 1016 73 10000 3.09 30 18:19 24.03.2021
1096 Clouds 26 1017 69 10000 3.09 20 17:33 24.03.2021
1097 Clear 25 1017 73 10000 3.09 10 16:59 24.03.2021
1098 Clear 25 1017 73 10000 3.09 10 16:40 24.03.2021
1099 Clear 25 1017 73 10000 3.09 10 16:19 24.03.2021
1100 Clear 24 1018 73 10000 3.6 360 15:41 24.03.2021
1101 Clear 24 1018 73 10000 3.6 360 15:20 24.03.2021
1102 Clouds 23 1018 83 10000 3.09 10 14:30 24.03.2021
1103 Clouds 22 1018 83 10000 3.6 10 13:59 24.03.2021
1104 Clouds 22 1018 83 10000 3.6 10 13:28 24.03.2021
1105 Clouds 22 1017 83 10000 3.6 360 12:52 24.03.2021
1106 Clouds 21 1017 83 10000 3.6 360 12:32 24.03.2021
1107 Clear 21 1016 83 10000 2.57 20 11:57 24.03.2021
1108 Clear 20 1016 83 10000 2.57 20 11:39 24.03.2021
1109 Clear 20 1016 83 10000 3.6 360 10:49 24.03.2021
1110 Clear 20 1016 83 10000 3.6 360 10:31 24.03.2021
1111 Clear 20 1015 83 10000 2.57 10 09:55 24.03.2021
1112 Clear 20 1015 83 10000 2.57 10 09:55 24.03.2021
1113 Clear 20 1015 83 10000 2.57 10 09:31 24.03.2021
1114 Rain 20 1015 83 10000 1.54 360 08:57 24.03.2021
1115 Rain 20 1015 83 10000 1.54 360 08:38 24.03.2021
1116 Clear 20 1016 88 10000 2.06 80 07:49 24.03.2021
1117 Clear 20 1016 88 10000 2.06 80 07:19 24.03.2021
1118 Clear 21 1016 83 10000 3.6 70 06:43 24.03.2021
1119 Clear 22 1016 73 10000 4.12 90 02:18 24.03.2021
1120 Clear 22 1015 68 10000 3.09 90 00:40 24.03.2021
1121 Clear 22 1015 68 10000 3.09 90 23:46 23.03.2021
1122 Clear 22 1015 68 10000 3.09 90 23:19 23.03.2021
1123 Clear 23 1015 56 10000 3.09 80 22:47 23.03.2021
1124 Clear 24 1015 56 10000 3.09 80 22:24 23.03.2021
1125 Clear 24 1015 56 10000 2.57 70 21:45 23.03.2021
1126 Clear 24 1015 56 10000 2.57 70 21:25 23.03.2021
1127 Clear 25 1016 64 10000 3.09 50 20:44 23.03.2021
1128 Clear 25 1016 64 10000 3.09 50 20:25 23.03.2021
1129 Clouds 25 1016 64 10000 3.09 60 19:47 23.03.2021
1130 Clouds 25 1016 64 10000 3.09 60 19:25 23.03.2021
1131 Clouds 25 1017 73 10000 3.09 50 18:43 23.03.2021
1132 Clouds 25 1017 73 10000 3.09 50 18:22 23.03.2021
1133 Clouds 24 1018 78 10000 3.09 50 17:45 23.03.2021
1134 Clouds 24 1018 78 10000 3.09 50 17:21 23.03.2021
1135 Clouds 24 1018 78 9000 3.6 70 16:39 23.03.2021
1136 Clouds 23 1018 78 9000 3.6 70 16:19 23.03.2021
1137 Clouds 23 1018 73 8000 3.09 60 15:38 23.03.2021
1138 Mist 23 1018 68 4000 1.54 60 14:52 23.03.2021
1139 Mist 22 1018 68 4000 1.54 60 14:21 23.03.2021
1140 Mist 21 1018 78 4000 1.54 180 13:50 23.03.2021
1141 Rain 21 1018 78 4000 1.54 180 13:27 23.03.2021
1142 Rain 20 1018 83 4000 1.03 0 12:59 23.03.2021
1143 Rain 19 1018 88 7000 1.03 0 12:39 23.03.2021
1144 Rain 18 1018 88 7000 1.03 0 12:19 23.03.2021
1145 Clear 17 1018 94 10000 1.03 0 11:42 23.03.2021
1146 Clear 17 1018 94 10000 1.54 210 10:44 23.03.2021
1147 Clear 17 1018 94 10000 1.54 210 10:23 23.03.2021
1148 Clear 17 1017 94 10000 0.84 44 09:58 23.03.2021
1149 Clear 17 1017 94 10000 0.84 44 09:36 23.03.2021
1150 Clear 18 1017 94 10000 1.14 45 09:18 23.03.2021
1151 Clear 18 1018 82 10000 1.54 70 08:39 23.03.2021
1152 Clear 18 1018 82 10000 1.54 70 08:20 23.03.2021
1153 Clear 18 1018 88 10000 1.88 77 07:28 23.03.2021
1154 Clear 18 1019 88 10000 1.84 78 06:59 23.03.2021
1155 Clear 18 1019 88 10000 1.49 76 06:23 23.03.2021
1156 Clear 20 1019 77 10000 1.03 0 03:21 23.03.2021
1157 Rain 21 1019 60 10000 3.6 120 00:56 23.03.2021
1158 Clear 22 1019 52 10000 3.09 130 23:33 22.03.2021
1159 Clear 23 1019 49 10000 2.06 170 22:46 22.03.2021
1160 Clear 23 1019 49 10000 2.06 170 22:23 22.03.2021
1161 Clear 23 1020 49 10000 1.03 0 21:52 22.03.2021
1162 Clear 23 1020 49 10000 1.03 0 21:29 22.03.2021
1163 Rain 23 1020 56 10000 2.06 70 20:57 22.03.2021
1164 Rain 23 1020 56 10000 2.06 70 20:37 22.03.2021
1165 Rain 23 1020 56 10000 2.06 70 20:18 22.03.2021
1166 Rain 23 1020 60 10000 1.03 0 19:40 22.03.2021
1167 Clouds 23 1020 60 10000 1.03 0 19:21 22.03.2021
1168 Clouds 23 1020 60 10000 1.03 0 19:21 22.03.2021
1169 Rain 23 1021 73 10000 1.54 20 18:42 22.03.2021
1170 Rain 23 1021 73 10000 1.54 20 18:23 22.03.2021
1171 Clouds 23 1021 73 10000 2.06 70 17:51 22.03.2021
1172 Clouds 23 1021 73 10000 2.06 70 17:23 22.03.2021
1173 Clouds 22 1021 68 10000 5.14 90 16:58 22.03.2021
1174 Clouds 22 1021 68 10000 5.14 90 16:40 22.03.2021
1175 Clouds 21 1022 83 10000 4.63 110 15:55 22.03.2021
1176 Clouds 21 1022 83 10000 4.63 110 15:37 22.03.2021
1177 Clouds 21 1022 83 10000 4.63 110 15:18 22.03.2021
1178 Clouds 21 1022 83 10000 4.63 110 15:18 22.03.2021
1179 Clouds 20 1022 82 10000 4.12 110 14:44 22.03.2021
1180 Clouds 20 1022 82 10000 4.12 110 14:24 22.03.2021
1181 Clouds 19 1022 82 9000 3.6 120 13:38 22.03.2021
1182 Clouds 18 1022 82 9000 3.6 120 13:18 22.03.2021
1183 Clouds 17 1022 88 9000 2.57 120 12:41 22.03.2021
1184 Clouds 16 1022 88 9000 2.57 120 12:19 22.03.2021
1185 Clouds 15 1021 88 9000 1.03 0 11:44 22.03.2021
1186 Clouds 15 1021 88 9000 1.03 0 11:21 22.03.2021
1187 Clouds 15 1021 82 10000 1.54 170 10:43 22.03.2021
1188 Clouds 15 1021 82 10000 1.54 170 10:22 22.03.2021
1189 Clouds 15 1021 88 10000 1.54 170 09:37 22.03.2021
1190 Clouds 15 1021 82 10000 1.54 170 08:59 22.03.2021
1191 Clouds 15 1021 82 10000 1.54 170 08:41 22.03.2021
1192 Clouds 15 1021 82 10000 1.54 170 08:23 22.03.2021
1193 Clear 16 1021 82 10000 1.54 160 07:43 22.03.2021
1194 Clear 16 1021 77 10000 3.09 140 06:52 22.03.2021
1195 Clear 17 1021 77 10000 4.12 140 05:24 22.03.2021
1196 Clouds 19 1021 73 10000 7.2 110 01:40 22.03.2021
1197 Clouds 20 1021 83 10000 5.66 100 00:21 22.03.2021
1198 Clouds 20 1020 83 10000 5.14 100 23:52 21.03.2021
1199 Clouds 21 1020 83 10000 5.14 100 23:19 21.03.2021
1200 Clouds 21 1020 78 10000 3.6 80 22:54 21.03.2021
1201 Clouds 23 1020 68 10000 5.14 100 21:45 21.03.2021
1202 Clouds 23 1020 68 10000 5.14 100 21:27 21.03.2021
1203 Clouds 24 1020 60 10000 3.6 100 20:58 21.03.2021
1204 Clouds 24 1020 60 10000 3.6 100 20:39 21.03.2021
1205 Clouds 24 1020 60 10000 3.6 100 20:21 21.03.2021
1206 Clouds 24 1020 60 10000 2.06 0 19:49 21.03.2021
1207 Clouds 23 1020 60 10000 2.06 0 19:20 21.03.2021
1208 Clouds 23 1020 64 10000 2.57 0 18:45 21.03.2021
1209 Clouds 22 1020 64 10000 2.57 0 18:26 21.03.2021
1210 Clouds 23 1021 64 10000 2.06 0 17:44 21.03.2021
1211 Clouds 22 1021 64 10000 2.06 0 17:19 21.03.2021
1212 Clouds 22 1021 68 10000 2.57 200 16:51 21.03.2021
1213 Clouds 21 1021 68 10000 2.57 200 16:27 21.03.2021
1214 Clouds 20 1021 72 10000 2.06 200 15:49 21.03.2021
1215 Clouds 20 1021 72 10000 2.06 200 15:22 21.03.2021
1216 Clouds 19 1020 77 10000 2.57 200 14:56 21.03.2021
1217 Clouds 19 1020 77 10000 2.57 200 14:38 21.03.2021
1218 Clouds 18 1020 77 10000 2.57 200 14:19 21.03.2021
1219 Clouds 18 1019 77 10000 3.09 180 13:51 21.03.2021
1220 Clouds 16 1019 82 10000 2.57 170 12:45 21.03.2021
1221 Clouds 16 1019 88 8000 3.09 180 12:25 21.03.2021
1222 Clouds 16 1018 94 10000 3.6 190 11:44 21.03.2021
1223 Clouds 16 1018 94 10000 3.6 190 11:26 21.03.2021
1224 Clear 16 1018 88 10000 3.09 190 10:48 21.03.2021
1225 Clear 16 1018 88 10000 3.09 190 10:29 21.03.2021
1226 Clear 16 1017 94 10000 1.03 0 09:51 21.03.2021
1227 Clear 16 1017 94 10000 1.03 0 09:32 21.03.2021
1228 Clouds 17 1017 88 10000 1.54 210 08:59 21.03.2021
1229 Clouds 17 1017 88 10000 1.54 210 08:36 21.03.2021
1230 Clouds 17 1017 88 10000 1.54 210 08:18 21.03.2021
1231 Clear 17 1017 88 10000 1.03 0 07:29 21.03.2021
1232 Clear 17 1017 88 10000 1.03 0 06:21 21.03.2021
1233 Rain 17 1016 88 10000 1.03 0 04:52 21.03.2021
1234 Clear 19 1013 77 10000 3.09 200 00:58 21.03.2021
1235 Clear 19 1013 77 10000 3.09 200 00:38 21.03.2021
1236 Rain 19 1013 77 10000 3.09 200 00:20 21.03.2021
1237 Clouds 19 1014 77 10000 3.09 200 23:45 20.03.2021
1238 Clouds 19 1014 77 10000 3.09 200 23:19 20.03.2021
1239 Clouds 20 1013 77 10000 2.06 210 22:24 20.03.2021
1240 Clouds 20 1013 83 10000 2.06 200 21:49 20.03.2021
1241 Rain 20 1013 83 10000 2.06 200 21:27 20.03.2021
1242 Rain 20 1012 77 10000 2.06 200 20:50 20.03.2021
1243 Clouds 20 1012 77 10000 2.06 200 20:25 20.03.2021
1244 Clouds 20 1012 77 10000 2.06 200 20:25 20.03.2021
1245 Clouds 19 1012 88 10000 2.57 190 19:56 20.03.2021
1246 Rain 19 1012 88 10000 2.57 190 19:38 20.03.2021
1247 Rain 19 1012 82 10000 3.09 150 19:20 20.03.2021
1248 Rain 18 1012 88 10000 2.57 170 18:44 20.03.2021
1249 Rain 18 1012 88 10000 2.57 170 18:21 20.03.2021
1250 Rain 17 1012 94 5000 3.09 170 17:43 20.03.2021
1251 Rain 17 1012 94 5000 3.09 170 17:22 20.03.2021
1252 Rain 17 1013 94 5000 4.12 190 16:43 20.03.2021
1253 Rain 17 1013 94 5000 4.12 190 16:19 20.03.2021
1254 Rain 18 1013 94 4000 1.03 0 15:44 20.03.2021
1255 Rain 18 1013 94 4000 1.03 0 15:25 20.03.2021
1256 Rain 19 1012 88 5000 2.06 80 14:40 20.03.2021
1257 Rain 19 1012 88 5000 2.06 80 14:19 20.03.2021
1258 Rain 19 1012 88 8000 2.57 90 13:31 20.03.2021
1259 Clouds 19 1012 83 8000 5.14 70 12:41 20.03.2021
1260 Rain 19 1012 83 8000 5.14 70 12:23 20.03.2021
1261 Rain 19 1012 83 8000 5.14 70 12:23 20.03.2021
1262 Rain 19 1012 83 3000 6.69 100 11:43 20.03.2021
1263 Rain 19 1012 83 3000 6.69 100 11:22 20.03.2021
1264 Rain 19 1012 83 7000 8.23 100 10:46 20.03.2021
1265 Rain 19 1012 83 7000 8.23 100 10:24 20.03.2021
1266 Rain 18 1012 88 10000 4.12 130 09:48 20.03.2021
1267 Clear 18 1012 88 10000 4.12 130 09:23 20.03.2021
1268 Rain 18 1013 94 10000 4.12 110 08:53 20.03.2021
1269 Rain 18 1013 94 10000 4.12 110 08:19 20.03.2021
1270 Rain 18 1013 94 8000 4.12 90 07:48 20.03.2021
1271 Rain 18 1013 88 5000 6.69 80 07:29 20.03.2021
1272 Rain 20 1014 77 8000 6.17 80 06:40 20.03.2021
1273 Clouds 21 1014 73 9000 6.17 80 05:28 20.03.2021
1274 Rain 21 1014 73 10000 7.72 100 03:44 20.03.2021
1275 Clear 21 1013 78 10000 9.26 110 01:42 20.03.2021
1276 Clear 20 1013 64 10000 9.26 110 23:46 19.03.2021
1277 Rain 21 1013 64 10000 9.26 110 23:19 19.03.2021
1278 Rain 21 1014 60 9000 6.69 110 22:43 19.03.2021
1279 Rain 21 1014 60 9000 6.69 110 22:22 19.03.2021
1280 Rain 22 1014 64 10000 5.14 100 21:42 19.03.2021
1281 Clear 22 1014 64 10000 5.14 100 21:20 19.03.2021
1282 Clear 22 1014 56 10000 4.12 100 20:45 19.03.2021
1283 Clear 23 1014 56 10000 4.12 100 20:26 19.03.2021
1284 Clear 22 1015 60 10000 2.06 60 19:48 19.03.2021
1285 Clear 22 1015 60 10000 2.06 60 19:22 19.03.2021
1286 Clouds 22 1016 64 9000 2.06 70 18:49 19.03.2021
1287 Clouds 22 1016 64 9000 2.06 70 18:49 19.03.2021
1288 Clouds 22 1016 64 9000 2.06 70 18:27 19.03.2021
1289 Clear 22 1016 64 10000 3.09 70 17:58 19.03.2021
1290 Clear 21 1016 64 10000 3.09 70 17:38 19.03.2021
1291 Clear 21 1016 64 10000 3.09 70 17:38 19.03.2021
1292 Clear 21 1016 64 10000 3.09 70 17:18 19.03.2021
1293 Clear 21 1017 68 10000 3.09 40 16:43 19.03.2021
1294 Clear 21 1017 68 10000 3.09 40 16:23 19.03.2021
1295 Clear 20 1018 63 10000 3.6 30 15:33 19.03.2021
1296 Clear 19 1018 68 10000 3.6 40 14:51 19.03.2021
1297 Clear 19 1018 68 10000 3.6 40 14:33 19.03.2021
1298 Clouds 19 1018 68 10000 4.63 60 13:50 19.03.2021
1299 Clouds 19 1018 68 10000 4.63 60 13:19 19.03.2021
1300 Clear 18 1018 63 10000 3.6 50 12:42 19.03.2021
1301 Clear 17 1018 63 10000 3.6 50 12:18 19.03.2021
1302 Clear 15 1018 59 10000 3.6 50 11:26 19.03.2021
1303 Clear 15 1018 59 10000 3.09 50 10:43 19.03.2021
1304 Clear 15 1018 59 10000 3.09 50 10:21 19.03.2021
1305 Clear 15 1017 63 10000 3.09 70 09:44 19.03.2021
1306 Clear 15 1017 63 10000 3.09 70 09:24 19.03.2021
1307 Clouds 16 1017 67 10000 1.54 120 08:51 19.03.2021
1308 Clouds 16 1017 67 10000 1.54 120 08:26 19.03.2021
1309 Clear 16 1018 63 10000 1.54 0 07:44 19.03.2021
1310 Clear 16 1018 63 10000 1.54 0 07:24 19.03.2021
1311 Clear 16 1018 59 10000 1.54 210 05:27 19.03.2021
1312 Clear 18 1017 55 10000 1.03 0 00:59 19.03.2021
1313 Clear 18 1018 55 10000 2.57 350 23:54 18.03.2021
1314 Clear 18 1018 55 10000 2.57 350 23:28 18.03.2021
1315 Clear 19 1017 55 10000 2.57 10 22:46 18.03.2021
1316 Clear 19 1017 55 10000 2.57 10 22:25 18.03.2021
1317 Clouds 20 1017 55 10000 2.57 20 21:44 18.03.2021
1318 Clouds 20 1017 55 10000 2.57 20 21:25 18.03.2021
1319 Clouds 20 1018 52 10000 3.6 360 20:39 18.03.2021
1320 Clouds 20 1018 52 10000 3.6 360 20:20 18.03.2021
1321 Clouds 19 1018 55 10000 4.12 360 19:42 18.03.2021
1322 Clouds 20 1018 55 10000 4.12 360 19:22 18.03.2021
1323 Clouds 19 1018 48 10000 2.06 0 18:41 18.03.2021
1324 Clouds 19 1019 45 10000 2.06 210 17:55 18.03.2021
1325 Clouds 19 1019 45 10000 2.06 210 17:27 18.03.2021
1326 Clouds 18 1020 48 10000 2.57 0 16:54 18.03.2021
1327 Clouds 18 1020 48 10000 2.57 0 16:35 18.03.2021
1328 Clear 17 1020 59 10000 2.06 200 15:58 18.03.2021
1329 Clear 17 1020 59 10000 2.06 200 15:58 18.03.2021
1330 Clear 16 1020 59 10000 2.06 200 15:40 18.03.2021
1331 Clear 16 1020 59 10000 2.06 200 15:18 18.03.2021
1332 Clear 15 1020 63 10000 2.57 190 14:41 18.03.2021
1333 Clear 15 1020 63 10000 2.57 190 14:18 18.03.2021
1334 Clear 14 1020 67 10000 2.06 0 13:37 18.03.2021
1335 Clear 13 1020 67 10000 2.06 0 13:19 18.03.2021
1336 Clear 12 1020 71 10000 2.57 180 12:37 18.03.2021
1337 Clear 12 1020 71 10000 2.57 180 12:18 18.03.2021
1338 Clear 11 1019 71 10000 3.6 190 11:40 18.03.2021
1339 Clear 11 1019 71 10000 3.6 190 10:57 18.03.2021
1340 Clear 11 1019 71 10000 3.6 190 10:57 18.03.2021
1341 Clear 11 1019 71 10000 3.6 190 10:57 18.03.2021
1342 Clear 11 1019 71 10000 3.6 190 10:38 18.03.2021
1343 Clear 11 1019 71 10000 3.6 190 10:20 18.03.2021
1344 Clear 11 1019 76 10000 4.12 190 09:30 18.03.2021
1345 Clear 11 1019 71 10000 3.6 190 08:59 18.03.2021
1346 Clear 11 1019 71 10000 3.6 190 08:41 18.03.2021
1347 Clear 12 1019 71 10000 3.6 190 08:23 18.03.2021
1348 Clear 12 1020 71 10000 3.09 200 07:43 18.03.2021
1349 Clear 12 1020 71 10000 4.12 190 06:40 18.03.2021
1350 Clear 13 1020 71 10000 4.12 190 06:22 18.03.2021
1351 Clear 13 1020 67 10000 2.57 170 05:25 18.03.2021
1352 Clouds 17 1018 59 10000 2.57 180 00:40 18.03.2021
1353 Clouds 18 1017 63 10000 4.12 180 23:19 17.03.2021
1354 Clouds 18 1017 63 10000 6.17 180 22:38 17.03.2021
1355 Clouds 18 1017 63 10000 6.17 180 22:20 17.03.2021
1356 Clouds 18 1016 63 10000 5.66 180 21:49 17.03.2021
1357 Clouds 19 1016 63 10000 5.66 180 21:30 17.03.2021
1358 Clouds 19 1015 68 10000 5.14 180 20:48 17.03.2021
1359 Clouds 19 1015 68 10000 5.14 180 20:26 17.03.2021
1360 Clouds 19 1015 68 10000 6.17 190 19:58 17.03.2021
1361 Clouds 19 1015 68 10000 6.17 190 19:58 17.03.2021
1362 Clouds 19 1015 68 10000 6.17 190 19:36 17.03.2021
1363 Clouds 19 1015 68 10000 6.17 190 19:18 17.03.2021
1364 Clouds 20 1015 64 10000 5.66 190 18:41 17.03.2021
1365 Clouds 19 1014 77 10000 6.17 190 17:59 17.03.2021
1366 Clouds 19 1014 77 10000 6.17 190 17:32 17.03.2021
1367 Clouds 19 1014 73 10000 6.17 180 16:57 17.03.2021
1368 Clouds 19 1014 73 10000 6.17 180 16:38 17.03.2021
1369 Clouds 19 1013 68 10000 5.14 180 16:19 17.03.2021
1370 Clouds 19 1012 77 10000 5.66 170 15:40 17.03.2021
1371 Drizzle 18 1012 88 9000 4.63 180 14:46 17.03.2021
1372 Drizzle 18 1012 88 9000 4.63 180 14:28 17.03.2021
1373 Drizzle 18 1011 88 2000 4.63 180 13:58 17.03.2021
1374 Rain 18 1011 88 5000 4.12 180 13:40 17.03.2021
1375 Drizzle 18 1010 88 3000 4.63 180 13:18 17.03.2021
1376 Drizzle 18 1009 88 9000 5.14 180 12:35 17.03.2021
1377 Rain 18 1009 94 1500 5.14 180 11:54 17.03.2021
1378 Drizzle 19 1008 82 5000 5.66 180 11:27 17.03.2021
1379 Clouds 19 1006 88 10000 4.63 180 10:59 17.03.2021
1380 Clouds 19 1006 88 10000 4.63 180 10:40 17.03.2021
1381 Clouds 19 1005 88 10000 3.6 200 09:59 17.03.2021
1382 Clouds 19 1005 88 10000 3.6 200 09:41 17.03.2021
1383 Clouds 19 1005 88 10000 3.6 200 09:20 17.03.2021
1384 Clouds 19 1004 88 10000 2.57 200 08:43 17.03.2021
1385 Clouds 19 1004 88 10000 2.57 200 08:24 17.03.2021
1386 Clouds 19 1004 88 10000 2.57 260 07:37 17.03.2021
1387 Clouds 19 1005 83 10000 3.6 270 06:47 17.03.2021
1388 Clouds 21 1005 88 10000 4.63 310 04:27 17.03.2021
1389 Clouds 21 1005 88 10000 4.12 320 03:30 17.03.2021
1390 Clouds 22 1005 83 10000 2.57 350 00:43 17.03.2021
1391 Clouds 22 1005 83 10000 2.57 350 00:20 17.03.2021
1392 Clouds 22 1005 78 10000 4.63 360 23:22 16.03.2021
1393 Drizzle 22 1005 83 7000 4.12 20 22:43 16.03.2021
1394 Drizzle 22 1005 83 7000 4.12 20 22:25 16.03.2021
1395 Clouds 22 1005 88 10000 3.6 50 21:42 16.03.2021
1396 Clouds 22 1005 88 10000 3.6 50 21:24 16.03.2021
1397 Rain 22 1006 83 9000 4.63 60 20:47 16.03.2021
1398 Rain 22 1006 83 9000 4.63 60 20:19 16.03.2021
1399 Rain 22 1006 83 9000 4.63 60 20:19 16.03.2021
1400 Rain 22 1007 83 9000 3.6 50 19:46 16.03.2021
1401 Rain 22 1007 83 9000 3.6 50 19:27 16.03.2021
1402 Rain 22 1008 83 7000 4.63 350 18:52 16.03.2021
1403 Rain 22 1008 83 7000 4.63 350 18:30 16.03.2021
1404 Rain 23 1009 73 5000 3.6 10 17:51 16.03.2021
1405 Rain 23 1009 73 5000 3.6 10 17:33 16.03.2021
1406 Rain 23 1009 73 10000 3.09 20 16:54 16.03.2021
1407 Rain 23 1009 73 10000 3.09 20 16:54 16.03.2021
1408 Rain 23 1009 73 10000 3.09 20 16:54 16.03.2021
1409 Rain 23 1009 73 10000 3.09 20 16:54 16.03.2021
1410 Clouds 23 1009 73 10000 3.09 20 16:54 16.03.2021
1411 Rain 23 1009 73 10000 3.09 20 16:54 16.03.2021
1412 Rain 23 1009 73 10000 3.09 20 16:31 16.03.2021
1413 Rain 24 1010 73 10000 3.09 30 15:58 16.03.2021
1414 Rain 23 1010 73 10000 3.09 30 15:37 16.03.2021
1415 Clouds 23 1010 73 10000 3.09 30 15:19 16.03.2021
1416 Clouds 23 1010 73 10000 3.09 30 15:19 16.03.2021
1417 Clouds 22 1011 78 9000 3.6 10 14:41 16.03.2021
1418 Rain 22 1011 78 9000 3.6 10 14:22 16.03.2021
1419 Rain 22 1010 78 10000 3.6 30 13:58 16.03.2021
1420 Rain 22 1010 78 10000 3.6 30 13:29 16.03.2021
1421 Rain 23 1010 78 10000 5.14 50 12:56 16.03.2021
1422 Rain 23 1010 78 10000 5.14 50 12:56 16.03.2021
1423 Rain 23 1010 78 10000 5.14 50 12:36 16.03.2021
1424 Rain 22 1009 83 10000 5.66 60 11:56 16.03.2021
1425 Rain 22 1009 83 10000 5.66 60 11:32 16.03.2021
1426 Clear 22 1009 78 10000 5.14 60 10:46 16.03.2021
1427 Clear 22 1009 78 10000 5.14 60 10:21 16.03.2021
1428 Clear 22 1009 78 10000 5.14 60 09:40 16.03.2021
1429 Clear 23 1009 78 10000 5.14 60 09:20 16.03.2021
1430 Clear 23 1010 73 10000 5.14 50 08:52 16.03.2021
1431 Clear 23 1010 73 10000 5.14 50 08:33 16.03.2021
1432 Clear 23 1010 69 10000 6.69 60 07:50 16.03.2021
1433 Clear 23 1010 73 10000 5.66 60 06:57 16.03.2021
1434 Clear 24 1010 73 10000 5.66 60 06:37 16.03.2021
1435 Clear 24 1011 69 10000 4.12 60 05:35 16.03.2021
1436 Rain 22 1013 88 9000 4.63 120 02:46 16.03.2021
1437 Rain 22 1013 88 9000 4.63 120 02:25 16.03.2021
1438 Rain 24 1013 64 10000 3.09 110 00:25 16.03.2021
1439 Rain 25 1013 64 10000 3.09 100 23:29 15.03.2021
1440 Rain 25 1013 64 10000 3.09 110 22:57 15.03.2021
1441 Clear 25 1013 64 10000 3.09 110 22:38 15.03.2021
1442 Rain 25 1013 64 10000 3.09 110 22:20 15.03.2021
1443 Rain 26 1013 57 10000 2.57 70 21:44 15.03.2021
1444 Rain 26 1013 57 10000 2.57 70 21:26 15.03.2021
1445 Clear 27 1013 57 10000 1.03 0 20:45 15.03.2021
1446 Clear 27 1013 57 10000 1.03 0 20:26 15.03.2021
1447 Rain 27 1014 61 10000 1.54 40 19:56 15.03.2021
1448 Rain 27 1014 61 10000 1.54 40 19:35 15.03.2021
1449 Rain 26 1015 64 10000 2.06 70 18:58 15.03.2021
1450 Clear 26 1015 64 10000 2.06 70 18:33 15.03.2021
1451 Rain 26 1016 64 10000 3.09 40 17:57 15.03.2021
1452 Clear 26 1016 64 10000 3.09 40 17:39 15.03.2021
1453 Clear 26 1016 64 10000 3.09 40 17:21 15.03.2021
1454 Clear 26 1016 78 10000 3.6 20 16:42 15.03.2021
1455 Rain 25 1016 73 10000 4.12 20 15:55 15.03.2021
1456 Clear 25 1016 73 10000 4.12 20 15:28 15.03.2021
1457 Clear 25 1016 73 10000 4.12 20 15:28 15.03.2021
1458 Clear 24 1016 73 10000 4.63 360 14:47 15.03.2021
1459 Clear 23 1016 73 10000 4.63 360 14:28 15.03.2021
1460 Clear 24 1016 73 10000 4.12 360 13:59 15.03.2021
1461 Clear 23 1016 73 10000 4.12 360 13:35 15.03.2021
1462 Clear 23 1016 73 10000 4.12 20 12:51 15.03.2021
1463 Clear 22 1016 73 10000 4.12 20 12:21 15.03.2021
1464 Clear 22 1016 73 10000 4.63 10 11:59 15.03.2021
1465 Clear 22 1016 73 10000 4.63 10 11:40 15.03.2021
1466 Clear 22 1016 73 10000 4.63 10 11:21 15.03.2021
1467 Clear 22 1016 83 10000 6.17 20 10:39 15.03.2021
1468 Clear 22 1016 83 10000 6.17 20 10:21 15.03.2021
1469 Clear 23 1016 68 10000 4.63 10 09:40 15.03.2021
1470 Clear 23 1016 68 10000 4.63 10 09:20 15.03.2021
1471 Clear 23 1016 68 10000 4.12 30 08:42 15.03.2021
1472 Clear 23 1016 68 10000 4.12 30 08:22 15.03.2021
1473 Clear 23 1016 68 10000 2.57 30 07:34 15.03.2021
1474 Clear 23 1017 64 10000 5.66 50 06:52 15.03.2021
1475 Clear 24 1017 60 10000 4.63 60 05:36 15.03.2021
1476 Clear 24 1017 64 10000 6.69 100 03:20 15.03.2021
1477 Clear 25 1017 61 10000 6.69 100 00:27 15.03.2021
1478 Clear 26 1016 53 10000 6.17 100 23:23 14.03.2021
1479 Clear 27 1016 57 10000 4.12 90 22:49 14.03.2021
1480 Clear 27 1016 57 10000 4.12 90 22:28 14.03.2021
1481 Clear 28 1016 47 10000 4.12 100 21:52 14.03.2021
1482 Clear 28 1016 47 10000 4.12 100 21:23 14.03.2021
1483 Clear 29 1017 28 10000 1.54 30 20:52 14.03.2021
1484 Clear 29 1017 28 10000 1.54 30 20:29 14.03.2021
1485 Clear 29 1017 47 10000 2.06 360 19:58 14.03.2021
1486 Clear 29 1017 47 10000 2.06 360 19:40 14.03.2021
1487 Clear 29 1017 47 10000 2.06 360 19:18 14.03.2021
1488 Clear 29 1018 50 10000 2.06 360 18:36 14.03.2021
1489 Clear 28 1018 53 10000 2.57 360 17:44 14.03.2021
1490 Clear 27 1018 53 10000 2.57 360 17:24 14.03.2021
1491 Clear 27 1018 57 10000 2.57 20 16:54 14.03.2021
1492 Clear 27 1018 57 10000 2.57 20 16:35 14.03.2021
1493 Clear 26 1018 60 10000 2.57 20 15:57 14.03.2021
1494 Clear 26 1018 60 10000 2.57 20 15:39 14.03.2021
1495 Clear 25 1018 60 10000 3.09 340 14:45 14.03.2021
1496 Clear 24 1018 60 10000 3.09 340 14:26 14.03.2021
1497 Clear 24 1018 53 10000 3.09 360 13:50 14.03.2021
1498 Clear 24 1018 53 10000 3.09 360 13:31 14.03.2021
1499 Clear 23 1018 46 10000 3.6 20 12:47 14.03.2021
1500 Rain 23 1018 46 10000 3.6 20 12:29 14.03.2021
1501 Rain 22 1017 46 10000 4.12 360 11:58 14.03.2021
1502 Clear 22 1017 46 10000 4.12 360 11:36 14.03.2021
1503 Clear 22 1017 46 10000 2.57 30 10:58 14.03.2021
1504 Clear 22 1017 46 10000 2.57 30 10:37 14.03.2021
1505 Clear 22 1017 46 10000 2.57 30 10:18 14.03.2021
1506 Clear 21 1017 49 10000 3.6 40 09:44 14.03.2021
1507 Clear 21 1017 49 10000 3.6 40 09:22 14.03.2021
1508 Clear 21 1017 49 10000 3.09 50 08:49 14.03.2021
1509 Clear 21 1017 49 10000 3.09 50 08:31 14.03.2021
1510 Clear 22 1017 68 10000 4.12 40 07:47 14.03.2021
1511 Clear 22 1017 68 10000 4.12 40 07:19 14.03.2021
1512 Rain 22 1017 49 10000 3.09 60 05:32 14.03.2021
1513 Clear 24 1015 53 10000 5.66 100 00:52 14.03.2021
1514 Clear 24 1015 53 10000 5.66 100 00:19 14.03.2021
1515 Clear 24 1015 47 10000 4.12 80 23:52 13.03.2021
1516 Clear 24 1015 47 10000 4.12 80 23:30 13.03.2021
1517 Clear 25 1015 44 10000 3.6 60 22:54 13.03.2021
1518 Clear 26 1015 44 10000 3.6 60 22:27 13.03.2021
1519 Clear 26 1015 50 10000 2.06 50 21:44 13.03.2021
1520 Clear 26 1015 50 10000 2.06 50 21:25 13.03.2021
1521 Clear 27 1016 53 10000 3.09 40 20:52 13.03.2021
1522 Clear 27 1016 53 10000 3.09 40 20:31 13.03.2021
1523 Clear 27 1016 53 10000 3.09 50 19:53 13.03.2021
1524 Clear 27 1016 53 10000 3.09 50 19:30 13.03.2021
1525 Clear 26 1017 53 10000 2.57 30 18:44 13.03.2021
1526 Clear 27 1017 53 10000 2.57 30 18:23 13.03.2021
1527 Clear 26 1017 57 10000 2.57 30 17:59 13.03.2021
1528 Clear 27 1017 57 10000 2.57 30 17:40 13.03.2021
1529 Clear 26 1017 57 10000 2.57 30 17:21 13.03.2021
1530 Clear 26 1017 57 10000 3.09 70 16:42 13.03.2021
1531 Clear 25 1018 56 10000 2.57 60 15:59 13.03.2021
1532 Clear 25 1018 56 10000 2.57 60 15:25 13.03.2021
1533 Clear 24 1017 56 10000 3.09 60 14:47 13.03.2021
1534 Clear 24 1017 56 10000 3.09 60 14:25 13.03.2021
1535 Clear 24 1017 56 10000 3.09 60 14:25 13.03.2021
1536 Clear 23 1017 60 10000 2.57 50 13:46 13.03.2021
1537 Clear 23 1017 60 10000 2.57 50 13:23 13.03.2021
1538 Clear 22 1017 60 10000 2.57 60 12:43 13.03.2021
1539 Clear 22 1017 60 10000 2.57 60 12:18 13.03.2021
1540 Clear 20 1016 64 10000 2.57 50 11:43 13.03.2021
1541 Clear 20 1016 64 10000 2.57 50 11:24 13.03.2021
1542 Clear 21 1016 60 10000 4.63 50 10:49 13.03.2021
1543 Clear 21 1016 60 10000 4.63 50 10:25 13.03.2021
1544 Clear 21 1016 64 10000 4.63 60 09:42 13.03.2021
1545 Clear 21 1015 73 10000 5.14 90 08:58 13.03.2021
1546 Clear 21 1015 73 10000 5.14 90 08:39 13.03.2021
1547 Clear 21 1015 73 10000 5.14 90 08:19 13.03.2021
1548 Clouds 21 1015 78 10000 5.14 70 07:39 13.03.2021
1549 Rain 22 1016 68 10000 6.69 100 05:45 13.03.2021
1550 Clouds 22 1016 73 10000 8.75 100 02:42 13.03.2021
1551 Clouds 23 1014 68 10000 8.75 90 00:44 13.03.2021
1552 Clouds 23 1014 73 10000 9.77 90 23:49 12.03.2021
1553 Clouds 23 1014 73 10000 9.77 90 23:30 12.03.2021
1554 Clouds 24 1013 83 10000 8.23 110 22:42 12.03.2021
1555 Clouds 24 1013 83 10000 8.23 110 22:22 12.03.2021
1556 Clouds 26 1013 69 10000 5.66 90 21:39 12.03.2021
1557 Clouds 27 1013 69 10000 5.66 90 21:21 12.03.2021
1558 Clouds 27 1013 73 10000 4.63 90 20:55 12.03.2021
1559 Clouds 27 1013 73 10000 4.63 90 20:31 12.03.2021
1560 Clouds 27 1014 73 10000 4.12 70 19:54 12.03.2021
1561 Clouds 27 1014 73 10000 4.12 70 19:34 12.03.2021
1562 Clouds 26 1014 83 10000 3.6 70 18:54 12.03.2021
1563 Clouds 26 1014 83 10000 3.6 70 18:33 12.03.2021
1564 Clouds 26 1015 78 10000 4.12 50 17:46 12.03.2021
1565 Clouds 26 1015 78 10000 4.12 50 17:46 12.03.2021
1566 Clouds 26 1015 78 10000 4.12 50 17:27 12.03.2021
1567 Clouds 26 1015 78 10000 4.12 70 16:51 12.03.2021
1568 Clouds 26 1015 78 10000 4.12 70 16:29 12.03.2021
1569 Clouds 26 1015 83 10000 4.63 90 15:45 12.03.2021
1570 Clouds 26 1015 83 10000 4.63 90 15:21 12.03.2021
1571 Clouds 25 1015 83 8000 3.09 70 14:42 12.03.2021
1572 Clouds 24 1015 83 8000 3.09 70 14:19 12.03.2021
1573 Clouds 24 1015 78 8000 1.54 90 13:40 12.03.2021
1574 Clouds 23 1015 78 8000 1.54 90 13:20 12.03.2021
1575 Clouds 23 1014 88 7000 2.06 140 12:49 12.03.2021
1576 Clouds 22 1014 88 7000 2.06 140 12:28 12.03.2021
1577 Mist 21 1014 88 5000 1.03 160 11:54 12.03.2021
1578 Mist 21 1014 88 5000 1.03 160 11:30 12.03.2021
1579 Mist 21 1013 88 5000 2.06 160 10:57 12.03.2021
1580 Mist 21 1013 88 5000 2.06 160 10:28 12.03.2021
1581 Mist 21 1013 83 4000 1.54 150 09:58 12.03.2021
1582 Clouds 21 1013 83 8000 2.06 150 09:28 12.03.2021
1583 Rain 21 1012 78 10000 1.54 170 08:51 12.03.2021
1584 Clear 21 1012 78 10000 1.54 170 08:33 12.03.2021
1585 Rain 21 1012 73 10000 2.57 200 07:41 12.03.2021
1586 Clear 22 1012 73 10000 2.57 200 07:18 12.03.2021
1587 Clear 23 1012 69 10000 1.54 240 06:39 12.03.2021
1588 Rain 26 1012 57 10000 1.03 0 03:28 12.03.2021
1589 Rain 27 1011 47 10000 1.54 230 00:52 12.03.2021
1590 Clear 28 1011 45 10000 2.57 220 23:40 11.03.2021
1591 Rain 29 1010 45 10000 2.06 230 22:52 11.03.2021
1592 Rain 29 1010 45 10000 2.06 230 22:32 11.03.2021
1593 Clouds 30 1010 40 10000 3.09 250 21:58 11.03.2021
1594 Clouds 30 1010 40 10000 3.09 250 21:39 11.03.2021
1595 Clouds 30 1010 40 10000 3.09 250 21:20 11.03.2021
1596 Clouds 30 1011 45 10000 3.09 250 20:44 11.03.2021
1597 Clouds 30 1011 45 10000 3.09 250 20:21 11.03.2021
1598 Clear 31 1011 54 10000 3.09 270 19:46 11.03.2021
1599 Clear 31 1011 54 10000 3.09 270 19:27 11.03.2021
1600 Clear 30 1011 57 10000 4.12 320 18:49 11.03.2021
1601 Clear 30 1011 57 10000 4.12 320 18:31 11.03.2021
1602 Clear 30 1011 57 10000 5.14 320 17:45 11.03.2021
1603 Clear 29 1011 57 10000 5.14 320 17:24 11.03.2021
1604 Clear 28 1012 53 10000 4.12 320 16:29 11.03.2021
1605 Clear 27 1013 61 10000 3.09 330 15:49 11.03.2021
1606 Clear 27 1013 61 10000 3.09 330 15:22 11.03.2021
1607 Clear 26 1013 68 10000 3.09 340 14:49 11.03.2021
1608 Clear 25 1013 68 10000 3.09 340 14:20 11.03.2021
1609 Clear 25 1012 73 10000 3.6 320 13:49 11.03.2021
1610 Clear 24 1012 73 10000 3.6 320 13:31 11.03.2021
1611 Clear 24 1012 73 10000 3.6 320 13:31 11.03.2021
1612 Clear 23 1012 73 10000 4.63 340 12:58 11.03.2021
1613 Clear 23 1012 73 10000 4.63 340 12:39 11.03.2021
1614 Clear 23 1012 73 10000 4.63 340 12:21 11.03.2021
1615 Clear 22 1011 73 10000 4.63 330 11:43 11.03.2021
1616 Clear 22 1011 73 10000 4.63 330 11:21 11.03.2021
1617 Clear 22 1010 68 10000 3.6 330 10:42 11.03.2021
1618 Clear 22 1010 68 10000 3.6 330 10:20 11.03.2021
1619 Clear 22 1010 68 10000 4.12 330 09:41 11.03.2021
1620 Clear 22 1010 68 10000 4.12 330 09:22 11.03.2021
1621 Clear 23 1010 64 10000 5.14 340 08:47 11.03.2021
1622 Clear 24 1010 64 10000 5.14 340 08:19 11.03.2021
1623 Clear 24 1010 64 10000 4.12 360 07:29 11.03.2021
1624 Clear 24 1009 69 10000 4.12 360 06:50 11.03.2021
1625 Clear 24 1009 69 10000 4.12 360 06:30 11.03.2021
1626 Rain 25 1009 78 10000 5.66 90 03:43 11.03.2021
1627 Clear 24 1009 78 10000 6.17 100 01:18 11.03.2021
1628 Clear 25 1009 73 10000 6.69 90 23:32 10.03.2021
1629 Clear 25 1009 73 10000 6.69 90 23:32 10.03.2021
1630 Clear 26 1009 73 10000 5.66 100 22:59 10.03.2021
1631 Clear 26 1009 73 10000 5.66 100 22:33 10.03.2021
1632 Clear 27 1009 69 10000 5.66 90 21:47 10.03.2021
1633 Clear 27 1009 69 10000 5.66 90 21:25 10.03.2021
1634 Clouds 27 1010 73 10000 5.66 90 20:48 10.03.2021
1635 Clouds 27 1010 73 10000 5.66 90 20:30 10.03.2021
1636 Clouds 27 1010 73 10000 5.66 90 20:30 10.03.2021
1637 Clouds 27 1011 69 10000 5.14 90 19:53 10.03.2021
1638 Clouds 27 1011 69 10000 5.14 90 19:30 10.03.2021
1639 Clouds 27 1012 94 10000 3.09 90 18:47 10.03.2021
1640 Clouds 27 1012 94 10000 3.09 90 18:47 10.03.2021
1641 Clouds 27 1012 94 10000 3.09 90 18:28 10.03.2021
1642 Clouds 27 1012 73 10000 3.09 70 17:57 10.03.2021
1643 Clouds 27 1012 73 10000 3.09 70 17:57 10.03.2021
1644 Clouds 27 1012 73 10000 3.09 70 17:39 10.03.2021
1645 Clouds 26 1012 73 10000 3.09 70 17:19 10.03.2021
1646 Clouds 26 1013 73 10000 3.09 50 16:45 10.03.2021
1647 Clouds 26 1013 73 10000 3.09 50 16:25 10.03.2021
1648 Clouds 25 1014 73 10000 3.09 50 15:48 10.03.2021
1649 Clouds 25 1014 73 10000 3.09 50 15:25 10.03.2021
1650 Clouds 25 1014 73 10000 3.09 50 15:25 10.03.2021
1651 Clouds 24 1014 83 10000 3.6 20 14:57 10.03.2021
1652 Clouds 23 1014 83 10000 3.6 20 14:21 10.03.2021
1653 Clouds 23 1014 83 9000 4.12 20 13:52 10.03.2021
1654 Clouds 22 1014 83 9000 4.12 20 13:31 10.03.2021
1655 Clouds 21 1014 88 9000 4.63 20 12:47 10.03.2021
1656 Clouds 21 1014 88 9000 4.63 20 12:23 10.03.2021
1657 Clouds 21 1014 83 8000 4.63 50 11:47 10.03.2021
1658 Clouds 21 1014 83 8000 4.63 50 11:21 10.03.2021
1659 Clouds 21 1014 88 10000 5.14 40 10:50 10.03.2021
1660 Clouds 21 1014 88 10000 5.14 40 10:31 10.03.2021
1661 Clouds 21 1014 83 10000 5.14 50 09:52 10.03.2021
1662 Clouds 21 1014 83 10000 5.14 50 09:32 10.03.2021
1663 Clouds 21 1014 83 10000 5.14 50 08:58 10.03.2021
1664 Clouds 21 1014 83 10000 5.14 50 08:40 10.03.2021
1665 Clouds 21 1014 83 10000 5.14 50 08:21 10.03.2021
1666 Clear 21 1014 83 10000 4.63 70 07:41 10.03.2021
1667 Clear 21 1014 83 10000 4.63 70 07:19 10.03.2021
1668 Clouds 21 1015 78 10000 6.69 70 06:46 10.03.2021
1669 Clouds 22 1015 68 10000 6.17 100 02:42 10.03.2021
1670 Clear 23 1014 60 10000 6.17 100 23:53 09.03.2021
1671 Clear 23 1014 60 10000 6.17 100 23:26 09.03.2021
1672 Clear 24 1015 64 10000 5.66 100 22:47 09.03.2021
1673 Clear 24 1015 64 10000 5.66 100 22:28 09.03.2021
1674 Clear 24 1015 57 10000 5.66 90 21:56 09.03.2021
1675 Clear 24 1015 57 10000 5.66 90 21:37 09.03.2021
1676 Clear 24 1015 57 10000 5.66 90 21:18 09.03.2021
1677 Clouds 25 1016 57 10000 5.14 90 20:43 09.03.2021
1678 Clouds 25 1016 57 10000 5.14 90 20:21 09.03.2021
1679 Clouds 25 1016 60 10000 4.12 80 19:53 09.03.2021
1680 Clouds 25 1016 60 10000 4.12 80 19:27 09.03.2021
1681 Clouds 25 1017 64 10000 5.14 90 18:51 09.03.2021
1682 Clouds 25 1017 64 10000 5.14 90 18:28 09.03.2021
1683 Clouds 25 1017 60 10000 5.14 90 17:53 09.03.2021
1684 Clouds 25 1017 60 10000 5.14 90 17:33 09.03.2021
1685 Clouds 24 1018 64 10000 5.66 90 16:55 09.03.2021
1686 Clouds 24 1018 64 10000 5.66 90 16:37 09.03.2021
1687 Clouds 24 1018 64 10000 5.66 90 16:18 09.03.2021
1688 Clear 23 1018 60 10000 4.12 100 15:43 09.03.2021
1689 Clear 23 1018 60 10000 4.12 100 15:21 09.03.2021
1690 Clear 21 1018 64 10000 3.09 120 14:31 09.03.2021
1691 Clear 20 1018 68 10000 3.09 140 13:57 09.03.2021
1692 Clear 20 1018 68 10000 3.09 140 13:38 09.03.2021
1693 Clear 19 1018 68 10000 3.09 140 13:19 09.03.2021
1694 Clear 18 1018 77 10000 2.06 160 12:39 09.03.2021
1695 Clear 17 1018 77 10000 2.06 160 12:18 09.03.2021
1696 Clear 16 1017 77 10000 2.06 160 11:41 09.03.2021
1697 Clear 16 1017 77 10000 2.06 160 11:21 09.03.2021
1698 Clear 16 1017 77 10000 2.57 180 10:55 09.03.2021
1699 Clear 16 1017 77 10000 2.57 180 10:36 09.03.2021
1700 Clear 16 1017 77 10000 2.57 180 10:18 09.03.2021
1701 Clear 16 1017 77 10000 2.57 170 09:41 09.03.2021
1702 Clear 16 1017 77 10000 2.57 170 09:22 09.03.2021
1703 Clear 16 1017 77 10000 2.57 170 08:37 09.03.2021
1704 Clear 17 1017 77 10000 2.57 170 08:18 09.03.2021
1705 Clear 17 1017 77 10000 3.09 170 07:37 09.03.2021
1706 Clear 17 1017 77 10000 3.09 170 07:19 09.03.2021
1707 Clear 18 1017 72 10000 4.63 140 05:54 09.03.2021
1708 Rain 18 1017 72 10000 4.63 140 05:34 09.03.2021
1709 Clouds 26 1013 54 10000 6.17 150 00:21 09.03.2021
1710 Clouds 27 1013 54 10000 6.17 150 23:42 08.03.2021
1711 Clouds 27 1013 54 10000 6.17 150 23:23 08.03.2021
1712 Clouds 29 1013 65 10000 2.06 30 22:44 08.03.2021
1713 Clouds 29 1013 65 10000 2.06 30 22:26 08.03.2021
1714 Clouds 30 1012 58 10000 4.12 20 21:53 08.03.2021
1715 Clouds 31 1012 58 10000 4.12 20 21:34 08.03.2021
1716 Clouds 31 1013 48 10000 2.57 360 20:45 08.03.2021
1717 Clouds 31 1013 48 10000 2.57 360 20:25 08.03.2021
1718 Clear 33 1013 40 10000 2.57 0 19:55 08.03.2021
1719 Clear 32 1013 40 10000 2.57 0 19:28 08.03.2021
1720 Clear 32 1014 37 10000 1.54 0 18:39 08.03.2021
1721 Clear 31 1014 37 10000 1.54 0 18:20 08.03.2021
1722 Clouds 31 1014 51 10000 5.66 330 17:50 08.03.2021
1723 Clouds 31 1014 51 10000 5.66 330 17:25 08.03.2021
1724 Clear 30 1014 61 10000 5.14 330 16:46 08.03.2021
1725 Clear 29 1014 61 10000 5.14 330 16:27 08.03.2021
1726 Clouds 29 1014 69 9000 3.6 350 15:49 08.03.2021
1727 Clouds 28 1014 69 9000 3.6 350 15:26 08.03.2021
1728 Clouds 26 1014 73 8000 1.03 0 14:43 08.03.2021
1729 Clouds 26 1014 73 8000 1.03 0 14:20 08.03.2021
1730 Smoke 25 1013 64 5000 3.09 320 13:37 08.03.2021
1731 Clouds 25 1013 64 7000 3.09 340 13:18 08.03.2021
1732 Clouds 24 1013 68 9000 2.06 320 12:42 08.03.2021
1733 Rain 24 1013 68 9000 2.06 320 12:22 08.03.2021
1734 Rain 23 1013 64 8000 0.51 0 11:38 08.03.2021
1735 Rain 23 1013 64 8000 0.51 0 11:18 08.03.2021
1736 Rain 23 1013 68 10000 1.03 0 10:41 08.03.2021
1737 Clear 23 1013 68 10000 1.03 0 10:19 08.03.2021
1738 Clear 24 1012 69 10000 3.6 320 09:41 08.03.2021
1739 Clear 24 1012 69 10000 3.6 320 09:22 08.03.2021
1740 Clear 23 1012 69 10000 3.09 320 08:27 08.03.2021
1741 Clear 24 1012 73 10000 2.06 360 07:23 08.03.2021
1742 Clear 24 1011 73 10000 2.06 20 06:42 08.03.2021
1743 Clear 24 1011 69 10000 2.57 50 03:37 08.03.2021
1744 Clear 25 1009 65 10000 1.54 50 00:43 08.03.2021
1745 Clear 26 1010 61 10000 2.06 70 23:54 07.03.2021
1746 Clear 27 1010 61 10000 2.06 70 23:28 07.03.2021
1747 Clear 27 1010 54 10000 2.06 30 22:59 07.03.2021
1748 Clear 28 1010 54 10000 2.06 30 22:40 07.03.2021
1749 Clear 28 1010 54 10000 2.06 30 22:20 07.03.2021
1750 Clear 28 1010 54 10000 3.09 30 21:42 07.03.2021
1751 Clear 28 1010 54 10000 3.09 30 21:23 07.03.2021
1752 Clear 28 1011 54 10000 4.63 30 20:43 07.03.2021
1753 Clear 28 1011 54 10000 4.63 30 20:24 07.03.2021
1754 Clear 28 1011 50 10000 4.12 30 19:56 07.03.2021
1755 Clear 28 1011 50 10000 4.12 30 19:37 07.03.2021
1756 Clear 28 1011 50 10000 4.12 30 19:19 07.03.2021
1757 Clear 28 1012 57 10000 4.63 20 18:40 07.03.2021
1758 Clear 28 1012 57 10000 4.63 20 18:19 07.03.2021
1759 Haze 27 1013 65 5000 3.6 20 17:39 07.03.2021
1760 Haze 27 1013 65 5000 3.6 20 17:20 07.03.2021
1761 Haze 26 1013 64 3000 3.09 20 16:44 07.03.2021
1762 Clear 26 1014 64 10000 3.09 10 16:22 07.03.2021
1763 Clear 25 1014 78 10000 2.57 10 15:56 07.03.2021
1764 Clear 25 1014 78 10000 2.57 10 15:38 07.03.2021
1765 Clear 25 1014 78 10000 2.57 10 15:19 07.03.2021
1766 Clear 24 1014 78 10000 2.57 340 14:29 07.03.2021
1767 Clear 23 1014 78 10000 3.09 340 13:51 07.03.2021
1768 Clear 23 1014 78 10000 3.09 340 13:31 07.03.2021
1769 Clear 23 1014 78 10000 2.57 20 12:59 07.03.2021
1770 Clear 22 1014 78 10000 2.57 20 12:40 07.03.2021
1771 Clear 22 1014 78 10000 2.57 20 12:20 07.03.2021
1772 Clear 20 1013 78 10000 2.57 50 11:24 07.03.2021
1773 Clear 20 1013 78 10000 1.54 50 10:56 07.03.2021
1774 Clear 20 1013 78 10000 1.54 50 10:38 07.03.2021
1775 Clear 20 1013 78 10000 1.54 50 10:38 07.03.2021
1776 Clear 20 1013 83 10000 2.57 50 09:56 07.03.2021
1777 Clear 20 1013 83 10000 2.57 50 09:30 07.03.2021
1778 Clear 20 1013 73 10000 3.6 60 09:00 07.03.2021
1779 Clear 20 1013 73 10000 3.6 60 08:40 07.03.2021
1780 Clear 20 1013 73 10000 3.6 60 08:21 07.03.2021
1781 Clear 20 1013 73 10000 3.6 60 06:51 07.03.2021
1782 Clear 22 1013 68 10000 4.63 80 02:40 07.03.2021
1783 Clear 22 1012 68 10000 4.63 100 00:34 07.03.2021
1784 Clear 23 1012 60 10000 4.12 90 23:40 06.03.2021
1785 Clear 23 1012 60 10000 4.12 90 23:20 06.03.2021
1786 Clear 24 1012 56 10000 3.6 70 22:45 06.03.2021
1787 Clear 24 1012 56 10000 3.6 70 22:21 06.03.2021
1788 Clear 24 1012 56 10000 3.6 60 21:47 06.03.2021
1789 Clear 24 1012 56 10000 3.6 60 21:20 06.03.2021
1790 Clear 24 1012 56 10000 3.6 60 20:43 06.03.2021
1791 Clear 24 1012 56 10000 3.6 60 20:18 06.03.2021
1792 Clear 25 1013 56 10000 4.12 60 19:38 06.03.2021
1793 Clear 24 1013 56 10000 4.12 60 19:18 06.03.2021
1794 Clear 25 1013 56 10000 3.6 60 18:41 06.03.2021
1795 Clear 25 1013 56 10000 3.6 60 18:21 06.03.2021
1796 Clear 24 1013 53 10000 5.14 80 17:54 06.03.2021
1797 Clear 24 1013 53 10000 5.14 80 17:32 06.03.2021
1798 Clear 24 1014 43 10000 3.09 160 16:58 06.03.2021
1799 Clear 23 1014 43 10000 3.09 160 16:33 06.03.2021
1800 Clear 22 1014 46 10000 2.57 170 15:56 06.03.2021
1801 Clear 22 1014 46 10000 2.57 170 15:38 06.03.2021
1802 Clear 21 1014 46 10000 2.57 170 15:19 06.03.2021
1803 Clear 21 1014 52 10000 1.54 0 14:33 06.03.2021
1804 Clear 21 1014 63 10000 2.06 210 13:55 06.03.2021
1805 Clear 20 1014 63 10000 2.06 210 13:37 06.03.2021
1806 Clear 19 1014 63 10000 2.06 210 13:18 06.03.2021
1807 Clear 18 1013 68 10000 1.54 0 12:42 06.03.2021
1808 Clear 18 1013 68 10000 1.54 0 12:18 06.03.2021
1809 Clear 17 1013 77 10000 1.54 200 11:38 06.03.2021
1810 Clear 16 1013 77 10000 1.54 200 11:19 06.03.2021
1811 Clear 16 1013 72 10000 1.54 200 10:43 06.03.2021
1812 Clear 16 1013 72 10000 1.54 180 09:57 06.03.2021
1813 Clear 16 1013 72 10000 1.54 180 09:26 06.03.2021
1814 Clear 16 1013 59 10000 2.06 180 08:56 06.03.2021
1815 Clear 16 1013 59 10000 2.06 180 08:31 06.03.2021
1816 Clear 17 1012 68 10000 1.54 140 07:55 06.03.2021
1817 Clear 17 1012 68 10000 1.54 140 07:22 06.03.2021
1818 Clear 18 1013 63 10000 3.09 140 06:27 06.03.2021
1819 Clear 20 1013 52 10000 3.6 140 03:49 06.03.2021
1820 Clouds 22 1011 43 10000 3.09 150 01:42 06.03.2021
1821 Clouds 23 1011 43 10000 3.09 150 00:46 06.03.2021
1822 Clouds 23 1012 38 10000 3.6 160 23:48 05.03.2021
1823 Clouds 24 1012 38 10000 3.6 160 23:19 05.03.2021
1824 Clouds 24 1012 38 10000 3.6 160 23:19 05.03.2021
1825 Clouds 24 1012 44 10000 2.57 160 22:43 05.03.2021
1826 Clouds 25 1012 44 10000 2.57 160 22:21 05.03.2021
1827 Clouds 25 1012 46 10000 3.6 160 21:51 05.03.2021
1828 Clouds 26 1012 46 10000 3.6 160 21:29 05.03.2021
1829 Clouds 26 1012 46 10000 4.63 180 20:50 05.03.2021
1830 Clouds 26 1012 46 10000 4.63 180 20:25 05.03.2021
1831 Clouds 26 1013 53 10000 3.6 160 19:49 05.03.2021
1832 Clouds 25 1013 53 10000 3.6 160 19:25 05.03.2021
1833 Clouds 25 1013 53 10000 3.6 160 19:25 05.03.2021
1834 Clouds 25 1013 60 10000 2.06 160 18:53 05.03.2021
1835 Clouds 25 1013 60 10000 2.06 160 18:28 05.03.2021
1836 Clouds 24 1013 56 10000 4.12 160 17:56 05.03.2021
1837 Clouds 24 1013 56 10000 4.12 160 17:33 05.03.2021
1838 Clouds 23 1014 60 10000 4.63 180 16:44 05.03.2021
1839 Clouds 22 1014 60 10000 4.63 180 16:24 05.03.2021
1840 Clouds 22 1014 64 10000 3.6 180 15:55 05.03.2021
1841 Clouds 20 1014 64 10000 3.6 180 15:28 05.03.2021
1842 Clouds 20 1013 73 10000 4.12 180 14:53 05.03.2021
1843 Clouds 20 1013 73 10000 4.12 180 14:34 05.03.2021
1844 Clouds 20 1013 83 10000 3.6 180 13:46 05.03.2021
1845 Clouds 19 1013 83 10000 3.6 180 13:21 05.03.2021
1846 Clouds 19 1013 83 10000 3.09 180 12:47 05.03.2021
1847 Clouds 20 1012 83 10000 4.12 180 11:40 05.03.2021
1848 Clouds 19 1012 83 10000 4.12 180 11:21 05.03.2021
1849 Clouds 19 1012 83 10000 5.14 160 10:57 05.03.2021
1850 Clouds 20 1012 83 10000 5.14 160 10:37 05.03.2021
1851 Clouds 20 1012 83 10000 5.14 160 10:19 05.03.2021
1852 Clouds 20 1011 83 10000 4.12 170 09:42 05.03.2021
1853 Rain 21 1011 83 10000 4.12 170 09:23 05.03.2021
1854 Rain 21 1011 88 10000 3.6 180 08:39 05.03.2021
1855 Rain 21 1011 88 10000 3.6 180 08:20 05.03.2021
1856 Clouds 22 1011 83 10000 3.6 170 07:35 05.03.2021
1857 Clouds 23 1011 83 10000 2.06 160 06:43 05.03.2021
1858 Clouds 23 1011 83 10000 2.06 160 06:25 05.03.2021
1859 Clouds 25 1011 83 10000 5.14 110 01:40 05.03.2021
1860 Clear 26 1010 73 10000 5.66 100 23:55 04.03.2021
1861 Clear 26 1010 73 10000 5.66 100 23:25 04.03.2021
1862 Clear 27 1010 73 10000 6.17 90 22:31 04.03.2021
1863 Clouds 27 1010 69 10000 6.17 90 21:55 04.03.2021
1864 Clouds 28 1010 69 10000 6.17 90 21:33 04.03.2021
1865 Clouds 28 1011 78 10000 5.66 90 20:58 04.03.2021
1866 Clouds 27 1011 78 10000 5.66 90 20:39 04.03.2021
1867 Clouds 28 1011 78 10000 5.66 90 20:21 04.03.2021
1868 Clouds 28 1011 73 10000 5.14 90 19:50 04.03.2021
1869 Clouds 28 1011 73 10000 5.14 90 19:23 04.03.2021
1870 Rain 27 1012 78 10000 4.63 90 18:52 04.03.2021
1871 Clouds 27 1012 78 10000 4.63 90 18:30 04.03.2021
1872 Clouds 27 1012 78 10000 4.63 90 18:30 04.03.2021
1873 Clouds 27 1013 73 10000 4.63 90 17:47 04.03.2021
1874 Clouds 28 1013 73 10000 4.63 90 17:29 04.03.2021
1875 Clouds 27 1014 78 10000 4.12 80 16:50 04.03.2021
1876 Clouds 27 1014 78 10000 4.12 80 16:32 04.03.2021
1877 Clouds 26 1014 83 10000 5.14 80 15:57 04.03.2021
1878 Clouds 26 1014 83 10000 5.14 80 15:38 04.03.2021
1879 Clouds 26 1014 83 10000 5.14 80 15:19 04.03.2021
1880 Clouds 25 1014 88 10000 5.66 80 14:38 04.03.2021
1881 Clouds 25 1013 83 10000 5.66 90 13:52 04.03.2021
1882 Clouds 25 1013 83 10000 5.66 90 13:33 04.03.2021
1883 Clouds 25 1013 83 10000 6.17 90 12:58 04.03.2021
1884 Clouds 24 1013 83 10000 6.17 90 12:39 04.03.2021
1885 Clouds 24 1013 83 10000 4.63 90 11:48 04.03.2021
1886 Clouds 24 1013 83 10000 4.63 90 11:27 04.03.2021
1887 Clouds 24 1013 83 10000 4.12 90 10:55 04.03.2021
1888 Clouds 24 1013 83 10000 4.12 90 10:31 04.03.2021
1889 Clouds 24 1013 83 10000 4.63 70 09:47 04.03.2021
1890 Clouds 24 1013 83 10000 4.63 70 09:25 04.03.2021
1891 Clouds 24 1014 73 10000 5.66 90 08:37 04.03.2021
1892 Clouds 24 1014 83 10000 5.66 80 07:54 04.03.2021
1893 Clouds 24 1014 83 10000 5.66 80 07:54 04.03.2021
1894 Clouds 24 1014 83 10000 5.66 80 07:31 04.03.2021
1895 Clouds 24 1014 88 10000 6.69 80 06:25 04.03.2021
1896 Rain 25 1014 88 10000 7.72 80 05:39 04.03.2021
1897 Clouds 25 1014 94 10000 8.75 110 01:44 04.03.2021
1898 Clouds 25 1014 94 10000 8.75 110 01:44 04.03.2021
1899 Clouds 25 1014 94 10000 8.75 110 01:44 04.03.2021
1900 Clouds 25 1014 94 10000 8.75 110 01:44 04.03.2021
1901 Clouds 25 1014 94 10000 8.75 110 01:44 04.03.2021
1902 Clouds 26 1013 78 10000 10.8 100 22:45 03.03.2021
1903 Clouds 27 1013 78 10000 10.8 100 22:26 03.03.2021
1904 Clouds 28 1014 69 10000 8.23 110 21:45 03.03.2021
1905 Clouds 28 1014 69 10000 8.23 110 21:45 03.03.2021
1906 Clouds 28 1014 69 10000 8.23 110 21:24 03.03.2021
1907 Clouds 28 1014 69 10000 7.72 110 20:59 03.03.2021
1908 Clouds 28 1014 69 10000 7.72 110 20:41 03.03.2021
1909 Clouds 28 1014 69 10000 7.72 110 20:19 03.03.2021
1910 Clouds 28 1015 65 10000 6.69 90 19:41 03.03.2021
1911 Clouds 28 1015 65 10000 6.69 90 19:22 03.03.2021
1912 Clouds 28 1016 74 10000 6.17 90 18:47 03.03.2021
1913 Clouds 28 1016 74 10000 6.17 90 18:25 03.03.2021
1914 Clouds 27 1017 78 10000 5.14 90 17:50 03.03.2021
1915 Clouds 27 1017 78 10000 5.14 90 17:19 03.03.2021
1916 Clouds 28 1017 69 10000 5.14 90 16:44 03.03.2021
1917 Clouds 27 1017 69 10000 5.14 90 16:23 03.03.2021
1918 Clouds 27 1017 78 10000 4.63 70 15:34 03.03.2021
1919 Clouds 26 1017 78 10000 5.14 90 14:59 03.03.2021
1920 Clouds 26 1017 78 10000 5.14 90 14:30 03.03.2021
1921 Clouds 26 1017 83 10000 4.12 70 13:53 03.03.2021
1922 Clouds 26 1017 83 10000 4.12 70 13:33 03.03.2021
1923 Clouds 25 1016 83 10000 5.14 90 12:46 03.03.2021
1924 Clouds 25 1016 83 10000 5.14 90 12:46 03.03.2021
1925 Clouds 24 1016 83 10000 5.14 90 12:28 03.03.2021
1926 Clouds 24 1016 83 10000 4.12 70 11:48 03.03.2021
1927 Clouds 24 1016 83 10000 4.12 70 11:28 03.03.2021
1928 Clouds 24 1015 83 10000 4.63 90 10:53 03.03.2021
1929 Clouds 24 1015 83 10000 4.63 90 10:32 03.03.2021
1930 Clouds 24 1015 88 10000 5.14 90 09:53 03.03.2021
1931 Clouds 24 1015 88 10000 5.14 90 09:35 03.03.2021
1932 Clouds 24 1015 88 10000 6.17 90 08:46 03.03.2021
1933 Clouds 24 1015 88 10000 6.17 90 08:22 03.03.2021
1934 Clouds 25 1015 83 10000 6.17 90 07:50 03.03.2021
1935 Clear 25 1015 83 10000 5.14 70 06:52 03.03.2021
1936 Clouds 26 1015 83 10000 5.14 50 05:49 03.03.2021
1937 Clear 26 1015 83 10000 5.66 120 04:59 03.03.2021
1938 Clear 26 1015 83 10000 5.66 120 04:35 03.03.2021
1939 Clear 25 1015 83 10000 6.69 120 03:51 03.03.2021
1940 Clouds 26 1013 78 10000 6.69 110 23:59 02.03.2021
1941 Clouds 27 1013 78 10000 6.69 110 23:31 02.03.2021
1942 Clear 28 1013 78 10000 7.72 110 22:42 02.03.2021
1943 Clear 28 1013 78 10000 7.72 110 22:19 02.03.2021
1944 Clouds 29 1012 69 10000 6.69 120 21:41 02.03.2021
1945 Clouds 29 1012 69 10000 6.69 120 21:22 02.03.2021
1946 Clouds 29 1013 74 10000 5.66 120 20:48 02.03.2021
1947 Clouds 29 1013 74 10000 5.66 120 20:22 02.03.2021
1948 Clouds 29 1013 78 10000 6.17 90 19:56 02.03.2021
1949 Clouds 29 1013 78 10000 6.17 90 19:38 02.03.2021
1950 Clouds 28 1013 78 10000 6.17 90 19:18 02.03.2021
1951 Clouds 28 1014 74 10000 5.66 90 18:40 02.03.2021
1952 Clouds 28 1014 74 10000 5.66 90 18:21 02.03.2021
1953 Clouds 27 1014 78 10000 5.14 90 17:49 02.03.2021
1954 Clouds 27 1014 78 10000 5.14 90 17:29 02.03.2021
1955 Clouds 27 1014 78 10000 3.6 80 16:49 02.03.2021
1956 Clouds 26 1014 78 10000 3.6 80 16:20 02.03.2021
1957 Clouds 26 1014 78 10000 3.6 80 16:20 02.03.2021
1958 Clouds 27 1015 83 10000 3.6 90 15:48 02.03.2021
1959 Clouds 26 1015 83 10000 3.6 90 15:22 02.03.2021
1960 Clouds 25 1014 88 10000 3.09 60 14:22 02.03.2021
1961 Clouds 25 1014 88 10000 3.6 80 13:49 02.03.2021
1962 Clouds 25 1014 88 10000 3.6 80 13:30 02.03.2021
1963 Clouds 25 1014 88 10000 3.6 90 12:51 02.03.2021
1964 Clouds 25 1014 88 10000 3.6 90 12:51 02.03.2021
1965 Clouds 24 1014 88 10000 3.6 90 12:29 02.03.2021
1966 Clouds 24 1014 83 10000 3.6 60 11:53 02.03.2021
1967 Clouds 24 1014 83 10000 3.6 60 11:30 02.03.2021
1968 Clouds 24 1013 88 10000 4.12 90 10:57 02.03.2021
1969 Clouds 24 1013 88 10000 4.12 90 10:31 02.03.2021
1970 Clouds 24 1013 83 10000 4.63 70 09:44 02.03.2021
1971 Clouds 24 1013 83 10000 4.63 70 09:24 02.03.2021
1972 Clouds 24 1013 88 10000 4.63 70 08:56 02.03.2021
1973 Clouds 24 1013 88 10000 4.63 70 08:33 02.03.2021
1974 Clouds 24 1013 88 10000 3.6 70 07:51 02.03.2021
1975 Clouds 24 1013 88 10000 5.14 60 06:37 02.03.2021
1976 Clouds 25 1013 78 10000 6.17 90 05:52 02.03.2021
1977 Clouds 25 1013 78 10000 6.17 90 05:32 02.03.2021
1978 Clear 25 1013 78 10000 8.23 90 04:37 02.03.2021
1979 Clear 25 1012 83 10000 5.14 110 01:43 02.03.2021
1980 Clear 25 1012 83 10000 5.14 110 01:21 02.03.2021
1981 Clouds 26 1011 78 10000 7.72 110 23:29 01.03.2021
1982 Clouds 26 1011 73 10000 7.72 110 22:56 01.03.2021
1983 Clouds 27 1011 73 10000 7.72 110 22:38 01.03.2021
1984 Clouds 28 1011 73 10000 7.72 110 22:19 01.03.2021
1985 Clouds 28 1012 69 10000 6.17 110 21:41 01.03.2021
1986 Clouds 28 1012 69 10000 5.66 100 21:23 01.03.2021
1987 Clouds 28 1012 69 10000 6.17 110 21:23 01.03.2021
1988 Clouds 28 1012 69 10000 5.66 100 20:42 01.03.2021
1989 Clouds 29 1012 69 10000 5.66 100 20:20 01.03.2021
1990 Clouds 29 1013 78 10000 5.14 90 19:43 01.03.2021
1991 Clouds 28 1013 78 10000 5.14 90 19:24 01.03.2021
1992 Clouds 28 1013 73 10000 4.12 90 18:43 01.03.2021
1993 Clouds 28 1013 73 10000 4.12 90 18:23 01.03.2021
1994 Clouds 28 1014 69 10000 3.6 50 17:47 01.03.2021
1995 Clouds 28 1014 69 10000 3.6 50 17:22 01.03.2021
1996 Clouds 27 1014 73 10000 3.09 30 16:47 01.03.2021
1997 Clouds 26 1014 73 10000 3.09 30 16:27 01.03.2021
1998 Clouds 26 1015 88 10000 3.6 40 15:47 01.03.2021
1999 Clouds 26 1015 88 10000 3.6 40 15:22 01.03.2021
2000 Clouds 25 1015 78 10000 4.63 30 14:57 01.03.2021
2001 Clouds 26 1015 78 10000 4.63 30 14:39 01.03.2021
2002 Clouds 24 1015 88 10000 4.63 40 13:47 01.03.2021
2003 Clouds 24 1015 88 10000 4.63 40 13:28 01.03.2021
2004 Clouds 24 1015 88 10000 5.14 30 12:59 01.03.2021
2005 Clouds 24 1015 88 10000 5.14 30 12:40 01.03.2021
2006 Clouds 23 1015 88 10000 5.14 30 12:21 01.03.2021
2007 Clouds 23 1014 88 10000 6.69 30 11:46 01.03.2021
2008 Clouds 23 1014 83 10000 6.17 30 10:59 01.03.2021
2009 Clouds 23 1014 83 10000 6.17 30 10:36 01.03.2021
2010 Clouds 23 1014 83 10000 6.17 30 10:18 01.03.2021
2011 Clear 23 1014 78 10000 6.17 30 09:46 01.03.2021
2012 Clouds 24 1014 78 10000 5.14 40 09:23 01.03.2021
2013 Clouds 24 1014 78 10000 5.14 40 08:53 01.03.2021
2014 Clouds 24 1014 78 10000 5.14 40 08:22 01.03.2021
2015 Clear 25 1014 73 10000 7.2 40 06:54 01.03.2021
2016 Clear 25 1014 73 10000 7.2 40 06:24 01.03.2021
2017 Clear 27 1013 69 10000 7.2 80 02:26 01.03.2021
2018 Clouds 27 1014 73 10000 7.72 100 23:41 28.02.2021
2019 Clouds 28 1014 74 10000 6.69 100 22:55 28.02.2021
2020 Clouds 28 1014 74 10000 6.69 100 22:25 28.02.2021
2021 Clouds 29 1013 61 10000 7.2 100 21:54 28.02.2021
2022 Clouds 29 1013 61 10000 7.2 100 21:32 28.02.2021
2023 Clouds 29 1015 65 10000 5.14 90 20:58 28.02.2021
2024 Clouds 29 1015 65 10000 5.14 90 20:37 28.02.2021
2025 Clear 29 1015 69 10000 3.6 80 19:56 28.02.2021
2026 Clear 29 1015 69 10000 3.6 80 19:37 28.02.2021
2027 Clear 29 1015 69 10000 3.6 80 19:19 28.02.2021
2028 Clear 28 1016 69 10000 3.6 50 18:38 28.02.2021
2029 Clear 28 1016 69 10000 3.6 50 18:20 28.02.2021
2030 Clear 27 1017 69 10000 4.63 20 17:46 28.02.2021
2031 Clear 28 1017 69 10000 4.63 20 17:27 28.02.2021
2032 Clouds 28 1017 69 10000 5.66 40 16:53 28.02.2021
2033 Clouds 27 1017 69 10000 5.66 40 16:34 28.02.2021
2034 Clouds 26 1019 69 10000 5.66 30 15:53 28.02.2021
2035 Clouds 26 1019 69 10000 5.66 30 15:31 28.02.2021
2036 Clouds 25 1018 73 10000 5.66 20 14:59 28.02.2021
2037 Clouds 25 1018 73 10000 5.66 20 14:40 28.02.2021
2038 Clouds 24 1018 73 10000 5.66 20 14:20 28.02.2021
2039 Clouds 24 1018 73 10000 6.17 40 13:42 28.02.2021
2040 Clouds 24 1018 73 10000 6.17 40 13:19 28.02.2021
2041 Clouds 24 1018 83 10000 7.2 30 12:55 28.02.2021
2042 Clouds 23 1018 83 10000 7.2 30 12:36 28.02.2021
2043 Clouds 23 1018 83 10000 7.2 30 12:18 28.02.2021
2044 Clouds 23 1018 78 10000 7.2 40 11:42 28.02.2021
2045 Clouds 23 1018 78 10000 7.2 40 11:22 28.02.2021
2046 Clouds 23 1018 78 10000 7.2 30 10:49 28.02.2021
2047 Clouds 23 1018 78 10000 7.2 30 10:26 28.02.2021
2048 Clouds 23 1018 78 10000 6.69 50 09:42 28.02.2021
2049 Clouds 23 1018 78 10000 6.69 50 09:42 28.02.2021
2050 Clouds 23 1018 78 10000 6.69 50 09:24 28.02.2021
2051 Clouds 24 1018 73 10000 6.69 20 08:47 28.02.2021
2052 Clouds 24 1018 73 10000 6.69 20 08:29 28.02.2021
2053 Clear 24 1018 73 10000 8.23 50 07:52 28.02.2021
2054 Clear 24 1018 73 10000 8.23 50 07:30 28.02.2021
2055 Clear 24 1018 73 10000 7.72 50 06:27 28.02.2021
2056 Clear 25 1018 69 10000 8.23 50 05:24 28.02.2021
2057 Clouds 26 1018 69 10000 9.77 70 03:24 28.02.2021
2058 Clear 26 1017 88 10000 8.23 110 01:36 28.02.2021
2059 Clear 25 1017 88 10000 9.77 110 00:43 28.02.2021
2060 Clear 25 1017 88 10000 9.77 110 00:23 28.02.2021
2061 Clear 26 1017 78 10000 10.29 110 23:44 27.02.2021
2062 Clear 26 1017 78 10000 10.29 110 23:19 27.02.2021
2063 Clear 27 1017 69 10000 9.77 110 22:44 27.02.2021
2064 Clear 27 1017 69 10000 9.77 110 22:19 27.02.2021
2065 Clear 27 1017 69 10000 10.29 110 21:40 27.02.2021
2066 Clear 27 1017 69 10000 10.29 110 21:22 27.02.2021
2067 Clear 28 1017 57 10000 8.23 110 20:47 27.02.2021
2068 Clear 29 1017 57 10000 8.23 110 20:27 27.02.2021
2069 Clear 29 1018 57 10000 7.2 90 19:45 27.02.2021
2070 Clear 29 1018 57 10000 7.2 90 19:26 27.02.2021
2071 Clear 28 1019 57 10000 5.66 90 18:44 27.02.2021
2072 Clear 28 1019 57 10000 5.66 90 18:21 27.02.2021
2073 Clouds 28 1019 61 10000 4.12 70 17:55 27.02.2021
2074 Clouds 28 1019 61 10000 4.12 70 17:36 27.02.2021
2075 Clouds 27 1019 61 10000 4.12 70 17:18 27.02.2021
2076 Clouds 28 1020 57 10000 4.63 50 16:44 27.02.2021
2077 Clouds 26 1020 57 10000 4.63 50 16:25 27.02.2021
2078 Clouds 26 1020 69 10000 5.14 50 15:41 27.02.2021
2079 Clouds 25 1020 73 10000 5.66 50 14:56 27.02.2021
2080 Clouds 25 1020 73 10000 5.66 50 14:37 27.02.2021
2081 Clear 24 1020 73 10000 6.17 50 13:56 27.02.2021
2082 Clear 25 1020 73 10000 6.17 50 13:37 27.02.2021
2083 Clear 24 1020 78 10000 5.66 20 12:58 27.02.2021
2084 Clear 24 1020 78 10000 5.66 20 12:36 27.02.2021
2085 Clear 23 1020 78 10000 5.66 20 12:18 27.02.2021
2086 Clear 23 1019 83 10000 5.66 20 11:42 27.02.2021
2087 Clear 23 1019 83 10000 5.66 20 11:23 27.02.2021
2088 Clear 23 1018 78 10000 8.23 50 10:46 27.02.2021
2089 Clear 23 1018 78 10000 8.23 50 10:27 27.02.2021
2090 Clear 23 1017 83 10000 9.26 40 09:48 27.02.2021
2091 Clear 23 1017 83 10000 9.26 40 09:26 27.02.2021
2092 Clear 24 1017 78 10000 9.26 40 08:41 27.02.2021
2093 Clear 24 1017 78 10000 9.26 40 08:21 27.02.2021
2094 Clear 24 1017 73 10000 7.72 50 07:41 27.02.2021
2095 Clear 26 1017 61 10000 6.17 50 04:46 27.02.2021
2096 Clear 27 1013 69 10000 8.75 110 00:42 27.02.2021
2097 Clear 27 1013 61 10000 8.75 110 23:54 26.02.2021
2098 Clear 27 1013 61 10000 8.75 110 23:27 26.02.2021
2099 Clear 28 1012 61 10000 9.77 110 22:46 26.02.2021
2100 Clear 28 1012 61 10000 9.77 110 22:26 26.02.2021
2101 Clear 29 1013 54 10000 7.2 90 21:43 26.02.2021
2102 Clear 29 1013 54 10000 7.2 90 21:22 26.02.2021
2103 Clear 29 1013 61 10000 6.17 90 20:44 26.02.2021
2104 Clear 30 1013 61 10000 6.17 90 20:21 26.02.2021
2105 Clear 29 1014 57 10000 4.12 90 19:42 26.02.2021
2106 Clear 29 1014 57 10000 4.12 90 19:22 26.02.2021
2107 Clear 29 1014 65 10000 3.09 50 18:42 26.02.2021
2108 Clear 29 1014 65 10000 3.09 50 18:21 26.02.2021
2109 Clear 29 1015 65 10000 2.57 30 17:40 26.02.2021
2110 Clear 29 1015 65 10000 2.57 30 17:22 26.02.2021
2111 Clear 29 1015 65 10000 3.09 30 16:52 26.02.2021
2112 Clear 29 1015 65 10000 3.09 30 16:31 26.02.2021
2113 Clear 28 1016 65 10000 2.57 20 15:57 26.02.2021
2114 Clear 27 1016 65 10000 2.57 20 15:37 26.02.2021
2115 Clear 27 1016 65 10000 2.57 20 15:19 26.02.2021
2116 Clear 27 1016 61 10000 3.09 360 14:44 26.02.2021
2117 Clear 27 1016 61 10000 3.09 360 14:24 26.02.2021
2118 Clear 26 1015 69 10000 4.12 320 13:39 26.02.2021
2119 Clear 26 1015 69 10000 4.12 320 13:20 26.02.2021
2120 Clear 25 1015 73 10000 3.6 360 12:38 26.02.2021
2121 Clear 25 1014 65 10000 3.6 360 11:51 26.02.2021
2122 Clear 25 1014 65 10000 3.6 360 11:51 26.02.2021
2123 Clear 24 1014 65 10000 3.6 360 11:33 26.02.2021
2124 Clear 24 1014 61 10000 3.09 360 10:46 26.02.2021
2125 Clear 24 1014 65 10000 4.63 20 09:55 26.02.2021
2126 Clear 24 1014 65 10000 4.63 20 09:31 26.02.2021
2127 Clear 25 1014 65 10000 5.66 20 08:54 26.02.2021
2128 Clear 25 1014 65 10000 5.66 20 08:25 26.02.2021
2129 Clear 25 1014 65 10000 4.63 30 07:49 26.02.2021
2130 Clear 25 1014 65 10000 4.63 30 07:49 26.02.2021
2131 Clear 25 1014 61 10000 5.14 40 06:36 26.02.2021
2132 Clear 26 1014 65 10000 3.6 60 05:27 26.02.2021
2133 Clear 26 1014 61 10000 4.12 60 03:46 26.02.2021
2134 Clear 26 1013 57 10000 3.09 60 01:37 26.02.2021
2135 Clear 27 1013 57 10000 3.09 50 23:49 25.02.2021
2136 Clear 28 1013 57 10000 3.09 50 23:28 25.02.2021
2137 Clear 29 1013 54 10000 3.09 40 22:49 25.02.2021
2138 Clear 30 1013 54 10000 3.6 20 21:59 25.02.2021
2139 Clear 30 1013 54 10000 3.6 20 21:36 25.02.2021
2140 Clear 30 1013 54 10000 3.6 20 21:18 25.02.2021
2141 Clouds 30 1013 58 10000 4.12 10 20:40 25.02.2021
2142 Clouds 30 1013 58 10000 4.12 10 20:21 25.02.2021
2143 Clear 30 1014 61 10000 3.6 50 19:51 25.02.2021
2144 Clear 31 1014 61 10000 3.6 50 19:21 25.02.2021
2145 Clear 30 1015 51 10000 4.63 20 18:56 25.02.2021
2146 Clear 30 1015 51 10000 4.63 20 18:19 25.02.2021
2147 Clear 29 1015 61 10000 4.12 360 17:42 25.02.2021
2148 Clear 29 1015 61 10000 4.12 360 17:23 25.02.2021
2149 Clear 29 1016 57 10000 3.6 360 16:38 25.02.2021
2150 Clear 29 1016 57 10000 3.6 360 16:20 25.02.2021
2151 Clear 28 1016 61 10000 3.6 360 15:29 25.02.2021
2152 Clear 27 1016 50 10000 3.09 340 14:41 25.02.2021
2153 Clear 26 1016 50 10000 3.09 340 14:21 25.02.2021
2154 Clear 25 1016 57 10000 2.06 340 13:48 25.02.2021
2155 Clear 25 1016 57 10000 2.06 340 13:24 25.02.2021
2156 Clear 24 1015 64 10000 2.57 320 12:40 25.02.2021
2157 Clear 23 1015 64 10000 2.57 320 12:20 25.02.2021
2158 Clear 23 1015 64 10000 2.57 320 12:20 25.02.2021
2159 Clear 23 1015 64 10000 1.54 290 11:43 25.02.2021
2160 Clear 21 1014 68 10000 1.03 300 10:54 25.02.2021
2161 Clear 21 1014 68 10000 1.03 300 10:36 25.02.2021
2162 Clear 22 1014 64 10000 1.03 320 09:48 25.02.2021
2163 Clear 22 1014 64 10000 1.03 320 09:28 25.02.2021
2164 Clear 23 1014 53 10000 1.03 270 08:46 25.02.2021
2165 Clear 23 1013 60 10000 2.06 320 08:21 25.02.2021
2166 Clear 23 1013 60 10000 2.06 320 07:42 25.02.2021
2167 Clear 23 1014 56 10000 1.03 230 06:58 25.02.2021
2168 Clear 23 1014 60 10000 1.03 270 05:29 25.02.2021
2169 Clear 26 1013 39 10000 1.03 270 01:50 25.02.2021
2170 Clear 27 1014 36 10000 2.99 53 00:48 25.02.2021
2171 Clear 28 1012 32 10000 2.06 270 00:20 25.02.2021
2172 Clear 29 1012 32 10000 2.06 270 23:36 24.02.2021
2173 Clouds 30 1012 29 10000 3.09 280 22:50 24.02.2021
2174 Clouds 30 1012 29 10000 3.09 280 22:30 24.02.2021
2175 Clouds 31 1012 25 10000 3.6 280 21:49 24.02.2021
2176 Clouds 31 1012 25 10000 3.6 280 21:30 24.02.2021
2177 Clear 30 1012 33 10000 1.34 270 20:49 24.02.2021
2178 Clear 30 1014 48 10000 5.14 350 20:26 24.02.2021
2179 Clear 30 1014 48 10000 5.14 350 19:42 24.02.2021
2180 Clear 30 1014 48 10000 5.14 350 19:20 24.02.2021
2181 Clear 29 1015 51 10000 3.6 350 18:50 24.02.2021
2182 Clear 29 1015 51 10000 3.6 350 18:30 24.02.2021
2183 Clear 29 1015 50 10000 4.12 360 17:39 24.02.2021
2184 Clear 28 1015 50 10000 4.12 360 17:21 24.02.2021
2185 Clear 28 1016 47 10000 4.12 330 16:46 24.02.2021
2186 Clear 28 1016 47 10000 4.12 330 16:21 24.02.2021
2187 Clear 27 1016 44 10000 3.09 270 15:50 24.02.2021
2188 Clear 26 1016 44 10000 3.09 270 15:28 24.02.2021
2189 Clear 25 1016 53 10000 2.57 270 14:44 24.02.2021
2190 Clear 25 1016 53 10000 2.57 270 14:26 24.02.2021
2191 Clear 23 1016 60 10000 3.09 310 13:41 24.02.2021
2192 Clear 23 1016 60 10000 3.09 310 13:23 24.02.2021
2193 Clear 22 1016 64 10000 2.06 290 12:53 24.02.2021
2194 Clear 22 1016 64 10000 2.06 290 12:33 24.02.2021
2195 Clear 21 1015 73 10000 2.57 360 11:51 24.02.2021
2196 Clear 20 1015 73 10000 2.57 360 11:24 24.02.2021
2197 Clear 20 1015 64 10000 2.57 310 10:32 24.02.2021
2198 Clear 21 1014 68 10000 1.54 270 09:56 24.02.2021
2199 Clear 21 1014 68 10000 1.54 270 09:22 24.02.2021
2200 Clear 21 1014 68 10000 1.54 280 08:37 24.02.2021
2201 Clear 21 1014 68 10000 1.54 280 08:19 24.02.2021
2202 Clear 21 1015 78 10000 1.54 270 07:20 24.02.2021
2203 Clear 22 1015 78 10000 1.54 270 06:42 24.02.2021
2204 Clear 23 1015 78 10000 0.51 0 03:40 24.02.2021
2205 Rain 24 1014 69 10000 2.57 60 00:37 24.02.2021
2206 Clear 25 1014 65 10000 3.09 60 23:29 23.02.2021
2207 Clear 26 1014 61 10000 3.6 50 22:40 23.02.2021
2208 Clear 26 1014 61 10000 3.6 50 22:20 23.02.2021
2209 Clear 26 1014 61 10000 3.6 50 22:20 23.02.2021
2210 Clouds 27 1013 38 10000 3.6 60 21:44 23.02.2021
2211 Clouds 27 1013 38 10000 3.6 60 21:24 23.02.2021
2212 Clouds 27 1013 61 10000 4.12 90 20:48 23.02.2021
2213 Clouds 27 1013 61 10000 4.12 90 20:29 23.02.2021
2214 Clouds 27 1014 65 10000 3.6 60 19:48 23.02.2021
2215 Clouds 27 1014 65 10000 3.6 60 19:27 23.02.2021
2216 Clouds 27 1014 61 10000 3.09 50 18:56 23.02.2021
2217 Clouds 27 1014 61 10000 3.09 50 18:32 23.02.2021
2218 Clouds 26 1014 65 10000 3.09 30 17:54 23.02.2021
2219 Clouds 26 1014 65 10000 3.09 30 17:33 23.02.2021
2220 Clear 26 1015 69 10000 2.57 20 16:56 23.02.2021
2221 Clear 26 1015 69 10000 2.57 20 16:28 23.02.2021
2222 Clear 25 1014 69 10000 2.57 50 15:58 23.02.2021
2223 Clear 25 1014 69 10000 2.57 50 15:38 23.02.2021
2224 Clear 26 1014 69 10000 2.57 50 15:18 23.02.2021
2225 Clear 24 1014 60 10000 3.6 90 14:43 23.02.2021
2226 Clear 24 1014 60 10000 3.6 90 14:25 23.02.2021
2227 Clear 23 1014 64 10000 4.63 90 13:44 23.02.2021
2228 Clear 23 1014 64 10000 4.63 90 13:24 23.02.2021
2229 Clear 23 1014 68 10000 5.14 90 12:51 23.02.2021
2230 Clear 22 1014 68 10000 5.14 90 12:20 23.02.2021
2231 Clear 21 1013 73 10000 6.17 110 11:47 23.02.2021
2232 Clear 20 1013 73 10000 6.17 110 11:21 23.02.2021
2233 Clear 20 1013 68 10000 3.6 140 10:41 23.02.2021
2234 Clear 20 1013 68 10000 3.6 140 10:21 23.02.2021
2235 Clear 20 1013 68 10000 5.14 140 09:43 23.02.2021
2236 Clear 20 1013 68 10000 5.14 140 09:22 23.02.2021
2237 Clear 20 1012 83 10000 4.12 140 08:48 23.02.2021
2238 Clear 20 1012 83 10000 4.12 140 08:21 23.02.2021
2239 Clear 20 1012 88 10000 4.12 150 07:49 23.02.2021
2240 Clouds 21 1011 88 10000 1.54 220 05:30 23.02.2021
2241 Rain 22 1011 83 10000 1.03 180 04:25 23.02.2021
2242 Clouds 23 1010 83 10000 1.54 170 02:33 23.02.2021
2243 Clouds 22 1009 83 10000 3.09 160 00:20 23.02.2021
2244 Rain 24 1008 78 9000 3.09 330 23:46 22.02.2021
2245 Rain 26 1008 78 9000 3.09 330 23:18 22.02.2021
2246 Rain 26 1008 78 10000 3.6 340 22:39 22.02.2021
2247 Rain 26 1008 78 10000 3.6 340 22:20 22.02.2021
2248 Clouds 28 1009 78 10000 4.63 10 21:38 22.02.2021
2249 Clouds 28 1009 78 10000 4.63 10 21:20 22.02.2021
2250 Clouds 28 1009 73 10000 4.12 360 20:48 22.02.2021
2251 Clouds 28 1009 73 10000 4.12 360 20:26 22.02.2021
2252 Clouds 27 1010 78 10000 4.12 40 19:49 22.02.2021
2253 Clouds 27 1010 78 10000 4.12 40 19:30 22.02.2021
2254 Clouds 26 1011 88 10000 5.66 30 18:49 22.02.2021
2255 Clouds 25 1011 88 10000 5.66 30 18:29 22.02.2021
2256 Clouds 25 1011 88 10000 5.66 30 17:49 22.02.2021
2257 Clouds 24 1011 88 10000 5.66 30 17:20 22.02.2021
2258 Clouds 24 1012 88 10000 6.69 50 16:50 22.02.2021
2259 Clouds 24 1012 88 10000 6.69 50 16:29 22.02.2021
2260 Clouds 22 1012 88 10000 8.23 80 15:32 22.02.2021
2261 Clouds 21 1012 94 5000 7.2 110 14:54 22.02.2021
2262 Rain 21 1012 94 5000 7.2 110 14:35 22.02.2021
2263 Rain 20 1012 94 1500 3.6 100 13:54 22.02.2021
2264 Rain 20 1012 94 1500 3.6 100 13:33 22.02.2021
2265 Rain 20 1011 94 8000 8.23 100 12:48 22.02.2021
2266 Clouds 20 1011 94 8000 8.23 100 12:23 22.02.2021
2267 Rain 19 1011 94 2000 6.69 120 11:52 22.02.2021
2268 Rain 19 1011 94 2000 6.69 120 11:31 22.02.2021
2269 Rain 20 1010 77 1000 4.12 190 10:54 22.02.2021
2270 Rain 20 1010 77 1000 4.12 190 10:36 22.02.2021
2271 Rain 20 1010 77 4000 6.17 170 10:18 22.02.2021
2272 Rain 24 1008 65 10000 4.12 360 09:37 22.02.2021
2273 Rain 25 1008 65 10000 4.12 360 09:18 22.02.2021
2274 Rain 25 1009 69 10000 3.09 360 08:44 22.02.2021
2275 Clouds 25 1009 69 10000 3.09 360 08:20 22.02.2021
2276 Clear 25 1009 73 10000 3.6 360 07:39 22.02.2021
2277 Rain 25 1010 65 10000 3.09 360 07:18 22.02.2021
2278 Clear 25 1011 69 10000 3.09 90 06:24 22.02.2021
2279 Clear 26 1011 73 10000 3.09 90 03:49 22.02.2021
2280 Clear 26 1010 69 10000 3.6 50 02:55 22.02.2021
2281 Clear 27 1010 65 10000 2.57 50 00:49 22.02.2021
2282 Clear 27 1010 65 10000 2.57 50 00:26 22.02.2021
2283 Clear 28 1010 61 10000 2.57 50 23:48 21.02.2021
2284 Clouds 29 1011 61 10000 3.6 40 22:55 21.02.2021
2285 Clouds 29 1011 61 10000 3.6 40 22:24 21.02.2021
2286 Clouds 29 1011 61 10000 4.63 40 21:49 21.02.2021
2287 Clouds 29 1011 61 10000 4.63 40 21:30 21.02.2021
2288 Clouds 29 1012 61 10000 4.12 50 20:49 21.02.2021
2289 Clouds 29 1012 61 10000 4.12 50 20:20 21.02.2021
2290 Clouds 29 1013 65 10000 4.63 50 19:57 21.02.2021
2291 Clouds 29 1013 65 10000 4.63 50 19:36 21.02.2021
2292 Clouds 30 1013 65 10000 4.63 50 19:18 21.02.2021
2293 Clouds 30 1014 65 10000 3.6 20 18:26 21.02.2021
2294 Clear 29 1014 69 10000 3.6 10 17:47 21.02.2021
2295 Clear 27 1014 69 10000 3.6 10 17:20 21.02.2021
2296 Clear 28 1015 69 10000 3.6 10 16:47 21.02.2021
2297 Clear 26 1015 69 10000 3.6 10 16:26 21.02.2021
2298 Clear 26 1015 73 10000 3.6 350 15:25 21.02.2021
2299 Clear 25 1015 69 10000 3.09 360 14:58 21.02.2021
2300 Clear 24 1015 69 10000 3.09 360 14:37 21.02.2021
2301 Clear 24 1015 69 10000 3.09 360 14:37 21.02.2021
2302 Clear 23 1015 73 10000 3.09 360 13:57 21.02.2021
2303 Clear 23 1015 73 10000 3.09 360 13:29 21.02.2021
2304 Clear 23 1016 72 10000 0.45 90 12:49 21.02.2021
2305 Clear 22 1015 68 10000 3.6 20 12:26 21.02.2021
2306 Rain 21 1015 68 10000 3.6 20 11:42 21.02.2021
2307 Rain 21 1015 64 10000 4.12 30 10:48 21.02.2021
2308 Rain 21 1015 64 10000 4.12 30 10:22 21.02.2021
2309 Clear 21 1014 52 10000 4.12 30 09:47 21.02.2021
2310 Rain 21 1014 52 10000 4.12 30 09:25 21.02.2021
2311 Rain 21 1015 52 10000 5.14 40 08:37 21.02.2021
2312 Rain 22 1014 49 10000 4.63 50 07:58 21.02.2021
2313 Clear 22 1014 49 10000 4.63 50 07:23 21.02.2021
2314 Clear 22 1014 46 10000 4.12 50 06:45 21.02.2021
2315 Clear 23 1015 35 10000 3.6 30 02:43 21.02.2021
2316 Clear 23 1015 33 10000 2.57 40 01:22 21.02.2021
2317 Clear 23 1014 33 10000 3.6 20 00:22 21.02.2021
2318 Clear 23 1014 31 10000 3.6 30 23:48 20.02.2021
2319 Clear 24 1014 31 10000 3.6 30 22:58 20.02.2021
2320 Clear 25 1014 31 10000 3.6 30 22:33 20.02.2021
2321 Clear 25 1014 29 10000 3.6 20 21:57 20.02.2021
2322 Clear 25 1014 29 10000 3.6 20 21:39 20.02.2021
2323 Clear 25 1014 29 10000 3.6 20 21:18 20.02.2021
2324 Clear 26 1015 27 10000 4.12 40 20:38 20.02.2021
2325 Clear 26 1015 27 10000 4.12 40 20:19 20.02.2021
2326 Clear 26 1015 29 10000 4.63 40 19:41 20.02.2021
2327 Clear 26 1016 29 10000 4.12 40 18:55 20.02.2021
2328 Clear 26 1016 29 10000 4.12 40 18:33 20.02.2021
2329 Clear 26 1016 29 10000 4.12 40 18:33 20.02.2021
2330 Clear 26 1017 29 10000 3.6 40 17:47 20.02.2021
2331 Clear 25 1017 29 10000 3.6 40 17:28 20.02.2021
2332 Clear 25 1017 27 10000 3.6 40 16:49 20.02.2021
2333 Clear 24 1017 27 10000 3.6 40 16:23 20.02.2021
2334 Clear 24 1018 31 10000 3.09 40 15:42 20.02.2021
2335 Clear 23 1018 33 10000 2.57 60 14:52 20.02.2021
2336 Clear 22 1018 33 10000 2.57 60 14:25 20.02.2021
2337 Clear 22 1018 35 10000 0.51 360 13:58 20.02.2021
2338 Clear 22 1018 35 10000 0.51 360 13:39 20.02.2021
2339 Clear 21 1018 35 10000 0.51 360 13:20 20.02.2021
2340 Clear 20 1017 39 10000 1.03 250 12:36 20.02.2021
2341 Clear 18 1017 45 10000 0.51 210 11:51 20.02.2021
2342 Clear 18 1017 45 10000 0.51 210 11:31 20.02.2021
2343 Clear 18 1017 45 10000 0.51 210 11:31 20.02.2021
2344 Clear 16 1016 42 10000 1.54 200 10:50 20.02.2021
2345 Clear 16 1016 42 10000 1.54 200 10:21 20.02.2021
2346 Clear 16 1016 34 10000 2.06 190 09:46 20.02.2021
2347 Clear 17 1016 34 10000 1.54 190 08:53 20.02.2021
2348 Clear 17 1016 34 10000 1.54 190 08:23 20.02.2021
2349 Clear 20 1015 26 10000 2.06 200 04:56 20.02.2021
2350 Clear 22 1015 25 10000 2.57 230 02:32 20.02.2021
2351 Clear 23 1014 22 10000 2.06 220 01:55 20.02.2021
2352 Clear 24 1013 23 10000 3.6 220 00:55 20.02.2021
2353 Clear 24 1013 23 10000 3.6 220 00:36 20.02.2021
2354 Clear 26 1012 27 10000 4.63 220 23:26 19.02.2021
2355 Clouds 27 1013 24 10000 0.45 45 22:43 19.02.2021
2356 Clouds 27 1013 23 10000 0.45 45 22:19 19.02.2021
2357 Clear 28 1012 36 10000 3.09 0 21:39 19.02.2021
2358 Clear 28 1012 36 10000 3.09 0 21:39 19.02.2021
2359 Clear 28 1012 36 10000 3.09 0 21:20 19.02.2021
2360 Clear 28 1012 34 10000 4.12 230 20:40 19.02.2021
2361 Clear 29 1012 34 10000 4.12 230 20:22 19.02.2021
2362 Clear 28 1012 32 10000 4.63 230 19:43 19.02.2021
2363 Clear 29 1012 32 10000 4.63 230 19:20 19.02.2021
2364 Clear 28 1012 34 10000 4.63 230 18:43 19.02.2021
2365 Clear 29 1012 34 10000 4.63 230 18:23 19.02.2021
2366 Clear 28 1012 41 10000 3.09 250 17:24 19.02.2021
2367 Clear 28 1012 39 10000 5.14 250 16:40 19.02.2021
2368 Clear 28 1012 39 10000 5.14 250 16:21 19.02.2021
2369 Clear 28 1012 44 10000 4.12 250 15:49 19.02.2021
2370 Clear 27 1012 44 10000 4.12 250 15:27 19.02.2021
2371 Clear 26 1011 50 10000 3.6 230 14:44 19.02.2021
2372 Clear 25 1011 50 10000 3.6 230 14:26 19.02.2021
2373 Clear 25 1011 53 10000 4.12 230 13:53 19.02.2021
2374 Clear 24 1011 53 10000 4.12 230 13:25 19.02.2021
2375 Clear 24 1011 57 10000 3.6 230 12:52 19.02.2021
2376 Clear 24 1011 57 10000 3.6 230 12:24 19.02.2021
2377 Clear 23 1010 60 10000 3.6 250 11:53 19.02.2021
2378 Clear 24 1010 60 10000 3.6 250 11:26 19.02.2021
2379 Clear 23 1010 60 10000 5.66 250 10:54 19.02.2021
2380 Clear 23 1010 60 10000 5.66 250 10:30 19.02.2021
2381 Clear 24 1009 60 10000 4.12 260 09:51 19.02.2021
2382 Clear 24 1009 60 10000 4.12 260 09:26 19.02.2021
2383 Clear 24 1008 68 10000 2.57 300 08:54 19.02.2021
2384 Clear 24 1008 68 10000 2.57 300 08:24 19.02.2021
2385 Clear 24 1008 78 10000 2.06 300 07:49 19.02.2021
2386 Clear 24 1008 78 10000 2.06 300 07:30 19.02.2021
2387 Clear 24 1008 83 10000 2.57 320 06:53 19.02.2021
2388 Clear 26 1008 73 10000 1.54 330 05:28 19.02.2021
2389 Clear 26 1008 78 10000 1.03 300 04:41 19.02.2021
2390 Clear 26 1008 78 10000 1.03 300 04:41 19.02.2021
2391 Clear 27 1007 83 10000 2.06 320 01:47 19.02.2021
2392 Clouds 27 1007 78 10000 1.03 0 00:37 19.02.2021
2393 Clouds 28 1006 74 10000 2.57 10 23:55 18.02.2021
2394 Clouds 28 1006 74 10000 2.57 10 23:35 18.02.2021
2395 Clouds 30 1007 74 10000 3.09 40 22:50 18.02.2021
2396 Clouds 30 1007 74 10000 3.09 40 22:29 18.02.2021
2397 Clouds 30 1007 69 10000 3.6 50 21:48 18.02.2021
2398 Clouds 30 1007 69 10000 3.6 50 21:25 18.02.2021
2399 Clouds 30 1007 65 10000 3.6 50 20:43 18.02.2021
2400 Clouds 29 1007 65 10000 3.6 50 20:23 18.02.2021
2401 Clouds 29 1007 65 10000 3.6 50 19:47 18.02.2021
2402 Clouds 29 1007 65 10000 3.6 50 19:26 18.02.2021
2403 Clouds 29 1008 65 10000 3.6 30 18:53 18.02.2021
2404 Clouds 29 1008 65 10000 3.6 30 18:29 18.02.2021
2405 Clear 28 1009 65 10000 3.6 20 17:52 18.02.2021
2406 Clear 28 1009 65 10000 3.6 20 17:26 18.02.2021
2407 Clear 28 1009 57 10000 3.6 30 16:55 18.02.2021
2408 Clear 28 1009 57 10000 3.6 30 16:36 18.02.2021
2409 Clear 28 1009 57 10000 3.6 30 16:18 18.02.2021
2410 Clear 27 1010 57 10000 3.09 20 15:38 18.02.2021
2411 Clear 27 1010 57 10000 3.09 20 15:19 18.02.2021
2412 Clear 26 1010 50 10000 1.54 0 14:43 18.02.2021
2413 Clear 25 1010 50 10000 1.54 0 14:23 18.02.2021
2414 Clear 24 1010 50 10000 1.03 0 13:44 18.02.2021
2415 Clear 24 1010 50 10000 1.03 0 13:18 18.02.2021
2416 Clear 23 1009 64 10000 0.51 0 12:42 18.02.2021
2417 Clear 21 1009 64 10000 0.51 0 12:21 18.02.2021
2418 Clear 20 1009 77 10000 1.03 0 11:46 18.02.2021
2419 Clear 19 1009 77 10000 1.03 0 11:25 18.02.2021
2420 Clear 19 1009 83 10000 1.03 0 10:44 18.02.2021
2421 Clear 19 1009 83 10000 1.03 0 10:25 18.02.2021
2422 Clear 19 1008 83 10000 1.54 200 09:39 18.02.2021
2423 Clear 19 1008 83 10000 1.54 200 09:20 18.02.2021
2424 Clear 19 1008 88 10000 1.03 200 08:39 18.02.2021
2425 Clear 19 1008 88 10000 1.03 200 08:20 18.02.2021
2426 Clear 20 1009 88 10000 1.03 200 07:31 18.02.2021
2427 Clear 21 1008 78 10000 1.03 200 06:40 18.02.2021
2428 Clouds 23 1009 64 10000 1.54 180 02:21 18.02.2021
2429 Clouds 26 1007 57 10000 3.09 200 23:49 17.02.2021
2430 Clouds 26 1007 57 10000 3.09 200 23:20 17.02.2021
2431 Clouds 27 1007 57 10000 3.09 200 22:46 17.02.2021
2432 Clouds 27 1008 50 10000 3.09 210 22:22 17.02.2021
2433 Clouds 27 1008 50 10000 3.09 210 21:48 17.02.2021
2434 Clouds 27 1008 50 10000 3.09 210 21:21 17.02.2021
2435 Clouds 26 1008 50 10000 3.6 200 20:45 17.02.2021
2436 Clouds 26 1008 50 10000 3.6 200 20:25 17.02.2021
2437 Clouds 26 1009 57 10000 3.09 200 19:41 17.02.2021
2438 Clouds 26 1009 57 10000 3.09 200 19:22 17.02.2021
2439 Clouds 25 1009 60 10000 3.6 190 18:41 17.02.2021
2440 Clouds 25 1009 60 10000 3.6 190 18:18 17.02.2021
2441 Clouds 24 1009 64 10000 4.12 210 17:37 17.02.2021
2442 Clouds 24 1009 64 10000 4.12 210 17:18 17.02.2021
2443 Clouds 24 1009 60 10000 3.09 230 16:43 17.02.2021
2444 Clouds 24 1009 60 10000 3.09 230 16:22 17.02.2021
2445 Clouds 22 1010 68 10000 4.12 210 15:44 17.02.2021
2446 Clouds 23 1010 68 10000 4.12 210 15:23 17.02.2021
2447 Clouds 21 1009 77 10000 3.09 220 14:45 17.02.2021
2448 Clouds 21 1009 77 10000 3.09 220 14:26 17.02.2021
2449 Clouds 20 1009 77 10000 3.09 220 13:45 17.02.2021
2450 Clouds 21 1009 77 10000 3.09 220 13:27 17.02.2021
2451 Clouds 19 1009 82 10000 1.03 190 12:44 17.02.2021
2452 Clouds 19 1009 82 10000 2.57 200 12:22 17.02.2021
2453 Clouds 19 1009 82 10000 2.57 200 11:38 17.02.2021
2454 Clouds 19 1009 82 10000 2.57 200 11:18 17.02.2021
2455 Clouds 18 1008 88 10000 3.09 200 10:44 17.02.2021
2456 Clouds 18 1008 88 10000 3.09 200 10:24 17.02.2021
2457 Clouds 18 1008 88 10000 3.09 200 09:44 17.02.2021
2458 Clouds 18 1008 88 10000 3.09 200 09:25 17.02.2021
2459 Clouds 18 1008 82 10000 3.6 220 08:43 17.02.2021
2460 Clouds 19 1008 82 10000 3.6 220 08:22 17.02.2021
2461 Clouds 19 1008 82 10000 3.6 220 07:33 17.02.2021
2462 Clear 20 1008 78 10000 3.09 200 05:53 17.02.2021
2463 Clouds 22 1008 64 10000 4.12 220 02:34 17.02.2021
2464 Clouds 22 1008 64 10000 3.09 220 01:55 17.02.2021
2465 Clouds 23 1008 64 10000 2.57 220 00:33 17.02.2021
2466 Clouds 23 1007 60 10000 4.63 230 23:54 16.02.2021
2467 Clouds 23 1007 60 10000 4.63 230 23:34 16.02.2021
2468 Clouds 24 1007 57 10000 3.09 230 22:43 16.02.2021
2469 Clouds 24 1007 57 10000 3.09 230 22:24 16.02.2021
2470 Clouds 24 1008 57 10000 4.63 230 21:42 16.02.2021
2471 Clouds 24 1008 57 10000 4.63 230 21:22 16.02.2021
2472 Clouds 24 1008 60 10000 3.6 230 20:58 16.02.2021
2473 Clouds 24 1008 60 10000 3.6 230 20:39 16.02.2021
2474 Clouds 24 1008 60 10000 3.6 230 20:20 16.02.2021
2475 Clouds 24 1009 60 10000 4.12 0 19:40 16.02.2021
2476 Clouds 25 1009 60 10000 4.12 0 19:22 16.02.2021
2477 Clouds 23 1009 60 10000 3.6 230 18:40 16.02.2021
2478 Clouds 23 1009 60 10000 3.6 230 18:21 16.02.2021
2479 Clouds 23 1009 60 10000 4.12 230 17:50 16.02.2021
2480 Clouds 23 1009 60 10000 4.12 230 17:25 16.02.2021
2481 Clouds 22 1010 64 10000 3.6 230 16:51 16.02.2021
2482 Clouds 22 1010 64 10000 3.6 230 16:27 16.02.2021
2483 Clouds 21 1010 77 10000 4.12 230 15:47 16.02.2021
2484 Clouds 21 1010 77 10000 4.12 230 15:26 16.02.2021
2485 Clouds 20 1010 77 10000 4.12 230 14:50 16.02.2021
2486 Clouds 19 1010 77 10000 4.12 230 14:32 16.02.2021
2487 Clouds 19 1010 82 10000 3.09 230 13:58 16.02.2021
2488 Clouds 19 1010 82 10000 3.09 230 13:34 16.02.2021
2489 Clouds 18 1010 82 10000 2.06 230 12:47 16.02.2021
2490 Clouds 18 1010 82 10000 2.06 230 12:25 16.02.2021
2491 Clouds 18 1010 72 10000 2.57 200 11:50 16.02.2021
2492 Clouds 18 1010 72 10000 2.57 200 11:24 16.02.2021
2493 Clouds 17 1009 82 10000 3.09 200 10:56 16.02.2021
2494 Clouds 17 1009 82 10000 3.09 200 10:38 16.02.2021
2495 Clouds 17 1009 82 10000 3.09 200 10:20 16.02.2021
2496 Clouds 18 1009 82 10000 3.6 220 09:47 16.02.2021
2497 Clouds 18 1009 82 10000 3.6 220 09:47 16.02.2021
2498 Clouds 18 1009 82 10000 3.6 220 09:26 16.02.2021
2499 Clouds 18 1009 77 10000 3.6 200 08:42 16.02.2021
2500 Clouds 18 1009 77 10000 3.6 200 08:21 16.02.2021
2501 Clear 19 1009 77 10000 3.6 200 07:25 16.02.2021
2502 Clear 20 1010 68 10000 4.12 190 05:31 16.02.2021
2503 Clouds 25 1009 50 10000 3.6 200 00:51 16.02.2021
2504 Clouds 26 1008 47 10000 3.6 210 23:41 15.02.2021
2505 Clouds 26 1008 47 10000 3.6 210 23:20 15.02.2021
2506 Rain 27 1008 47 10000 4.63 210 22:43 15.02.2021
2507 Clouds 27 1008 47 10000 4.63 210 22:21 15.02.2021
2508 Clouds 28 1008 44 10000 4.63 200 21:42 15.02.2021
2509 Clouds 28 1008 44 10000 4.63 200 21:21 15.02.2021
2510 Clouds 28 1008 47 10000 5.14 210 20:45 15.02.2021
2511 Clouds 28 1008 47 10000 5.14 210 20:45 15.02.2021
2512 Clouds 29 1008 47 10000 5.14 210 20:26 15.02.2021
2513 Clouds 29 1008 47 10000 5.14 210 20:26 15.02.2021
2514 Clouds 28 1009 54 10000 4.63 200 19:44 15.02.2021
2515 Clouds 28 1009 54 10000 4.63 200 19:23 15.02.2021
2516 Clouds 27 1010 57 10000 4.12 200 18:46 15.02.2021
2517 Clouds 27 1010 57 10000 4.12 200 18:26 15.02.2021
2518 Clouds 27 1010 57 10000 3.09 180 17:42 15.02.2021
2519 Clouds 27 1010 57 10000 3.09 180 17:22 15.02.2021
2520 Clouds 26 1010 61 10000 4.63 180 16:55 15.02.2021
2521 Clouds 25 1010 61 10000 4.63 180 16:27 15.02.2021
2522 Clouds 24 1010 64 10000 3.6 200 15:50 15.02.2021
2523 Clouds 24 1010 64 10000 3.6 200 15:22 15.02.2021
2524 Clouds 23 1010 73 10000 4.63 180 14:54 15.02.2021
2525 Clouds 22 1010 73 10000 4.63 180 14:22 15.02.2021
2526 Clouds 21 1010 78 10000 4.63 190 13:58 15.02.2021
2527 Clouds 21 1010 78 10000 4.63 190 13:58 15.02.2021
2528 Clouds 22 1010 78 10000 4.63 190 13:39 15.02.2021
2529 Clouds 21 1010 78 10000 4.63 190 13:18 15.02.2021
2530 Clouds 20 1009 83 10000 3.6 190 12:38 15.02.2021
2531 Clouds 20 1009 83 10000 3.6 190 12:18 15.02.2021
2532 Clouds 20 1009 88 10000 4.12 180 11:40 15.02.2021
2533 Clouds 20 1009 88 10000 4.12 180 11:18 15.02.2021
2534 Clear 19 1008 88 10000 2.57 230 10:45 15.02.2021
2535 Clear 19 1008 88 10000 2.57 230 10:21 15.02.2021
2536 Clear 19 1007 83 10000 2.06 230 09:52 15.02.2021
2537 Clear 19 1007 83 10000 2.06 230 09:32 15.02.2021
2538 Clear 19 1007 83 10000 3.09 180 08:37 15.02.2021
2539 Clear 20 1007 83 10000 1.03 140 07:34 15.02.2021
2540 Rain 21 1007 83 10000 2.06 140 06:44 15.02.2021
2541 Rain 21 1007 83 10000 2.06 180 05:37 15.02.2021
2542 Clear 23 1007 88 10000 1.03 180 02:22 15.02.2021
2543 Rain 23 1005 88 8000 6.17 110 00:32 15.02.2021
2544 Rain 25 1005 73 3500 2.57 140 23:32 14.02.2021
2545 Clouds 27 1004 69 10000 3.6 60 22:52 14.02.2021
2546 Rain 27 1004 69 10000 3.6 60 22:34 14.02.2021
2547 Clouds 27 1004 69 10000 3.09 50 21:56 14.02.2021
2548 Clouds 27 1004 69 10000 3.09 50 21:36 14.02.2021
2549 Clouds 28 1004 73 10000 3.09 90 20:56 14.02.2021
2550 Clouds 28 1004 73 10000 3.09 90 20:31 14.02.2021
2551 Clouds 28 1005 69 10000 2.57 50 19:57 14.02.2021
2552 Clouds 27 1005 69 10000 2.57 50 19:35 14.02.2021
2553 Clouds 28 1006 73 10000 3.6 30 18:45 14.02.2021
2554 Clouds 28 1006 73 10000 3.6 30 18:24 14.02.2021
2555 Clouds 28 1006 78 10000 4.12 20 17:45 14.02.2021
2556 Clouds 28 1006 78 10000 4.12 20 17:25 14.02.2021
2557 Clouds 28 1007 73 10000 3.6 10 16:40 14.02.2021
2558 Clouds 28 1007 73 10000 3.6 10 16:20 14.02.2021
2559 Clear 27 1007 65 10000 2.06 320 15:44 14.02.2021
2560 Clear 25 1007 69 10000 1.54 290 14:59 14.02.2021
2561 Clear 24 1007 69 10000 1.54 290 14:32 14.02.2021
2562 Clouds 24 1007 78 10000 1.54 280 13:57 14.02.2021
2563 Clouds 23 1007 78 10000 1.54 280 13:32 14.02.2021
2564 Clouds 22 1007 78 10000 1.03 260 12:49 14.02.2021
2565 Clouds 22 1007 78 10000 1.03 260 12:22 14.02.2021
2566 Clouds 21 1006 83 10000 2.57 270 11:51 14.02.2021
2567 Clouds 21 1006 83 10000 2.57 270 11:25 14.02.2021
2568 Rain 21 1006 83 10000 3.09 280 10:49 14.02.2021
2569 Clear 21 1006 88 10000 5.14 310 09:57 14.02.2021
2570 Clear 21 1006 88 10000 5.14 310 09:39 14.02.2021
2571 Clear 22 1006 88 10000 5.14 310 09:21 14.02.2021
2572 Clear 22 1005 83 10000 2.57 340 08:41 14.02.2021
2573 Clear 22 1006 78 10000 2.57 360 07:57 14.02.2021
2574 Clouds 22 1006 83 10000 2.57 50 06:51 14.02.2021
2575 Clear 22 1007 83 10000 3.09 60 05:42 14.02.2021
2576 Clear 22 1007 88 10000 2.57 100 03:32 14.02.2021
2577 Clouds 22 1007 83 10000 5.14 80 02:21 14.02.2021
2578 Rain 22 1006 83 6000 1.03 290 00:47 14.02.2021
2579 Rain 23 1006 83 6000 1.03 290 00:26 14.02.2021
2580 Rain 23 1007 73 10000 2.06 60 23:40 13.02.2021
2581 Rain 24 1007 73 10000 3.6 90 23:20 13.02.2021
2582 Rain 25 1006 65 10000 2.57 0 22:41 13.02.2021
2583 Clouds 25 1006 65 10000 2.57 0 22:18 13.02.2021
2584 Clouds 25 1006 73 10000 4.12 90 21:42 13.02.2021
2585 Clouds 26 1007 78 10000 5.14 90 20:53 13.02.2021
2586 Clouds 27 1007 78 10000 5.14 90 20:28 13.02.2021
2587 Clouds 27 1007 83 10000 4.63 80 19:51 13.02.2021
2588 Clouds 27 1007 83 10000 4.63 80 19:25 13.02.2021
2589 Clouds 27 1008 78 10000 4.63 60 18:54 13.02.2021
2590 Clouds 27 1008 78 10000 4.63 60 18:34 13.02.2021
2591 Clouds 26 1009 78 10000 4.12 60 17:46 13.02.2021
2592 Clouds 26 1009 78 10000 4.12 60 17:26 13.02.2021
2593 Clouds 26 1009 78 10000 4.63 90 16:59 13.02.2021
2594 Clouds 26 1009 78 10000 4.63 90 16:41 13.02.2021
2595 Clouds 26 1010 78 10000 3.09 20 15:57 13.02.2021
2596 Clouds 25 1010 78 10000 3.09 20 15:27 13.02.2021
2597 Clouds 24 1011 88 10000 2.06 360 14:41 13.02.2021
2598 Clouds 25 1011 88 10000 2.06 360 14:19 13.02.2021
2599 Clouds 24 1010 83 10000 1.03 20 13:40 13.02.2021
2600 Clouds 23 1010 83 10000 1.03 20 13:22 13.02.2021
2601 Clouds 23 1011 88 10000 2.06 360 12:37 13.02.2021
2602 Clouds 23 1011 88 10000 2.06 360 12:18 13.02.2021
2603 Clouds 23 1012 99 10000 2.47 61 11:40 13.02.2021
2604 Clouds 22 1010 83 10000 3.09 20 11:18 13.02.2021
2605 Clouds 22 1011 99 10000 2.24 52 10:43 13.02.2021
2606 Rain 22 1010 83 10000 3.09 20 10:23 13.02.2021
2607 Clouds 22 1010 83 10000 3.09 20 09:48 13.02.2021
2608 Clouds 22 1010 83 10000 3.09 20 09:28 13.02.2021
2609 Clouds 22 1010 83 10000 3.09 30 08:50 13.02.2021
2610 Clouds 22 1010 83 10000 3.09 30 08:19 13.02.2021
2611 Rain 22 1011 78 10000 3.09 360 07:23 13.02.2021
2612 Rain 22 1011 94 10000 1.03 270 06:24 13.02.2021
2613 Clouds 22 1012 83 10000 1.54 310 04:31 13.02.2021
2614 Clear 23 1011 78 10000 1.54 90 02:41 13.02.2021
2615 Rain 24 1011 78 10000 6.17 360 00:54 13.02.2021
2616 Rain 24 1011 78 10000 6.17 360 00:54 13.02.2021
2617 Rain 24 1011 78 10000 7.2 90 00:18 13.02.2021
2618 Clouds 24 1009 83 10000 7.2 90 23:44 12.02.2021
2619 Clouds 24 1009 83 10000 7.2 90 23:18 12.02.2021
2620 Clouds 25 1010 78 10000 7.72 90 22:32 12.02.2021
2621 Clouds 26 1010 73 10000 7.72 90 21:58 12.02.2021
2622 Clouds 26 1010 73 10000 7.72 90 21:58 12.02.2021
2623 Clouds 27 1010 73 10000 7.72 90 21:38 12.02.2021
2624 Clouds 26 1010 73 10000 7.72 90 21:20 12.02.2021
2625 Clouds 26 1011 83 10000 6.17 90 20:40 12.02.2021
2626 Clouds 26 1011 83 10000 6.17 90 20:21 12.02.2021
2627 Clouds 27 1011 78 10000 3.09 90 19:49 12.02.2021
2628 Clouds 27 1011 78 10000 3.09 90 19:27 12.02.2021
2629 Clouds 26 1012 78 10000 3.09 90 18:32 12.02.2021
2630 Clouds 26 1013 88 10000 3.09 50 17:53 12.02.2021
2631 Clouds 26 1013 88 10000 3.09 50 17:35 12.02.2021
2632 Clouds 25 1013 83 10000 3.09 50 16:43 12.02.2021
2633 Clouds 25 1013 78 10000 3.09 30 15:48 12.02.2021
2634 Clouds 24 1013 78 10000 3.09 30 15:24 12.02.2021
2635 Clouds 23 1013 83 10000 2.06 30 14:59 12.02.2021
2636 Clouds 23 1013 83 10000 2.06 30 14:32 12.02.2021
2637 Clouds 24 1013 88 10000 1.54 60 13:43 12.02.2021
2638 Clouds 23 1013 88 10000 1.54 60 13:24 12.02.2021
2639 Clouds 23 1013 83 10000 0.51 0 12:51 12.02.2021
2640 Rain 23 1013 83 10000 0.51 0 12:33 12.02.2021
2641 Rain 22 1013 88 10000 1.03 270 11:46 12.02.2021
2642 Rain 22 1013 88 10000 1.03 270 11:20 12.02.2021
2643 Clouds 21 1012 94 10000 2.06 320 10:47 12.02.2021
2644 Clouds 22 1012 88 10000 3.6 340 09:56 12.02.2021
2645 Clouds 22 1012 88 10000 3.6 340 09:38 12.02.2021
2646 Rain 22 1012 88 10000 3.6 340 09:19 12.02.2021
2647 Clouds 22 1012 88 10000 3.6 10 08:40 12.02.2021
2648 Clouds 22 1012 88 10000 3.6 10 08:18 12.02.2021
2649 Clouds 22 1012 88 10000 2.57 40 07:51 12.02.2021
2650 Clouds 22 1012 88 10000 3.6 60 06:57 12.02.2021
2651 Clouds 22 1012 88 10000 3.6 70 05:49 12.02.2021
2652 Clouds 22 1012 88 10000 3.6 70 05:24 12.02.2021
2653 Rain 22 1012 88 9000 6.69 100 01:56 12.02.2021
2654 Rain 22 1012 88 4500 6.69 110 23:44 11.02.2021
2655 Rain 22 1012 88 4500 6.69 110 23:22 11.02.2021
2656 Rain 23 1012 88 10000 7.2 100 22:58 11.02.2021
2657 Clouds 23 1012 88 10000 7.2 100 22:39 11.02.2021
2658 Clouds 23 1012 88 10000 7.2 100 22:20 11.02.2021
2659 Rain 23 1012 83 10000 7.72 90 21:39 11.02.2021
2660 Clouds 23 1012 83 10000 7.72 90 21:19 11.02.2021
2661 Drizzle 23 1013 78 8000 10.29 90 20:45 11.02.2021
2662 Rain 22 1013 78 8000 10.29 90 20:22 11.02.2021
2663 Clouds 23 1013 73 10000 4.12 80 19:48 11.02.2021
2664 Clouds 25 1013 73 10000 4.12 80 19:29 11.02.2021
2665 Clouds 25 1014 83 10000 4.12 100 18:53 11.02.2021
2666 Clouds 25 1014 83 10000 4.12 100 18:29 11.02.2021
2667 Clouds 25 1014 78 10000 2.57 70 17:53 11.02.2021
2668 Clouds 26 1014 78 10000 2.57 70 17:22 11.02.2021
2669 Clouds 24 1014 83 10000 3.09 60 16:57 11.02.2021
2670 Clouds 24 1014 83 10000 3.09 60 16:39 11.02.2021
2671 Clouds 24 1014 83 10000 3.09 60 16:20 11.02.2021
2672 Clouds 24 1015 78 10000 3.6 70 15:41 11.02.2021
2673 Clouds 23 1015 88 10000 3.6 70 15:23 11.02.2021
2674 Clouds 23 1015 88 10000 3.6 70 14:44 11.02.2021
2675 Clouds 23 1015 88 10000 3.6 70 14:25 11.02.2021
2676 Clouds 23 1015 88 10000 4.12 60 13:38 11.02.2021
2677 Clouds 23 1015 88 10000 4.12 60 13:19 11.02.2021
2678 Clouds 22 1014 83 10000 4.12 60 12:44 11.02.2021
2679 Rain 22 1014 83 10000 4.12 60 12:21 11.02.2021
2680 Clouds 21 1014 94 10000 2.57 110 11:42 11.02.2021
2681 Clouds 20 1014 94 10000 2.57 110 11:20 11.02.2021
2682 Clouds 20 1014 94 10000 2.57 110 11:20 11.02.2021
2683 Clouds 20 1014 94 10000 1.54 140 10:42 11.02.2021
2684 Clouds 20 1014 94 6000 1.54 140 10:23 11.02.2021
2685 Rain 20 1014 94 3500 6.17 50 09:42 11.02.2021
2686 Rain 20 1014 94 3500 6.17 50 09:19 11.02.2021
2687 Clouds 20 1014 88 10000 1.03 140 08:50 11.02.2021
2688 Clouds 20 1014 88 10000 1.54 180 07:58 11.02.2021
2689 Clouds 20 1014 88 10000 1.54 180 07:58 11.02.2021
2690 Clouds 20 1014 88 10000 2.57 140 06:49 11.02.2021
2691 Clouds 20 1015 83 10000 2.57 140 06:29 11.02.2021
2692 Clouds 21 1016 78 10000 4.63 140 03:48 11.02.2021
2693 Clouds 22 1016 78 10000 5.14 140 02:28 11.02.2021
2694 Clouds 23 1016 78 10000 8.75 110 00:36 11.02.2021
2695 Clouds 23 1016 78 10000 8.75 110 00:18 11.02.2021
2696 Clouds 24 1015 78 10000 8.23 110 23:35 10.02.2021
2697 Clouds 24 1015 78 10000 8.75 110 22:48 10.02.2021
2698 Clouds 24 1015 78 10000 8.75 110 22:25 10.02.2021
2699 Clouds 25 1015 73 10000 9.77 110 21:40 10.02.2021
2700 Clouds 25 1015 73 10000 9.77 110 21:22 10.02.2021
2701 Clouds 26 1016 73 10000 8.75 100 20:58 10.02.2021
2702 Clouds 25 1016 73 10000 8.75 100 20:30 10.02.2021
2703 Clouds 25 1017 73 10000 8.23 100 19:59 10.02.2021
2704 Clouds 25 1017 73 10000 8.23 100 19:40 10.02.2021
2705 Clouds 25 1017 73 10000 8.23 100 19:19 10.02.2021
2706 Clouds 24 1018 73 10000 7.2 100 18:39 10.02.2021
2707 Clouds 25 1018 73 10000 7.2 100 18:18 10.02.2021
2708 Clouds 25 1018 69 10000 7.72 110 17:45 10.02.2021
2709 Clouds 25 1018 69 10000 7.72 110 17:21 10.02.2021
2710 Clouds 24 1019 73 10000 8.75 110 16:49 10.02.2021
2711 Clouds 24 1019 73 10000 8.75 110 16:49 10.02.2021
2712 Clouds 25 1019 73 10000 8.75 110 16:28 10.02.2021
2713 Clouds 24 1019 78 10000 6.69 130 15:39 10.02.2021
2714 Rain 24 1019 78 10000 6.69 130 15:21 10.02.2021
2715 Rain 22 1019 83 8000 3.6 120 14:39 10.02.2021
2716 Rain 21 1019 94 3500 5.14 120 13:55 10.02.2021
2717 Rain 20 1019 94 3500 5.14 120 13:31 10.02.2021
2718 Clouds 20 1019 94 9000 2.57 180 12:56 10.02.2021
2719 Clouds 19 1019 94 9000 2.57 180 12:37 10.02.2021
2720 Clouds 19 1019 94 9000 2.57 180 12:18 10.02.2021
2721 Rain 19 1019 94 4500 1.54 90 11:41 10.02.2021
2722 Rain 19 1018 94 5000 4.12 140 11:23 10.02.2021
2723 Clouds 19 1018 88 10000 3.09 140 10:40 10.02.2021
2724 Clouds 19 1018 88 10000 3.09 140 10:18 10.02.2021
2725 Clouds 19 1018 94 5000 2.57 150 09:37 10.02.2021
2726 Clouds 19 1018 94 5000 2.57 150 09:18 10.02.2021
2727 Clouds 19 1018 88 5000 4.12 140 08:42 10.02.2021
2728 Clouds 19 1018 94 10000 5.66 130 07:52 10.02.2021
2729 Clouds 19 1019 94 10000 4.12 130 06:51 10.02.2021
2730 Clouds 21 1019 73 10000 5.14 140 02:45 10.02.2021
2731 Clouds 22 1018 64 10000 8.23 120 00:25 10.02.2021
2732 Clouds 22 1018 73 10000 9.26 110 23:34 09.02.2021
2733 Clouds 23 1018 68 10000 9.77 110 22:54 09.02.2021
2734 Clouds 23 1018 68 10000 9.77 110 22:24 09.02.2021
2735 Clouds 23 1018 68 10000 9.26 110 21:52 09.02.2021
2736 Clouds 23 1018 68 10000 9.26 110 21:32 09.02.2021
2737 Clouds 22 1018 68 10000 5.14 110 20:49 09.02.2021
2738 Clouds 23 1018 68 10000 5.14 110 20:26 09.02.2021
2739 Drizzle 22 1019 83 8000 3.6 160 19:58 09.02.2021
2740 Drizzle 22 1019 83 8000 3.6 160 19:35 09.02.2021
2741 Drizzle 23 1020 73 8000 6.69 160 18:58 09.02.2021
2742 Drizzle 23 1020 73 8000 6.69 160 18:58 09.02.2021
2743 Drizzle 23 1020 73 8000 6.69 160 18:58 09.02.2021
2744 Drizzle 23 1020 73 8000 6.69 160 18:58 09.02.2021
2745 Drizzle 23 1020 73 8000 6.69 160 18:36 09.02.2021
2746 Clouds 23 1020 64 10000 9.77 110 17:57 09.02.2021
2747 Clouds 23 1020 64 10000 9.77 110 17:37 09.02.2021
2748 Clouds 23 1020 64 10000 9.77 110 17:18 09.02.2021
2749 Clouds 23 1020 64 10000 4.63 110 16:40 09.02.2021
2750 Clouds 24 1020 64 10000 4.63 110 16:18 09.02.2021
2751 Clouds 24 1020 68 10000 5.66 110 15:48 09.02.2021
2752 Clouds 24 1020 68 10000 5.66 110 15:24 09.02.2021
2753 Clouds 24 1020 64 10000 4.63 160 14:53 09.02.2021
2754 Clouds 23 1020 64 10000 4.63 160 14:26 09.02.2021
2755 Clouds 21 1020 64 10000 3.09 160 13:50 09.02.2021
2756 Clouds 21 1020 64 10000 3.09 160 13:21 09.02.2021
2757 Clouds 20 1020 77 10000 3.09 180 12:48 09.02.2021
2758 Clouds 19 1020 77 10000 3.09 180 12:30 09.02.2021
2759 Clouds 19 1020 77 10000 3.09 180 11:45 09.02.2021
2760 Clouds 18 1020 77 10000 3.09 180 11:24 09.02.2021
2761 Clear 17 1019 77 10000 2.57 160 10:58 09.02.2021
2762 Clear 17 1019 77 10000 2.57 160 10:38 09.02.2021
2763 Clear 18 1019 77 10000 2.57 160 10:18 09.02.2021
2764 Clear 18 1018 77 10000 3.6 160 09:41 09.02.2021
2765 Clear 18 1018 77 10000 3.6 160 09:21 09.02.2021
2766 Clouds 19 1018 73 10000 3.6 140 08:34 09.02.2021
2767 Clouds 19 1018 73 10000 4.63 140 07:57 09.02.2021
2768 Clouds 19 1018 83 8000 4.63 140 05:40 09.02.2021
2769 Clouds 20 1019 83 10000 5.14 140 03:49 09.02.2021
2770 Clouds 20 1018 78 10000 6.17 140 02:27 09.02.2021
2771 Clouds 21 1017 73 10000 6.69 130 00:32 09.02.2021
2772 Clouds 22 1017 68 10000 6.17 120 23:44 08.02.2021
2773 Clouds 22 1017 68 10000 6.17 120 23:19 08.02.2021
2774 Clouds 23 1016 68 10000 6.69 120 22:43 08.02.2021
2775 Clouds 23 1016 68 10000 6.69 120 22:22 08.02.2021
2776 Clouds 23 1016 73 10000 8.23 110 21:49 08.02.2021
2777 Clouds 23 1016 73 10000 8.23 110 21:30 08.02.2021
2778 Clouds 23 1016 73 10000 8.75 110 20:55 08.02.2021
2779 Clouds 23 1016 73 10000 8.75 110 20:36 08.02.2021
2780 Clouds 23 1016 73 10000 8.75 110 20:36 08.02.2021
2781 Clouds 23 1016 73 10000 8.75 110 20:18 08.02.2021
2782 Clouds 23 1016 73 10000 8.75 110 19:41 08.02.2021
2783 Clouds 23 1016 73 10000 8.75 110 19:21 08.02.2021
2784 Clouds 23 1017 68 10000 5.66 130 18:44 08.02.2021
2785 Clouds 23 1017 68 10000 5.66 130 18:19 08.02.2021
2786 Drizzle 22 1017 78 7000 6.17 130 17:43 08.02.2021
2787 Drizzle 22 1017 78 7000 6.17 130 17:23 08.02.2021
2788 Clouds 22 1017 73 10000 5.66 130 16:42 08.02.2021
2789 Clouds 22 1017 73 10000 5.66 130 16:21 08.02.2021
2790 Clouds 21 1017 83 10000 6.17 140 15:42 08.02.2021
2791 Clouds 21 1017 83 10000 6.17 140 15:20 08.02.2021
2792 Clouds 20 1017 94 10000 5.14 140 14:51 08.02.2021
2793 Clouds 20 1017 94 10000 5.14 140 14:30 08.02.2021
2794 Drizzle 20 1016 94 7000 3.6 174 13:56 08.02.2021
2795 Drizzle 20 1016 94 7000 3.6 174 13:32 08.02.2021
2796 Drizzle 20 1015 83 4000 6.17 130 12:51 08.02.2021
2797 Rain 20 1015 83 4000 6.17 130 12:33 08.02.2021
2798 Clouds 20 1015 83 10000 4.63 170 11:43 08.02.2021
2799 Clouds 20 1015 83 10000 4.63 170 11:18 08.02.2021
2800 Clouds 20 1014 78 10000 3.09 170 10:42 08.02.2021
2801 Clouds 20 1014 78 10000 3.09 170 10:23 08.02.2021
2802 Clouds 21 1013 83 10000 3.09 140 09:50 08.02.2021
2803 Clouds 22 1013 83 10000 3.09 140 09:22 08.02.2021
2804 Clouds 22 1013 83 10000 3.6 140 08:31 08.02.2021
2805 Clouds 23 1013 78 10000 4.63 140 07:49 08.02.2021
2806 Clouds 23 1013 69 10000 4.63 140 07:21 08.02.2021
2807 Clouds 23 1014 73 10000 7.2 140 05:28 08.02.2021
2808 Clear 26 1013 65 10000 1.54 320 02:27 08.02.2021
2809 Clear 28 1012 61 10000 1.03 360 00:26 08.02.2021
2810 Clear 29 1012 57 10000 2.57 50 23:56 07.02.2021
2811 Clear 29 1012 57 10000 2.57 50 23:37 07.02.2021
2812 Clear 30 1012 57 10000 2.57 50 23:18 07.02.2021
2813 Clouds 31 1012 54 10000 3.6 50 22:42 07.02.2021
2814 Clouds 31 1012 54 10000 3.6 50 22:24 07.02.2021
2815 Clouds 31 1012 54 10000 4.63 40 21:51 07.02.2021
2816 Clouds 31 1012 54 10000 4.63 40 21:26 07.02.2021
2817 Clouds 31 1012 54 10000 4.63 40 20:51 07.02.2021
2818 Clouds 31 1012 54 10000 4.63 40 20:33 07.02.2021
2819 Clouds 31 1013 51 10000 4.63 50 19:54 07.02.2021
2820 Clouds 31 1013 51 10000 4.63 50 19:29 07.02.2021
2821 Clouds 31 1014 57 10000 4.12 40 18:51 07.02.2021
2822 Clouds 31 1014 57 10000 4.12 40 18:31 07.02.2021
2823 Clouds 31 1014 57 10000 4.63 40 17:58 07.02.2021
2824 Clouds 31 1014 57 10000 4.63 40 17:40 07.02.2021
2825 Clouds 30 1014 57 10000 4.63 40 17:18 07.02.2021
2826 Clouds 30 1014 57 10000 4.63 40 17:18 07.02.2021
2827 Clear 30 1014 65 10000 3.6 20 16:43 07.02.2021
2828 Clear 30 1014 65 10000 3.6 20 16:22 07.02.2021
2829 Clear 28 1014 65 10000 3.09 360 15:46 07.02.2021
2830 Clear 29 1014 65 10000 3.09 360 15:27 07.02.2021
2831 Clear 28 1014 69 10000 3.09 350 14:47 07.02.2021
2832 Clear 27 1014 69 10000 3.09 350 14:29 07.02.2021
2833 Clear 27 1014 73 10000 2.06 350 13:52 07.02.2021
2834 Clear 26 1014 73 10000 2.06 350 13:33 07.02.2021
2835 Clear 25 1014 73 10000 1.54 350 12:44 07.02.2021
2836 Clear 24 1014 73 10000 1.54 350 12:22 07.02.2021
2837 Clear 23 1013 83 10000 1.54 50 11:46 07.02.2021
2838 Clear 23 1013 83 10000 1.54 50 11:46 07.02.2021
2839 Clear 22 1013 83 10000 1.54 50 11:26 07.02.2021
2840 Clear 22 1013 88 10000 2.06 50 10:44 07.02.2021
2841 Clear 22 1013 88 10000 2.06 50 10:23 07.02.2021
2842 Clouds 22 1013 88 10000 2.06 60 09:44 07.02.2021
2843 Clouds 22 1013 88 10000 2.06 60 09:21 07.02.2021
2844 Clouds 22 1013 88 10000 3.09 60 08:22 07.02.2021
2845 Clouds 23 1013 88 10000 6.17 100 06:34 07.02.2021
2846 Clouds 23 1013 88 10000 6.17 100 06:34 07.02.2021
2847 Clouds 23 1013 94 10000 6.17 100 05:56 07.02.2021
2848 Clouds 24 1013 73 10000 5.14 110 03:39 07.02.2021
2849 Clear 27 1012 69 10000 3.6 320 01:24 07.02.2021
2850 Clear 28 1012 74 10000 3.09 340 00:29 07.02.2021
2851 Clear 29 1012 69 10000 3.09 10 23:42 06.02.2021
2852 Clear 30 1012 61 10000 3.09 20 22:33 06.02.2021
2853 Clear 31 1012 51 10000 3.6 20 21:39 06.02.2021
2854 Clear 31 1012 51 10000 3.6 20 21:21 06.02.2021
2855 Clear 31 1013 54 10000 3.09 360 20:47 06.02.2021
2856 Clear 31 1013 54 10000 3.09 360 20:25 06.02.2021
2857 Clear 31 1013 54 10000 4.12 20 19:55 06.02.2021
2858 Clear 31 1013 54 10000 4.12 20 19:29 06.02.2021
2859 Clear 31 1013 48 10000 4.12 360 18:46 06.02.2021
2860 Clear 31 1013 48 10000 4.12 360 18:28 06.02.2021
2861 Clear 30 1014 51 10000 5.14 360 17:45 06.02.2021
2862 Clear 30 1014 51 10000 5.14 360 17:22 06.02.2021
2863 Clear 30 1015 47 10000 2.57 20 16:58 06.02.2021
2864 Clear 29 1015 47 10000 2.57 20 16:34 06.02.2021
2865 Clear 29 1015 36 10000 2.57 230 15:57 06.02.2021
2866 Clear 28 1015 36 10000 2.57 230 15:38 06.02.2021
2867 Clear 28 1015 36 10000 2.57 230 15:18 06.02.2021
2868 Clear 26 1015 53 10000 2.06 270 14:44 06.02.2021
2869 Clear 25 1015 53 10000 2.06 270 14:22 06.02.2021
2870 Clear 24 1015 73 10000 1.54 270 13:47 06.02.2021
2871 Clear 21 1014 72 10000 1.03 270 12:51 06.02.2021
2872 Clear 21 1014 72 10000 1.03 270 12:21 06.02.2021
2873 Clear 20 1014 77 10000 2.06 270 11:45 06.02.2021
2874 Clear 20 1013 77 10000 1.54 270 11:22 06.02.2021
2875 Clear 19 1013 77 10000 1.54 270 10:53 06.02.2021
2876 Clear 19 1013 77 10000 1.54 270 10:28 06.02.2021
2877 Clear 19 1013 77 10000 2.06 270 09:54 06.02.2021
2878 Clear 19 1013 77 10000 2.06 270 09:36 06.02.2021
2879 Clear 19 1013 77 10000 2.06 270 09:18 06.02.2021
2880 Clear 20 1013 77 10000 1.54 320 08:29 06.02.2021
2881 Clear 20 1013 77 10000 1.03 360 07:44 06.02.2021
2882 Clear 21 1014 68 10000 2.06 50 05:42 06.02.2021
2883 Clear 21 1014 64 10000 2.57 70 03:47 06.02.2021
2884 Clear 22 1013 68 10000 3.09 70 01:30 06.02.2021
2885 Clear 22 1013 83 10000 4.63 90 00:45 06.02.2021
2886 Clear 22 1013 83 10000 4.63 90 00:18 06.02.2021
2887 Clear 23 1013 68 10000 5.14 90 23:41 05.02.2021
2888 Clear 23 1013 68 10000 5.14 90 23:23 05.02.2021
2889 Clear 25 1013 64 10000 3.6 90 22:43 05.02.2021
2890 Clear 24 1013 64 10000 3.6 90 22:18 05.02.2021
2891 Clear 26 1013 60 10000 4.63 60 21:40 05.02.2021
2892 Clear 26 1014 64 10000 3.09 50 20:58 05.02.2021
2893 Clear 27 1014 64 10000 3.09 50 20:37 05.02.2021
2894 Clear 27 1014 57 10000 3.6 50 19:47 05.02.2021
2895 Clear 27 1014 57 10000 3.6 50 19:19 05.02.2021
2896 Clear 26 1015 60 10000 3.09 50 18:43 05.02.2021
2897 Clear 26 1015 60 10000 3.09 50 18:19 05.02.2021
2898 Clear 26 1016 60 10000 3.09 50 17:42 05.02.2021
2899 Clear 25 1016 60 10000 3.09 50 17:20 05.02.2021
2900 Clear 25 1016 56 10000 3.6 70 16:43 05.02.2021
2901 Clear 24 1016 56 10000 3.6 70 16:21 05.02.2021
2902 Clear 23 1016 60 10000 3.6 90 15:50 05.02.2021
2903 Clear 23 1016 60 10000 3.6 90 15:23 05.02.2021
2904 Clear 22 1016 56 10000 2.06 160 14:39 05.02.2021
2905 Clear 22 1016 56 10000 2.06 160 14:21 05.02.2021
2906 Clear 20 1017 68 10000 1.54 160 13:53 05.02.2021
2907 Clear 21 1017 68 10000 1.54 160 13:33 05.02.2021
2908 Clear 18 1016 82 10000 2.06 180 12:45 05.02.2021
2909 Clear 18 1016 82 10000 2.06 180 12:23 05.02.2021
2910 Clear 18 1016 82 10000 2.06 160 11:39 05.02.2021
2911 Clear 18 1016 82 10000 2.06 160 11:39 05.02.2021
2912 Clear 17 1016 82 10000 2.06 160 11:20 05.02.2021
2913 Clear 17 1016 77 10000 1.54 180 10:49 05.02.2021
2914 Clear 17 1016 77 10000 1.54 180 10:25 05.02.2021
2915 Clear 17 1015 77 10000 2.57 170 09:43 05.02.2021
2916 Clear 17 1015 77 10000 2.57 170 09:24 05.02.2021
2917 Clear 18 1015 68 10000 2.57 160 08:45 05.02.2021
2918 Clear 18 1016 60 10000 3.09 140 07:45 05.02.2021
2919 Clear 19 1016 60 10000 3.09 140 07:26 05.02.2021
2920 Clear 20 1016 49 10000 1.54 160 06:41 05.02.2021
2921 Clear 21 1016 56 10000 3.6 150 05:35 05.02.2021
2922 Clear 24 1016 53 10000 5.66 110 02:26 05.02.2021
2923 Clear 25 1016 38 10000 1.03 180 01:55 05.02.2021
2924 Clear 26 1015 34 10000 3.09 170 00:38 05.02.2021
2925 Clear 27 1015 34 10000 3.09 170 00:19 05.02.2021
2926 Clear 28 1016 30 10000 3.6 150 23:44 04.02.2021
2927 Clear 28 1016 30 10000 3.6 150 23:25 04.02.2021
2928 Clear 29 1016 28 10000 3.6 180 22:55 04.02.2021
2929 Clear 29 1016 28 10000 3.6 180 22:37 04.02.2021
2930 Clear 29 1016 100 10000 3.6 170 21:58 04.02.2021
2931 Clear 29 1016 100 10000 3.6 170 21:40 04.02.2021
2932 Clear 28 1016 28 10000 4.63 140 20:58 04.02.2021
2933 Clear 28 1016 28 10000 4.63 140 20:34 04.02.2021
2934 Clear 28 1017 30 10000 4.12 150 19:53 04.02.2021
2935 Clear 28 1017 30 10000 4.12 150 19:27 04.02.2021
2936 Clear 27 1017 34 10000 4.12 170 18:46 04.02.2021
2937 Clear 27 1017 34 10000 4.12 170 18:24 04.02.2021
2938 Clear 27 1017 31 10000 4.12 170 17:47 04.02.2021
2939 Clear 26 1017 31 10000 4.12 170 17:22 04.02.2021
2940 Clear 25 1018 46 10000 4.63 180 16:50 04.02.2021
2941 Clear 25 1018 46 10000 4.63 180 16:50 04.02.2021
2942 Clear 24 1018 46 10000 4.63 180 16:21 04.02.2021
2943 Clouds 24 1018 53 10000 3.6 170 15:41 04.02.2021
2944 Clouds 23 1018 53 10000 3.6 170 15:22 04.02.2021
2945 Clouds 22 1018 64 10000 4.12 190 14:58 04.02.2021
2946 Clouds 22 1018 64 10000 4.12 190 14:40 04.02.2021
2947 Clouds 22 1018 64 10000 4.12 190 14:20 04.02.2021
2948 Clouds 20 1017 73 10000 3.09 190 13:44 04.02.2021
2949 Clouds 19 1017 77 10000 2.57 200 12:57 04.02.2021
2950 Clouds 19 1017 77 10000 2.57 200 12:27 04.02.2021
2951 Clouds 18 1016 88 10000 2.57 170 11:53 04.02.2021
2952 Clouds 18 1016 88 10000 2.57 170 11:32 04.02.2021
2953 Clouds 18 1015 82 10000 3.09 170 10:45 04.02.2021
2954 Clouds 18 1015 88 10000 2.57 180 10:18 04.02.2021
2955 Clouds 18 1015 88 10000 2.57 180 09:43 04.02.2021
2956 Clouds 18 1015 88 10000 2.57 180 09:19 04.02.2021
2957 Clouds 18 1015 83 10000 1.54 180 08:41 04.02.2021
2958 Clouds 18 1015 83 10000 1.54 180 08:20 04.02.2021
2959 Clear 19 1015 83 10000 3.6 180 07:42 04.02.2021
2960 Clear 19 1015 83 10000 3.6 180 06:55 04.02.2021
2961 Clear 19 1015 83 10000 3.6 180 06:37 04.02.2021
2962 Clouds 21 1015 68 10000 2.06 180 03:53 04.02.2021
2963 Rain 22 1015 68 10000 1.03 320 02:26 04.02.2021
2964 Clouds 23 1013 69 10000 4.12 140 00:42 04.02.2021
2965 Clouds 24 1012 78 10000 6.69 140 23:40 03.02.2021
2966 Clouds 24 1012 78 9000 4.12 120 22:44 03.02.2021
2967 Clouds 25 1012 78 9000 4.12 120 22:22 03.02.2021
2968 Clouds 25 1012 94 10000 6.17 110 21:58 03.02.2021
2969 Clouds 25 1012 94 10000 6.17 110 21:37 03.02.2021
2970 Clouds 25 1014 70 10000 0.89 315 21:18 03.02.2021
2971 Clouds 24 1012 94 10000 3.6 110 20:43 03.02.2021
2972 Rain 24 1013 94 5000 6.17 90 20:24 03.02.2021
2973 Clouds 24 1013 73 5000 6.17 90 19:43 03.02.2021
2974 Rain 24 1013 73 9000 6.69 90 19:21 03.02.2021
2975 Rain 25 1013 65 10000 4.63 160 18:48 03.02.2021
2976 Clouds 25 1013 65 10000 4.63 160 18:20 03.02.2021
2977 Rain 25 1014 65 10000 3.6 160 17:51 03.02.2021
2978 Clouds 25 1014 65 10000 3.6 160 17:30 03.02.2021
2979 Clouds 25 1014 69 10000 4.63 160 16:53 03.02.2021
2980 Clouds 25 1014 69 10000 4.63 160 16:29 03.02.2021
2981 Clouds 24 1015 73 10000 3.6 160 15:45 03.02.2021
2982 Clouds 24 1015 73 10000 3.6 160 15:25 03.02.2021
2983 Clouds 23 1015 78 10000 3.6 160 14:53 03.02.2021
2984 Clouds 23 1015 78 10000 3.6 160 14:26 03.02.2021
2985 Clouds 22 1015 83 9000 3.6 180 13:54 03.02.2021
2986 Clouds 21 1015 83 9000 3.6 180 13:26 03.02.2021
2987 Mist 21 1015 83 10000 3.6 180 12:47 03.02.2021
2988 Mist 20 1015 83 10000 3.6 180 12:27 03.02.2021
2989 Clouds 20 1014 83 10000 2.57 150 11:49 03.02.2021
2990 Clouds 20 1014 83 10000 2.57 150 11:28 03.02.2021
2991 Clouds 20 1014 83 10000 3.6 170 10:53 03.02.2021
2992 Clouds 20 1014 83 10000 3.6 170 10:21 03.02.2021
2993 Clear 20 1013 88 10000 3.09 140 09:47 03.02.2021
2994 Rain 20 1013 88 10000 3.09 140 09:28 03.02.2021
2995 Rain 20 1014 88 10000 2.57 150 08:52 03.02.2021
2996 Rain 20 1014 88 10000 2.57 150 08:27 03.02.2021
2997 Clouds 20 1014 88 10000 3.6 160 07:39 03.02.2021
2998 Clouds 20 1014 88 10000 3.6 160 07:39 03.02.2021
2999 Clouds 21 1015 88 10000 3.6 180 06:40 03.02.2021
3000 Clouds 21 1015 83 10000 2.06 170 04:52 03.02.2021
3001 Clouds 21 1015 83 10000 2.06 170 04:29 03.02.2021
3002 Clouds 22 1014 88 10000 3.6 120 02:53 03.02.2021
3003 Clouds 22 1014 88 10000 3.6 120 02:23 03.02.2021
3004 Clouds 23 1013 78 10000 3.6 90 00:30 03.02.2021
3005 Clouds 24 1013 73 10000 3.09 140 23:48 02.02.2021
3006 Clouds 24 1013 73 10000 3.09 140 23:28 02.02.2021
3007 Clouds 24 1013 69 10000 3.09 140 22:54 02.02.2021
3008 Clouds 25 1013 69 10000 3.09 140 22:22 02.02.2021
3009 Clouds 25 1013 69 10000 3.09 140 22:22 02.02.2021
3010 Drizzle 25 1013 88 9000 3.6 130 21:54 02.02.2021
3011 Drizzle 24 1013 88 9000 3.6 130 21:29 02.02.2021
3012 Clouds 25 1014 83 10000 2.06 230 20:52 02.02.2021
3013 Clouds 25 1014 83 10000 2.06 230 20:27 02.02.2021
3014 Clouds 26 1014 65 10000 2.06 240 19:59 02.02.2021
3015 Clouds 25 1014 65 10000 2.06 240 19:40 02.02.2021
3016 Rain 25 1014 65 10000 2.06 240 19:22 02.02.2021
3017 Rain 25 1012 65 10000 3.09 150 18:43 02.02.2021
3018 Rain 25 1012 65 10000 3.09 150 18:24 02.02.2021
3019 Clouds 25 1013 69 10000 3.09 180 17:48 02.02.2021
3020 Clouds 25 1013 69 10000 3.09 180 17:21 02.02.2021
3021 Clouds 25 1014 68 10000 3.09 170 16:51 02.02.2021
3022 Clouds 23 1014 68 10000 3.09 170 16:31 02.02.2021
3023 Clouds 23 1013 73 10000 2.57 170 15:57 02.02.2021
3024 Rain 23 1013 73 10000 2.57 170 15:34 02.02.2021
3025 Rain 21 1013 88 10000 2.57 170 14:56 02.02.2021
3026 Rain 21 1013 88 10000 2.57 170 14:37 02.02.2021
3027 Rain 21 1013 88 10000 2.57 170 14:18 02.02.2021
3028 Clouds 20 1013 83 10000 3.6 170 13:42 02.02.2021
3029 Clouds 20 1013 83 10000 3.6 170 13:24 02.02.2021
3030 Clouds 19 1012 88 10000 4.12 190 12:53 02.02.2021
3031 Rain 19 1012 88 10000 4.12 190 12:22 02.02.2021
3032 Rain 19 1012 88 10000 2.06 170 11:38 02.02.2021
3033 Rain 19 1012 88 10000 2.06 170 11:18 02.02.2021
3034 Rain 19 1011 94 10000 2.57 190 10:43 02.02.2021
3035 Rain 19 1011 94 10000 2.57 190 10:25 02.02.2021
3036 Rain 19 1012 94 10000 2.57 180 09:45 02.02.2021
3037 Rain 19 1012 94 10000 2.57 180 09:21 02.02.2021
3038 Clouds 19 1012 94 10000 2.06 180 08:38 02.02.2021
3039 Clouds 19 1011 94 10000 2.57 180 07:46 02.02.2021
3040 Clouds 19 1012 88 10000 2.57 180 06:49 02.02.2021
3041 Rain 19 1012 88 10000 2.57 180 06:31 02.02.2021
3042 Rain 19 1012 88 10000 2.57 180 06:31 02.02.2021
3043 Rain 20 1012 88 10000 2.06 180 05:50 02.02.2021
3044 Clouds 20 1012 83 10000 2.57 180 02:57 02.02.2021
3045 Clouds 20 1012 83 10000 2.57 180 02:24 02.02.2021
3046 Clouds 21 1011 73 10000 3.09 180 00:38 02.02.2021
3047 Clouds 21 1010 78 10000 3.6 160 23:47 01.02.2021
3048 Clouds 22 1009 88 10000 4.12 100 22:53 01.02.2021
3049 Clouds 22 1009 88 10000 4.12 100 22:35 01.02.2021
3050 Clouds 23 1009 78 10000 1.03 0 21:57 01.02.2021
3051 Clouds 23 1009 78 10000 1.03 0 21:39 01.02.2021
3052 Clouds 23 1009 78 10000 1.03 0 21:20 01.02.2021
3053 Clouds 22 1010 88 10000 4.12 100 20:41 01.02.2021
3054 Clouds 22 1010 88 10000 4.12 100 20:22 01.02.2021
3055 Clouds 23 1010 83 10000 3.6 120 19:41 01.02.2021
3056 Clouds 22 1010 83 4000 5.14 110 19:21 01.02.2021
3057 Clouds 23 1010 83 10000 2.06 0 18:49 01.02.2021
3058 Clouds 23 1010 83 10000 2.06 0 18:29 01.02.2021
3059 Clouds 22 1010 83 5000 4.63 120 17:48 01.02.2021
3060 Clouds 22 1010 83 10000 6.69 110 17:26 01.02.2021
3061 Clouds 21 1011 100 10000 5.66 120 16:58 01.02.2021
3062 Mist 21 1011 100 5000 5.14 110 16:31 01.02.2021
3063 Clouds 20 1011 94 800 3.6 130 15:48 01.02.2021
3064 Clouds 20 1011 94 1500 3.09 140 15:20 01.02.2021
3065 Mist 19 1011 100 1500 4.12 140 14:52 01.02.2021
3066 Mist 19 1011 100 1500 4.12 140 14:52 01.02.2021
3067 Rain 19 1012 100 3000 4.63 140 14:33 01.02.2021
3068 Rain 19 1011 100 1500 3.09 130 13:51 01.02.2021
3069 Rain 19 1012 100 500 3.09 140 13:28 01.02.2021
3070 Rain 19 1011 94 500 2.57 150 12:58 01.02.2021
3071 Rain 19 1012 63 1500 3.6 140 12:40 01.02.2021
3072 Rain 19 1012 63 1500 3.6 140 12:40 01.02.2021
3073 Rain 19 1012 63 1500 3.6 140 12:21 01.02.2021
3074 Clouds 19 1012 94 4000 2.57 190 11:40 01.02.2021
3075 Clouds 19 1012 94 4000 2.57 190 11:19 01.02.2021
3076 Drizzle 19 1011 94 2000 2.57 170 10:44 01.02.2021
3077 Clouds 19 1011 94 2000 2.57 170 10:19 01.02.2021
3078 Rain 18 1011 88 10000 1.54 180 09:43 01.02.2021
3079 Rain 18 1011 88 10000 1.54 180 09:20 01.02.2021
3080 Clouds 18 1011 94 10000 6.17 90 08:44 01.02.2021
3081 Rain 18 1012 88 3000 7.72 90 07:37 01.02.2021
3082 Rain 19 1013 88 3000 2.57 140 05:59 01.02.2021
3083 Rain 19 1014 94 10000 3.09 140 02:49 01.02.2021
3084 Drizzle 20 1013 88 6000 5.14 140 00:40 01.02.2021
3085 Clouds 21 1015 98 10000 0.89 135 23:40 31.01.2021
3086 Clouds 21 1013 94 10000 4.63 140 22:43 31.01.2021
3087 Drizzle 21 1013 94 5000 2.57 130 22:23 31.01.2021
3088 Rain 21 1014 94 5000 3.09 150 21:49 31.01.2021
3089 Drizzle 21 1014 94 5000 3.09 150 21:23 31.01.2021
3090 Rain 21 1014 68 5000 7.72 100 20:46 31.01.2021
3091 Drizzle 21 1014 68 5000 7.72 100 20:21 31.01.2021
3092 Clouds 20 1015 88 10000 5.14 130 19:43 31.01.2021
3093 Rain 20 1015 88 10000 5.14 130 19:24 31.01.2021
3094 Rain 20 1015 88 10000 5.14 130 19:24 31.01.2021
3095 Clouds 20 1016 96 10000 0.45 315 18:58 31.01.2021
3096 Clouds 20 1016 86 10000 0.45 90 18:40 31.01.2021
3097 Clouds 20 1015 83 10000 3.6 160 18:19 31.01.2021
3098 Clouds 20 1016 83 10000 0.89 270 17:44 31.01.2021
3099 Clouds 20 1016 82 10000 4.12 150 17:23 31.01.2021
3100 Clouds 20 1016 82 10000 4.12 150 16:46 31.01.2021
3101 Clouds 20 1016 82 10000 4.12 150 16:27 31.01.2021
3102 Drizzle 20 1016 77 6000 4.63 150 15:50 31.01.2021
3103 Drizzle 19 1016 77 6000 4.63 150 15:31 31.01.2021
3104 Drizzle 19 1016 77 6000 3.6 160 14:42 31.01.2021
3105 Drizzle 18 1016 77 6000 3.6 160 14:21 31.01.2021
3106 Clouds 18 1016 77 10000 5.14 160 13:49 31.01.2021
3107 Clouds 18 1016 77 10000 5.14 160 13:26 31.01.2021
3108 Clouds 17 1016 72 10000 4.12 170 12:48 31.01.2021
3109 Clouds 17 1016 72 10000 4.12 170 12:22 31.01.2021
3110 Clouds 16 1015 77 10000 4.12 180 11:44 31.01.2021
3111 Clouds 16 1015 77 10000 4.12 180 11:44 31.01.2021
3112 Clouds 16 1015 77 10000 4.12 180 11:22 31.01.2021
3113 Clouds 16 1014 77 10000 3.6 107 10:49 31.01.2021
3114 Clouds 16 1014 77 10000 3.6 107 10:31 31.01.2021
3115 Drizzle 16 1014 82 5000 4.63 170 09:50 31.01.2021
3116 Clouds 16 1014 77 9000 4.12 170 08:59 31.01.2021
3117 Clouds 16 1014 77 9000 4.12 170 08:32 31.01.2021
3118 Clouds 17 1014 77 10000 4.12 150 06:55 31.01.2021
3119 Clouds 16 1015 82 10000 4.63 150 05:31 31.01.2021
3120 Rain 18 1012 77 10000 5.66 140 00:40 31.01.2021
3121 Rain 18 1012 77 10000 5.66 140 00:21 31.01.2021
3122 Drizzle 18 1010 82 9000 7.2 140 23:28 30.01.2021
3123 Clouds 18 1011 82 10000 5.66 140 22:49 30.01.2021
3124 Rain 17 1011 82 10000 5.66 140 22:28 30.01.2021
3125 Clouds 17 1010 88 9000 6.17 150 21:39 30.01.2021
3126 Rain 17 1009 100 5000 5.66 180 21:20 30.01.2021
3127 Rain 17 1009 100 5000 5.66 180 21:20 30.01.2021
3128 Rain 16 1009 100 3000 10.29 110 20:44 30.01.2021
3129 Rain 17 1009 100 3000 10.29 110 20:26 30.01.2021
3130 Rain 17 1009 88 3000 8.23 140 19:43 30.01.2021
3131 Rain 18 1010 88 3000 8.23 140 19:24 30.01.2021
3132 Rain 18 1011 94 3000 5.66 170 18:41 30.01.2021
3133 Rain 19 1011 94 3000 5.66 170 18:21 30.01.2021
3134 Rain 19 1011 78 4000 4.12 200 17:54 30.01.2021
3135 Rain 20 1011 78 4000 4.12 200 17:19 30.01.2021
3136 Rain 20 1011 73 2500 4.12 200 16:44 30.01.2021
3137 Rain 20 1011 73 2500 4.12 200 16:24 30.01.2021
3138 Rain 21 1010 64 8000 2.57 200 15:51 30.01.2021
3139 Rain 22 1010 64 8000 2.57 200 15:25 30.01.2021
3140 Rain 23 1010 60 9000 2.57 160 14:59 30.01.2021
3141 Rain 23 1010 60 10000 3.09 160 14:40 30.01.2021
3142 Rain 23 1010 60 10000 3.09 160 14:19 30.01.2021
3143 Rain 24 1008 57 10000 2.57 160 13:25 30.01.2021
3144 Rain 24 1008 60 10000 2.57 160 12:48 30.01.2021
3145 Rain 24 1008 60 10000 2.57 160 12:28 30.01.2021
3146 Rain 23 1007 68 10000 3.09 110 11:54 30.01.2021
3147 Rain 23 1007 68 10000 3.09 110 11:24 30.01.2021
3148 Clouds 23 1007 68 10000 3.6 110 10:43 30.01.2021
3149 Clear 23 1006 73 10000 2.57 170 09:43 30.01.2021
3150 Clear 23 1006 73 10000 2.57 170 09:25 30.01.2021
3151 Clear 23 1006 78 10000 1.03 200 08:47 30.01.2021
3152 Clear 23 1006 88 10000 1.03 200 07:44 30.01.2021
3153 Clear 24 1006 83 10000 1.54 220 06:35 30.01.2021
3154 Clear 25 1006 73 10000 1.54 270 03:57 30.01.2021
3155 Clear 25 1006 73 10000 1.54 270 03:33 30.01.2021
3156 Clear 25 1005 69 10000 3.09 320 02:23 30.01.2021
3157 Clear 27 1004 65 10000 4.12 340 00:58 30.01.2021
3158 Clear 27 1004 65 10000 4.12 340 00:34 30.01.2021
3159 Clear 28 1002 65 10000 4.12 360 23:55 29.01.2021
3160 Clear 28 1002 65 10000 4.12 360 23:28 29.01.2021
3161 Clouds 28 1003 73 10000 3.6 20 22:52 29.01.2021
3162 Clouds 28 1003 73 10000 3.6 20 22:32 29.01.2021
3163 Clouds 27 1003 78 10000 3.6 10 21:59 29.01.2021
3164 Clouds 27 1003 78 10000 3.6 10 21:27 29.01.2021
3165 Clouds 27 1004 73 10000 3.6 20 20:43 29.01.2021
3166 Clouds 27 1004 73 10000 3.6 20 20:24 29.01.2021
3167 Clouds 27 1004 73 10000 3.6 20 19:40 29.01.2021
3168 Clouds 27 1004 73 10000 3.6 20 19:21 29.01.2021
3169 Clouds 27 1005 73 10000 3.09 350 18:55 29.01.2021
3170 Clouds 26 1005 83 10000 3.09 10 17:50 29.01.2021
3171 Clouds 25 1005 83 10000 3.09 10 17:23 29.01.2021
3172 Clouds 25 1005 83 10000 3.09 10 17:23 29.01.2021
3173 Clouds 26 1005 78 10000 2.57 20 16:53 29.01.2021
3174 Clouds 24 1005 78 10000 2.57 20 16:28 29.01.2021
3175 Clouds 24 1006 78 10000 2.06 350 15:55 29.01.2021
3176 Clouds 24 1006 78 10000 2.06 350 15:37 29.01.2021
3177 Clouds 23 1006 78 10000 2.06 350 15:19 29.01.2021
3178 Rain 20 1006 83 6000 2.57 10 14:23 29.01.2021
3179 Rain 20 1005 88 10000 2.06 50 13:46 29.01.2021
3180 Rain 19 1005 88 10000 2.06 50 13:28 29.01.2021
3181 Rain 19 1007 88 5000 1.03 80 12:42 29.01.2021
3182 Rain 19 1007 88 5000 1.03 80 12:18 29.01.2021
3183 Rain 18 1023 87 10000 1.27 1 11:41 29.01.2021
3184 Rain 18 1023 87 10000 1.27 1 11:41 29.01.2021
3185 Rain 19 1009 88 4000 0.51 170 11:18 29.01.2021
3186 Rain 19 1009 88 4000 0.51 170 10:46 29.01.2021
3187 Rain 19 1006 88 4000 2.57 190 10:22 29.01.2021
3188 Rain 19 1006 88 4000 2.57 190 09:39 29.01.2021
3189 Rain 19 1006 83 4000 2.57 180 08:50 29.01.2021
3190 Rain 20 1006 83 2000 5.14 200 08:26 29.01.2021
3191 Rain 22 1006 69 7000 4.63 190 07:48 29.01.2021
3192 Rain 23 1005 69 7000 5.66 200 07:26 29.01.2021
3193 Rain 24 1005 73 10000 2.06 100 06:48 29.01.2021
3194 Clear 24 1005 78 10000 2.06 80 04:53 29.01.2021
3195 Clear 25 1004 73 10000 4.12 50 00:52 29.01.2021
3196 Clear 25 1004 73 10000 4.12 50 00:23 29.01.2021
3197 Clear 24 1003 73 10000 6.17 90 23:55 28.01.2021
3198 Clear 25 1003 73 10000 6.17 90 23:36 28.01.2021
3199 Rain 25 1003 73 10000 6.17 90 23:18 28.01.2021
3200 Clear 26 1004 69 10000 5.66 90 22:41 28.01.2021
3201 Rain 27 1004 69 10000 5.66 90 22:21 28.01.2021
3202 Clear 28 1005 69 10000 3.6 90 21:42 28.01.2021
3203 Clear 28 1005 69 10000 3.6 90 21:23 28.01.2021
3204 Clear 28 1006 57 10000 1.54 0 20:46 28.01.2021
3205 Rain 28 1006 57 10000 1.54 0 20:19 28.01.2021
3206 Rain 27 1007 65 10000 1.54 0 19:52 28.01.2021
3207 Rain 25 1007 65 10000 1.54 0 19:29 28.01.2021
3208 Rain 23 1007 78 8000 1.54 270 18:50 28.01.2021
3209 Rain 23 1007 78 8000 1.54 270 18:31 28.01.2021
3210 Rain 23 1007 78 10000 1.03 230 17:54 28.01.2021
3211 Rain 23 1007 78 10000 1.03 230 17:34 28.01.2021
3212 Rain 23 1008 83 9000 5.14 360 16:58 28.01.2021
3213 Rain 22 1009 88 10000 1.03 90 16:39 28.01.2021
3214 Rain 22 1009 88 10000 1.03 90 16:20 28.01.2021
3215 Rain 21 1009 88 10000 1.03 90 15:25 28.01.2021
3216 Rain 21 1009 88 8000 1.54 160 14:48 28.01.2021
3217 Rain 21 1009 88 10000 1.54 160 14:26 28.01.2021
3218 Rain 21 1008 73 8000 2.06 180 13:55 28.01.2021
3219 Rain 21 1008 73 3000 2.57 200 13:23 28.01.2021
3220 Rain 22 1007 64 10000 3.6 320 12:49 28.01.2021
3221 Rain 23 1007 64 10000 3.6 320 12:26 28.01.2021
3222 Rain 24 1005 64 10000 6.17 340 11:44 28.01.2021
3223 Rain 24 1005 64 10000 6.17 340 11:22 28.01.2021
3224 Rain 24 1005 64 10000 4.63 360 10:57 28.01.2021
3225 Clear 24 1005 64 10000 4.63 360 10:39 28.01.2021
3226 Clear 24 1005 64 10000 4.63 360 10:20 28.01.2021
3227 Clouds 24 1005 61 10000 4.12 360 09:36 28.01.2021
3228 Clouds 24 1005 61 10000 4.12 360 09:18 28.01.2021
3229 Clear 24 1005 61 10000 5.14 50 08:40 28.01.2021
3230 Clear 25 1005 61 10000 6.17 50 07:49 28.01.2021
3231 Clear 25 1005 61 10000 6.17 50 07:18 28.01.2021
3232 Clear 25 1006 57 10000 4.63 90 06:44 28.01.2021
3233 Clear 24 1006 60 10000 6.17 90 04:30 28.01.2021
3234 Clear 25 1006 57 10000 6.17 90 02:26 28.01.2021
3235 Clear 26 1005 57 10000 6.17 90 00:27 28.01.2021
3236 Clear 27 1005 53 10000 7.72 90 23:25 27.01.2021
3237 Clear 27 1004 50 10000 8.75 90 22:44 27.01.2021
3238 Clear 27 1004 50 10000 8.75 90 22:25 27.01.2021
3239 Clear 28 1004 51 10000 8.75 90 21:55 27.01.2021
3240 Clear 28 1004 51 10000 8.75 90 21:37 27.01.2021
3241 Clear 28 1004 51 10000 8.75 90 21:19 27.01.2021
3242 Clouds 29 1005 54 10000 8.23 80 20:39 27.01.2021
3243 Clouds 29 1005 61 10000 7.72 80 19:57 27.01.2021
3244 Clouds 29 1005 61 10000 7.72 80 19:37 27.01.2021
3245 Clouds 29 1005 61 10000 7.72 80 19:18 27.01.2021
3246 Clouds 30 1006 45 10000 7.2 80 18:41 27.01.2021
3247 Clouds 30 1006 45 10000 7.2 80 18:22 27.01.2021
3248 Clouds 31 1006 35 10000 6.17 80 17:44 27.01.2021
3249 Clouds 31 1006 35 10000 6.17 80 17:18 27.01.2021
3250 Clouds 31 1006 35 10000 6.17 80 17:18 27.01.2021
3251 Clouds 31 1006 32 10000 7.2 80 16:45 27.01.2021
3252 Clouds 31 1006 32 10000 7.2 80 16:27 27.01.2021
3253 Clear 30 1007 35 10000 2.57 130 15:50 27.01.2021
3254 Clear 30 1007 35 10000 2.57 130 15:30 27.01.2021
3255 Clear 29 1007 47 10000 2.57 150 14:41 27.01.2021
3256 Clear 28 1007 47 10000 2.57 150 14:20 27.01.2021
3257 Clear 27 1007 61 10000 3.6 140 13:42 27.01.2021
3258 Clear 25 1006 65 10000 3.09 160 12:47 27.01.2021
3259 Clear 25 1006 65 10000 3.09 160 12:26 27.01.2021
3260 Clear 24 1006 61 10000 4.12 170 11:52 27.01.2021
3261 Clear 24 1006 61 10000 4.12 170 11:26 27.01.2021
3262 Clear 24 1005 42 10000 5.14 190 10:52 27.01.2021
3263 Clear 24 1005 42 10000 5.14 190 10:26 27.01.2021
3264 Clear 23 1004 65 10000 2.57 230 09:59 27.01.2021
3265 Clear 24 1004 65 10000 2.57 230 09:33 27.01.2021
3266 Clear 24 1003 69 10000 3.09 230 08:48 27.01.2021
3267 Clear 24 1004 65 10000 2.06 230 07:58 27.01.2021
3268 Clear 25 1004 65 10000 2.06 230 07:39 27.01.2021
3269 Clear 25 1004 73 10000 2.62 257 06:47 27.01.2021
3270 Clear 27 1004 69 10000 4.17 295 05:56 27.01.2021
3271 Clear 27 1004 69 10000 4.15 295 05:35 27.01.2021
3272 Clear 27 1003 57 10000 1.54 140 02:46 27.01.2021
3273 Rain 27 1003 57 10000 1.54 140 02:20 27.01.2021
3274 Clear 27 1003 54 10000 4.12 110 01:46 27.01.2021
3275 Clear 28 1002 51 10000 4.12 140 00:27 27.01.2021
3276 Clouds 28 1002 54 10000 4.12 140 23:40 26.01.2021
3277 Clouds 28 1002 54 10000 4.12 140 23:40 26.01.2021
3278 Clouds 28 1002 54 10000 4.12 140 23:19 26.01.2021
3279 Rain 30 1001 43 10000 3.09 200 22:39 26.01.2021
3280 Rain 30 1001 43 10000 3.09 200 22:19 26.01.2021
3281 Rain 31 1000 38 10000 2.06 0 21:51 26.01.2021
3282 Clear 32 1000 38 10000 2.06 0 21:24 26.01.2021
3283 Clouds 33 1001 43 10000 3.09 240 20:43 26.01.2021
3284 Rain 33 1001 43 10000 3.09 240 20:23 26.01.2021
3285 Rain 31 1002 66 10000 4.63 340 19:51 26.01.2021
3286 Rain 31 1002 66 10000 4.63 340 19:30 26.01.2021
3287 Rain 31 1002 66 10000 4.63 340 19:30 26.01.2021
3288 Rain 32 1002 58 9000 3.09 350 18:58 26.01.2021
3289 Rain 32 1002 58 9000 3.09 350 18:58 26.01.2021
3290 Rain 32 1002 58 9000 3.09 350 18:40 26.01.2021
3291 Rain 32 1002 58 9000 3.09 350 18:21 26.01.2021
3292 Rain 32 1003 58 10000 3.6 360 17:47 26.01.2021
3293 Rain 32 1003 58 10000 3.6 360 17:22 26.01.2021
3294 Clouds 32 1003 61 9000 3.6 360 16:42 26.01.2021
3295 Clouds 32 1003 61 9000 3.6 360 16:42 26.01.2021
3296 Rain 32 1003 61 9000 3.6 360 16:20 26.01.2021
3297 Rain 32 1003 61 9000 3.09 20 15:49 26.01.2021
3298 Clouds 32 1003 61 9000 3.09 20 15:27 26.01.2021
3299 Clear 33 1004 54 10000 2.57 40 14:49 26.01.2021
3300 Clear 31 1004 54 10000 2.57 40 14:29 26.01.2021
3301 Clear 31 1004 45 10000 2.06 40 13:39 26.01.2021
3302 Clear 30 1004 45 10000 2.06 40 13:21 26.01.2021
3303 Clouds 29 1004 48 10000 1.03 0 12:44 26.01.2021
3304 Clouds 29 1004 48 10000 1.03 0 12:25 26.01.2021
3305 Rain 28 1003 57 10000 1.03 0 11:57 26.01.2021
3306 Rain 28 1003 57 10000 1.03 0 11:57 26.01.2021
3307 Rain 28 1003 57 10000 1.03 0 11:38 26.01.2021
3308 Clouds 27 1003 61 10000 3.09 360 10:45 26.01.2021
3309 Clouds 27 1003 61 10000 3.09 360 10:27 26.01.2021
3310 Clear 27 1002 54 10000 2.57 360 09:42 26.01.2021
3311 Clear 27 1002 54 10000 2.57 360 09:23 26.01.2021
3312 Clear 27 1003 61 10000 1.54 50 08:52 26.01.2021
3313 Clear 27 1003 61 10000 1.54 50 08:24 26.01.2021
3314 Clear 28 1003 65 10000 2.57 50 07:39 26.01.2021
3315 Clear 28 1004 69 10000 4.12 90 05:59 26.01.2021
3316 Clear 28 1004 69 10000 4.12 90 05:41 26.01.2021
3317 Clear 29 1004 61 10000 5.66 90 03:58 26.01.2021
3318 Clear 29 1004 74 10000 4.63 90 02:19 26.01.2021
3319 Clear 30 1003 66 10000 5.14 90 00:49 26.01.2021
3320 Clear 32 1003 55 10000 3.09 50 23:36 25.01.2021
3321 Clear 33 1003 52 10000 4.12 70 22:56 25.01.2021
3322 Clear 33 1003 52 10000 4.12 70 22:35 25.01.2021
3323 Clouds 34 1003 46 10000 3.6 50 21:49 25.01.2021
3324 Clouds 35 1003 46 10000 3.6 50 21:23 25.01.2021
3325 Clouds 35 1004 46 10000 3.09 20 20:50 25.01.2021
3326 Clouds 35 1004 46 10000 3.09 20 20:32 25.01.2021
3327 Clear 35 1005 58 10000 3.09 50 19:50 25.01.2021
3328 Clear 34 1005 58 10000 3.09 50 19:28 25.01.2021
3329 Clear 34 1006 62 10000 3.6 50 18:48 25.01.2021
3330 Clear 34 1006 62 10000 3.6 50 18:27 25.01.2021
3331 Clear 33 1006 66 10000 3.6 50 17:50 25.01.2021
3332 Clear 33 1006 66 10000 3.6 50 17:31 25.01.2021
3333 Clear 34 1007 62 10000 3.6 50 16:59 25.01.2021
3334 Clear 33 1007 62 10000 3.6 50 16:40 25.01.2021
3335 Clear 32 1007 62 10000 3.6 50 16:21 25.01.2021
3336 Clear 32 1007 65 10000 3.09 360 15:43 25.01.2021
3337 Clear 31 1007 65 10000 3.09 360 15:23 25.01.2021
3338 Clear 29 1008 69 10000 3.09 360 14:39 25.01.2021
3339 Clear 29 1008 69 10000 3.09 360 14:39 25.01.2021
3340 Clear 29 1008 69 10000 3.6 340 14:18 25.01.2021
3341 Clear 29 1008 69 10000 3.6 340 13:45 25.01.2021
3342 Clear 28 1008 69 10000 3.6 340 13:25 25.01.2021
3343 Clear 27 1008 73 10000 4.63 360 12:45 25.01.2021
3344 Clear 27 1008 73 10000 4.63 360 12:19 25.01.2021
3345 Clear 27 1008 69 10000 3.6 360 11:31 25.01.2021
3346 Clear 27 1007 65 10000 4.63 360 10:53 25.01.2021
3347 Clear 26 1007 65 10000 4.63 360 10:23 25.01.2021
3348 Clear 26 1007 69 10000 4.63 50 09:54 25.01.2021
3349 Clear 26 1007 69 10000 4.63 50 09:34 25.01.2021
3350 Clear 26 1007 69 10000 2.57 50 08:53 25.01.2021
3351 Clear 26 1007 69 10000 2.57 50 08:23 25.01.2021
3352 Clear 26 1008 73 10000 2.57 50 07:30 25.01.2021
3353 Clear 26 1009 73 10000 4.12 50 06:47 25.01.2021
3354 Clear 28 1009 65 10000 8.23 90 02:59 25.01.2021
3355 Clear 29 1008 70 10000 8.23 110 00:48 25.01.2021
3356 Clear 30 1008 58 10000 7.72 110 23:40 24.01.2021
3357 Clear 31 1008 58 10000 7.72 110 23:18 24.01.2021
3358 Clear 31 1008 55 10000 7.72 90 22:41 24.01.2021
3359 Clear 32 1008 55 10000 7.72 90 22:18 24.01.2021
3360 Clear 33 1009 48 10000 6.69 90 21:44 24.01.2021
3361 Clear 33 1009 48 10000 6.69 90 21:19 24.01.2021
3362 Clouds 34 1010 43 10000 6.17 90 20:41 24.01.2021
3363 Clouds 34 1010 43 10000 6.17 90 20:19 24.01.2021
3364 Clouds 34 1011 48 10000 4.63 90 19:50 24.01.2021
3365 Clouds 34 1011 48 10000 4.63 90 19:26 24.01.2021
3366 Clouds 34 1012 58 10000 3.09 60 18:56 24.01.2021
3367 Clouds 34 1012 58 10000 3.09 60 18:56 24.01.2021
3368 Clouds 34 1012 58 10000 3.09 60 18:37 24.01.2021
3369 Clouds 34 1012 58 10000 3.09 60 18:18 24.01.2021
3370 Clouds 33 1012 62 10000 2.06 50 17:45 24.01.2021
3371 Clouds 33 1012 62 10000 2.06 50 17:20 24.01.2021
3372 Clouds 32 1013 74 10000 3.6 50 16:42 24.01.2021
3373 Clouds 32 1013 74 10000 3.6 50 16:21 24.01.2021
3374 Clouds 31 1013 70 10000 3.09 360 15:48 24.01.2021
3375 Clouds 30 1013 70 10000 3.09 360 15:21 24.01.2021
3376 Clouds 30 1013 74 10000 4.12 360 14:57 24.01.2021
3377 Clouds 30 1013 74 10000 4.12 360 14:33 24.01.2021
3378 Clouds 29 1013 74 10000 4.12 360 13:40 24.01.2021
3379 Clouds 28 1013 74 10000 3.6 360 12:56 24.01.2021
3380 Clouds 28 1013 74 10000 3.6 360 12:36 24.01.2021
3381 Clouds 27 1013 74 10000 3.6 360 12:18 24.01.2021
3382 Clouds 27 1013 83 10000 4.12 360 11:46 24.01.2021
3383 Clouds 26 1013 83 10000 4.12 360 11:22 24.01.2021
3384 Clear 26 1012 83 10000 5.66 20 10:37 24.01.2021
3385 Clear 26 1012 83 10000 4.12 360 09:53 24.01.2021
3386 Clear 26 1012 83 10000 4.12 360 09:22 24.01.2021
3387 Clear 26 1012 78 10000 2.57 20 08:52 24.01.2021
3388 Clear 27 1012 83 10000 2.57 100 06:49 24.01.2021
3389 Clear 28 1013 74 10000 7.2 100 02:21 24.01.2021
3390 Clear 29 1012 65 10000 6.69 100 00:58 24.01.2021
3391 Clear 29 1012 65 10000 6.69 100 00:23 24.01.2021
3392 Clear 30 1012 54 10000 7.72 100 23:46 23.01.2021
3393 Clear 31 1012 54 10000 7.72 100 23:22 23.01.2021
3394 Clear 32 1012 55 10000 6.69 100 22:41 23.01.2021
3395 Clear 32 1012 55 10000 6.69 100 22:20 23.01.2021
3396 Clouds 33 1012 55 10000 6.69 90 21:24 23.01.2021
3397 Clouds 33 1013 51 10000 5.14 70 20:59 23.01.2021
3398 Clouds 33 1013 51 10000 5.14 70 20:39 23.01.2021
3399 Clouds 33 1013 51 10000 5.14 70 20:21 23.01.2021
3400 Clear 34 1011 45 10000 4.92 360 19:45 23.01.2021
3401 Clouds 32 1014 70 10000 2.57 50 19:20 23.01.2021
3402 Clouds 32 1014 70 10000 2.57 50 18:43 23.01.2021
3403 Clouds 32 1014 70 10000 2.57 50 18:24 23.01.2021
3404 Clouds 32 1015 65 10000 3.09 20 17:44 23.01.2021
3405 Clouds 31 1015 65 10000 3.09 20 17:25 23.01.2021
3406 Clouds 31 1016 69 10000 3.09 20 16:46 23.01.2021
3407 Clouds 31 1016 69 10000 3.09 20 16:46 23.01.2021
3408 Clouds 30 1016 69 10000 3.09 20 16:24 23.01.2021
3409 Clear 29 1016 74 10000 3.6 360 15:31 23.01.2021
3410 Clear 28 1017 78 10000 4.63 360 14:53 23.01.2021
3411 Clear 27 1017 78 10000 4.63 360 14:28 23.01.2021
3412 Clouds 27 1017 78 10000 4.63 360 13:50 23.01.2021
3413 Clouds 26 1017 78 10000 4.63 360 13:26 23.01.2021
3414 Clear 26 1017 78 10000 4.12 360 12:46 23.01.2021
3415 Clear 26 1017 78 10000 4.12 360 12:25 23.01.2021
3416 Clear 25 1033 73 10000 1.34 345 11:44 23.01.2021
3417 Clear 25 1016 83 10000 2.57 360 11:18 23.01.2021
3418 Clear 24 1016 83 10000 2.57 360 10:29 23.01.2021
3419 Clear 25 1016 78 10000 5.14 20 09:56 23.01.2021
3420 Clear 25 1016 78 10000 5.14 20 09:32 23.01.2021
3421 Clear 25 1016 78 10000 7.72 20 08:45 23.01.2021
3422 Clear 26 1016 73 10000 7.72 30 07:50 23.01.2021
3423 Clear 26 1017 73 10000 7.2 40 06:59 23.01.2021
3424 Rain 27 1017 83 10000 5.66 90 03:34 23.01.2021
3425 Clear 26 1016 73 10000 5.66 120 00:34 23.01.2021
3426 Clear 28 1017 69 10000 8.75 110 23:36 22.01.2021
3427 Clear 29 1017 54 10000 7.2 100 22:45 22.01.2021
3428 Clear 29 1017 54 10000 7.2 100 22:21 22.01.2021
3429 Clear 30 1018 54 10000 6.69 100 21:45 22.01.2021
3430 Clear 30 1018 54 10000 6.69 100 21:24 22.01.2021
3431 Clear 30 1018 61 10000 6.69 100 20:51 22.01.2021
3432 Clear 30 1018 61 10000 6.69 100 20:30 22.01.2021
3433 Clouds 30 1019 65 10000 5.66 80 19:48 22.01.2021
3434 Clouds 30 1019 65 10000 5.66 80 19:20 22.01.2021
3435 Clouds 30 1019 57 10000 3.09 80 18:47 22.01.2021
3436 Clouds 30 1019 57 10000 3.09 80 18:26 22.01.2021
3437 Clouds 29 1024 65 10000 3.6 80 17:50 22.01.2021
3438 Clouds 29 1024 65 10000 3.6 80 17:32 22.01.2021
3439 Clear 28 1021 61 10000 3.09 50 16:54 22.01.2021
3440 Clear 28 1021 61 10000 3.09 50 16:30 22.01.2021
3441 Clear 27 1021 69 10000 3.09 40 15:45 22.01.2021
3442 Clear 27 1021 69 10000 3.09 40 15:23 22.01.2021
3443 Clouds 25 1021 78 10000 3.6 20 14:33 22.01.2021
3444 Clear 24 1021 78 10000 4.63 20 13:54 22.01.2021
3445 Clear 24 1021 78 10000 4.63 20 13:35 22.01.2021
3446 Clear 24 1021 78 10000 5.14 30 12:56 22.01.2021
3447 Clear 23 1021 78 10000 5.14 30 12:27 22.01.2021
3448 Clear 23 1021 78 10000 5.66 30 11:49 22.01.2021
3449 Clear 23 1021 78 10000 5.66 30 11:30 22.01.2021
3450 Clouds 23 1020 78 10000 6.69 30 10:46 22.01.2021
3451 Clouds 23 1020 78 10000 6.69 30 10:22 22.01.2021
3452 Clear 23 1020 78 10000 8.23 30 09:42 22.01.2021
3453 Clear 23 1019 64 10000 7.72 40 08:57 22.01.2021
3454 Clear 23 1019 64 10000 7.72 40 08:31 22.01.2021
3455 Clear 24 1019 73 10000 6.69 50 07:41 22.01.2021
3456 Clear 26 1020 69 10000 6.69 80 04:39 22.01.2021
3457 Clear 26 1018 73 10000 9.77 110 00:54 22.01.2021
3458 Clear 26 1018 73 10000 9.77 110 00:25 22.01.2021
3459 Clear 28 1017 57 10000 8.23 110 23:42 21.01.2021
3460 Clear 29 1017 54 10000 9.26 110 22:59 21.01.2021
3461 Clear 29 1017 54 10000 9.26 110 22:41 21.01.2021
3462 Clear 30 1017 51 10000 8.75 110 21:44 21.01.2021
3463 Clear 30 1017 51 10000 8.75 110 21:23 21.01.2021
3464 Clear 30 1018 48 10000 7.72 110 20:57 21.01.2021
3465 Clear 30 1018 48 10000 7.72 110 20:39 21.01.2021
3466 Clear 30 1018 48 10000 7.72 110 20:18 21.01.2021
3467 Clear 30 1019 51 10000 7.72 100 19:46 21.01.2021
3468 Clear 30 1019 51 10000 7.72 100 19:46 21.01.2021
3469 Clear 30 1019 51 10000 7.72 100 19:24 21.01.2021
3470 Clear 30 1019 61 10000 7.2 100 18:42 21.01.2021
3471 Clear 29 1020 61 10000 5.66 100 18:21 21.01.2021
3472 Clear 29 1020 61 10000 5.66 100 17:57 21.01.2021
3473 Clear 28 1020 61 10000 5.66 100 17:21 21.01.2021
3474 Clear 28 1020 65 10000 2.57 70 16:55 21.01.2021
3475 Clear 28 1020 65 10000 2.57 70 16:37 21.01.2021
3476 Clear 27 1020 65 10000 2.57 70 16:18 21.01.2021
3477 Clear 26 1021 69 10000 5.66 70 15:45 21.01.2021
3478 Clear 26 1021 69 10000 5.66 70 15:22 21.01.2021
3479 Clear 26 1021 69 10000 3.6 40 14:39 21.01.2021
3480 Clear 25 1021 69 10000 3.6 40 14:21 21.01.2021
3481 Clear 25 1021 73 10000 3.6 30 13:42 21.01.2021
3482 Clear 24 1021 73 10000 3.6 30 13:22 21.01.2021
3483 Clear 24 1020 78 10000 4.12 20 12:42 21.01.2021
3484 Clear 24 1020 78 10000 4.12 20 12:23 21.01.2021
3485 Clear 23 1020 73 10000 3.6 10 11:51 21.01.2021
3486 Clear 23 1020 73 10000 3.6 10 11:27 21.01.2021
3487 Clear 23 1019 73 10000 5.14 30 10:51 21.01.2021
3488 Rain 23 1019 73 10000 5.14 30 10:31 21.01.2021
3489 Rain 23 1018 68 10000 4.63 50 09:44 21.01.2021
3490 Clear 23 1018 68 10000 4.63 50 09:25 21.01.2021
3491 Clear 23 1018 73 10000 6.17 50 08:45 21.01.2021
3492 Clear 24 1018 73 10000 6.17 50 08:24 21.01.2021
3493 Clear 24 1017 73 10000 5.66 50 07:28 21.01.2021
3494 Clear 24 1017 68 10000 7.72 50 06:54 21.01.2021
3495 Clear 25 1018 68 10000 7.2 50 05:21 21.01.2021
3496 Clear 25 1018 61 10000 6.17 110 02:31 21.01.2021
3497 Clear 26 1017 61 10000 8.23 110 00:51 21.01.2021
3498 Clear 27 1017 57 10000 8.75 110 23:53 20.01.2021
3499 Clear 28 1017 57 10000 8.75 110 23:32 20.01.2021
3500 Clear 28 1016 54 10000 8.75 110 22:58 20.01.2021
3501 Clear 29 1016 54 10000 8.75 110 22:37 20.01.2021
3502 Clear 30 1017 45 10000 6.17 100 21:58 20.01.2021
3503 Clear 30 1017 45 10000 6.17 100 21:58 20.01.2021
3504 Clear 30 1017 45 10000 6.17 100 21:40 20.01.2021
3505 Clear 31 1017 45 10000 6.17 100 21:19 20.01.2021
3506 Clear 31 1017 45 10000 5.14 90 20:38 20.01.2021
3507 Clear 31 1017 45 10000 5.14 90 20:18 20.01.2021
3508 Clear 32 1018 37 10000 5.14 90 19:41 20.01.2021
3509 Clear 32 1018 37 10000 5.14 90 19:22 20.01.2021
3510 Clear 32 1018 42 10000 2.57 20 18:42 20.01.2021
3511 Clear 31 1019 44 10000 2.06 20 17:57 20.01.2021
3512 Clear 31 1019 44 10000 2.06 20 17:37 20.01.2021
3513 Clear 30 1019 47 10000 1.54 10 16:53 20.01.2021
3514 Clear 29 1019 47 10000 1.54 10 16:33 20.01.2021
3515 Clear 30 1019 50 10000 2.57 30 15:51 20.01.2021
3516 Clear 29 1019 50 10000 2.57 30 15:33 20.01.2021
3517 Clear 29 1019 50 10000 2.06 360 14:48 20.01.2021
3518 Clear 28 1019 50 10000 2.06 360 14:22 20.01.2021
3519 Clear 28 1019 61 10000 2.06 360 13:42 20.01.2021
3520 Clear 27 1019 61 10000 2.06 360 13:21 20.01.2021
3521 Clear 26 1019 61 10000 3.09 350 12:39 20.01.2021
3522 Clear 26 1019 61 10000 2.57 10 11:55 20.01.2021
3523 Clear 26 1019 61 10000 2.57 10 11:35 20.01.2021
3524 Clear 25 1018 60 10000 2.57 360 10:55 20.01.2021
3525 Clear 24 1018 60 10000 2.57 360 10:28 20.01.2021
3526 Clear 24 1018 64 10000 4.12 20 09:48 20.01.2021
3527 Clear 24 1018 64 10000 4.12 20 09:24 20.01.2021
3528 Clear 24 1018 69 10000 1.54 20 08:47 20.01.2021
3529 Clear 25 1018 69 10000 1.54 20 08:26 20.01.2021
3530 Clear 25 1017 65 10000 1.54 60 07:56 20.01.2021
3531 Clear 25 1017 65 10000 1.54 60 07:25 20.01.2021
3532 Clear 26 1017 61 10000 4.12 80 05:38 20.01.2021
3533 Clear 27 1017 57 10000 5.14 90 03:22 20.01.2021
3534 Clear 28 1016 54 10000 3.09 90 00:59 20.01.2021
3535 Clear 28 1016 54 10000 3.09 90 00:31 20.01.2021
3536 Clear 30 1016 42 10000 4.63 90 23:42 19.01.2021
3537 Clear 31 1016 42 10000 4.63 90 23:18 19.01.2021
3538 Clear 32 1016 30 10000 3.09 70 22:41 19.01.2021
3539 Clear 32 1016 30 10000 3.09 70 22:22 19.01.2021
3540 Clear 33 1016 33 10000 1.54 50 21:58 19.01.2021
3541 Clear 33 1016 33 10000 1.54 50 21:40 19.01.2021
3542 Clear 32 1016 33 10000 1.54 50 21:18 19.01.2021
3543 Clear 32 1017 42 10000 2.06 50 20:40 19.01.2021
3544 Clear 32 1017 42 10000 2.06 50 20:21 19.01.2021
3545 Clear 31 1017 51 10000 3.6 20 19:41 19.01.2021
3546 Clear 31 1017 51 10000 3.6 20 19:19 19.01.2021
3547 Clear 31 1017 39 10000 4.12 20 18:39 19.01.2021
3548 Clear 31 1017 39 10000 4.12 20 18:21 19.01.2021
3549 Clear 32 1018 57 10000 4.12 30 17:45 19.01.2021
3550 Clear 30 1018 57 10000 4.12 30 17:23 19.01.2021
3551 Clear 30 1018 61 10000 4.12 20 16:44 19.01.2021
3552 Clear 30 1018 61 10000 4.12 20 16:24 19.01.2021
3553 Clear 29 1018 57 10000 3.6 360 15:54 19.01.2021
3554 Clear 28 1018 57 10000 3.6 360 15:34 19.01.2021
3555 Clear 28 1018 50 10000 4.12 340 14:50 19.01.2021
3556 Clear 27 1018 50 10000 4.12 340 14:29 19.01.2021
3557 Clear 26 1018 73 10000 3.6 330 13:52 19.01.2021
3558 Clear 26 1018 73 10000 3.6 330 13:52 19.01.2021
3559 Clear 26 1018 73 10000 3.6 330 13:28 19.01.2021
3560 Clear 25 1018 57 10000 3.6 330 12:55 19.01.2021
3561 Clear 25 1018 57 10000 3.6 330 12:30 19.01.2021
3562 Clear 24 1017 56 10000 2.57 320 11:54 19.01.2021
3563 Clear 24 1017 56 10000 2.57 320 11:30 19.01.2021
3564 Clear 23 1017 68 10000 3.09 320 10:59 19.01.2021
3565 Clear 23 1017 68 10000 3.09 320 10:40 19.01.2021
3566 Clear 22 1017 68 10000 3.09 320 10:18 19.01.2021
3567 Clear 23 1016 64 10000 3.09 320 09:46 19.01.2021
3568 Clear 23 1016 64 10000 3.09 320 09:46 19.01.2021
3569 Clear 23 1016 64 10000 3.09 320 09:19 19.01.2021
3570 Clear 23 1016 57 10000 5.14 330 08:33 19.01.2021
3571 Clear 23 1015 68 10000 2.57 320 07:51 19.01.2021
3572 Clear 23 1015 64 10000 4.79 337 06:59 19.01.2021
3573 Clear 25 1015 57 10000 1.54 300 04:18 19.01.2021
3574 Clear 25 1015 61 10000 1.54 290 02:22 19.01.2021
3575 Clear 26 1014 69 10000 2.06 340 00:34 19.01.2021
3576 Clear 27 1014 57 10000 3.09 10 23:47 18.01.2021
3577 Clear 28 1014 57 10000 3.09 10 23:23 18.01.2021
3578 Clear 29 1014 44 10000 3.6 30 22:41 18.01.2021
3579 Clear 29 1014 44 10000 3.6 30 22:21 18.01.2021
3580 Clear 29 1014 44 10000 3.6 30 21:47 18.01.2021
3581 Clear 28 1014 44 10000 3.6 30 21:22 18.01.2021
3582 Clear 28 1015 47 10000 4.63 40 20:53 18.01.2021
3583 Clear 29 1015 47 10000 4.63 40 20:33 18.01.2021
3584 Clear 29 1015 47 10000 4.63 20 19:52 18.01.2021
3585 Clear 30 1015 47 10000 4.63 20 19:34 18.01.2021
3586 Clear 29 1015 61 10000 4.63 20 18:48 18.01.2021
3587 Clear 28 1015 61 10000 4.63 20 18:25 18.01.2021
3588 Clear 28 1015 61 10000 4.12 20 17:46 18.01.2021
3589 Clear 28 1015 61 10000 4.12 20 17:26 18.01.2021
3590 Clear 27 1015 57 10000 4.12 20 16:49 18.01.2021
3591 Clear 27 1015 57 10000 4.12 20 16:23 18.01.2021
3592 Clear 27 1016 53 10000 3.6 10 15:49 18.01.2021
3593 Clear 26 1016 53 10000 3.6 10 15:27 18.01.2021
3594 Clear 25 1016 60 10000 3.09 10 14:46 18.01.2021
3595 Clear 25 1016 60 10000 3.09 10 14:28 18.01.2021
3596 Clear 23 1015 60 10000 3.09 350 13:56 18.01.2021
3597 Clear 23 1015 60 10000 3.09 350 13:56 18.01.2021
3598 Clear 23 1015 60 10000 3.09 350 13:36 18.01.2021
3599 Clear 22 1015 60 10000 3.09 350 13:18 18.01.2021
3600 Clear 21 1015 64 10000 1.54 330 12:41 18.01.2021
3601 Clear 21 1015 64 10000 1.54 330 12:18 18.01.2021
3602 Clear 19 1014 68 10000 1.03 240 11:40 18.01.2021
3603 Clear 18 1014 68 10000 1.03 240 11:21 18.01.2021
3604 Clear 19 1013 68 10000 0.51 210 10:46 18.01.2021
3605 Clear 18 1012 68 10000 1.03 110 09:50 18.01.2021
3606 Clear 17 1012 68 10000 1.03 110 09:32 18.01.2021
3607 Clear 18 1013 63 10000 1.03 180 08:55 18.01.2021
3608 Clear 18 1013 63 10000 1.03 180 08:25 18.01.2021
3609 Clear 19 1012 60 10000 1.03 180 07:37 18.01.2021
3610 Clear 20 1012 56 10000 1.54 180 05:45 18.01.2021
3611 Clear 21 1012 53 10000 1.54 200 04:39 18.01.2021
3612 Clear 21 1012 53 10000 1.54 200 04:18 18.01.2021
3613 Clear 21 1012 53 10000 1.54 200 03:42 18.01.2021
3614 Clear 21 1012 46 10000 1.54 200 03:20 18.01.2021
3615 Clear 22 1012 46 10000 1.54 200 02:38 18.01.2021
3616 Clear 23 1011 43 10000 3.09 230 01:36 18.01.2021
3617 Clear 23 1010 35 10000 3.6 200 00:32 18.01.2021
3618 Clear 24 1009 31 10000 4.12 200 23:48 17.01.2021
3619 Clear 24 1011 37 10000 0.89 135 23:21 17.01.2021
3620 Clear 25 1009 29 10000 4.12 230 22:41 17.01.2021
3621 Clear 26 1009 29 10000 4.12 230 22:22 17.01.2021
3622 Clear 26 1009 31 10000 5.14 210 21:40 17.01.2021
3623 Clear 26 1009 31 10000 5.14 210 21:22 17.01.2021
3624 Clear 26 1008 31 10000 5.66 230 20:48 17.01.2021
3625 Clear 26 1008 31 10000 5.66 230 20:28 17.01.2021
3626 Clear 26 1008 31 10000 5.66 240 19:42 17.01.2021
3627 Clear 26 1008 31 10000 5.66 240 19:23 17.01.2021
3628 Clear 25 1008 31 10000 6.17 220 18:43 17.01.2021
3629 Clear 25 1008 31 10000 6.17 220 18:23 17.01.2021
3630 Clear 25 1009 33 10000 6.17 250 17:48 17.01.2021
3631 Clear 25 1009 33 10000 6.17 250 17:26 17.01.2021
3632 Clouds 24 1010 43 10000 5.14 250 16:44 17.01.2021
3633 Clouds 23 1010 43 10000 5.14 250 16:21 17.01.2021
3634 Clouds 22 1010 56 10000 4.63 240 15:43 17.01.2021
3635 Clouds 22 1010 56 10000 4.63 240 15:24 17.01.2021
3636 Clouds 21 1010 64 10000 4.12 240 14:49 17.01.2021
3637 Clouds 20 1010 64 10000 4.12 240 14:26 17.01.2021
3638 Clouds 20 1010 68 10000 3.6 240 13:45 17.01.2021
3639 Clouds 19 1010 68 10000 3.6 240 13:27 17.01.2021
3640 Clear 18 1009 77 10000 4.12 230 12:53 17.01.2021
3641 Clear 18 1009 77 10000 4.12 230 12:31 17.01.2021
3642 Clouds 17 1009 82 10000 2.57 230 11:56 17.01.2021
3643 Clouds 17 1009 82 10000 2.57 230 11:23 17.01.2021
3644 Clouds 17 1008 82 10000 3.09 200 10:48 17.01.2021
3645 Clouds 17 1008 82 10000 3.09 200 10:21 17.01.2021
3646 Clouds 17 1008 82 10000 2.57 210 09:26 17.01.2021
3647 Clouds 17 1007 82 10000 3.6 220 08:45 17.01.2021
3648 Clouds 18 1007 77 10000 4.12 180 06:52 17.01.2021
3649 Clouds 19 1007 88 4500 4.12 170 04:28 17.01.2021
3650 Clouds 21 1005 78 10000 3.6 180 02:48 17.01.2021
3651 Clouds 22 1004 73 10000 3.09 210 00:48 17.01.2021
3652 Clouds 23 1004 73 10000 3.09 210 00:18 17.01.2021
3653 Rain 23 1003 60 10000 3.6 200 23:49 16.01.2021
3654 Rain 23 1003 60 10000 3.6 200 23:19 16.01.2021
3655 Rain 24 1002 51 10000 7.72 200 22:36 16.01.2021
3656 Clouds 26 1002 42 10000 4.12 250 21:58 16.01.2021
3657 Clouds 30 1002 42 10000 4.12 250 21:26 16.01.2021
3658 Clouds 31 1002 40 10000 2.57 250 20:59 16.01.2021
3659 Clouds 31 1002 40 10000 2.57 250 20:41 16.01.2021
3660 Clouds 32 1002 40 10000 2.57 250 20:19 16.01.2021
3661 Clouds 31 1002 51 10000 3.09 230 19:42 16.01.2021
3662 Clouds 31 1002 51 10000 3.09 230 19:24 16.01.2021
3663 Clouds 30 1002 61 10000 2.06 110 18:42 16.01.2021
3664 Clouds 30 1002 61 10000 2.06 110 18:24 16.01.2021
3665 Clouds 30 1003 65 10000 2.06 110 17:46 16.01.2021
3666 Clouds 30 1003 65 10000 2.06 110 17:28 16.01.2021
3667 Clouds 29 1004 65 10000 2.06 250 16:45 16.01.2021
3668 Clouds 29 1004 65 10000 2.06 250 16:26 16.01.2021
3669 Clouds 29 1004 65 10000 2.06 250 16:26 16.01.2021
3670 Clouds 28 1005 83 10000 2.06 200 15:48 16.01.2021
3671 Clouds 27 1005 83 10000 2.06 200 15:18 16.01.2021
3672 Clouds 25 1005 88 8000 2.57 200 14:19 16.01.2021
3673 Clouds 25 1004 83 8000 2.06 200 13:48 16.01.2021
3674 Clouds 24 1004 83 8000 2.06 200 13:21 16.01.2021
3675 Clouds 23 1004 88 10000 2.06 180 12:39 16.01.2021
3676 Clouds 22 1004 88 10000 2.06 180 12:20 16.01.2021
3677 Clouds 22 1004 94 9000 1.54 180 11:46 16.01.2021
3678 Clouds 22 1004 94 9000 1.54 180 11:24 16.01.2021
3679 Clouds 22 1004 94 9000 1.54 180 11:24 16.01.2021
3680 Clouds 21 1004 94 10000 1.03 230 10:45 16.01.2021
3681 Clouds 21 1004 94 10000 1.03 230 10:19 16.01.2021
3682 Clouds 22 1003 94 10000 1.54 260 09:32 16.01.2021
3683 Clouds 22 1005 99 10000 1.38 58 08:35 16.01.2021
3684 Clouds 22 1003 94 10000 3.6 110 07:31 16.01.2021
3685 Clear 22 1004 88 10000 2.57 130 06:43 16.01.2021
3686 Clouds 22 1004 94 10000 4.12 110 04:39 16.01.2021
3687 Rain 22 1005 88 10000 3.09 100 02:55 16.01.2021
3688 Rain 22 1005 83 10000 1.03 0 00:49 16.01.2021
3689 Rain 22 1005 83 10000 1.03 0 00:26 16.01.2021
3690 Clouds 22 1005 83 9000 3.6 120 23:49 15.01.2021
3691 Rain 21 1006 94 9000 4.63 120 22:51 15.01.2021
3692 Rain 21 1006 94 9000 4.63 120 22:23 15.01.2021
3693 Rain 21 1005 94 8000 2.57 150 21:46 15.01.2021
3694 Rain 21 1007 94 5000 7.2 340 20:58 15.01.2021
3695 Rain 21 1007 94 5000 7.2 340 20:40 15.01.2021
3696 Rain 22 1007 94 5000 7.2 340 20:19 15.01.2021
3697 Rain 22 1008 78 5000 5.14 330 19:40 15.01.2021
3698 Rain 21 1008 78 7000 5.66 340 19:22 15.01.2021
3699 Rain 22 1008 78 8000 5.14 360 18:43 15.01.2021
3700 Rain 22 1008 78 8000 5.14 360 18:19 15.01.2021
3701 Rain 22 1008 78 9000 2.57 30 17:51 15.01.2021
3702 Rain 22 1008 78 9000 2.57 30 17:24 15.01.2021
3703 Rain 22 1009 73 10000 1.03 0 16:52 15.01.2021
3704 Rain 23 1009 73 10000 1.03 0 16:25 15.01.2021
3705 Rain 23 1011 73 10000 2.06 20 15:42 15.01.2021
3706 Rain 23 1011 73 10000 2.06 20 15:22 15.01.2021
3707 Clouds 23 1011 73 9000 3.6 90 14:48 15.01.2021
3708 Rain 23 1011 73 9000 3.6 90 14:27 15.01.2021
3709 Clear 23 1012 73 10000 3.6 70 13:43 15.01.2021
3710 Rain 23 1012 73 10000 3.6 70 13:23 15.01.2021
3711 Clouds 23 1013 78 10000 2.57 50 12:58 15.01.2021
3712 Clouds 22 1013 78 10000 2.57 50 12:33 15.01.2021
3713 Clouds 22 1014 78 10000 1.54 360 11:56 15.01.2021
3714 Rain 22 1013 78 10000 5.14 20 11:36 15.01.2021
3715 Rain 21 1011 78 10000 7.72 20 10:57 15.01.2021
3716 Clouds 21 1011 78 10000 7.72 20 10:39 15.01.2021
3717 Clouds 21 1011 78 10000 7.72 20 10:39 15.01.2021
3718 Clouds 21 1011 78 10000 7.72 20 10:19 15.01.2021
3719 Clear 22 1011 68 10000 7.72 30 09:41 15.01.2021
3720 Clear 22 1011 68 10000 7.72 30 09:20 15.01.2021
3721 Clouds 22 1012 68 10000 8.23 30 08:25 15.01.2021
3722 Clear 22 1012 68 10000 7.2 40 07:41 15.01.2021
3723 Clear 22 1012 68 10000 7.2 40 07:20 15.01.2021
3724 Rain 23 1013 56 10000 7.72 60 05:35 15.01.2021
3725 Clear 24 1013 83 10000 9.26 100 01:52 15.01.2021
3726 Clear 24 1014 73 10000 10.29 110 23:55 14.01.2021
3727 Clear 25 1014 73 10000 10.29 110 23:28 14.01.2021
3728 Clear 26 1014 65 10000 10.29 110 22:48 14.01.2021
3729 Clear 26 1014 65 10000 10.29 110 22:25 14.01.2021
3730 Clear 27 1015 53 10000 10.8 110 21:49 14.01.2021
3731 Clear 27 1015 53 10000 10.8 110 21:21 14.01.2021
3732 Clear 27 1016 47 10000 8.23 90 20:52 14.01.2021
3733 Clear 27 1016 47 10000 8.23 90 20:27 14.01.2021
3734 Clear 28 1016 47 10000 8.23 90 19:48 14.01.2021
3735 Clear 28 1016 47 10000 8.23 90 19:29 14.01.2021
3736 Clear 27 1017 47 10000 6.17 90 18:55 14.01.2021
3737 Clear 27 1017 47 10000 6.17 90 18:31 14.01.2021
3738 Clear 27 1018 50 10000 2.06 50 17:53 14.01.2021
3739 Clear 26 1018 50 10000 2.06 50 17:27 14.01.2021
3740 Clear 25 1019 50 10000 3.6 40 16:46 14.01.2021
3741 Clear 25 1019 50 10000 3.6 40 16:26 14.01.2021
3742 Clear 25 1020 49 10000 5.14 50 15:46 14.01.2021
3743 Clear 24 1020 49 10000 5.14 50 15:23 14.01.2021
3744 Clear 23 1020 60 10000 6.17 50 14:39 14.01.2021
3745 Clear 23 1020 60 10000 6.17 50 14:20 14.01.2021
3746 Clear 22 1020 64 10000 7.2 50 13:53 14.01.2021
3747 Clear 22 1020 64 10000 7.2 50 13:22 14.01.2021
3748 Clear 21 1021 64 10000 6.69 50 12:51 14.01.2021
3749 Clear 21 1021 64 10000 6.69 50 12:20 14.01.2021
3750 Clear 21 1021 64 10000 6.69 50 11:50 14.01.2021
3751 Clear 20 1021 64 10000 6.69 50 11:21 14.01.2021
3752 Clear 20 1021 68 10000 6.17 50 10:54 14.01.2021
3753 Clear 19 1021 68 10000 6.17 50 10:29 14.01.2021
3754 Clear 19 1021 68 10000 7.72 50 09:48 14.01.2021
3755 Clear 19 1021 68 10000 7.72 50 09:23 14.01.2021
3756 Clear 19 1021 68 10000 7.72 50 08:52 14.01.2021
3757 Clear 19 1021 68 10000 7.72 50 08:28 14.01.2021
3758 Clear 20 1021 64 10000 8.23 70 07:50 14.01.2021
3759 Clear 20 1020 64 10000 9.26 70 06:58 14.01.2021
3760 Clear 21 1020 64 10000 9.77 90 05:56 14.01.2021
3761 Clear 22 1020 49 10000 10.8 110 01:42 14.01.2021
3762 Clear 23 1019 49 10000 8.75 110 23:55 13.01.2021
3763 Clear 24 1019 49 10000 8.75 110 23:23 13.01.2021
3764 Clear 25 1020 38 10000 8.75 100 22:29 13.01.2021
3765 Clear 26 1020 19 10000 7.2 110 21:57 13.01.2021
3766 Clear 25 1020 19 10000 7.2 110 21:39 13.01.2021
3767 Clear 26 1020 20 10000 6.69 90 20:59 13.01.2021
3768 Clear 26 1020 20 10000 6.69 90 20:37 13.01.2021
3769 Clear 26 1020 20 10000 6.69 90 20:18 13.01.2021
3770 Clear 26 1021 23 10000 6.17 90 19:42 13.01.2021
3771 Clear 26 1021 23 10000 6.17 90 19:20 13.01.2021
3772 Clear 26 1022 35 10000 5.66 90 18:41 13.01.2021
3773 Clear 25 1022 49 10000 5.66 90 17:51 13.01.2021
3774 Clear 25 1022 49 10000 5.66 90 17:26 13.01.2021
3775 Clear 25 1022 46 10000 3.09 70 16:58 13.01.2021
3776 Clear 24 1022 46 10000 3.09 70 16:22 13.01.2021
3777 Clear 24 1022 46 10000 3.09 70 16:22 13.01.2021
3778 Clear 24 1022 60 10000 2.57 40 15:59 13.01.2021
3779 Clear 24 1022 60 10000 2.57 40 15:39 13.01.2021
3780 Clear 24 1022 68 10000 3.09 20 14:49 13.01.2021
3781 Clear 22 1022 68 10000 3.6 20 13:58 13.01.2021
3782 Clear 21 1022 68 10000 3.6 20 13:32 13.01.2021
3783 Clear 21 1022 64 10000 4.12 30 12:59 13.01.2021
3784 Clear 21 1022 64 10000 4.12 30 12:39 13.01.2021
3785 Clear 21 1022 64 10000 4.12 30 12:19 13.01.2021
3786 Clear 20 1022 68 10000 5.14 40 11:45 13.01.2021
3787 Clear 19 1022 68 10000 5.14 40 11:22 13.01.2021
3788 Clear 19 1021 68 10000 4.12 40 10:42 13.01.2021
3789 Clear 19 1021 68 10000 4.12 40 10:24 13.01.2021
3790 Clear 19 1021 63 10000 4.63 50 09:37 13.01.2021
3791 Clear 19 1020 59 10000 5.66 50 08:57 13.01.2021
3792 Clear 19 1020 59 10000 5.66 50 08:33 13.01.2021
3793 Clear 19 1020 59 10000 5.66 50 08:33 13.01.2021
3794 Clear 20 1020 59 10000 5.14 70 07:52 13.01.2021
3795 Clear 20 1020 59 10000 5.14 70 07:24 13.01.2021
3796 Clear 21 1020 60 10000 6.17 50 04:21 13.01.2021
3797 Clear 21 1019 46 10000 6.69 90 03:49 13.01.2021
3798 Clear 21 1019 46 10000 6.69 90 03:30 13.01.2021
3799 Clear 21 1019 52 10000 7.2 90 02:19 13.01.2021
3800 Clear 21 1017 56 10000 7.2 90 00:29 13.01.2021
3801 Clear 22 1017 49 10000 5.66 90 23:29 12.01.2021
3802 Clear 24 1017 46 10000 4.63 90 22:47 12.01.2021
3803 Clear 24 1017 46 10000 4.63 90 22:25 12.01.2021
3804 Clear 24 1017 38 10000 4.63 70 21:53 12.01.2021
3805 Clear 24 1017 38 10000 4.63 70 21:34 12.01.2021
3806 Clear 24 1018 38 10000 4.63 90 20:53 12.01.2021
3807 Clear 24 1018 38 10000 4.63 90 20:29 12.01.2021
3808 Clear 24 1018 35 10000 4.12 70 19:56 12.01.2021
3809 Clear 24 1018 35 10000 4.12 70 19:37 12.01.2021
3810 Clear 25 1019 25 10000 4.63 90 18:49 12.01.2021
3811 Clear 25 1019 25 10000 4.63 90 18:24 12.01.2021
3812 Clear 25 1020 20 10000 4.63 90 17:48 12.01.2021
3813 Clear 24 1020 20 10000 4.63 90 17:30 12.01.2021
3814 Clear 24 1020 24 10000 5.66 90 16:44 12.01.2021
3815 Clear 23 1020 24 10000 5.66 90 16:25 12.01.2021
3816 Clear 23 1019 37 10000 6.17 110 15:45 12.01.2021
3817 Clear 22 1019 37 10000 6.17 110 15:21 12.01.2021
3818 Clear 21 1020 40 10000 5.66 110 14:44 12.01.2021
3819 Clear 20 1020 40 10000 5.66 110 14:25 12.01.2021
3820 Clear 20 1019 39 10000 5.14 140 13:52 12.01.2021
3821 Clear 19 1019 39 10000 5.14 140 13:22 12.01.2021
3822 Clear 18 1019 39 10000 5.14 140 12:26 12.01.2021
3823 Clear 17 1018 42 10000 4.63 140 11:41 12.01.2021
3824 Clear 17 1018 55 10000 4.63 110 10:55 12.01.2021
3825 Clear 17 1018 55 10000 4.63 110 10:55 12.01.2021
3826 Clear 17 1018 55 10000 4.63 110 10:25 12.01.2021
3827 Clear 17 1017 55 10000 4.12 150 09:58 12.01.2021
3828 Clear 17 1017 55 10000 4.12 150 09:38 12.01.2021
3829 Clear 17 1017 55 10000 4.12 150 09:18 12.01.2021
3830 Clear 17 1017 55 10000 4.12 150 09:18 12.01.2021
3831 Rain 18 1015 52 10000 4.12 150 08:26 12.01.2021
3832 Clear 18 1015 68 10000 6.17 150 07:37 12.01.2021
3833 Clear 20 1014 56 10000 5.14 140 06:49 12.01.2021
3834 Clear 21 1014 52 10000 5.66 160 05:34 12.01.2021
3835 Clear 23 1012 68 10000 3.6 180 03:27 12.01.2021
3836 Clear 22 1011 73 10000 1.03 0 02:21 12.01.2021
3837 Clear 22 1011 73 10000 1.03 0 01:31 12.01.2021
3838 Clear 22 1011 73 10000 1.03 0 01:31 12.01.2021
3839 Clear 22 1011 73 10000 1.03 0 01:31 12.01.2021
3840 Clouds 25 1008 69 10000 2.57 220 23:57 11.01.2021
3841 Clouds 25 1008 69 10000 2.57 220 23:36 11.01.2021
3842 Clouds 25 1008 69 10000 2.57 220 23:18 11.01.2021
3843 Clouds 24 1006 69 10000 3.6 210 22:45 11.01.2021
3844 Clouds 24 1006 69 10000 3.6 210 22:26 11.01.2021
3845 Clouds 23 1006 73 10000 4.12 210 21:42 11.01.2021
3846 Clouds 23 1006 73 10000 4.12 210 21:23 11.01.2021
3847 Rain 22 1005 78 10000 5.14 320 20:47 11.01.2021
3848 Rain 22 1005 78 10000 5.14 320 20:28 11.01.2021
3849 Rain 22 1004 78 9000 5.66 20 19:57 11.01.2021
3850 Rain 22 1004 78 9000 5.66 20 19:33 11.01.2021
3851 Rain 21 1005 78 10000 3.09 20 18:46 11.01.2021
3852 Rain 21 1005 78 10000 3.09 20 18:46 11.01.2021
3853 Rain 21 1005 78 10000 3.09 20 18:27 11.01.2021
3854 Rain 20 1007 94 9000 2.57 340 17:56 11.01.2021
3855 Rain 20 1007 94 9000 2.57 340 17:37 11.01.2021
3856 Rain 20 1007 94 9000 2.57 340 17:19 11.01.2021
3857 Rain 20 1008 94 9000 2.06 250 16:39 11.01.2021
3858 Rain 20 1008 94 9000 2.06 250 16:20 11.01.2021
3859 Rain 19 1010 94 8000 3.6 270 15:47 11.01.2021
3860 Rain 20 1010 94 8000 3.6 270 15:26 11.01.2021
3861 Rain 20 1008 100 8000 2.06 320 14:40 11.01.2021
3862 Rain 20 1007 94 3000 4.12 20 13:53 11.01.2021
3863 Rain 20 1007 94 5000 2.57 120 13:27 11.01.2021
3864 Rain 19 1006 94 4500 1.54 220 12:52 11.01.2021
3865 Rain 19 1006 94 4500 1.54 220 12:52 11.01.2021
3866 Rain 19 1004 94 9000 4.63 100 12:32 11.01.2021
3867 Clouds 19 1005 94 4500 2.06 0 11:56 11.01.2021
3868 Rain 19 1004 94 8000 2.57 140 11:34 11.01.2021
3869 Rain 19 1005 94 10000 4.63 160 10:51 11.01.2021
3870 Rain 18 1005 94 10000 4.63 160 10:25 11.01.2021
3871 Rain 19 1006 88 6000 5.14 200 09:43 11.01.2021
3872 Rain 18 1006 88 6000 5.14 200 09:21 11.01.2021
3873 Rain 19 1007 88 2500 6.17 230 08:45 11.01.2021
3874 Rain 19 1007 88 2500 6.17 230 08:18 11.01.2021
3875 Clouds 19 1005 83 10000 7.2 230 07:28 11.01.2021
3876 Clouds 22 1006 88 6000 7.2 230 06:58 11.01.2021
3877 Clear 28 1003 89 10000 1.03 20 03:57 11.01.2021
3878 Clear 27 1003 88 10000 3.6 110 01:33 11.01.2021
3879 Clear 27 1004 78 10000 7.72 110 00:34 11.01.2021
3880 Clear 28 1004 78 10000 8.23 110 23:35 10.01.2021
3881 Clear 29 1004 69 10000 9.77 100 22:48 10.01.2021
3882 Clear 29 1004 69 10000 9.77 100 22:24 10.01.2021
3883 Clear 29 1004 69 10000 9.77 100 22:24 10.01.2021
3884 Clear 29 1005 78 10000 8.23 100 21:46 10.01.2021
3885 Clear 30 1005 78 10000 8.23 100 21:21 10.01.2021
3886 Clouds 31 1007 65 10000 7.2 100 20:56 10.01.2021
3887 Clouds 31 1007 65 10000 7.2 100 20:33 10.01.2021
3888 Clouds 31 1007 65 10000 7.2 100 20:33 10.01.2021
3889 Clear 31 1008 65 10000 6.69 100 19:44 10.01.2021
3890 Clear 31 1008 65 10000 6.69 100 19:26 10.01.2021
3891 Clear 31 1008 65 10000 6.69 100 19:26 10.01.2021
3892 Clear 31 1008 61 10000 4.63 80 18:56 10.01.2021
3893 Clear 30 1008 61 10000 4.63 80 18:37 10.01.2021
3894 Clear 31 1008 61 10000 4.63 80 18:18 10.01.2021
3895 Clear 31 1009 61 10000 2.57 50 17:21 10.01.2021
3896 Clear 29 1010 69 10000 3.09 20 16:33 10.01.2021
3897 Clear 29 1010 69 10000 3.09 20 16:33 10.01.2021
3898 Clear 28 1011 69 10000 3.6 20 15:57 10.01.2021
3899 Clear 28 1011 69 10000 3.6 20 15:25 10.01.2021
3900 Clear 27 1011 73 10000 4.12 30 14:50 10.01.2021
3901 Clear 27 1011 73 10000 4.12 30 14:32 10.01.2021
3902 Clear 26 1011 78 10000 4.12 350 13:55 10.01.2021
3903 Clear 25 1011 78 10000 4.12 350 13:37 10.01.2021
3904 Clear 25 1011 78 10000 4.12 350 13:18 10.01.2021
3905 Clear 25 1012 59 10000 4.02 360 12:47 10.01.2021
3906 Clear 24 1010 73 10000 4.12 10 12:27 10.01.2021
3907 Clear 24 1010 73 10000 4.12 10 11:39 10.01.2021
3908 Clear 23 1010 73 10000 4.12 10 11:18 10.01.2021
3909 Clear 23 1011 68 10000 4.63 20 10:36 10.01.2021
3910 Clear 22 1011 68 10000 4.63 20 10:18 10.01.2021
3911 Clear 23 1011 68 10000 4.12 30 09:27 10.01.2021
3912 Clear 23 1010 64 10000 4.12 30 08:21 10.01.2021
3913 Clear 24 1011 64 10000 4.12 50 07:29 10.01.2021
3914 Clear 24 1011 64 10000 6.17 50 06:19 10.01.2021
3915 Clear 25 1012 57 10000 6.17 60 05:36 10.01.2021
3916 Clear 25 1011 65 10000 5.66 90 02:58 10.01.2021
3917 Clear 25 1010 69 10000 5.66 100 00:52 10.01.2021
3918 Clear 25 1010 61 10000 5.66 90 23:48 09.01.2021
3919 Clear 25 1010 61 10000 5.66 90 23:29 09.01.2021
3920 Clouds 26 1010 61 10000 5.66 90 22:47 09.01.2021
3921 Clouds 26 1010 61 10000 5.66 90 22:18 09.01.2021
3922 Clouds 26 1010 61 10000 5.14 90 21:56 09.01.2021
3923 Clouds 27 1010 61 10000 5.14 90 21:38 09.01.2021
3924 Clouds 27 1010 61 10000 5.14 90 21:18 09.01.2021
3925 Clouds 27 1011 57 10000 5.66 70 20:39 09.01.2021
3926 Clouds 27 1011 57 10000 4.12 70 19:44 09.01.2021
3927 Clouds 26 1011 57 10000 4.12 70 19:22 09.01.2021
3928 Clouds 27 1012 57 10000 4.12 50 18:41 09.01.2021
3929 Clouds 26 1012 57 10000 4.12 50 18:20 09.01.2021
3930 Clear 25 1012 60 10000 3.6 50 17:46 09.01.2021
3931 Clear 26 1012 60 10000 3.6 50 17:27 09.01.2021
3932 Clear 25 1013 60 10000 2.06 20 16:33 09.01.2021
3933 Clear 24 1013 64 10000 2.57 20 15:52 09.01.2021
3934 Clear 24 1013 64 10000 2.57 20 15:32 09.01.2021
3935 Rain 24 1013 60 10000 3.6 350 14:40 09.01.2021
3936 Rain 25 1013 60 10000 3.6 350 14:20 09.01.2021
3937 Clear 24 1013 56 10000 3.09 360 13:48 09.01.2021
3938 Clear 23 1013 56 10000 3.09 360 13:29 09.01.2021
3939 Clear 23 1013 64 10000 3.09 70 12:48 09.01.2021
3940 Clear 23 1013 64 10000 3.09 70 12:22 09.01.2021
3941 Clear 22 1012 68 10000 2.57 70 11:55 09.01.2021
3942 Clear 22 1012 68 10000 2.57 70 11:30 09.01.2021
3943 Clear 22 1012 68 10000 5.66 20 10:52 09.01.2021
3944 Clear 21 1012 68 10000 5.66 20 10:30 09.01.2021
3945 Rain 21 1013 68 10000 5.14 360 09:53 09.01.2021
3946 Rain 21 1013 68 10000 5.14 360 09:28 09.01.2021
3947 Rain 21 1013 83 10000 5.66 360 08:34 09.01.2021
3948 Rain 23 1013 68 10000 5.14 90 06:57 09.01.2021
3949 Rain 23 1013 68 10000 5.14 90 06:39 09.01.2021
3950 Rain 23 1012 68 10000 8.75 100 04:47 09.01.2021
3951 Rain 24 1012 64 10000 7.72 110 03:20 09.01.2021
3952 Clear 24 1011 64 10000 9.26 100 02:29 09.01.2021
3953 Clear 24 1011 73 10000 6.69 110 01:44 09.01.2021
3954 Clear 25 1010 69 10000 8.23 110 00:34 09.01.2021
3955 Clear 26 1011 65 10000 7.2 90 23:50 08.01.2021
3956 Clear 29 1011 57 10000 3.6 40 22:56 08.01.2021
3957 Clear 29 1011 61 10000 4.12 40 21:59 08.01.2021
3958 Clear 29 1011 61 10000 4.12 40 21:34 08.01.2021
3959 Clear 29 1011 61 10000 3.09 40 20:42 08.01.2021
3960 Clear 29 1011 61 10000 3.09 40 20:23 08.01.2021
3961 Clear 29 1011 65 10000 4.12 30 19:39 08.01.2021
3962 Clear 29 1011 65 10000 4.12 30 19:21 08.01.2021
3963 Clear 30 1012 61 10000 4.12 50 18:34 08.01.2021
3964 Clear 28 1012 61 10000 4.12 60 17:55 08.01.2021
3965 Clear 28 1012 61 10000 4.12 60 17:30 08.01.2021
3966 Rain 27 1012 65 10000 5.14 80 16:51 08.01.2021
3967 Clear 26 1012 61 10000 4.63 100 15:57 08.01.2021
3968 Rain 27 1012 61 10000 4.63 100 15:38 08.01.2021
3969 Clear 26 1012 53 10000 2.06 190 14:41 08.01.2021
3970 Clear 25 1012 53 10000 2.06 190 14:22 08.01.2021
3971 Clear 23 1012 64 10000 4.12 170 13:22 08.01.2021
3972 Clear 23 1011 64 10000 3.09 150 12:53 08.01.2021
3973 Clear 22 1011 64 10000 3.09 150 12:23 08.01.2021
3974 Clouds 22 1010 60 10000 2.06 150 11:59 08.01.2021
3975 Clouds 22 1010 60 10000 2.06 150 11:39 08.01.2021
3976 Clouds 23 1010 60 10000 2.06 150 11:39 08.01.2021
3977 Clouds 23 1010 60 10000 2.06 150 11:19 08.01.2021
3978 Rain 23 1009 64 10000 2.57 140 10:42 08.01.2021
3979 Clouds 23 1009 64 10000 3.09 140 09:54 08.01.2021
3980 Clouds 23 1009 64 10000 3.09 140 09:36 08.01.2021
3981 Rain 23 1009 64 10000 3.09 140 09:18 08.01.2021
3982 Clear 26 1007 32 10000 3.6 240 07:30 08.01.2021
3983 Clear 23 1007 59 10000 3.6 270 06:46 08.01.2021
3984 Clear 31 1006 19 10000 2.57 230 00:44 08.01.2021
3985 Clear 32 1005 19 10000 4.63 260 23:43 07.01.2021
3986 Clear 32 1005 35 10000 4.63 250 22:55 07.01.2021
3987 Clear 31 1005 35 10000 4.63 250 22:36 07.01.2021
3988 Clear 34 1005 21 10000 5.14 250 21:50 07.01.2021
3989 Clear 33 1005 21 10000 5.14 250 21:30 07.01.2021
3990 Clear 33 1005 19 10000 4.63 250 20:52 07.01.2021
3991 Rain 33 1005 19 10000 4.63 250 20:34 07.01.2021
3992 Clouds 32 1006 22 10000 5.14 240 19:47 07.01.2021
3993 Clouds 32 1006 22 10000 5.14 240 19:24 07.01.2021
3994 Clear 32 1007 27 10000 5.14 280 18:46 07.01.2021
3995 Clear 31 1007 27 10000 5.14 280 18:20 07.01.2021
3996 Clear 29 1008 34 10000 5.66 260 17:34 07.01.2021
3997 Clear 28 1008 44 10000 4.63 270 16:56 07.01.2021
3998 Clear 28 1008 44 10000 4.63 270 16:32 07.01.2021
3999 Clear 26 1009 57 10000 4.63 260 15:52 07.01.2021
4000 Clear 25 1009 57 10000 4.63 260 15:30 07.01.2021
4001 Clouds 23 1009 64 10000 3.6 270 14:31 07.01.2021
4002 Clouds 22 1009 68 10000 3.6 270 13:50 07.01.2021
4003 Clouds 21 1009 68 10000 3.6 270 13:30 07.01.2021
4004 Clear 21 1009 62 10000 0.89 270 12:55 07.01.2021
4005 Clouds 20 1008 82 10000 3.1 280 12:23 07.01.2021
4006 Clouds 20 1008 82 10000 3.1 280 11:39 07.01.2021
4007 Clouds 19 1007 88 10000 3.1 270 10:56 07.01.2021
4008 Clouds 19 1007 88 10000 3.1 270 10:37 07.01.2021
4009 Clouds 19 1007 82 10000 2.6 260 09:57 07.01.2021
4010 Clouds 19 1007 82 10000 2.6 260 09:38 07.01.2021
4011 Clouds 20 1006 82 10000 2.6 250 08:40 07.01.2021
4012 Clouds 20 1006 82 10000 4.1 260 08:21 07.01.2021
4013 Clouds 20 1006 82 10000 4.1 260 07:40 07.01.2021
4014 Clouds 20 1006 77 10000 3.6 260 05:52 07.01.2021
4015 Clouds 24 1006 60 10000 2.6 290 01:34 07.01.2021
4016 Clouds 25 1006 47 10000 5.1 280 23:58 06.01.2021
4017 Clouds 26 1006 47 10000 5.1 270 22:51 06.01.2021
4018 Clouds 26 1006 50 10000 4.1 280 22:20 06.01.2021
4019 Clouds 26 1006 50 10000 4.1 280 21:41 06.01.2021
4020 Clouds 26 1006 50 10000 4.1 280 21:41 06.01.2021
4021 Clouds 25 1007 60 10000 2.1 0 21:22 06.01.2021
4022 Clouds 24 1007 60 10000 2.1 0 20:42 06.01.2021
4023 Clouds 22 1008 68 10000 4.1 270 20:22 06.01.2021
4024 Clouds 22 1008 68 10000 4.1 270 19:42 06.01.2021
4025 Clouds 22 1008 68 10000 4.1 270 19:24 06.01.2021
4026 Clouds 22 1007 64 10000 3.1 0 18:45 06.01.2021
4027 Clouds 23 1008 68 10000 4.1 270 18:26 06.01.2021
4028 Clouds 22 1008 68 10000 4.1 270 17:43 06.01.2021
4029 Clouds 22 1008 68 10000 4.1 280 17:25 06.01.2021
4030 Clouds 22 1008 68 10000 4.1 280 16:51 06.01.2021
4031 Clouds 22 1008 68 10000 4.6 280 16:20 06.01.2021
4032 Clouds 21 1008 68 10000 4.6 280 15:57 06.01.2021
4033 Clouds 21 1008 68 10000 4.6 280 15:32 06.01.2021
4034 Clouds 21 1008 77 10000 4.1 290 14:56 06.01.2021
4035 Clouds 21 1008 77 10000 4.1 290 14:27 06.01.2021
4036 Clouds 20 1008 82 10000 3.6 270 13:47 06.01.2021
4037 Drizzle 21 1007 83 9000 4.6 260 13:24 06.01.2021
4038 Drizzle 21 1007 83 9000 4.6 260 12:49 06.01.2021
4039 Clouds 21 1007 83 8000 4.1 270 12:26 06.01.2021
4040 Clouds 21 1007 83 8000 4.1 270 11:39 06.01.2021
4041 Clouds 21 1006 83 7000 3.1 270 11:20 06.01.2021
4042 Clouds 22 1006 83 7000 3.1 270 10:29 06.01.2021
4043 Clouds 22 1006 83 10000 2.6 280 09:51 06.01.2021
4044 Clouds 22 1006 88 10000 3.6 310 08:59 06.01.2021
4045 Clouds 23 1006 88 10000 3.6 310 08:38 06.01.2021
4046 Clouds 23 1006 83 10000 2.6 30 07:58 06.01.2021
4047 Clouds 24 1006 83 10000 4.6 60 06:55 06.01.2021
4048 Clouds 24 1007 78 10000 5.1 60 05:34 06.01.2021
4049 Clouds 24 1007 83 10000 3.6 80 04:34 06.01.2021
4050 Clear 23 1008 83 10000 4.6 130 02:47 06.01.2021
4051 Rain 23 1008 83 10000 4.6 130 02:25 06.01.2021
4052 Rain 23 1007 78 10000 2.1 170 00:51 06.01.2021
4053 Clouds 23 1006 83 10000 2.1 170 23:31 05.01.2021
4054 Clouds 24 1006 73 10000 2.6 160 22:44 05.01.2021
4055 Rain 25 1006 74 10000 4.6 90 22:21 05.01.2021
4056 Rain 25 1006 74 10000 4.6 90 21:56 05.01.2021
4057 Clouds 26 1006 83 10000 5.1 110 20:56 05.01.2021
4058 Clouds 27 1006 83 10000 6.2 90 20:25 05.01.2021
4059 Clouds 28 1006 83 10000 6.2 90 19:44 05.01.2021
4060 Rain 28 1006 69 10000 6.7 100 19:21 05.01.2021
4061 Rain 28 1006 69 10000 6.7 100 18:44 05.01.2021
4062 Rain 28 1006 69 10000 6.7 100 18:44 05.01.2021
4063 Clouds 29 1007 69 10000 5.7 100 18:25 05.01.2021
4064 Clouds 29 1007 69 10000 5.7 100 17:50 05.01.2021
4065 Clouds 29 1008 69 10000 5.7 110 17:29 05.01.2021
4066 Clouds 28 1008 69 10000 5.7 110 16:53 05.01.2021
4067 Clouds 28 1008 69 10000 5.7 110 16:22 05.01.2021
4068 Clouds 28 1008 69 10000 5.7 110 15:51 05.01.2021
4069 Clouds 27 1008 74 10000 6.2 100 15:25 05.01.2021
4070 Clouds 27 1008 74 10000 6.2 100 14:41 05.01.2021
4071 Clouds 27 1008 78 10000 6.7 110 13:51 05.01.2021
4072 Clouds 26 1008 78 10000 6.7 110 13:30 05.01.2021
4073 Clouds 25 1008 78 10000 6.2 110 12:50 05.01.2021
4074 Clouds 25 1008 78 10000 6.2 110 12:28 05.01.2021
4075 Clouds 24 1008 83 10000 3.6 130 11:40 05.01.2021
4076 Clouds 24 1008 94 10000 3.6 160 11:21 05.01.2021
4077 Clouds 24 1008 94 10000 3.6 160 11:20 05.01.2021
4078 -273 0 0 0 0 0 11:20 05.01.2021
4079 Clouds 23 1008 94 10000 3.6 160 10:43 05.01.2021
4080 Clouds 23 1007 88 10000 3.6 150 09:51 05.01.2021
4081 Clouds 23 1007 88 10000 3.6 150 09:30 05.01.2021
4082 Clouds 23 1007 83 10000 2.6 150 08:29 05.01.2021
4083 Clouds 23 1007 83 10000 2.6 150 08:29 05.01.2021
4084 Clouds 23 1007 88 10000 2.6 150 07:50 05.01.2021
4085 Clear 23 1008 83 10000 4.6 130 04:59 05.01.2021
4086 Clear 25 1008 73 10000 8.2 110 01:31 05.01.2021
4087 Clear 25 1007 73 10000 9.8 110 00:21 05.01.2021
4088 Clear 25 1007 73 10000 9.8 110 23:38 04.01.2021
4089 Clouds 26 1007 61 10000 8.7 100 23:19 04.01.2021
4090 Clouds 27 1007 61 10000 8.7 100 22:41 04.01.2021
4091 Clouds 28 1008 58 10000 5.1 90 21:54 04.01.2021
4092 Clouds 28 1008 58 10000 5.1 90 21:35 04.01.2021
4093 Clouds 29 1008 51 10000 5.7 100 20:51 04.01.2021
4094 Clouds 29 1008 51 10000 5.7 100 20:31 04.01.2021
4095 Clouds 29 1008 57 10000 5.1 100 19:53 04.01.2021
4096 Clouds 29 1009 61 10000 5.7 100 19:29 04.01.2021
4097 Clouds 29 1009 61 10000 5.7 100 18:58 04.01.2021
4098 Clouds 28 1009 65 10000 3.6 80 18:25 04.01.2021
4099 Clouds 29 1009 65 10000 3.6 80 17:44 04.01.2021
4100 Clear 28 1010 69 10000 3.1 60 17:25 04.01.2021
4101 Clear 27 1010 69 10000 3.1 60 16:48 04.01.2021
4102 Clear 27 1010 69 10000 3.1 60 16:27 04.01.2021
4103 Clear 27 1010 69 10000 3.1 60 15:50 04.01.2021
4104 Clouds 26 1011 73 10000 3.1 50 15:31 04.01.2021
4105 Clouds 25 1011 73 10000 3.1 50 14:48 04.01.2021
4106 Clear 24 1011 78 10000 2.6 40 13:48 04.01.2021
4107 Clear 24 1011 78 10000 3.6 40 13:25 04.01.2021
4108 Clear 24 1011 78 10000 3.6 40 12:44 04.01.2021
4109 Clear 23 1011 78 10000 3.6 40 11:58 04.01.2021
4110 Clear 23 1010 73 10000 4.1 50 11:22 04.01.2021
4111 Clear 23 1010 73 10000 4.1 50 10:49 04.01.2021
4112 Clear 23 1010 73 10000 4.1 50 10:28 04.01.2021
4113 Clear 23 1010 73 10000 2.6 40 09:53 04.01.2021
4114 Clear 23 1010 64 10000 4.6 40 09:22 04.01.2021
4115 Clear 23 1010 64 10000 4.6 40 08:46 04.01.2021
4116 Clear 24 1010 64 10000 2.6 30 07:58 04.01.2021
4117 Clear 24 1010 64 10000 2.6 30 07:37 04.01.2021
4118 Clear 25 1011 57 10000 4.6 60 05:33 04.01.2021
4119 Clear 24 1012 73 10000 7.7 120 03:40 04.01.2021
4120 Clear 25 1012 73 10000 8.7 110 00:47 04.01.2021
4121 Clear 27 1011 57 10000 7.2 110 23:49 03.01.2021
4122 Clear 27 1011 57 10000 7.2 110 23:49 03.01.2021
4123 Clear 28 1012 45 10000 7.2 120 23:21 03.01.2021
4124 Clear 29 1012 45 10000 7.2 120 22:52 03.01.2021
4125 Clear 29 1012 45 10000 7.2 120 22:30 03.01.2021
4126 Clear 30 1012 39 10000 7.2 110 21:48 03.01.2021
4127 Clear 31 1013 45 10000 4.6 130 21:26 03.01.2021
4128 Clear 31 1013 45 10000 4.6 130 21:26 03.01.2021
4129 Clear 31 1013 45 10000 4.6 130 20:45 03.01.2021
4130 Clear 31 1013 45 10000 4.6 130 20:26 03.01.2021
4131 Clear 31 1013 54 10000 6.2 100 19:55 03.01.2021
4132 Clear 30 1013 54 10000 6.2 100 19:34 03.01.2021
4133 Clear 30 1013 42 10000 4.6 100 18:56 03.01.2021
4134 Clear 29 1013 42 10000 4.6 100 18:38 03.01.2021
4135 Clear 29 1014 47 10000 3.6 100 17:59 03.01.2021
4136 Clear 29 1014 47 10000 3.6 100 17:40 03.01.2021
4137 Clear 29 1015 47 10000 2.6 60 17:22 03.01.2021
4138 Clear 28 1015 47 10000 2.6 60 16:42 03.01.2021
4139 Clear 27 1014 50 10000 2.6 40 16:19 03.01.2021
4140 Clear 27 1014 50 10000 2.6 40 15:45 03.01.2021
4141 Clear 26 1015 53 10000 3.1 20 15:23 03.01.2021
4142 Clear 26 1015 53 10000 3.1 20 14:45 03.01.2021
4143 Clear 26 1015 53 10000 3.1 20 14:24 03.01.2021
4144 Clear 25 1015 57 10000 3.6 30 13:39 03.01.2021
4145 Clear 24 1015 60 10000 3.6 30 13:21 03.01.2021
4146 Clear 24 1015 64 10000 3.1 20 11:57 03.01.2021
4147 Clear 24 1015 64 10000 3.1 20 11:39 03.01.2021
4148 Clear 24 1014 64 10000 4.1 10 11:21 03.01.2021
4149 Rain 24 1014 64 10000 4.1 10 10:34 03.01.2021
4150 Clear 24 1014 57 10000 5.1 20 09:52 03.01.2021
4151 Clear 24 1014 57 10000 5.1 20 09:28 03.01.2021
4152 Clear 25 1013 57 10000 4.6 10 08:32 03.01.2021
4153 Clear 26 1012 54 10000 3.6 20 06:57 03.01.2021
4154 Clear 27 1013 61 10000 4.1 100 03:30 03.01.2021
4155 Clear 27 1013 69 10000 4.1 120 02:26 03.01.2021
4156 Clear 28 1012 57 10000 4.6 130 00:33 03.01.2021
4157 Clear 29 1012 65 10000 5.1 110 23:52 02.01.2021
4158 Clear 30 1012 33 10000 3.1 70 23:19 02.01.2021
4159 Clear 31 1012 33 10000 3.1 70 22:47 02.01.2021
4160 Clear 31 1012 33 10000 3.1 70 22:28 02.01.2021
4161 Clear 33 1013 29 10000 2.6 50 21:48 02.01.2021
4162 Clear 33 1013 29 10000 2.6 50 21:28 02.01.2021
4163 Clear 33 1014 40 10000 3.1 50 20:45 02.01.2021
4164 Clear 32 1014 40 10000 3.1 50 20:25 02.01.2021
4165 Clear 32 1014 48 10000 2.6 50 19:46 02.01.2021
4166 Clear 31 1015 54 10000 2.6 50 19:20 02.01.2021
4167 Clear 31 1015 54 10000 2.6 50 19:20 02.01.2021
4168 Clear 31 1015 54 10000 2.6 50 18:43 02.01.2021
4169 Clear 31 1015 54 10000 2.6 50 18:25 02.01.2021
4170 Clear 31 1015 54 10000 2.6 50 17:46 02.01.2021
4171 Clear 30 1016 57 10000 2.6 50 17:26 02.01.2021
4172 Clear 30 1016 57 10000 2.6 50 16:41 02.01.2021
4173 Clear 29 1016 61 10000 2.6 50 16:20 02.01.2021
4174 Clear 29 1016 61 10000 2.6 50 15:43 02.01.2021
4175 Clear 28 1016 61 10000 2.6 50 15:25 02.01.2021
4176 Clear 27 1016 61 10000 2.6 50 14:37 02.01.2021
4177 Clear 27 1017 61 10000 2.6 20 14:18 02.01.2021
4178 Clear 26 1017 61 10000 2.6 20 13:39 02.01.2021
4179 Clear 25 1017 57 10000 2.6 50 12:54 02.01.2021
4180 Clear 25 1017 57 10000 2.6 50 12:54 02.01.2021
4181 Clear 25 1017 57 10000 2.6 50 12:32 02.01.2021
4182 Clear 24 1010 60 10000 3.1 50 11:49 02.01.2021
4183 Clear 23 1016 56 10000 2.6 50 11:22 02.01.2021
4184 Clear 23 1016 56 10000 2.6 50 10:52 02.01.2021
4185 Clear 23 1016 56 10000 3.1 30 10:30 02.01.2021
4186 Clear 23 1016 56 10000 3.1 30 09:54 02.01.2021
4187 Clear 23 1016 56 10000 3.6 50 09:23 02.01.2021
4188 Clear 23 1016 56 10000 3.6 50 08:50 02.01.2021
4189 Clear 23 1016 56 10000 3.6 50 08:28 02.01.2021
4190 Clear 23 1016 56 10000 4.1 80 07:47 02.01.2021
4191 Clear 23 1016 57 10000 3.6 80 07:22 02.01.2021
4192 Clear 24 1016 57 10000 3.6 80 06:40 02.01.2021
4193 Clear 24 1016 53 10000 3.6 60 05:28 02.01.2021
4194 Clear 26 1014 65 10000 7.7 110 00:56 02.01.2021
4195 Clear 26 1014 65 10000 7.7 110 00:35 02.01.2021
4196 Clear 29 1013 61 10000 2.1 360 23:51 01.01.2021
4197 Clear 30 1013 58 10000 2.6 10 23:20 01.01.2021
4198 Clear 31 1013 58 10000 2.6 10 22:47 01.01.2021
4199 Clear 31 1013 58 10000 2.6 10 22:47 01.01.2021
4200 Clear 31 1013 48 10000 4.1 30 22:24 01.01.2021
4201 Clear 32 1013 48 10000 4.1 30 21:44 01.01.2021
4202 Clear 32 1013 51 10000 4.6 20 21:22 01.01.2021
4203 Clear 32 1013 51 10000 4.6 20 21:22 01.01.2021
4204 Clear 32 1013 51 10000 4.6 20 20:53 01.01.2021
4205 Rain 32 1014 48 10000 5.7 20 20:22 01.01.2021
4206 Clear 32 1014 48 10000 5.7 20 19:43 01.01.2021
4207 Clear 32 1014 48 10000 5.7 20 19:24 01.01.2021
4208 Clear 32 1015 42 10000 5.7 20 18:57 01.01.2021
4209 Clear 31 1015 42 10000 5.7 20 18:39 01.01.2021
4210 Clear 31 1015 42 10000 5.1 20 17:59 01.01.2021
4211 Clear 32 1015 23 10000 2.6 0 17:41 01.01.2021
4212 Clear 31 1015 25 10000 3.6 250 17:18 01.01.2021
4213 Clear 30 1015 25 10000 3.6 250 16:37 01.01.2021
4214 Clear 29 1015 28 10000 3.1 240 15:46 01.01.2021
4215 Clear 28 1015 30 10000 3.6 250 14:57 01.01.2021
4216 Clear 28 1015 30 10000 3.6 250 14:39 01.01.2021
4217 Clear 26 1015 31 10000 4.1 250 13:52 01.01.2021
4218 Clear 25 1015 31 10000 4.1 250 13:33 01.01.2021
4219 Clear 23 1015 35 10000 3.1 250 12:43 01.01.2021
4220 Clear 22 1014 37 10000 3.1 260 12:20 01.01.2021
4221 Clear 21 1014 37 10000 3.1 260 11:39 01.01.2021
4222 Clear 21 1014 40 10000 3.6 280 11:18 01.01.2021
4223 Clear 21 1014 40 10000 3.6 280 10:35 01.01.2021
4224 Clear 21 1013 40 10000 4.1 300 09:47 01.01.2021
4225 Clear 21 1012 37 10000 4.1 310 09:20 01.01.2021
4226 Clear 22 1012 35 10000 4.6 310 08:29 01.01.2021
4227 Clear 23 1013 38 10000 4.1 320 04:53 01.01.2021
4228 Clear 25 1013 44 10000 5.1 320 02:44 01.01.2021
4229 Clear 26 1012 47 10000 5.1 340 01:35 01.01.2021
4230 Clear 27 1011 19 10000 2.1 260 00:28 01.01.2021
4231 Clear 28 1011 18 10000 2.1 260 23:36 31.12.2020
4232 Clear 29 1011 17 10000 2.6 290 23:18 31.12.2020
4233 Clear 29 1011 17 10000 2.6 290 22:38 31.12.2020
4234 Clear 29 1011 18 10000 3.1 260 22:19 31.12.2020
4235 Clear 29 1011 18 10000 3.1 260 21:47 31.12.2020
4236 Clear 29 1011 18 10000 3.1 230 21:24 31.12.2020
4237 Clear 29 1011 18 10000 3.1 230 20:49 31.12.2020
4238 Clear 28 1013 18 10000 4.1 240 20:18 31.12.2020
4239 Clear 28 1013 18 10000 4.1 240 19:46 31.12.2020
4240 Clear 27 1014 26 10000 3.6 270 19:28 31.12.2020
4241 Clear 27 1014 26 10000 3.6 270 18:49 31.12.2020
4242 Clear 27 1014 22 10000 2.6 240 18:24 31.12.2020
4243 Clear 26 1014 22 10000 2.6 240 17:44 31.12.2020
4244 Clear 26 1014 20 10000 3.6 220 17:23 31.12.2020
4245 Clear 25 1014 20 10000 3.6 220 16:43 31.12.2020
4246 Clear 24 1014 24 10000 3.6 360 16:25 31.12.2020
4247 Clear 24 1014 24 10000 3.6 360 15:49 31.12.2020
4248 Clear 23 1014 23 10000 1.5 240 15:22 31.12.2020
4249 Clear 23 1014 23 10000 1.5 240 14:57 31.12.2020
4250 Clear 23 1014 23 10000 1.5 240 14:39 31.12.2020
4251 Clear 21 1014 26 10000 2.1 200 14:21 31.12.2020
4252 Clear 21 1014 26 10000 2.1 200 13:39 31.12.2020
4253 Clear 20 1013 34 10000 1 220 13:20 31.12.2020
4254 Clear 19 1013 34 10000 1 220 12:53 31.12.2020
4255 Clear 19 1013 34 10000 1 220 12:35 31.12.2020
4256 Clear 17 1013 45 10000 1 200 11:52 31.12.2020
4257 Clear 17 1013 45 10000 1 200 11:32 31.12.2020
4258 Clear 16 1012 48 10000 1 200 10:49 31.12.2020
4259 Clear 15 1012 48 10000 2.6 180 10:29 31.12.2020
4260 Clear 15 1012 48 10000 2.6 180 09:57 31.12.2020
4261 Clear 15 1012 48 10000 2.6 180 09:35 31.12.2020
4262 Clear 15 1012 51 10000 2.6 180 08:51 31.12.2020
4263 Clear 16 1012 51 10000 2.6 180 08:32 31.12.2020
4264 Clear 16 1012 48 10000 3.6 180 07:59 31.12.2020
4265 Clear 16 1012 48 10000 3.6 180 07:29 31.12.2020
4266 Clear 17 1012 45 10000 4.1 180 05:45 31.12.2020
4267 Clear 18 1012 42 10000 4.6 170 04:30 31.12.2020
4268 Clear 21 1010 28 10000 4.1 210 02:45 31.12.2020
4269 Rain 21 1010 28 10000 4.1 210 02:25 31.12.2020
4270 Clear 22 1008 27 10000 3.6 0 01:44 31.12.2020
4271 Clear 23 1008 25 10000 4.1 220 01:24 31.12.2020
4272 Clear 23 1008 25 10000 4.1 220 00:44 31.12.2020
4273 Clear 24 1007 22 10000 4.6 220 23:48 30.12.2020
4274 Clear 26 1005 21 10000 7.2 230 23:19 30.12.2020
4275 Clear 26 1005 21 10000 7.2 230 22:47 30.12.2020
4276 Clear 26 1005 21 10000 7.2 230 22:47 30.12.2020
4277 Clear 26 1005 21 10000 7.2 230 22:29 30.12.2020
4278 Clear 27 1005 18 10000 4.1 250 21:39 30.12.2020
4279 Clear 27 1005 18 10000 4.1 250 21:39 30.12.2020
4280 Clear 28 1005 24 10000 4.1 250 21:20 30.12.2020
4281 Clear 28 1005 24 10000 4.1 250 20:48 30.12.2020
4282 Clear 27 1005 26 10000 6.2 250 20:20 30.12.2020
4283 Clear 28 1005 26 10000 6.2 250 19:39 30.12.2020
4284 Clouds 27 1005 50 10000 4.1 240 19:20 30.12.2020
4285 Clouds 27 1005 50 10000 4.1 240 18:44 30.12.2020
4286 Clouds 26 1006 60 10000 3.6 250 18:24 30.12.2020
4287 Clouds 24 1006 60 10000 3.6 250 17:50 30.12.2020
4288 Clouds 22 1007 82 10000 2.6 280 17:31 30.12.2020
4289 Clouds 22 1007 82 10000 2.6 280 16:52 30.12.2020
4290 Clouds 20 1006 77 9000 2.6 320 16:25 30.12.2020
4291 Rain 20 1007 68 5000 5.1 230 15:45 30.12.2020
4292 Rain 20 1004 68 10000 7.7 230 15:24 30.12.2020
4293 Rain 21 1004 68 10000 7.7 230 14:43 30.12.2020
4294 Rain 20 1006 82 10000 7.7 230 14:22 30.12.2020
4295 Clouds 20 1006 82 10000 4.1 220 13:20 30.12.2020
4296 Rain 21 1004 73 10000 10.3 230 12:27 30.12.2020
4297 Rain 21 1004 73 10000 10.3 230 11:49 30.12.2020
4298 Clouds 23 1003 73 10000 4.6 230 11:23 30.12.2020
4299 Clouds 23 1001 83 10000 1.5 310 10:59 30.12.2020
4300 Clouds 25 1001 83 10000 1.5 310 10:39 30.12.2020
4301 Clear 26 1001 83 10000 1 10 10:20 30.12.2020
4302 Clear 26 1001 83 10000 1 10 09:46 30.12.2020
4303 Clear 26 1001 83 10000 4.41 330 08:55 30.12.2020
4304 Clear 26 1001 83 10000 3.58 333 07:59 30.12.2020
4305 Clear 26 1002 83 10000 1.5 90 07:28 30.12.2020
4306 Clear 26 1002 83 10000 1.5 90 06:42 30.12.2020
4307 Rain 26 1002 83 10000 2.1 80 05:50 30.12.2020
4308 Clear 26 1002 83 10000 2.1 80 05:30 30.12.2020
4309 Clear 26 1003 83 10000 3.6 100 03:44 30.12.2020
4310 Clear 26 1003 83 10000 5.1 110 03:24 30.12.2020
4311 Clear 26 1003 83 10000 5.1 110 02:36 30.12.2020
4312 Clear 27 1003 83 10000 4.1 100 01:47 30.12.2020
4313 Clear 27 1003 83 10000 4.1 100 01:29 30.12.2020
4314 Clouds 28 1003 69 10000 2.1 70 00:45 30.12.2020
4315 Clouds 28 1003 66 10000 3.1 60 00:26 30.12.2020
4316 Clouds 29 1003 66 10000 3.1 60 23:50 29.12.2020
4317 Clouds 30 1003 66 10000 3.1 60 23:32 29.12.2020
4318 Clouds 31 1003 66 10000 2.6 60 22:49 29.12.2020
4319 Clouds 31 1003 66 10000 2.6 60 22:31 29.12.2020
4320 Clouds 30 1004 66 10000 2.6 20 21:56 29.12.2020
4321 Clouds 30 1004 66 10000 2.6 20 21:36 29.12.2020
4322 Clouds 30 1005 65 10000 3.1 50 20:57 29.12.2020
4323 Clouds 30 1005 65 10000 3.1 50 20:39 29.12.2020
4324 Clouds 30 1006 65 10000 3.1 50 20:20 29.12.2020
4325 Clouds 30 1006 65 10000 3.1 50 19:42 29.12.2020
4326 Clouds 31 1006 74 10000 3.6 50 19:21 29.12.2020
4327 Clouds 31 1006 74 10000 3.6 50 18:49 29.12.2020
4328 Clouds 31 1007 69 10000 4.1 50 18:28 29.12.2020
4329 Clouds 30 1007 69 10000 4.1 50 17:45 29.12.2020
4330 Clouds 30 1008 74 10000 3.1 50 17:21 29.12.2020
4331 Clouds 30 1008 74 10000 3.1 50 16:52 29.12.2020
4332 Clear 28 1009 69 10000 2.6 20 16:25 29.12.2020
4333 Clear 28 1009 69 10000 2.6 20 15:38 29.12.2020
4334 Clear 27 1009 69 10000 3.1 360 15:19 29.12.2020
4335 Clear 28 1009 69 10000 3.1 360 14:37 29.12.2020
4336 Clear 26 1009 78 10000 2.6 20 14:19 29.12.2020
4337 Clear 26 1009 78 10000 2.6 20 13:48 29.12.2020
4338 Clear 26 1009 78 10000 2.6 20 13:23 29.12.2020
4339 Clear 26 1009 78 10000 2.6 20 12:38 29.12.2020
4340 Clear 26 1009 78 10000 3.6 360 12:20 29.12.2020
4341 Clear 26 1009 78 10000 3.6 360 11:54 29.12.2020
4342 Clear 25 1009 78 10000 3.6 360 11:31 29.12.2020
4343 Clear 25 1009 73 10000 5.1 20 10:34 29.12.2020
4344 Clear 24 1009 78 10000 2.1 150 09:49 29.12.2020
4345 Clear 23 1009 78 10000 2.1 150 09:25 29.12.2020
4346 Clear 23 1009 78 10000 2.6 150 08:54 29.12.2020
4347 Clear 23 1009 78 10000 2.6 150 08:32 29.12.2020
4348 Clouds 23 1010 73 10000 3.1 160 07:26 29.12.2020
4349 Clouds 24 1011 73 10000 3.1 170 06:45 29.12.2020
4350 Clouds 25 1011 74 10000 3.1 200 05:25 29.12.2020
4351 Clouds 26 1009 74 10000 8.7 120 00:49 29.12.2020
4352 Clouds 26 1009 78 10000 9.3 120 00:20 29.12.2020
4353 Clouds 27 1009 78 10000 9.3 120 23:34 28.12.2020
4354 Clear 28 1010 62 10000 8.2 100 22:28 28.12.2020
4355 Clear 29 1010 62 10000 8.2 100 21:45 28.12.2020
4356 Clear 29 1010 62 10000 8.2 100 21:26 28.12.2020
4357 Clouds 29 1011 69 10000 7.7 100 20:43 28.12.2020
4358 Clouds 30 1012 62 10000 7.7 90 20:23 28.12.2020
4359 Clouds 30 1012 62 10000 7.7 90 19:49 28.12.2020
4360 Clouds 30 1012 62 10000 7.7 90 19:25 28.12.2020
4361 Clouds 30 1013 62 10000 7.2 90 18:53 28.12.2020
4362 Clouds 30 1013 62 10000 5.1 90 18:28 28.12.2020
4363 Clouds 30 1013 62 10000 5.1 90 17:46 28.12.2020
4364 Clouds 29 1014 65 10000 4.6 80 17:26 28.12.2020
4365 Clouds 29 1014 65 10000 4.6 80 16:46 28.12.2020
4366 Clouds 28 1015 65 10000 4.6 40 16:26 28.12.2020
4367 Clouds 28 1015 65 10000 4.6 40 15:52 28.12.2020
4368 Clouds 27 1015 69 10000 5.1 60 15:26 28.12.2020
4369 Clouds 26 1015 73 10000 5.1 60 14:23 28.12.2020
4370 Clouds 26 1015 73 10000 5.1 60 13:35 28.12.2020
4371 Clouds 25 1015 78 10000 5.7 60 12:55 28.12.2020
4372 Clouds 24 1015 78 10000 5.7 70 12:24 28.12.2020
4373 Clouds 24 1015 78 10000 5.7 70 11:47 28.12.2020
4374 Clouds 24 1015 78 10000 5.7 70 11:25 28.12.2020
4375 Clouds 24 1014 78 10000 5.1 70 10:49 28.12.2020
4376 Clouds 24 1014 78 10000 5.1 70 10:28 28.12.2020
4377 Clouds 24 1014 83 10000 5.7 70 09:49 28.12.2020
4378 Clouds 24 1014 83 10000 5.7 70 09:49 28.12.2020
4379 Clear 24 1013 83 10000 5.7 70 09:21 28.12.2020
4380 Clear 24 1013 83 10000 5.7 70 08:52 28.12.2020
4381 Clear 25 1013 78 10000 5.7 70 06:51 28.12.2020
4382 Clear 26 1014 74 10000 5.1 80 04:41 28.12.2020
4383 Clear 25 1013 83 10000 6.2 130 02:44 28.12.2020
4384 Clear 26 1013 78 10000 7.2 120 00:53 28.12.2020
4385 Clear 27 1012 74 10000 6.7 120 23:49 27.12.2020
4386 Clear 27 1013 69 10000 7.7 110 23:19 27.12.2020
4387 Clear 28 1013 65 10000 7.2 100 21:58 27.12.2020
4388 Clear 28 1014 57 10000 6.7 100 21:26 27.12.2020
4389 Clear 28 1014 57 10000 6.7 100 20:47 27.12.2020
4390 Clear 29 1015 57 10000 6.2 100 19:46 27.12.2020
4391 Clear 29 1015 57 10000 6.2 100 19:22 27.12.2020
4392 Clear 28 1015 65 10000 6.7 100 18:42 27.12.2020
4393 Clear 27 1016 65 10000 6.2 110 18:19 27.12.2020
4394 Clear 28 1016 65 10000 6.2 110 17:43 27.12.2020
4395 Clouds 27 1016 69 10000 6.7 110 17:24 27.12.2020
4396 Clouds 26 1016 69 10000 6.7 110 16:35 27.12.2020
4397 Clouds 26 1017 73 10000 6.7 100 15:54 27.12.2020
4398 Clouds 25 1016 73 10000 6.2 100 14:59 27.12.2020
4399 Clouds 25 1016 73 10000 6.2 100 14:40 27.12.2020
4400 Clouds 25 1017 73 10000 4.6 90 14:18 27.12.2020
4401 Clouds 24 1016 73 10000 4.1 80 13:22 27.12.2020
4402 Clouds 23 1016 73 10000 4.1 80 12:43 27.12.2020
4403 Clouds 23 1016 73 10000 4.1 80 12:43 27.12.2020
4404 Clouds 23 1016 78 10000 5.1 80 11:49 27.12.2020
4405 Clouds 22 1016 78 10000 5.1 80 11:29 27.12.2020
4406 Clouds 22 1015 78 10000 5.1 90 10:51 27.12.2020
4407 Clear 22 1015 78 10000 5.7 90 10:24 27.12.2020
4408 Clear 22 1015 78 10000 5.7 90 09:42 27.12.2020
4409 Clear 23 1014 69 10000 6.7 90 08:29 27.12.2020
4410 Clear 23 1014 69 10000 6.2 90 07:59 27.12.2020
4411 Clear 23 1014 69 10000 6.2 90 07:25 27.12.2020
4412 Clear 24 1014 65 10000 5.7 90 05:44 27.12.2020
4413 Clear 24 1013 78 10000 9.3 110 03:26 27.12.2020
4414 Clear 24 1013 78 10000 9.3 110 02:45 27.12.2020
4415 Clear 24 1013 73 10000 9.3 110 01:32 27.12.2020
4416 Clear 25 1012 69 10000 11.3 110 23:57 26.12.2020
4417 Clear 25 1012 69 10000 11.3 110 23:27 26.12.2020
4418 Clear 26 1012 65 10000 9.8 110 22:47 26.12.2020
4419 Clear 27 1012 69 10000 9.3 110 22:20 26.12.2020
4420 Clear 27 1012 69 10000 9.3 110 21:55 26.12.2020
4421 Clear 27 1012 65 10000 8.2 120 21:31 26.12.2020
4422 Clear 27 1012 65 10000 8.2 120 21:31 26.12.2020
4423 Clear 28 1012 65 10000 8.2 120 20:48 26.12.2020
4424 Clear 28 1012 65 10000 8.2 120 20:27 26.12.2020
4425 Clear 28 1013 58 10000 7.7 100 19:57 26.12.2020
4426 Clear 28 1013 61 10000 7.7 100 19:24 26.12.2020
4427 Clear 28 1013 61 10000 7.7 100 18:37 26.12.2020
4428 Clear 28 1014 65 10000 7.7 100 17:59 26.12.2020
4429 Clear 28 1014 65 10000 7.7 100 17:39 26.12.2020
4430 Clear 28 1014 69 10000 6.2 100 17:18 26.12.2020
4431 Clear 27 1014 69 10000 6.2 100 16:31 26.12.2020
4432 Clear 26 1014 69 10000 5.7 110 15:25 26.12.2020
4433 Clouds 26 1014 73 10000 5.1 100 14:46 26.12.2020
4434 Clouds 25 1014 73 10000 5.1 100 14:22 26.12.2020
4435 Clouds 25 1014 73 10000 5.1 100 13:43 26.12.2020
4436 Clear 26 1014 58 10000 4.1 90 13:24 26.12.2020
4437 Clear 26 1014 58 10000 4.1 90 12:44 26.12.2020
4438 Clear 24 1014 78 10000 5.1 70 12:20 26.12.2020
4439 Clear 24 1014 78 10000 5.1 70 11:51 26.12.2020
4440 Clouds 23 1013 83 10000 4.6 70 11:21 26.12.2020
4441 Clouds 23 1013 83 10000 4.6 70 10:51 26.12.2020
4442 Clouds 23 1013 83 10000 4.6 70 10:27 26.12.2020
4443 Clear 23 1013 78 10000 5.7 70 09:49 26.12.2020
4444 Clear 23 1013 78 10000 5.1 90 09:24 26.12.2020
4445 Clear 24 1013 73 10000 5.7 90 08:20 26.12.2020
4446 Clear 24 1013 73 10000 5.7 90 07:33 26.12.2020
4447 Clear 25 1013 69 10000 5.1 100 06:19 26.12.2020
4448 Clear 25 1012 73 10000 7.2 140 02:48 26.12.2020
4449 Clear 25 1012 73 10000 8.2 130 00:42 26.12.2020
4450 Clear 26 1011 73 10000 8.2 130 23:58 25.12.2020
4451 Clear 26 1011 73 10000 8.2 130 23:38 25.12.2020
4452 Rain 26 1011 78 10000 8.7 120 23:20 25.12.2020
4453 Clear 26 1011 78 10000 8.7 120 22:28 25.12.2020
4454 Clear 26 1011 74 10000 7.2 120 21:49 25.12.2020
4455 Clear 27 1012 69 10000 6.7 110 21:31 25.12.2020
4456 Clear 27 1012 69 10000 6.7 110 20:47 25.12.2020
4457 Clear 27 1012 69 10000 6.7 110 20:28 25.12.2020
4458 Clear 28 1013 69 10000 6.2 100 19:43 25.12.2020
4459 Clear 27 1013 69 10000 6.2 90 18:55 25.12.2020
4460 Clear 27 1013 69 10000 6.2 90 18:35 25.12.2020
4461 Clear 28 1013 69 10000 6.7 90 17:35 25.12.2020
4462 Clear 27 1014 74 10000 5.7 100 16:56 25.12.2020
4463 Clear 26 1014 73 10000 4.1 110 16:25 25.12.2020
4464 Clear 26 1014 73 10000 4.1 110 15:50 25.12.2020
4465 Clear 26 1014 73 10000 4.1 110 15:32 25.12.2020
4466 Clouds 25 1014 73 10000 4.6 100 14:38 25.12.2020
4467 Clouds 24 1014 88 10000 4.6 80 14:19 25.12.2020
4468 Clouds 24 1014 88 10000 4.6 80 13:38 25.12.2020
4469 Clouds 24 1014 83 10000 3.6 70 13:18 25.12.2020
4470 Clouds 24 1014 83 10000 3.6 70 13:18 25.12.2020
4471 Clouds 23 1014 83 10000 4.6 60 12:27 25.12.2020
4472 Clouds 23 1014 83 10000 4.6 60 11:48 25.12.2020
4473 Clouds 23 1013 83 10000 5.7 60 11:24 25.12.2020
4474 Clouds 23 1013 83 10000 5.7 60 11:24 25.12.2020
4475 Clouds 23 1013 83 10000 5.7 60 10:47 25.12.2020
4476 Clear 23 1013 78 10000 4.6 60 10:19 25.12.2020
4477 Clear 23 1013 78 10000 4.6 60 09:26 25.12.2020
4478 Clear 23 1013 78 10000 5.1 50 08:40 25.12.2020
4479 Clear 25 1013 69 10000 5.1 60 07:35 25.12.2020
4480 Clear 25 1013 65 10000 5.1 50 06:44 25.12.2020
4481 Clear 25 1011 73 10000 7.7 120 02:36 25.12.2020
4482 Clear 26 1010 69 10000 8.7 120 00:35 25.12.2020
4483 Clear 28 1010 61 10000 8.7 120 23:32 24.12.2020
4484 Clear 30 1010 48 10000 6.7 120 22:56 24.12.2020
4485 Clear 30 1010 37 10000 6.2 110 22:25 24.12.2020
4486 Clear 31 1010 37 10000 6.2 110 21:52 24.12.2020
4487 Rain 31 1011 37 10000 6.7 110 20:59 24.12.2020
4488 Clear 31 1011 42 10000 5.1 110 19:54 24.12.2020
4489 Clear 30 1012 48 10000 3.1 90 18:22 24.12.2020
4490 Clear 30 1012 48 10000 3.1 90 17:39 24.12.2020
4491 Clear 29 1013 57 10000 2.6 50 17:21 24.12.2020
4492 Clear 29 1010 65 10000 2.6 360 16:25 24.12.2020
4493 Clear 27 1010 65 10000 2.6 360 15:49 24.12.2020
4494 Clear 27 1013 65 10000 3.1 360 15:25 24.12.2020
4495 Clear 27 1013 65 10000 3.1 360 14:56 24.12.2020
4496 Clear 26 1013 65 10000 3.1 360 14:37 24.12.2020
4497 Clear 26 1013 69 10000 4.1 20 14:18 24.12.2020
4498 Clear 25 1013 69 10000 4.1 20 13:38 24.12.2020
4499 Clear 24 1013 73 10000 4.1 20 13:18 24.12.2020
4500 Clear 24 1013 73 10000 4.1 20 12:39 24.12.2020
4501 Clear 23 1013 73 10000 4.1 20 12:18 24.12.2020
4502 Clear 23 1013 73 10000 4.1 20 11:38 24.12.2020
4503 Clear 23 1012 73 10000 5.1 20 11:19 24.12.2020
4504 Clear 22 1012 73 10000 5.1 20 10:43 24.12.2020
4505 Clear 23 1012 69 10000 5.1 10 10:18 24.12.2020
4506 Clear 23 1012 69 10000 5.1 10 09:49 24.12.2020
4507 Clear 23 1011 69 10000 5.7 20 08:50 24.12.2020
4508 Clear 24 1011 64 10000 5.7 40 07:54 24.12.2020
4509 Clear 24 1011 64 10000 5.7 40 07:35 24.12.2020
4510 Clear 24 1011 78 10000 1.5 110 06:23 24.12.2020
4511 Clear 24 1012 78 10000 6.2 110 03:29 24.12.2020
4512 Clear 25 1011 65 10000 6.2 110 01:51 24.12.2020
4513 Clear 26 1010 47 10000 4.6 120 01:19 24.12.2020
4514 Clear 27 1010 45 10000 4.6 100 00:23 24.12.2020
4515 Clear 28 1010 45 10000 4.6 100 23:57 23.12.2020
4516 Clear 28 1010 45 10000 4.6 100 23:38 23.12.2020
4517 Clear 29 1010 37 10000 5.7 110 23:19 23.12.2020
4518 Clear 29 1010 37 10000 5.7 110 22:42 23.12.2020
4519 Clear 30 1011 35 10000 5.7 100 22:21 23.12.2020
4520 Clear 30 1011 35 10000 5.7 100 21:42 23.12.2020
4521 Clear 31 1011 39 10000 5.1 100 21:21 23.12.2020
4522 Clear 31 1011 39 10000 5.1 100 20:38 23.12.2020
4523 Clear 32 1012 30 10000 2.1 360 20:19 23.12.2020
4524 Clear 32 1012 30 10000 2.1 360 19:44 23.12.2020
4525 Clear 31 1013 42 10000 2.6 30 19:23 23.12.2020
4526 Clear 31 1013 42 10000 2.6 30 18:54 23.12.2020
4527 Clear 31 1013 42 10000 2.6 30 18:35 23.12.2020
4528 Clear 29 1013 47 10000 4.1 30 17:44 23.12.2020
4529 Clear 29 1014 54 10000 4.6 20 17:24 23.12.2020
4530 Clear 29 1014 54 10000 4.6 20 16:56 23.12.2020
4531 Clear 28 1014 54 10000 4.6 20 16:36 23.12.2020
4532 Clear 28 1014 54 10000 4.6 20 16:36 23.12.2020
4533 Clear 28 1014 50 10000 4.6 360 16:18 23.12.2020
4534 Clear 28 1014 50 10000 4.6 360 15:39 23.12.2020
4535 Clear 27 1015 50 10000 4.1 350 15:21 23.12.2020
4536 Clear 27 1015 50 10000 4.1 350 14:46 23.12.2020
4537 Clear 26 1015 50 10000 6.7 330 14:23 23.12.2020
4538 Clear 26 1015 50 10000 6.7 330 13:46 23.12.2020
4539 Clear 25 1015 47 10000 6.7 330 13:20 23.12.2020
4540 Clear 25 1015 47 10000 6.7 330 12:58 23.12.2020
4541 Clear 25 1015 47 10000 6.7 330 12:37 23.12.2020
4542 Clear 24 1014 53 10000 5.7 330 12:18 23.12.2020
4543 Clear 24 1014 53 10000 5.7 330 11:43 23.12.2020
4544 Clear 23 1014 56 10000 6.2 340 10:57 23.12.2020
4545 Clear 24 1014 56 10000 6.2 340 10:39 23.12.2020
4546 Clear 23 1013 53 10000 6.7 340 09:39 23.12.2020
4547 Clear 23 1013 57 10000 5.7 350 08:58 23.12.2020
4548 Clear 23 1013 57 10000 5.7 350 08:33 23.12.2020
4549 Clear 23 1013 53 10000 3.6 50 07:49 23.12.2020
4550 Clear 24 1013 57 10000 3.6 40 06:53 23.12.2020
4551 Clear 24 1013 57 10000 3.6 40 06:34 23.12.2020
4552 Clear 25 1013 61 10000 4.1 40 05:24 23.12.2020
4553 Clear 25 1013 61 10000 2.1 80 01:59 23.12.2020
4554 Clear 27 1012 57 10000 2.6 50 00:33 23.12.2020
4555 Clear 28 1012 47 10000 3.6 50 23:43 22.12.2020
4556 Clear 28 1012 47 10000 4.1 60 23:22 22.12.2020
4557 Clear 29 1012 47 10000 4.1 60 22:42 22.12.2020
4558 Clear 30 1013 45 10000 4.1 60 22:24 22.12.2020
4559 Clear 29 1013 45 10000 4.1 60 21:52 22.12.2020
4560 Clear 29 1013 51 10000 4.6 50 21:21 22.12.2020
4561 Clear 29 1013 51 10000 4.6 50 20:54 22.12.2020
4562 Clear 30 1013 51 10000 4.6 50 20:35 22.12.2020
4563 Clear 30 1014 48 10000 4.1 40 19:54 22.12.2020
4564 Rain 30 1014 48 10000 4.1 40 19:29 22.12.2020
4565 Clear 30 1014 45 10000 4.1 20 18:59 22.12.2020
4566 Clear 30 1014 45 10000 4.1 20 18:38 22.12.2020
4567 Clear 29 1015 51 10000 4.1 360 18:20 22.12.2020
4568 Clear 29 1015 51 10000 4.1 360 17:38 22.12.2020
4569 Clear 29 1016 47 10000 4.1 360 17:18 22.12.2020
4570 Clear 28 1016 47 10000 4.1 360 16:47 22.12.2020
4571 Clear 27 1016 44 10000 4.6 350 16:21 22.12.2020
4572 Clear 28 1016 44 10000 4.6 350 15:45 22.12.2020
4573 Clear 26 1016 44 10000 4.6 350 15:27 22.12.2020
4574 Clear 27 1016 47 10000 4.6 350 14:56 22.12.2020
4575 Clear 27 1016 47 10000 4.6 350 14:37 22.12.2020
4576 Clear 24 1017 53 10000 4.6 350 14:18 22.12.2020
4577 Clear 25 1017 53 10000 4.6 350 13:42 22.12.2020
4578 Clear 23 1017 60 10000 4.6 330 13:18 22.12.2020
4579 Clear 22 1017 60 10000 4.6 330 12:42 22.12.2020
4580 Clear 21 1017 63 10000 3.1 330 12:22 22.12.2020
4581 Clear 21 1017 63 10000 3.1 330 11:55 22.12.2020
4582 Clear 21 1017 63 10000 3.1 330 11:37 22.12.2020
4583 Clear 20 1016 63 10000 4.1 320 11:18 22.12.2020
4584 Rain 20 1016 63 10000 4.1 320 10:45 22.12.2020
4585 Clear 19 1016 59 10000 4.6 330 10:23 22.12.2020
4586 Clear 19 1016 59 10000 4.6 330 09:49 22.12.2020
4587 Clear 20 1016 56 10000 5.7 340 09:21 22.12.2020
4588 Rain 20 1016 56 10000 5.7 340 08:45 22.12.2020
4589 Clear 20 1016 56 10000 5.7 340 08:25 22.12.2020
4590 Clear 20 1016 52 10000 5.7 340 07:47 22.12.2020
4591 Clear 21 1016 56 10000 3.6 360 06:37 22.12.2020
4592 Clear 21 1016 56 10000 4.1 20 05:39 22.12.2020
4593 Clear 21 1016 64 10000 3.1 60 02:36 22.12.2020
4594 Clear 22 1016 60 10000 3.6 80 00:43 22.12.2020
4595 Clouds 22 1015 56 10000 4.6 80 23:51 21.12.2020
4596 Clouds 23 1016 49 10000 4.6 80 23:23 21.12.2020
4597 Clouds 24 1016 49 10000 4.6 80 22:37 21.12.2020
4598 Clouds 24 1016 53 10000 3.6 60 22:19 21.12.2020
4599 Clouds 24 1016 53 10000 3.6 60 21:48 21.12.2020
4600 Clouds 24 1016 53 10000 3.6 60 21:30 21.12.2020
4601 Clouds 25 1016 53 10000 3.6 40 20:46 21.12.2020
4602 Clear 26 1016 60 10000 3.6 40 20:23 21.12.2020
4603 Clear 26 1016 60 10000 3.6 40 19:55 21.12.2020
4604 Clear 27 1016 60 10000 3.6 40 19:36 21.12.2020
4605 Clear 26 1017 53 10000 4.1 60 19:18 21.12.2020
4606 Clear 26 1017 53 10000 4.1 60 18:45 21.12.2020
4607 Clear 25 1017 56 10000 4.6 40 18:27 21.12.2020
4608 Clear 26 1017 56 10000 4.6 40 17:43 21.12.2020
4609 Clear 26 1017 52 10000 3.6 50 17:23 21.12.2020
4610 Clear 25 1017 52 10000 3.6 50 16:45 21.12.2020
4611 Clear 24 1018 52 10000 4.1 80 16:21 21.12.2020
4612 Clear 23 1018 52 10000 4.1 80 15:43 21.12.2020
4613 Clear 23 1018 33 10000 2.1 190 14:58 21.12.2020
4614 Clear 22 1018 33 10000 2.1 190 14:36 21.12.2020
4615 Clear 21 1018 28 10000 1 220 14:18 21.12.2020
4616 Clear 20 1018 28 10000 1 220 13:41 21.12.2020
4617 Clear 19 1018 88 10000 1 220 13:22 21.12.2020
4618 Clear 18 1018 88 10000 1 220 12:42 21.12.2020
4619 Clear 17 1017 48 10000 1 190 12:22 21.12.2020
4620 Clear 16 1017 48 10000 1 190 11:43 21.12.2020
4621 Clear 15 1016 54 10000 1 220 11:23 21.12.2020
4622 Clear 14 1016 54 10000 1 220 10:58 21.12.2020
4623 Clear 15 1016 54 10000 1 220 10:39 21.12.2020
4624 Clear 14 1015 54 10000 2.79 208 09:58 21.12.2020
4625 Clear 14 1015 54 10000 2.79 208 09:40 21.12.2020
4626 Clear 14 1015 54 10000 2.79 208 09:40 21.12.2020
4627 Clear 14 1016 51 10000 1.5 200 09:22 21.12.2020
4628 Clear 15 1016 51 10000 1.5 200 08:29 21.12.2020
4629 Clear 15 1015 48 10000 1 240 07:27 21.12.2020
4630 Clear 17 1015 45 10000 1.5 200 05:39 21.12.2020
4631 Clear 17 1015 42 10000 2.6 200 04:30 21.12.2020
4632 Clear 21 1013 32 10000 4.1 220 00:37 21.12.2020
4633 Clear 21 1012 33 10000 3.6 0 23:50 20.12.2020
4634 Clear 22 1012 31 10000 3.6 210 23:21 20.12.2020
4635 Clear 23 1012 31 10000 3.6 210 22:45 20.12.2020
4636 Clouds 23 1012 33 10000 3.6 230 22:23 20.12.2020
4637 Clouds 23 1012 33 10000 3.6 230 21:42 20.12.2020
4638 Clouds 24 1012 31 10000 4.6 230 21:24 20.12.2020
4639 Clouds 24 1012 31 10000 4.6 230 20:59 20.12.2020
4640 Rain 24 1012 31 10000 4.6 230 20:40 20.12.2020
4641 Clouds 23 1012 35 10000 4.1 230 20:21 20.12.2020
4642 Rain 23 1012 35 10000 4.1 230 19:42 20.12.2020
4643 Clouds 23 1012 35 10000 3.1 230 19:20 20.12.2020
4644 Clouds 23 1012 35 10000 3.1 230 18:47 20.12.2020
4645 Clouds 23 1012 37 10000 5.7 230 18:29 20.12.2020
4646 Clouds 22 1012 37 10000 5.7 230 17:47 20.12.2020
4647 Clouds 22 1012 37 10000 5.7 230 17:28 20.12.2020
4648 Clouds 22 1012 37 10000 5.7 230 17:28 20.12.2020
4649 Clouds 21 1011 42 10000 4.1 200 16:47 20.12.2020
4650 Clouds 20 1011 42 10000 4.1 230 16:28 20.12.2020
4651 Clouds 20 1011 42 10000 4.1 230 15:51 20.12.2020
4652 Clouds 19 1010 48 10000 5.1 230 15:27 20.12.2020
4653 Clouds 19 1010 48 10000 5.1 230 14:56 20.12.2020
4654 Clouds 19 1010 48 10000 5.1 230 14:35 20.12.2020
4655 Clear 18 1011 51 10000 5.1 230 13:49 20.12.2020
4656 Clear 17 1011 51 10000 5.1 230 13:30 20.12.2020
4657 Clear 16 1010 62 10000 5.1 250 12:59 20.12.2020
4658 Clear 16 1010 62 10000 5.1 250 12:40 20.12.2020
4659 Clear 15 1010 62 10000 4.6 230 12:21 20.12.2020
4660 Clear 15 1010 62 10000 4.6 230 11:45 20.12.2020
4661 Clear 15 1009 67 10000 3.6 230 11:26 20.12.2020
4662 Clear 14 1009 67 10000 3.6 230 10:48 20.12.2020
4663 Clear 14 1009 62 10000 4.1 230 10:21 20.12.2020
4664 Clear 14 1009 62 10000 4.1 230 09:46 20.12.2020
4665 Clear 14 1009 62 10000 4.1 230 09:27 20.12.2020
4666 Clear 14 1008 62 10000 4.1 230 08:59 20.12.2020
4667 Clear 14 1008 62 10000 4.1 230 08:40 20.12.2020
4668 Clear 15 1008 62 10000 3.6 230 07:29 20.12.2020
4669 Clear 16 1007 55 10000 5.1 230 06:18 20.12.2020
4670 Clouds 19 1003 45 10000 4.6 230 02:24 20.12.2020
4671 Clouds 20 1002 49 10000 6.2 230 00:41 20.12.2020
4672 Clouds 21 1001 52 10000 6.2 250 23:29 19.12.2020
4673 Clouds 21 999 49 10000 10.8 250 22:59 19.12.2020
4674 Clouds 21 999 49 10000 10.8 250 22:40 19.12.2020
4675 Clouds 22 999 49 10000 10.8 270 22:20 19.12.2020
4676 Clouds 22 999 49 10000 10.8 270 21:43 19.12.2020
4677 Clouds 23 999 49 10000 10.8 270 21:25 19.12.2020
4678 Clouds 24 998 36 10000 10.8 260 20:48 19.12.2020
4679 Clear 25 998 39 10000 9.3 270 20:23 19.12.2020
4680 Clear 26 998 39 10000 9.3 270 19:56 19.12.2020
4681 Clear 26 998 39 10000 9.3 270 19:38 19.12.2020
4682 Clear 27 998 39 10000 8.7 270 19:19 19.12.2020
4683 Clear 28 998 39 10000 8.7 270 18:32 19.12.2020
4684 Clouds 27 998 41 10000 7.7 260 17:50 19.12.2020
4685 Clouds 27 998 41 10000 7.7 260 17:29 19.12.2020
4686 Clouds 27 998 41 10000 4.6 260 16:56 19.12.2020
4687 Clouds 27 998 41 10000 4.6 260 16:37 19.12.2020
4688 Clouds 27 998 41 10000 4.6 260 16:37 19.12.2020
4689 Clouds 27 998 47 10000 4.6 270 16:19 19.12.2020
4690 Clouds 26 998 47 10000 4.6 270 15:47 19.12.2020
4691 Clouds 23 999 64 10000 6.2 260 14:52 19.12.2020
4692 Clouds 23 998 73 10000 5.1 270 14:26 19.12.2020
4693 Clouds 22 998 73 10000 5.1 270 13:42 19.12.2020
4694 Clouds 23 998 83 10000 5.7 310 13:21 19.12.2020
4695 Clouds 23 998 83 10000 5.7 310 12:55 19.12.2020
4696 Clouds 23 998 83 10000 5.7 310 12:37 19.12.2020
4697 Clouds 23 998 83 10000 4.1 310 12:18 19.12.2020
4698 Clouds 23 998 83 10000 4.1 310 11:41 19.12.2020
4699 Clouds 22 997 78 10000 2.6 270 10:48 19.12.2020
4700 Clouds 22 997 78 10000 2.6 270 10:28 19.12.2020
4701 Clouds 22 998 83 10000 2.1 280 09:59 19.12.2020
4702 Clouds 22 998 83 10000 2.1 280 09:59 19.12.2020
4703 Rain 22 998 83 10000 2.1 280 09:39 19.12.2020
4704 Clouds 21 998 83 10000 4.1 0 08:56 19.12.2020
4705 Rain 21 998 88 8000 8.2 90 07:56 19.12.2020
4706 Rain 21 1002 73 9000 5.1 250 07:19 19.12.2020
4707 Rain 21 1002 73 9000 5.1 250 06:39 19.12.2020
4708 Rain 27 1000 74 10000 2.1 320 05:20 19.12.2020
4709 Clear 27 1000 69 10000 3.6 60 03:29 19.12.2020
4710 Clear 28 1000 69 10000 5.1 110 00:41 19.12.2020
4711 Clear 28 1000 69 10000 5.1 110 00:41 19.12.2020
4712 Clear 28 1000 61 10000 5.1 110 00:19 19.12.2020
4713 Clear 29 1000 61 10000 5.1 110 23:48 18.12.2020
4714 Clear 29 1000 61 10000 5.1 110 23:24 18.12.2020
4715 Clear 32 1001 33 10000 2.6 50 22:48 18.12.2020
4716 Clouds 32 1002 40 10000 1.5 360 22:24 18.12.2020
4717 Clouds 32 1002 40 10000 1.5 360 21:51 18.12.2020
4718 Clear 32 1003 51 10000 2.1 30 21:31 18.12.2020
4719 Clear 32 1003 51 10000 2.1 30 20:43 18.12.2020
4720 Clear 32 1004 45 10000 1.5 40 20:22 18.12.2020
4721 Clear 32 1004 45 10000 1.5 40 19:46 18.12.2020
4722 Clear 32 1005 42 10000 2.1 20 19:22 18.12.2020
4723 Clear 32 1005 42 10000 2.1 20 18:45 18.12.2020
4724 Rain 32 1006 58 10000 2.6 10 18:24 18.12.2020
4725 Clear 32 1008 58 10000 3.1 10 17:30 18.12.2020
4726 Clear 31 1008 58 10000 3.1 10 16:57 18.12.2020
4727 Clear 31 1008 58 10000 3.1 10 16:38 18.12.2020
4728 Clear 31 1008 58 10000 3.1 10 16:38 18.12.2020
4729 Clear 31 1008 58 10000 3.1 340 16:19 18.12.2020
4730 Clear 30 1008 58 10000 3.1 340 15:42 18.12.2020
4731 Clear 29 1009 69 10000 3.1 350 15:24 18.12.2020
4732 Clear 29 1009 69 10000 3.1 350 14:55 18.12.2020
4733 Clear 27 1009 69 10000 4.1 360 14:22 18.12.2020
4734 Clear 27 1009 69 10000 4.1 360 13:51 18.12.2020
4735 Clear 27 1009 69 10000 4.1 360 13:31 18.12.2020
4736 Clear 26 1009 73 10000 3.1 360 12:50 18.12.2020
4737 Clear 24 1009 78 10000 3.1 120 12:22 18.12.2020
4738 Clear 24 1009 78 10000 3.1 120 11:23 18.12.2020
4739 Clear 24 1009 78 10000 3.1 120 10:40 18.12.2020
4740 Clear 23 1010 65 10000 0.45 270 10:20 18.12.2020
4741 Clear 22 1009 75 10000 6.06 1 09:39 18.12.2020
4742 Clear 22 1009 78 10000 6.23 12 09:21 18.12.2020
4743 Clear 22 1009 85 10000 6.23 12 08:54 18.12.2020
4744 Clear 22 1009 87 10000 5.19 10 08:30 18.12.2020
4745 Clear 23 1008 82 10000 5.19 10 07:39 18.12.2020
4746 Clear 23 1008 81 10000 4.45 14 07:18 18.12.2020
4747 Clear 23 1008 79 10000 4.45 14 06:51 18.12.2020
4748 Clear 24 1009 72 10000 3.28 24 05:42 18.12.2020
4749 Clear 24 1010 67 10000 3.2 47 04:51 18.12.2020
4750 Clear 24 1010 67 10000 3.2 47 04:51 18.12.2020
4751 Clear 25 1009 69 10000 3.6 120 01:59 18.12.2020
4752 Clear 25 1009 69 10000 3.6 120 01:40 18.12.2020
4753 Clear 27 1008 65 10000 2.6 70 23:59 17.12.2020
4754 Clear 28 1008 65 10000 2.6 70 23:37 17.12.2020
4755 Clear 30 1009 54 10000 3.1 50 23:18 17.12.2020
4756 Clear 30 1009 54 10000 3.1 50 22:45 17.12.2020
4757 Clear 31 1009 54 10000 3.1 50 22:26 17.12.2020
4758 Rain 30 1009 54 10000 3.1 50 21:43 17.12.2020
4759 Clear 30 1009 54 10000 3.1 50 21:43 17.12.2020
4760 Clear 30 1010 54 10000 4.6 70 21:19 17.12.2020
4761 Clear 30 1010 54 10000 4.6 70 20:42 17.12.2020
4762 Clear 33 1026 38 10000 0.45 13 20:19 17.12.2020
4763 Clear 32 1026 42 10000 0.89 111 19:48 17.12.2020
4764 Clear 30 1011 61 10000 3.6 70 19:24 17.12.2020
4765 Clear 30 1011 61 10000 3.6 70 19:24 17.12.2020
4766 Clear 30 1011 61 10000 3.6 70 18:42 17.12.2020
4767 Clear 30 1011 61 10000 3.6 70 18:42 17.12.2020
4768 Clear 30 1012 69 10000 3.6 70 18:24 17.12.2020
4769 Clear 29 1012 69 10000 3.6 70 17:54 17.12.2020
4770 Clear 29 1012 69 10000 3.6 70 17:33 17.12.2020
4771 Clear 29 1013 73 10000 3.1 50 16:46 17.12.2020
4772 Clear 27 1014 73 10000 3.1 50 16:27 17.12.2020
4773 Clear 27 1014 73 10000 3.1 50 15:56 17.12.2020
4774 Clear 27 1014 73 10000 3.1 50 15:34 17.12.2020
4775 Clouds 26 1014 78 10000 3.1 50 14:55 17.12.2020
4776 Clouds 26 1014 78 10000 3.1 50 14:35 17.12.2020
4777 Clear 24 1015 83 10000 2.6 50 13:58 17.12.2020
4778 Clear 24 1015 83 10000 2.6 50 13:39 17.12.2020
4779 Clear 23 1015 83 10000 3.1 50 12:49 17.12.2020
4780 Clear 22 1015 83 10000 2.6 50 12:27 17.12.2020
4781 Clear 22 1015 83 10000 2.6 50 11:46 17.12.2020
4782 Clear 22 1015 83 10000 2.6 50 11:26 17.12.2020
4783 Clear 21 1014 82 10000 3.1 50 10:56 17.12.2020
4784 Clear 21 1014 82 10000 3.1 50 10:29 17.12.2020
4785 Clear 21 1013 77 10000 3.1 50 09:31 17.12.2020
4786 Clear 21 1014 64 10000 2.6 70 08:20 17.12.2020
4787 Clear 21 1014 64 10000 2.6 70 07:40 17.12.2020
4788 Clear 21 1014 49 10000 3.6 80 07:18 17.12.2020
4789 Clear 21 1014 49 10000 3.6 80 06:42 17.12.2020
4790 Clear 21 1014 49 10000 3.6 80 06:24 17.12.2020
4791 Clear 23 1014 56 10000 6.2 100 00:55 17.12.2020
4792 Clear 24 1013 53 10000 5.7 90 23:57 16.12.2020
4793 Clear 25 1013 47 10000 5.1 100 23:22 16.12.2020
4794 Clear 26 1013 47 10000 5.1 100 22:56 16.12.2020
4795 Clear 27 1013 47 10000 5.1 100 22:35 16.12.2020
4796 Clear 27 1014 38 10000 4.6 100 21:52 16.12.2020
4797 Clear 27 1014 38 10000 4.6 100 21:34 16.12.2020
4798 Clear 27 1014 38 10000 4.1 90 20:56 16.12.2020
4799 Clear 27 1014 38 10000 4.1 90 20:37 16.12.2020
4800 Clear 27 1014 38 10000 4.1 90 20:37 16.12.2020
4801 Clear 27 1015 33 10000 3.6 80 20:18 16.12.2020
4802 Clear 27 1015 27 10000 2.6 80 19:20 16.12.2020
4803 Clear 26 1015 27 10000 2.6 80 18:54 16.12.2020
4804 Clear 25 1016 38 10000 1.5 70 18:29 16.12.2020
4805 Clear 26 1016 38 10000 1.5 70 17:47 16.12.2020
4806 Clear 24 1016 40 10000 2.1 40 17:28 16.12.2020
4807 Clear 24 1016 40 10000 2.1 40 16:39 16.12.2020
4808 Clear 24 1016 49 10000 2.6 50 16:21 16.12.2020
4809 Clear 23 1016 49 10000 2.6 50 15:50 16.12.2020
4810 Clear 22 1016 49 10000 3.6 70 15:26 16.12.2020
4811 Clear 22 1016 49 10000 3.6 70 14:47 16.12.2020
4812 Clear 22 1016 49 10000 3.6 70 14:28 16.12.2020
4813 Clear 21 1015 52 10000 5.1 110 13:46 16.12.2020
4814 Clear 20 1015 52 10000 5.1 110 13:27 16.12.2020
4815 Clear 20 1016 52 10000 4.1 90 12:55 16.12.2020
4816 Clear 20 1015 48 10000 4.6 80 12:34 16.12.2020
4817 Clear 19 1015 48 10000 4.6 80 11:39 16.12.2020
4818 Clear 18 1015 59 10000 4.6 90 11:20 16.12.2020
4819 Clear 17 1015 59 10000 4.6 90 10:43 16.12.2020
4820 Clear 18 1016 48 10000 4.6 80 10:19 16.12.2020
4821 Clear 17 1016 48 10000 4.6 80 09:39 16.12.2020
4822 Clear 18 1015 63 10000 5.7 80 08:24 16.12.2020
4823 Clear 18 1015 63 10000 5.7 80 07:48 16.12.2020
4824 Clear 18 1015 63 10000 5.7 80 07:48 16.12.2020
4825 Clear 18 1015 63 10000 5.7 80 07:30 16.12.2020
4826 Clouds 18 1016 59 10000 7.2 90 05:48 16.12.2020
4827 Clear 18 1014 52 10000 9.3 110 02:22 16.12.2020
4828 Clear 19 1013 55 10000 9.8 120 23:59 15.12.2020
4829 Clear 19 1013 55 10000 9.8 120 23:40 15.12.2020
4830 Clear 21 1012 56 10000 9.8 110 22:44 15.12.2020
4831 Clear 21 1012 56 10000 9.3 110 22:23 15.12.2020
4832 Clear 21 1012 56 10000 9.3 110 21:49 15.12.2020
4833 Clouds 21 1012 60 10000 9.8 110 21:24 15.12.2020
4834 Clouds 21 1012 60 10000 9.8 110 20:46 15.12.2020
4835 Clouds 21 1012 60 10000 9.8 110 20:46 15.12.2020
4836 Clouds 21 1012 60 10000 9.3 110 20:27 15.12.2020
4837 Clouds 22 1012 60 10000 9.3 110 19:55 15.12.2020
4838 Clouds 22 1012 60 10000 9.3 110 19:35 15.12.2020
4839 Clouds 22 1012 56 10000 7.7 130 18:57 15.12.2020
4840 Clouds 22 1012 56 10000 7.7 130 18:38 15.12.2020
4841 Clouds 22 1012 60 10000 7.2 130 18:20 15.12.2020
4842 Clouds 21 1012 60 10000 7.2 130 17:41 15.12.2020
4843 Clouds 21 1011 68 10000 7.2 140 17:21 15.12.2020
4844 Clouds 21 1011 68 10000 7.2 140 16:34 15.12.2020
4845 Clouds 21 1011 72 10000 5.1 140 15:59 15.12.2020
4846 Rain 20 1011 72 10000 5.1 140 15:34 15.12.2020
4847 Rain 20 1011 60 10000 2.6 170 14:53 15.12.2020
4848 Rain 20 1009 60 10000 3.1 150 14:27 15.12.2020
4849 Clear 20 1009 60 10000 3.1 150 13:59 15.12.2020
4850 Clear 20 1009 60 10000 3.1 150 13:40 15.12.2020
4851 Rain 21 1009 60 10000 2.6 220 13:22 15.12.2020
4852 Clear 20 1009 60 10000 2.6 220 12:43 15.12.2020
4853 Clear 20 1008 64 10000 2.1 320 12:18 15.12.2020
4854 Clear 20 1008 64 10000 2.1 320 11:43 15.12.2020
4855 Clear 20 1008 68 10000 3.1 320 11:20 15.12.2020
4856 Clear 20 1008 68 10000 3.1 320 10:41 15.12.2020
4857 Clear 20 1007 68 10000 3.1 320 09:53 15.12.2020
4858 Clear 20 1007 68 10000 3.1 320 09:32 15.12.2020
4859 Clear 20 1007 68 10000 3.1 320 09:32 15.12.2020
4860 Clear 20 1007 64 10000 4.1 310 08:58 15.12.2020
4861 Clear 20 1007 64 10000 4.1 310 08:30 15.12.2020
4862 Clear 20 1007 64 10000 4.1 310 08:30 15.12.2020
4863 Clear 21 1007 60 10000 4.6 310 07:54 15.12.2020
4864 Rain 21 1007 60 10000 4.6 310 07:33 15.12.2020
4865 Clear 21 1007 56 10000 4.6 320 06:37 15.12.2020
4866 Clear 22 1005 60 10000 6.2 340 04:22 15.12.2020
4867 Clear 25 1005 50 10000 3.1 340 00:37 15.12.2020
4868 Clear 27 1004 39 10000 5.7 340 23:28 14.12.2020
4869 Clear 27 1005 30 10000 6.2 330 22:59 14.12.2020
4870 Clear 28 1005 30 10000 6.2 330 22:37 14.12.2020
4871 Clear 27 1005 34 10000 6.2 340 21:54 14.12.2020
4872 Clear 28 1005 34 10000 6.2 340 21:35 14.12.2020
4873 Clear 27 1006 34 10000 7.7 340 20:52 14.12.2020
4874 Clear 28 1006 34 10000 7.7 340 20:30 14.12.2020
4875 Clear 27 1007 41 10000 5.7 340 19:55 14.12.2020
4876 Clear 27 1007 41 10000 5.7 340 19:30 14.12.2020
4877 Clear 26 1007 36 10000 5.7 340 18:53 14.12.2020
4878 Clear 26 1007 36 10000 5.7 340 18:32 14.12.2020
4879 Clear 25 1008 41 10000 6.2 340 17:52 14.12.2020
4880 Clear 25 1008 41 10000 6.2 340 17:31 14.12.2020
4881 Clear 26 1009 47 10000 6.2 360 16:53 14.12.2020
4882 Clear 25 1011 53 10000 6.2 340 16:29 14.12.2020
4883 Clear 24 1011 53 10000 6.2 340 15:46 14.12.2020
4884 Clear 24 1011 53 10000 6.7 340 15:25 14.12.2020
4885 Clear 23 1011 53 10000 6.7 340 14:44 14.12.2020
4886 Clear 22 1012 60 10000 6.2 340 14:25 14.12.2020
4887 Clear 22 1012 60 10000 6.2 340 13:46 14.12.2020
4888 Clear 21 1013 63 10000 5.1 340 13:22 14.12.2020
4889 Clear 20 1013 63 10000 5.1 340 12:53 14.12.2020
4890 Clear 19 1013 82 10000 5.1 340 12:28 14.12.2020
4891 Clear 19 1013 82 10000 5.1 340 11:35 14.12.2020
4892 Clear 19 1012 77 10000 5.7 360 10:43 14.12.2020
4893 Clear 18 1012 82 10000 5.7 330 10:25 14.12.2020
4894 Clear 18 1012 82 10000 5.7 330 09:44 14.12.2020
4895 Clear 19 1012 68 10000 3.1 360 08:48 14.12.2020
4896 Clear 19 1012 68 10000 3.1 360 08:30 14.12.2020
4897 Clear 19 1013 60 10000 2.6 50 07:45 14.12.2020
4898 Clear 19 1013 59 10000 2.1 70 06:48 14.12.2020
4899 Clear 19 1013 59 10000 2.1 70 06:48 14.12.2020
4900 Clear 19 1014 55 10000 1.5 0 05:36 14.12.2020
4901 Clear 21 1013 35 10000 1.5 0 02:26 14.12.2020
4902 Clear 22 1012 31 10000 3.6 200 00:56 14.12.2020
4903 Clear 23 1012 31 10000 3.6 200 00:33 14.12.2020
4904 Clear 24 1011 27 10000 4.1 200 23:57 13.12.2020
4905 Clear 24 1011 27 10000 4.1 200 23:36 13.12.2020
4906 Clouds 25 1011 31 10000 4.1 220 22:48 13.12.2020
4907 Clouds 25 1011 47 10000 3.1 260 22:20 13.12.2020
4908 Clouds 24 1011 47 10000 3.1 260 21:47 13.12.2020
4909 Clouds 24 1011 47 10000 3.1 260 21:27 13.12.2020
4910 Rain 24 1011 44 10000 3.6 260 20:38 13.12.2020
4911 Clouds 22 1012 53 10000 3.6 260 20:20 13.12.2020
4912 Clouds 23 1012 53 10000 3.6 260 19:42 13.12.2020
4913 Clouds 21 1012 60 10000 3.6 241 19:20 13.12.2020
4914 Clouds 22 1012 60 10000 3.6 241 18:43 13.12.2020
4915 Clouds 21 1012 68 10000 2.6 250 18:20 13.12.2020
4916 Clouds 21 1012 68 10000 2.6 250 17:47 13.12.2020
4917 Clouds 21 1013 68 10000 2.1 274 17:21 13.12.2020
4918 Rain 21 1013 68 10000 2.1 274 16:56 13.12.2020
4919 Rain 21 1013 68 10000 2.1 274 16:56 13.12.2020
4920 Rain 20 1013 68 10000 2.1 274 16:38 13.12.2020
4921 Clouds 20 1011 77 10000 1.5 90 16:18 13.12.2020
4922 Rain 21 1011 77 10000 1.5 90 15:40 13.12.2020
4923 Rain 20 1010 82 10000 4.6 120 15:21 13.12.2020
4924 Clouds 20 1010 82 10000 4.6 120 14:43 13.12.2020
4925 Clouds 18 1010 87 10000 3.6 150 14:21 13.12.2020
4926 Clouds 18 1010 87 10000 3.6 150 13:43 13.12.2020
4927 Rain 16 1010 87 10000 3.6 150 13:24 13.12.2020
4928 Thunderstorm 15 1009 93 8000 4.6 140 12:42 13.12.2020
4929 Rain 15 1008 93 5000 6.2 150 12:22 13.12.2020
4930 Thunderstorm 15 1008 93 5000 6.2 150 11:36 13.12.2020
4931 Rain 16 1009 87 2000 6.2 160 10:52 13.12.2020
4932 Rain 16 1009 87 2000 6.2 160 10:34 13.12.2020
4933 Rain 17 1007 67 9000 10.3 170 09:54 13.12.2020
4934 Rain 19 1006 73 9000 5.1 200 08:58 13.12.2020
4935 Rain 19 1006 73 9000 5.1 200 08:33 13.12.2020
4936 Clouds 24 1005 64 10000 2.6 260 07:35 13.12.2020
4937 Clouds 24 1005 64 10000 3.6 320 04:23 13.12.2020
4938 Clear 26 1005 61 10000 3.6 330 02:40 13.12.2020
4939 Clear 27 1003 69 10000 2.6 80 01:37 13.12.2020
4940 Clear 27 1003 69 10000 2.6 80 01:37 13.12.2020
4941 Clear 27 1003 69 10000 2.6 80 01:37 13.12.2020
4942 Clear 27 1003 69 10000 2.6 80 01:37 13.12.2020
4943 Clear 27 1003 69 10000 2.6 80 00:48 13.12.2020
4944 Clear 27 1002 61 10000 5.7 110 23:51 12.12.2020
4945 Clear 28 1002 61 10000 5.7 110 23:31 12.12.2020
4946 Clear 28 1002 54 10000 4.1 80 22:46 12.12.2020
4947 Clear 29 1003 45 10000 2.1 60 21:56 12.12.2020
4948 Clear 29 1003 45 10000 2.1 60 21:32 12.12.2020
4949 Clear 30 1005 48 10000 2.6 20 20:48 12.12.2020
4950 Clear 29 1005 48 10000 2.6 20 20:24 12.12.2020
4951 Clear 29 1006 39 10000 2.6 40 19:55 12.12.2020
4952 Clear 29 1006 39 10000 2.6 40 19:35 12.12.2020
4953 Clear 29 1007 34 10000 2.1 350 18:59 12.12.2020
4954 Clear 29 1007 34 10000 2.1 350 18:41 12.12.2020
4955 Clear 29 1007 34 10000 2.1 10 18:22 12.12.2020
4956 Clear 29 1007 34 10000 2.1 10 17:42 12.12.2020
4957 Clear 28 1009 39 10000 4.1 360 16:54 12.12.2020
4958 Clear 27 1009 44 10000 5.1 10 15:59 12.12.2020
4959 Clear 26 1009 44 10000 5.1 10 15:40 12.12.2020
4960 Clear 25 1009 49 10000 7.2 10 14:54 12.12.2020
4961 Clear 24 1009 60 10000 5.1 60 14:35 12.12.2020
4962 Clear 24 1009 60 10000 5.1 60 13:47 12.12.2020
4963 Clear 25 1009 60 10000 5.1 60 13:26 12.12.2020
4964 Clear 25 1009 36 10000 2.6 100 12:43 12.12.2020
4965 Clear 23 1009 37 10000 3.55 5 11:39 12.12.2020
4966 Clear 21 1009 48 10000 2.82 6 10:51 12.12.2020
4967 Clear 20 1008 42 10000 1.06 22 09:25 12.12.2020
4968 Clear 20 1008 42 10000 1.06 22 08:41 12.12.2020
4969 Clear 24 1008 25 10000 1 230 01:59 12.12.2020
4970 Clear 27 1007 19 10000 2.1 240 23:31 11.12.2020
4971 Clear 28 1007 18 10000 3.6 240 21:32 11.12.2020
4972 Clear 28 1007 22 10000 4.6 270 19:46 11.12.2020
4973 Clear 24 1008 33 10000 4.6 230 17:30 11.12.2020
4974 Rain 18 1007 72 4000 4.6 210 14:39 11.12.2020
4975 Rain 19 1009 56 5000 4.6 220 13:46 11.12.2020
4976 Rain 22 1007 56 10000 5.7 210 12:29 11.12.2020
4977 Clear 23 1006 60 10000 4.1 220 11:55 11.12.2020
4978 Rain 23 1006 60 10000 4.1 220 11:37 11.12.2020
4979 Rain 24 1005 61 10000 4.6 220 10:41 11.12.2020
4980 Clear 27 1002 47 10000 4.1 320 07:51 11.12.2020
4981 Clear 28 1001 65 10000 4.6 350 05:36 11.12.2020
4982 Clear 29 1001 58 10000 6.2 360 04:47 11.12.2020
4983 Rain 31 1000 51 10000 5.1 340 00:59 11.12.2020
4984 Clear 32 1000 55 10000 4.6 350 23:31 10.12.2020
4985 Clear 31 1002 62 10000 2.6 20 21:55 10.12.2020
4986 Clear 31 1004 58 10000 3.1 70 21:28 10.12.2020
4987 Clear 31 1004 58 10000 3.1 70 20:36 10.12.2020
4988 Clear 32 1005 58 10000 3.6 70 19:31 10.12.2020
4989 Clear 32 1007 55 10000 2.6 50 18:49 10.12.2020
4990 Clear 32 1009 54 10000 3.1 20 17:35 10.12.2020
4991 Clouds 30 1010 65 10000 3.6 50 15:59 10.12.2020
4992 Clouds 29 1011 54 10000 3.6 20 15:24 10.12.2020
4993 Clouds 28 1011 54 10000 3.6 20 14:46 10.12.2020
4994 Clear 28 1011 57 10000 3.1 340 13:51 10.12.2020
4995 Clear 25 1011 57 10000 5.7 340 12:23 10.12.2020
4996 Clear 25 1010 60 10000 5.1 340 10:57 10.12.2020
4997 Clear 24 1010 69 10000 4.1 340 08:42 10.12.2020
4998 Clear 25 1010 69 10000 2.1 10 07:31 10.12.2020
4999 Clear 25 1011 78 10000 1 0 06:20 10.12.2020
5000 Clear 27 1012 61 10000 1 50 02:44 10.12.2020
5001 Clear 28 1011 51 10000 4.37 11 01:33 10.12.2020
5002 Clear 30 1011 37 10000 1.5 30 23:44 09.12.2020
5003 Clear 31 1013 54 10000 2.6 50 20:39 09.12.2020
5004 Clear 31 1014 61 10000 3.6 50 19:46 09.12.2020
5005 Clear 30 1015 61 10000 3.6 50 18:39 09.12.2020
5006 Clear 30 1015 58 10000 3.1 40 17:29 09.12.2020
5007 Clear 29 1016 61 10000 3.6 10 16:40 09.12.2020
5008 Clear 29 1016 65 10000 3.6 10 16:20 09.12.2020
5009 Clear 27 1016 65 10000 4.1 360 14:51 09.12.2020
5010 Clear 26 1016 65 10000 4.1 360 14:26 09.12.2020
5011 Clear 25 1017 69 10000 3.6 340 13:36 09.12.2020
5012 Clear 24 1017 73 10000 4.1 340 13:18 09.12.2020
5013 Clear 22 1015 73 10000 5.7 350 12:24 09.12.2020
5014 Clear 22 1015 73 10000 5.7 350 11:34 09.12.2020
5015 Clear 21 1014 78 10000 2.1 40 09:51 09.12.2020
5016 Clear 21 1014 73 10000 2.1 70 08:35 09.12.2020
5017 Clear 22 1014 78 10000 5.1 100 06:38 09.12.2020
5018 Clear 21 1016 77 10000 4.1 110 05:27 09.12.2020
5019 Clear 22 1016 83 10000 6.2 110 02:31 09.12.2020
5020 Clear 23 1014 69 10000 6.2 100 00:24 09.12.2020
5021 Clear 23 1014 72 10000 4.1 110 23:28 08.12.2020
5022 Clear 26 1014 50 10000 5.7 110 21:54 08.12.2020
5023 Clouds 27 1015 57 10000 5.7 110 20:23 08.12.2020
5024 Clouds 27 1016 57 10000 4.1 110 19:25 08.12.2020
5025 Clouds 27 1016 57 10000 4.1 110 18:31 08.12.2020
5026 Clouds 25 1017 64 10000 3.6 50 16:27 08.12.2020
5027 Clear 23 1018 68 10000 4.1 20 14:35 08.12.2020
5028 Clear 22 1018 73 10000 3.6 360 13:40 08.12.2020
5029 Clouds 22 1018 73 10000 3.6 360 12:35 08.12.2020
5030 Clouds 21 1017 77 10000 3.6 360 11:52 08.12.2020
5031 Clouds 20 1017 82 10000 5.7 360 10:50 08.12.2020
5032 Clouds 19 1017 82 10000 5.7 360 10:31 08.12.2020
5033 Clear 20 1016 77 10000 4.6 30 08:57 08.12.2020
5034 Clear 20 1016 72 10000 5.1 40 07:25 08.12.2020
5035 Clear 21 1016 77 10000 8.7 110 03:43 08.12.2020
5036 Clear 21 1016 68 10000 8.2 120 00:48 08.12.2020
5037 Clear 21 1016 68 10000 8.2 120 00:25 08.12.2020
5038 Clear 24 1016 56 10000 7.2 110 22:43 07.12.2020
5039 Clouds 24 1016 50 10000 7.2 110 21:56 07.12.2020
5040 Clouds 25 1016 33 10000 6.2 110 20:31 07.12.2020
5041 Clouds 25 1018 53 10000 5.1 110 18:43 07.12.2020
5042 Clouds 24 1019 56 10000 3.1 40 17:28 07.12.2020
5043 Clouds 24 1019 56 10000 3.1 40 16:55 07.12.2020
5044 Clear 23 1020 64 10000 3.6 10 15:36 07.12.2020
5045 Clear 22 1020 64 10000 3.6 10 14:51 07.12.2020
5046 Clear 22 1020 68 10000 3.6 10 14:18 07.12.2020
5047 Clear 21 1020 64 10000 3.1 10 13:21 07.12.2020
5048 Clear 20 1020 68 10000 4.1 360 11:44 07.12.2020
5049 Clear 19 1019 72 10000 4.1 10 11:19 07.12.2020
5050 Clear 18 1019 68 10000 4.6 10 09:56 07.12.2020
5051 Clear 19 1019 68 10000 5.7 10 08:26 07.12.2020
5052 Clear 19 1019 68 10000 4.6 80 06:36 07.12.2020
5053 Clear 19 1020 64 10000 6.7 110 04:48 07.12.2020
5054 Clear 19 1020 63 10000 6.7 110 01:55 07.12.2020
5055 Clear 20 1019 60 10000 6.7 100 00:27 07.12.2020
5056 Clear 22 1020 43 10000 6.2 100 22:25 06.12.2020
5057 Clear 23 1020 43 10000 5.7 80 20:56 06.12.2020
5058 Clear 23 1020 43 10000 5.7 80 20:34 06.12.2020
5059 Clear 23 1021 43 10000 4.6 100 19:54 06.12.2020
5060 Clouds 23 1022 46 10000 3.6 60 18:21 06.12.2020
5061 Clouds 21 1022 56 10000 2.6 40 16:47 06.12.2020
5062 Clouds 20 1023 68 10000 2.1 360 14:58 06.12.2020
5063 Clouds 19 1024 72 10000 3.6 350 13:45 06.12.2020
5064 Clouds 18 1023 67 10000 3.1 20 12:51 06.12.2020
5065 Clouds 17 1023 67 10000 4.1 30 11:58 06.12.2020
5066 Clouds 17 1023 67 10000 4.1 30 11:34 06.12.2020
5067 Clear 16 1023 72 10000 5.1 30 10:45 06.12.2020
5068 Clear 15 1023 72 10000 4.6 50 09:49 06.12.2020
5069 Clouds 15 1023 77 10000 5.1 70 08:29 06.12.2020
5070 Clouds 16 1024 63 10000 5.7 120 05:51 06.12.2020
5071 Clear 17 1024 63 10000 6.7 110 00:57 06.12.2020
5072 Clear 17 1024 63 10000 6.7 110 00:38 06.12.2020
5073 Clear 18 1024 59 10000 6.2 110 00:20 06.12.2020
5074 Clear 19 1024 55 10000 5.1 110 22:41 05.12.2020
5075 Clouds 19 1024 48 10000 4.6 70 22:19 05.12.2020
5076 Clouds 20 1024 48 10000 4.6 70 21:47 05.12.2020
5077 Clouds 20 1024 48 10000 4.1 70 21:22 05.12.2020
5078 Clouds 20 1025 48 10000 4.1 70 19:21 05.12.2020
5079 Clouds 20 1025 52 10000 3.1 50 18:38 05.12.2020
5080 Clouds 20 1027 52 10000 4.1 70 16:51 05.12.2020
5081 Clouds 19 1027 52 10000 4.1 70 16:29 05.12.2020
5082 Clouds 19 1027 48 10000 4.1 50 15:36 05.12.2020
5083 Clouds 17 1027 45 10000 4.1 110 14:24 05.12.2020
5084 Clear 15 1027 47 10000 4.6 140 11:51 05.12.2020
5085 Clear 13 1026 62 10000 2.6 160 10:48 05.12.2020
5086 Clear 13 1026 62 10000 2.6 160 10:22 05.12.2020
5087 Clear 14 1025 62 10000 3.6 150 07:48 05.12.2020
5088 Clouds 15 1025 67 10000 3.6 140 06:20 05.12.2020
5089 Clouds 17 1024 55 10000 6.2 130 02:45 05.12.2020
5090 Rain 19 1022 32 10000 4.6 140 23:47 04.12.2020
5091 Clouds 21 1021 32 10000 3.6 170 21:53 04.12.2020
5092 Clouds 21 1022 35 10000 4.6 190 19:42 04.12.2020
5093 Clear 20 1021 30 10000 4.6 170 18:40 04.12.2020
5094 Clear 20 1021 30 10000 4.6 170 17:48 04.12.2020
5095 Clouds 22 1022 26 10000 0.89 90 16:52 04.12.2020
5096 Clouds 21 1023 28 10000 0.89 45 15:26 04.12.2020
5097 Clear 19 1021 32 10000 6.2 170 13:38 04.12.2020
5098 Clear 18 1021 51 10000 4.6 170 13:20 04.12.2020
5099 Clear 17 1021 51 10000 4.6 170 12:26 04.12.2020
5100 Clear 15 1019 63 10000 5.1 160 10:37 04.12.2020
5101 Clear 16 1015 59 10000 4.1 160 09:25 04.12.2020
5102 Clear 18 1013 49 10000 2.6 200 06:40 04.12.2020
5103 Clouds 22 1014 49 10000 4.09 216 04:53 04.12.2020
5104 Clear 24 1010 38 10000 2.6 280 01:53 04.12.2020
5105 Clear 26 1007 47 10000 2.1 40 22:51 03.12.2020
5106 Clear 27 1007 44 10000 3.1 50 21:37 03.12.2020
5107 Clear 28 1007 44 10000 3.1 50 20:46 03.12.2020
5108 Clear 28 1008 50 10000 3.6 50 19:24 03.12.2020
5109 Clear 27 1008 50 10000 3.6 50 18:47 03.12.2020
5110 Clear 27 1008 44 10000 2.6 20 17:21 03.12.2020
5111 Clear 25 1008 46 10000 3.1 20 15:59 03.12.2020
5112 Clear 25 1008 46 10000 3.1 20 15:59 03.12.2020
5113 Clear 25 1008 46 10000 3.1 20 15:32 03.12.2020
5114 Clear 23 1008 53 10000 3.6 50 14:49 03.12.2020
5115 Clear 23 1007 38 10000 1 140 13:55 03.12.2020
5116 Clear 21 1007 40 10000 1.5 230 12:46 03.12.2020
5117 Clear 20 1008 52 10000 2.6 180 12:23 03.12.2020
5118 Clouds 18 1007 77 10000 1 230 10:54 03.12.2020
5119 Clouds 18 1007 93 10000 2.6 190 08:41 03.12.2020
5120 Clouds 19 1009 93 8000 2.1 180 03:57 03.12.2020
5121 Rain 19 1009 99 10000 0.39 75 01:54 03.12.2020
5122 Rain 20 1007 94 5000 4.6 340 00:19 03.12.2020
5123 Thunderstorm 20 1007 88 4000 5.7 340 22:46 02.12.2020
5124 Rain 21 1006 94 3000 9.3 20 21:46 02.12.2020
5125 Rain 25 1005 69 10000 3.6 60 20:51 02.12.2020
5126 Rain 25 1005 69 10000 3.6 60 20:32 02.12.2020
5127 Rain 27 1006 69 10000 2.6 70 19:40 02.12.2020
5128 Clouds 28 1007 65 10000 2.6 110 17:50 02.12.2020
5129 Rain 27 1008 73 10000 3.1 110 17:31 02.12.2020
5130 Clouds 26 1008 69 10000 2.6 80 15:46 02.12.2020
5131 Clouds 24 1009 73 10000 3.1 100 13:41 02.12.2020
5132 Clouds 23 1009 69 10000 2.6 50 11:33 02.12.2020
5133 Clouds 22 1009 78 10000 2.6 50 10:25 02.12.2020
5134 Clear 21 1009 68 10000 2.1 330 07:46 02.12.2020
5135 Clear 24 1010 78 10000 3.6 90 23:40 01.12.2020
5136 Clouds 26 1011 64 10000 4.1 70 22:20 01.12.2020
5137 Clouds 28 1013 45 10000 2.1 50 19:43 01.12.2020
5138 Clouds 28 1013 45 10000 2.1 50 18:56 01.12.2020
5139 Clear 25 1015 60 10000 3.1 50 16:48 01.12.2020
5140 Clear 22 1016 68 10000 3.6 20 14:53 01.12.2020
5141 Clear 19 1017 72 10000 3.6 20 12:48 01.12.2020
5142 Clear 18 1017 72 10000 3.1 50 11:40 01.12.2020
5143 Rain 17 1016 72 10000 3.6 70 10:54 01.12.2020
5144 Clear 17 1016 72 10000 3.6 70 10:31 01.12.2020
5145 Clear 17 1017 67 10000 6.7 80 07:47 01.12.2020
5146 Clear 18 1017 68 10000 7.2 110 06:25 01.12.2020
5147 Rain 18 1018 68 10000 7.2 110 01:33 01.12.2020
5148 Clear 19 1017 59 10000 7.7 110 00:38 01.12.2020
5149 Clear 20 1017 49 10000 7.2 120 23:20 30.11.2020
5150 Clear 21 1017 49 10000 7.2 120 22:42 30.11.2020
5151 Clear 21 1018 49 10000 6.7 110 22:22 30.11.2020
5152 Clear 22 1020 49 10000 4.6 90 19:50 30.11.2020
5153 Clear 22 1020 49 10000 4.6 90 19:31 30.11.2020
5154 Clear 22 1021 46 10000 4.6 90 18:21 30.11.2020
5155 Clear 22 1021 46 10000 4.6 90 17:46 30.11.2020
5156 Clear 21 1021 42 10000 5.1 100 16:52 30.11.2020
5157 Clear 19 1021 36 10000 4.1 130 14:48 30.11.2020
5158 Clear 17 1021 44 10000 4.1 140 13:55 30.11.2020
5159 Clear 16 1021 51 10000 3.6 160 12:59 30.11.2020
5160 Clear 15 1021 51 10000 3.6 160 12:25 30.11.2020
5161 Clear 13 1020 62 10000 5.7 150 10:59 30.11.2020
5162 Clear 13 1020 62 10000 4.1 150 10:21 30.11.2020
5163 Clear 13 1019 47 10000 3.6 140 08:52 30.11.2020
5164 Clear 23 1015 47 10000 6.7 150 01:25 30.11.2020
5165 Clear 28 1011 42 10000 4.6 180 23:26 29.11.2020
5166 Clear 30 1010 54 10000 4.1 30 21:44 29.11.2020
5167 Clear 31 1010 61 10000 4.6 20 21:25 29.11.2020
5168 Clear 32 1010 33 10000 3.1 180 18:46 29.11.2020
5169 Clear 31 1010 40 10000 3.1 0 17:31 29.11.2020
5170 Clear 25 1010 69 10000 2.6 240 13:35 29.11.2020
5171 Clear 23 1010 73 10000 2.6 240 12:43 29.11.2020
5172 Clouds 20 1009 88 8000 2.1 250 11:22 29.11.2020
5173 Clear 18 1008 88 10000 2.6 250 08:52 29.11.2020
5174 Clear 19 1008 88 10000 2.6 250 08:34 29.11.2020
5175 Clear 19 1009 82 10000 2.6 290 02:31 29.11.2020
5176 Clouds 22 1008 68 10000 5.7 300 22:58 28.11.2020
5177 Rain 23 1008 69 10000 5.7 360 21:20 28.11.2020
5178 Clouds 23 1007 60 10000 10.3 50 19:54 28.11.2020
5179 Rain 24 1007 60 10000 10.3 50 19:27 28.11.2020
5180 Rain 21 1007 68 8000 15.9 90 18:52 28.11.2020
5181 Rain 19 1013 88 5000 4.1 140 17:52 28.11.2020
5182 Rain 19 1014 100 5000 3.1 200 16:52 28.11.2020
5183 Rain 25 1012 73 10000 3.6 60 14:58 28.11.2020
5184 Clear 24 1013 73 10000 3.6 40 13:30 28.11.2020
5185 Clear 23 1012 78 10000 4.6 40 11:23 28.11.2020
5186 Clear 23 1012 64 10000 5.7 30 08:18 28.11.2020
5187 Clear 25 1013 69 10000 1.5 70 03:34 28.11.2020
5188 Clear 25 1012 69 10000 3.6 130 01:51 28.11.2020
5189 Clear 27 1011 61 10000 5.1 100 23:19 27.11.2020
5190 Clear 28 1012 57 10000 5.7 90 21:51 27.11.2020
5191 Clear 28 1013 57 10000 5.1 100 20:37 27.11.2020
5192 Clear 28 1014 47 10000 4.1 100 19:30 27.11.2020
5193 Clear 27 1015 44 10000 2.6 60 18:51 27.11.2020
5194 Clear 23 1018 49 10000 5.1 30 15:21 27.11.2020
5195 Clear 21 1019 55 10000 6.2 30 13:57 27.11.2020
5196 Clear 20 1019 59 10000 4.6 30 12:48 27.11.2020
5197 Clear 19 1019 52 10000 7.2 40 11:55 27.11.2020
5198 Clear 19 1018 52 10000 6.2 50 10:51 27.11.2020
5199 Clear 18 1017 59 10000 6.2 50 10:25 27.11.2020
5200 Clear 19 1018 59 10000 5 51 07:30 27.11.2020
5201 Clear 19 1018 59 10000 0.45 180 07:30 27.11.2020
5202 Clear 25 1017 12 10000 0.89 0 22:42 26.11.2020
5203 Clear 25 1016 22 10000 1.5 180 22:22 26.11.2020
5204 Clear 25 1016 22 10000 1.5 180 21:25 26.11.2020
5205 Clear 25 1016 23 10000 3.6 180 19:24 26.11.2020
5206 Clear 25 1016 23 10000 3.6 180 18:30 26.11.2020
5207 Clear 22 1017 19 10000 3.6 200 16:20 26.11.2020
5208 Clear 20 1017 20 10000 5.1 180 13:43 26.11.2020
5209 Clear 19 1017 25 10000 5.1 180 12:44 26.11.2020
5210 Clear 19 1016 36 10000 4.1 180 12:23 26.11.2020
5211 Clear 18 1014 42 10000 4.1 180 10:38 26.11.2020
5212 Clear 19 1012 64 10000 3.6 210 09:48 26.11.2020
5213 Clear 20 1012 64 10000 3.6 210 09:29 26.11.2020
5214 Clear 21 1011 68 10000 0.5 280 08:39 26.11.2020
5215 Clear 21 1010 99 10000 2.82 294 06:50 26.11.2020
5216 Clouds 25 1008 83 10000 2.1 340 23:54 25.11.2020
5217 Clouds 26 1008 78 10000 3.1 20 21:26 25.11.2020
5218 Clouds 25 1009 78 10000 3.1 360 19:56 25.11.2020
5219 Clouds 24 1009 49 10000 3.6 20 18:28 25.11.2020
5220 Clouds 24 1010 78 10000 3.6 340 16:44 25.11.2020
5221 Clouds 24 1010 83 10000 2.6 340 15:40 25.11.2020
5222 Rain 22 1010 94 10000 1 200 13:57 25.11.2020
5223 Rain 21 1010 94 10000 1 200 13:38 25.11.2020
5224 Rain 21 1010 88 4000 4.6 360 11:45 25.11.2020
5225 Rain 20 1010 94 5000 1 270 11:18 25.11.2020
5226 Rain 20 1008 94 5000 2.6 170 09:18 25.11.2020
5227 Rain 20 1008 94 5000 2.6 170 08:43 25.11.2020
5228 Thunderstorm 21 1009 88 3000 12.3 90 03:59 25.11.2020
5229 Rain 21 1013 73 5000 5.1 180 01:53 25.11.2020
5230 Rain 22 1009 73 10000 10.3 120 00:23 25.11.2020
5231 Clear 23 1008 69 10000 9.3 120 23:37 24.11.2020
5232 Clear 23 1008 69 10000 9.3 120 23:37 24.11.2020
5233 Rain 24 1007 60 5000 6.7 130 22:58 24.11.2020
5234 Rain 26 1007 48 10000 7.2 150 21:51 24.11.2020
5235 Rain 27 1007 48 10000 7.2 150 21:29 24.11.2020
5236 Clear 29 1007 43 10000 3.1 160 20:19 24.11.2020
5237 Clear 30 1008 51 10000 2.1 90 18:39 24.11.2020
5238 Clear 29 1009 54 10000 3.6 90 17:30 24.11.2020
5239 Clear 28 1010 61 10000 4.1 60 16:38 24.11.2020
5240 Clear 28 1010 61 10000 4.1 60 15:56 24.11.2020
5241 Clear 27 1010 61 10000 4.1 60 15:36 24.11.2020
5242 Clear 27 1010 57 10000 3.6 70 15:18 24.11.2020
5243 Clear 27 1010 57 10000 3.6 70 14:31 24.11.2020
5244 Clear 25 1010 64 10000 3.1 20 12:42 24.11.2020
5245 Clear 25 1009 64 10000 3.6 30 12:21 24.11.2020
5246 Clear 24 1009 64 10000 3.6 30 11:35 24.11.2020
5247 Clear 24 1009 69 10000 3.1 40 10:26 24.11.2020
5248 Clear 24 1009 69 10000 3.1 10 09:42 24.11.2020
5249 Clear 24 1008 69 10000 3.6 20 09:22 24.11.2020
5250 Clear 25 1008 61 10000 4.6 30 06:50 24.11.2020
5251 Clear 26 1010 61 10000 3.1 90 04:18 24.11.2020
5252 Clear 28 1009 57 10000 6.2 130 22:27 23.11.2020
5253 Clear 29 1010 42 10000 5.7 120 21:34 23.11.2020
5254 Clear 31 1011 29 10000 3.6 100 20:49 23.11.2020
5255 Clear 30 1011 45 10000 4.6 100 20:19 23.11.2020
5256 Clear 29 1013 54 10000 3.6 50 17:59 23.11.2020
5257 Clear 28 1014 57 10000 5.1 40 17:21 23.11.2020
5258 Clear 26 1015 53 10000 4.6 20 15:44 23.11.2020
5259 Clear 24 1016 60 10000 4.6 20 14:46 23.11.2020
5260 Clear 21 1016 72 10000 5.1 360 12:42 23.11.2020
5261 Clear 21 1016 72 10000 5.7 360 12:21 23.11.2020
5262 Clear 20 1016 72 10000 5.7 360 11:43 23.11.2020
5263 Rain 20 1016 72 10000 5.1 20 10:45 23.11.2020
5264 Clear 20 1015 68 10000 5.7 20 09:31 23.11.2020
5265 Clear 21 1015 68 10000 5.1 20 08:37 23.11.2020
5266 Clear 22 1014 56 10000 7.2 40 06:57 23.11.2020
5267 Clear 24 1015 64 10000 8.2 110 00:21 23.11.2020
5268 Clear 26 1015 61 10000 6.7 100 22:45 22.11.2020
5269 Clouds 28 1016 47 10000 5.7 100 21:26 22.11.2020
5270 Clouds 27 1016 47 10000 5.7 100 20:43 22.11.2020
5271 Clouds 28 1017 51 10000 3.6 70 19:52 22.11.2020
5272 Clear 28 1018 47 10000 2.6 50 18:40 22.11.2020
5273 Clear 26 1019 60 10000 3.1 20 16:39 22.11.2020
5274 Clear 25 1019 57 10000 3.6 10 15:29 22.11.2020
5275 Clear 23 1019 64 10000 4.1 360 14:27 22.11.2020
5276 Clear 21 1019 68 10000 3.6 10 12:44 22.11.2020
5277 Clear 20 1019 72 10000 4.6 10 11:55 22.11.2020
5278 Clear 19 1018 72 10000 5.1 360 11:20 22.11.2020
5279 Clear 19 1018 72 10000 5.1 360 10:38 22.11.2020
5280 Clear 20 1017 64 10000 5.1 10 08:26 22.11.2020
5281 Clear 22 1016 68 10000 5.7 130 01:47 22.11.2020
5282 Clouds 24 1015 53 10000 6.2 100 22:52 21.11.2020
5283 Clouds 26 1015 44 10000 6.2 100 21:32 21.11.2020
5284 Clouds 26 1015 57 10000 5.1 100 20:54 21.11.2020
5285 Clouds 26 1015 57 10000 5.1 100 20:29 21.11.2020
5286 Clouds 26 1015 50 10000 3.6 70 19:50 21.11.2020
5287 Clouds 26 1016 47 10000 3.1 40 19:20 21.11.2020
5288 Clouds 26 1016 53 10000 3.1 30 17:54 21.11.2020
5289 Clouds 26 1017 57 10000 4.1 360 16:47 21.11.2020
5290 Clear 24 1017 60 10000 4.6 10 15:43 21.11.2020
5291 Clear 23 1017 68 10000 4.6 10 15:21 21.11.2020
5292 Clear 23 1017 68 10000 4.6 10 14:42 21.11.2020
5293 Clear 21 1018 72 10000 5.1 360 12:59 21.11.2020
5294 Clear 20 1018 72 10000 5.1 360 12:23 21.11.2020
5295 Clear 20 1017 72 10000 5.7 10 11:50 21.11.2020
5296 Clear 19 1017 72 10000 5.1 10 10:28 21.11.2020
5297 Clear 19 1017 72 10000 5.1 10 10:28 21.11.2020
5298 Clear 19 1016 72 10000 6.2 10 09:22 21.11.2020
5299 Clear 19 1015 77 10000 5.7 20 08:50 21.11.2020
5300 Clear 20 1016 68 10000 6.7 70 05:42 21.11.2020
5301 Clear 21 1016 68 10000 7.7 90 03:36 21.11.2020
5302 Clear 21 1016 68 10000 8.7 110 00:22 21.11.2020
5303 Clear 22 1016 60 10000 7.7 110 23:19 20.11.2020
5304 Clouds 23 1016 56 10000 7.7 110 21:46 20.11.2020
5305 Clouds 23 1016 56 10000 7.7 110 21:26 20.11.2020
5306 Clouds 24 1016 53 10000 7.2 100 20:41 20.11.2020
5307 Clouds 24 1017 56 10000 7.2 100 19:28 20.11.2020
5308 Clouds 24 1018 60 10000 5.1 100 18:27 20.11.2020
5309 Clouds 24 1018 60 10000 5.1 100 17:31 20.11.2020
5310 Clouds 23 1019 60 10000 3.1 90 16:47 20.11.2020
5311 Clouds 22 1019 68 10000 3.6 50 15:59 20.11.2020
5312 Clouds 22 1019 68 10000 3.6 50 15:39 20.11.2020
5313 Clouds 21 1019 68 10000 4.6 50 13:54 20.11.2020
5314 Clouds 20 1019 72 10000 5.1 50 13:19 20.11.2020
5315 Clouds 19 1019 72 10000 5.1 50 12:41 20.11.2020
5316 Clouds 19 1019 68 10000 4.6 50 11:50 20.11.2020
5317 Clear 19 1019 72 10000 4.6 50 11:21 20.11.2020
5318 Clear 17 1018 72 10000 5.7 60 09:46 20.11.2020
5319 Clouds 17 1018 63 10000 5.1 90 08:28 20.11.2020
5320 Clouds 17 1018 68 10000 5.1 80 07:35 20.11.2020
5321 Clouds 18 1019 72 10000 5.7 130 03:45 20.11.2020
5322 Clouds 19 1018 63 10000 6.7 120 23:31 19.11.2020
5323 Clouds 21 1018 60 10000 7.7 110 22:27 19.11.2020
5324 Clouds 21 1018 60 10000 7.2 110 21:49 19.11.2020
5325 Clouds 22 1018 60 10000 7.2 110 20:37 19.11.2020
5326 Clouds 22 1019 60 10000 6.7 110 20:18 19.11.2020
5327 Clouds 22 1019 56 10000 6.2 110 19:25 19.11.2020
5328 Clouds 23 1019 56 10000 6.2 110 18:35 19.11.2020
5329 Clouds 23 1019 56 10000 5.7 110 17:18 19.11.2020
5330 Clouds 23 1020 43 10000 5.1 140 15:59 19.11.2020
5331 Clouds 23 1020 43 10000 5.1 140 15:28 19.11.2020
5332 Clouds 21 1020 60 10000 5.7 140 13:47 19.11.2020
5333 Clouds 21 1020 60 10000 5.7 140 13:24 19.11.2020
5334 Clouds 20 1019 68 10000 4.1 110 12:44 19.11.2020
5335 Clouds 20 1019 68 10000 4.1 110 12:24 19.11.2020
5336 Clouds 18 1019 68 10000 2.6 160 11:39 19.11.2020
5337 Clouds 17 1018 72 10000 2.1 160 10:54 19.11.2020
5338 Clouds 17 1018 72 10000 2.1 160 10:27 19.11.2020
5339 Clear 16 1018 72 10000 3.1 150 09:44 19.11.2020
5340 Clear 16 1017 72 10000 3.1 140 09:24 19.11.2020
5341 Clear 17 1017 77 10000 4.1 140 08:20 19.11.2020
5342 Clear 18 1017 82 10000 4.6 130 06:20 19.11.2020
5343 Clear 19 1016 64 10000 6.7 130 01:45 19.11.2020
5344 Clear 22 1012 38 10000 5.7 150 00:28 19.11.2020
5345 Clear 23 1012 38 10000 5.7 150 23:25 18.11.2020
5346 Clear 25 1012 47 10000 5.1 150 22:36 18.11.2020
5347 Clouds 24 1012 78 10000 5.1 110 22:18 18.11.2020
5348 Clouds 25 1012 78 10000 5.1 110 21:38 18.11.2020
5349 Clouds 24 1012 88 3000 6.7 110 21:19 18.11.2020
5350 Rain 25 1012 61 10000 5.7 110 19:47 18.11.2020
5351 Clouds 25 1012 61 10000 5.7 110 19:27 18.11.2020
5352 Clouds 25 1013 64 10000 5.1 110 18:49 18.11.2020
5353 Clouds 24 1013 69 10000 5.1 110 17:59 18.11.2020
5354 Clouds 25 1013 69 10000 5.1 110 17:35 18.11.2020
5355 Clouds 25 1013 64 10000 5.1 90 16:23 18.11.2020
5356 Clear 24 1013 60 10000 2.6 110 15:22 18.11.2020
5357 Clear 23 1013 60 10000 2.6 110 14:40 18.11.2020
5358 Clear 21 1013 68 10000 3.6 160 13:42 18.11.2020
5359 Clear 19 1013 72 10000 2.1 200 12:47 18.11.2020
5360 Clear 18 1013 72 10000 2.1 200 12:27 18.11.2020
5361 Clear 18 1012 68 10000 2.6 200 11:27 18.11.2020
5362 Clear 18 1011 68 10000 1 250 10:31 18.11.2020
5363 Clear 19 1011 68 10000 1 240 09:41 18.11.2020
5364 Clear 21 1011 52 10000 3.6 310 07:37 18.11.2020
5365 Clear 22 1011 56 10000 3.6 350 06:29 18.11.2020
5366 Clear 24 1011 60 10000 4.1 100 00:22 18.11.2020
5367 Clear 25 1011 60 10000 4.1 100 23:31 17.11.2020
5368 Clouds 25 1011 60 10000 5.1 100 22:46 17.11.2020
5369 Clouds 25 1011 60 10000 4.6 90 22:27 17.11.2020
5370 Clouds 25 1011 60 10000 4.6 90 21:49 17.11.2020
5371 Clouds 26 1011 60 10000 4.6 90 21:29 17.11.2020
5372 Clouds 26 1011 60 10000 4.6 90 20:43 17.11.2020
5373 Clouds 26 1012 53 10000 4.6 70 20:23 17.11.2020
5374 Clouds 26 1012 53 10000 4.6 70 19:44 17.11.2020
5375 Clouds 26 1013 50 10000 5.7 70 18:23 17.11.2020
5376 Clouds 26 1013 53 10000 4.6 70 17:31 17.11.2020
5377 Clouds 25 1014 50 10000 4.1 50 16:36 17.11.2020
5378 Clouds 25 1014 47 10000 3.1 10 15:58 17.11.2020
5379 Clouds 25 1014 47 10000 3.1 10 15:36 17.11.2020
5380 Clouds 24 1014 49 10000 4.1 340 14:58 17.11.2020
5381 Clouds 23 1014 49 10000 4.1 340 14:30 17.11.2020
5382 Clear 23 1015 43 10000 4.1 330 13:45 17.11.2020
5383 Clear 22 1015 43 10000 4.1 330 13:21 17.11.2020
5384 Clear 22 1015 43 10000 4.1 330 13:21 17.11.2020
5385 Clear 21 1014 45 10000 4.6 320 12:41 17.11.2020
5386 Clear 19 1014 59 10000 3.1 330 11:44 17.11.2020
5387 Clear 19 1014 59 10000 3.6 330 10:57 17.11.2020
5388 Clear 19 1014 59 10000 3.6 330 10:37 17.11.2020
5389 Clear 18 1014 68 10000 3.6 340 09:51 17.11.2020
5390 Clear 18 1014 68 10000 3.6 340 09:30 17.11.2020
5391 Clear 18 1014 63 10000 3.1 340 08:25 17.11.2020
5392 Clear 19 1013 55 10000 3.6 360 07:49 17.11.2020
5393 Clear 20 1014 52 10000 4.1 50 06:54 17.11.2020
5394 Rain 21 1014 52 10000 4.1 80 04:20 17.11.2020
5395 Clear 21 1014 56 10000 4.6 90 02:54 17.11.2020
5396 Clear 21 1014 60 10000 4.6 90 01:25 17.11.2020
5397 Clear 21 1014 60 10000 4.6 90 01:25 17.11.2020
5398 Clear 22 1013 60 10000 4.1 80 00:55 17.11.2020
5399 Rain 22 1013 53 10000 4.1 90 23:50 16.11.2020
5400 Clear 22 1013 53 10000 4.1 90 23:29 16.11.2020
5401 Clear 24 1012 46 10000 4.1 70 22:47 16.11.2020
5402 Clouds 24 1013 46 10000 3.6 60 22:20 16.11.2020
5403 Clouds 25 1013 46 10000 3.6 60 21:46 16.11.2020
5404 Clouds 25 1013 46 10000 3.6 60 21:24 16.11.2020
5405 Clouds 25 1013 44 10000 5.1 50 20:38 16.11.2020
5406 Clouds 26 1014 44 10000 4.1 40 20:20 16.11.2020
5407 Clouds 25 1014 44 10000 4.1 40 19:38 16.11.2020
5408 Clouds 25 1014 46 10000 4.1 50 19:19 16.11.2020
5409 Clouds 25 1014 46 10000 4.1 50 18:31 16.11.2020
5410 Clouds 26 1015 44 10000 4.1 40 17:47 16.11.2020
5411 Clear 25 1015 53 10000 4.1 50 17:21 16.11.2020
5412 Clear 24 1015 53 10000 4.1 50 16:53 16.11.2020
5413 Clear 24 1015 53 10000 4.1 50 16:28 16.11.2020
5414 Clear 24 1015 60 10000 3.1 50 15:51 16.11.2020
5415 Clear 24 1015 60 10000 3.1 50 15:29 16.11.2020
5416 Clear 23 1015 60 10000 1.5 60 14:55 16.11.2020
5417 Clear 22 1015 60 10000 1.5 60 14:28 16.11.2020
5418 Clear 21 1015 43 10000 1.5 0 13:30 16.11.2020
5419 Clear 19 1015 60 10000 1 320 12:33 16.11.2020
5420 Clear 18 1015 72 10000 0.76 261 11:43 16.11.2020
5421 Clear 17 1015 82 10000 0.5 200 11:24 16.11.2020
5422 Clear 16 1015 82 10000 0.5 200 10:46 16.11.2020
5423 Clear 16 1015 82 10000 0.5 200 10:26 16.11.2020
5424 Clear 15 1014 82 10000 0.5 160 09:53 16.11.2020
5425 Clear 15 1014 82 10000 0.5 160 09:34 16.11.2020
5426 Clear 16 1014 82 10000 1 140 08:48 16.11.2020
5427 Clear 16 1014 77 10000 1 150 08:22 16.11.2020
5428 Clear 16 1014 77 10000 1 150 07:29 16.11.2020
5429 Clear 17 1015 67 10000 1 150 06:46 16.11.2020
5430 Clear 17 1015 59 10000 1 0 05:48 16.11.2020
5431 Clear 19 1015 49 10000 2.1 160 03:54 16.11.2020
5432 Clear 20 1014 72 10000 3.1 130 01:45 16.11.2020
5433 Clear 21 1014 37 10000 2.6 0 00:29 16.11.2020
5434 Clear 23 1013 33 10000 3.1 200 23:29 15.11.2020
5435 Clear 23 1013 27 10000 4.6 200 22:57 15.11.2020
5436 Clear 24 1013 27 10000 4.6 200 22:24 15.11.2020
5437 Clear 24 1012 29 10000 3.6 170 21:51 15.11.2020
5438 Rain 24 1012 29 10000 3.6 170 21:29 15.11.2020
5439 Clear 25 1012 29 10000 4.6 180 20:51 15.11.2020
5440 Clear 25 1012 29 10000 4.6 180 20:32 15.11.2020
5441 Clear 25 1013 36 10000 4.6 190 19:55 15.11.2020
5442 Clear 25 1013 36 10000 4.6 190 19:36 15.11.2020
5443 Clouds 25 1013 44 10000 3.1 0 19:18 15.11.2020
5444 Clouds 25 1013 44 10000 3.1 0 18:43 15.11.2020
5445 Clouds 24 1013 44 10000 3.1 0 18:24 15.11.2020
5446 Clouds 24 1013 44 10000 5.1 190 17:47 15.11.2020
5447 Clear 23 1014 53 10000 4.6 170 17:25 15.11.2020
5448 Clear 23 1014 53 10000 4.6 170 16:52 15.11.2020
5449 Clear 23 1014 53 10000 4.6 170 16:23 15.11.2020
5450 Clear 22 1014 56 10000 4.1 220 15:57 15.11.2020
5451 Clear 22 1014 56 10000 4.1 220 15:39 15.11.2020
5452 Clear 22 1014 60 10000 4.6 190 15:20 15.11.2020
5453 Clear 20 1014 60 10000 4.6 190 14:36 15.11.2020
5454 Clear 20 1015 63 10000 4.6 190 14:18 15.11.2020
5455 Clear 19 1015 63 10000 4.6 190 13:39 15.11.2020
5456 Clouds 18 1015 77 10000 3.1 180 12:52 15.11.2020
5457 Clouds 17 1015 77 10000 3.1 180 12:26 15.11.2020
5458 Clouds 16 1014 77 10000 4.1 190 11:55 15.11.2020
5459 Clouds 16 1014 77 10000 4.1 190 11:37 15.11.2020
5460 Clouds 16 1014 82 10000 3.6 200 11:18 15.11.2020
5461 Clouds 16 1013 82 10000 3.1 200 10:43 15.11.2020
5462 Clouds 16 1013 82 10000 3.1 200 10:25 15.11.2020
5463 Clouds 17 1012 88 10000 2.1 200 09:41 15.11.2020
5464 Clouds 17 1012 77 10000 2.1 180 09:20 15.11.2020
5465 Clouds 18 1012 77 10000 2.1 180 08:53 15.11.2020
5466 Clouds 18 1012 77 10000 2.1 180 08:28 15.11.2020
5467 Clouds 18 1011 82 10000 3.6 150 07:43 15.11.2020
5468 Rain 18 1012 77 10000 3.6 180 04:59 15.11.2020
5469 Clear 20 1012 68 10000 1.5 230 03:40 15.11.2020
5470 Clear 23 1010 60 10000 0.5 220 00:48 15.11.2020
5471 Clear 23 1010 60 10000 0.5 220 00:27 15.11.2020
5472 Clear 23 1010 60 10000 0.5 220 00:27 15.11.2020
5473 Clouds 23 1009 56 10000 1.5 180 23:36 14.11.2020
5474 Clouds 23 1009 60 10000 1.5 200 22:50 14.11.2020
5475 Clouds 23 1009 60 10000 1.5 200 22:29 14.11.2020
5476 Clouds 23 1009 60 10000 2.1 210 21:42 14.11.2020
5477 Clouds 23 1009 73 10000 3.1 330 21:22 14.11.2020
5478 Clouds 23 1009 73 10000 3.1 330 20:50 14.11.2020
5479 Rain 23 1009 73 10000 3.1 330 20:27 14.11.2020
5480 Rain 24 1010 64 10000 2.1 10 19:51 14.11.2020
5481 Clouds 24 1010 64 10000 2.1 10 19:30 14.11.2020
5482 Rain 24 1009 60 10000 2.1 150 18:43 14.11.2020
5483 Rain 25 1009 60 10000 3.1 240 18:24 14.11.2020
5484 Rain 25 1009 60 10000 2.1 150 18:24 14.11.2020
5485 Clouds 24 1009 60 10000 3.1 240 17:50 14.11.2020
5486 Rain 25 1009 60 10000 3.1 240 17:31 14.11.2020
5487 Rain 25 1011 60 10000 2.6 260 16:57 14.11.2020
5488 Rain 24 1011 60 10000 2.6 260 16:36 14.11.2020
5489 Rain 24 1011 60 10000 2.6 260 16:36 14.11.2020
5490 Rain 25 1011 69 10000 2.1 230 16:18 14.11.2020
5491 Rain 24 1011 69 10000 2.1 230 15:50 14.11.2020
5492 Rain 24 1012 64 10000 3.6 300 15:21 14.11.2020
5493 Rain 24 1012 64 10000 3.6 300 14:38 14.11.2020
5494 Rain 23 1011 73 10000 2.6 350 14:20 14.11.2020
5495 Clear 23 1011 73 10000 2.6 350 13:40 14.11.2020
5496 Rain 23 1011 73 10000 2.6 10 13:22 14.11.2020
5497 Clear 23 1011 73 10000 2.6 10 12:45 14.11.2020
5498 Clear 22 1011 73 10000 2.6 10 12:27 14.11.2020
5499 Clear 22 1010 77 10000 2.1 30 11:41 14.11.2020
5500 Clear 21 1009 82 10000 2.6 90 11:22 14.11.2020
5501 Clear 20 1009 82 10000 2.6 90 10:42 14.11.2020
5502 Clear 20 1008 82 10000 3.6 80 10:23 14.11.2020
5503 Clear 20 1008 82 10000 3.6 80 09:46 14.11.2020
5504 Clear 20 1008 82 10000 3.6 80 09:28 14.11.2020
5505 Clear 20 1009 82 10000 3.1 100 08:49 14.11.2020
5506 Clear 20 1009 82 10000 3.1 100 08:27 14.11.2020
5507 Clear 20 1009 82 10000 3.1 90 07:44 14.11.2020
5508 Clear 20 1009 82 10000 3.1 90 07:25 14.11.2020
5509 Clear 21 1010 73 10000 5.1 90 06:31 14.11.2020
5510 Clear 21 1010 83 10000 4.1 100 05:29 14.11.2020
5511 Clouds 21 1011 83 10000 6.2 110 03:52 14.11.2020
5512 Clear 21 1010 77 10000 7.2 110 00:54 14.11.2020
5513 Clear 22 1010 73 10000 7.2 110 23:43 13.11.2020
5514 Clear 22 1010 73 10000 7.2 100 23:22 13.11.2020
5515 Clear 23 1010 73 10000 7.2 100 22:42 13.11.2020
5516 Clear 24 1011 69 10000 6.7 110 22:23 13.11.2020
5517 Clear 24 1011 69 10000 6.7 110 21:51 13.11.2020
5518 Clear 24 1011 69 10000 6.7 110 21:29 13.11.2020
5519 Clouds 25 1011 69 10000 6.7 110 20:56 13.11.2020
5520 Clouds 25 1011 69 10000 6.7 110 20:37 13.11.2020
5521 Clouds 25 1012 73 10000 6.2 110 20:19 13.11.2020
5522 Clouds 25 1012 73 10000 6.2 110 19:44 13.11.2020
5523 Clouds 25 1012 73 10000 6.2 110 19:44 13.11.2020
5524 Clouds 25 1013 78 10000 5.7 110 19:22 13.11.2020
5525 Clouds 24 1013 78 10000 5.7 110 18:50 13.11.2020
5526 Clouds 24 1014 73 10000 5.7 110 17:59 13.11.2020
5527 Clouds 24 1014 73 10000 5.7 110 17:36 13.11.2020
5528 Clouds 24 1014 73 10000 4.6 110 17:18 13.11.2020
5529 Clouds 24 1014 73 10000 4.6 110 16:42 13.11.2020
5530 Clouds 24 1015 73 10000 3.1 70 16:21 13.11.2020
5531 Clouds 24 1015 73 10000 3.1 70 15:41 13.11.2020
5532 Clear 24 1016 73 10000 2.1 70 15:22 13.11.2020
5533 Clear 23 1016 73 10000 2.1 70 14:39 13.11.2020
5534 Clouds 22 1015 77 10000 2.6 360 14:19 13.11.2020
5535 Clouds 22 1015 77 10000 2.6 360 14:19 13.11.2020
5536 Clouds 22 1015 77 10000 2.6 360 13:37 13.11.2020
5537 Clear 21 1015 82 10000 3.1 20 13:18 13.11.2020
5538 Clear 21 1015 82 10000 3.1 20 12:43 13.11.2020
5539 Clear 21 1015 82 10000 3.1 20 12:24 13.11.2020
5540 Clear 20 1015 77 10000 4.1 50 11:47 13.11.2020
5541 Clear 20 1015 82 10000 4.6 20 11:23 13.11.2020
5542 Clear 19 1015 82 10000 4.6 20 10:52 13.11.2020
5543 Clear 19 1015 82 10000 4.6 20 10:33 13.11.2020
5544 Clouds 19 1014 82 10000 4.6 60 09:53 13.11.2020
5545 Clouds 19 1014 82 10000 4.6 60 09:32 13.11.2020
5546 Clouds 19 1013 82 10000 4.1 70 08:54 13.11.2020
5547 Clouds 19 1013 82 10000 4.1 70 08:29 13.11.2020
5548 Clear 19 1013 88 10000 4.1 80 07:51 13.11.2020
5549 Clear 19 1013 88 10000 4.1 80 07:27 13.11.2020
5550 Clouds 20 1014 82 10000 4.1 80 06:56 13.11.2020
5551 Clouds 20 1014 82 10000 4.1 80 06:37 13.11.2020
5552 Clouds 20 1015 82 10000 5.1 80 05:41 13.11.2020
5553 Clouds 20 1015 82 10000 6.2 110 03:44 13.11.2020
5554 Clear 20 1015 77 10000 6.7 120 01:42 13.11.2020
5555 Clear 20 1014 72 10000 6.7 100 00:37 13.11.2020
5556 Clear 21 1014 68 10000 6.7 100 23:55 12.11.2020
5557 Clear 21 1014 73 10000 5.7 100 23:21 12.11.2020
5558 Clear 22 1014 73 10000 5.7 100 22:55 12.11.2020
5559 Clear 22 1014 73 10000 5.7 100 22:37 12.11.2020
5560 Clear 23 1015 68 10000 6.7 110 21:59 12.11.2020
5561 Clear 23 1015 68 10000 6.7 110 21:40 12.11.2020
5562 Clear 23 1015 64 10000 6.7 110 21:22 12.11.2020
5563 Clear 23 1015 64 10000 6.7 110 20:42 12.11.2020
5564 Clear 24 1015 64 10000 6.7 110 20:23 12.11.2020
5565 Clouds 23 1015 64 10000 6.2 110 19:53 12.11.2020
5566 Clouds 24 1015 64 10000 6.2 110 19:34 12.11.2020
5567 Clouds 24 1016 73 10000 5.7 110 18:59 12.11.2020
5568 Clouds 23 1016 73 10000 5.7 110 18:41 12.11.2020
5569 Clouds 23 1017 68 10000 5.1 110 18:20 12.11.2020
5570 Clouds 23 1017 68 10000 5.1 110 17:40 12.11.2020
5571 Clouds 23 1017 68 10000 5.1 110 17:40 12.11.2020
5572 Clear 23 1017 73 10000 4.1 90 17:22 12.11.2020
5573 Clear 22 1017 73 10000 4.1 90 16:45 12.11.2020
5574 Clear 22 1017 73 10000 4.1 90 16:23 12.11.2020
5575 Clouds 22 1017 77 10000 3.6 70 15:53 12.11.2020
5576 Clouds 21 1017 77 10000 3.1 70 15:28 12.11.2020
5577 Clouds 21 1017 77 10000 3.1 70 14:56 12.11.2020
5578 Clouds 21 1017 77 10000 3.1 70 14:37 12.11.2020
5579 Clouds 21 1017 77 10000 3.1 70 14:18 12.11.2020
5580 Clouds 20 1017 77 10000 3.1 70 13:43 12.11.2020
5581 Clouds 20 1017 77 10000 2.6 70 13:19 12.11.2020
5582 Clouds 20 1017 77 10000 2.6 70 12:47 12.11.2020
5583 Clouds 20 1017 77 10000 2.6 70 12:25 12.11.2020
5584 Clear 20 1017 82 10000 3.1 50 11:53 12.11.2020
5585 Clear 19 1017 82 10000 3.1 50 11:34 12.11.2020
5586 Clear 18 1017 82 10000 2.6 50 10:50 12.11.2020
5587 Clear 18 1017 82 10000 2.6 50 10:32 12.11.2020
5588 Clear 18 1016 82 10000 3.6 50 09:51 12.11.2020
5589 Clear 18 1016 82 10000 3.6 50 09:27 12.11.2020
5590 Clear 18 1016 77 10000 4.6 50 08:58 12.11.2020
5591 Clear 18 1016 77 10000 4.6 50 08:40 12.11.2020
5592 Clear 18 1016 77 10000 5.7 60 08:20 12.11.2020
5593 Clear 19 1016 77 10000 5.7 60 07:54 12.11.2020
5594 Clear 19 1017 88 10000 0.89 180 07:30 12.11.2020
5595 Clear 19 1017 85 10000 0.45 45 06:51 12.11.2020
5596 Clear 19 1016 72 10000 6.2 100 06:22 12.11.2020
5597 Clear 20 1017 77 10000 7.2 110 03:43 12.11.2020
5598 Clear 20 1017 77 10000 8.2 110 03:18 12.11.2020
5599 Clear 20 1016 77 10000 7.7 110 00:25 12.11.2020
5600 Clear 21 1016 77 10000 7.7 110 23:40 11.11.2020
5601 Clear 21 1016 73 10000 8.2 110 23:22 11.11.2020
5602 Clear 22 1016 73 10000 8.2 110 22:43 11.11.2020
5603 Clouds 22 1016 68 10000 7.2 100 22:21 11.11.2020
5604 Clouds 23 1016 68 10000 7.2 100 21:56 11.11.2020
5605 Clouds 23 1016 68 10000 7.2 100 21:38 11.11.2020
5606 Clouds 23 1016 68 10000 7.2 100 21:18 11.11.2020
5607 Clouds 23 1016 68 10000 7.2 100 20:42 11.11.2020
5608 Clouds 24 1017 64 10000 6.2 100 20:21 11.11.2020
5609 Clouds 24 1017 64 10000 6.2 100 19:51 11.11.2020
5610 Clouds 24 1017 64 10000 6.2 100 19:32 11.11.2020
5611 Clouds 24 1017 68 10000 6.2 100 18:58 11.11.2020
5612 Clouds 24 1017 68 10000 6.2 100 18:40 11.11.2020
5613 Clouds 24 1018 64 10000 4.1 110 17:46 11.11.2020
5614 Clouds 23 1018 64 10000 4.1 110 17:27 11.11.2020
5615 Clouds 23 1019 73 10000 3.1 110 16:59 11.11.2020
5616 Clouds 23 1019 73 10000 3.1 110 16:37 11.11.2020
5617 Clouds 22 1019 77 10000 3.6 60 16:19 11.11.2020
5618 Clouds 22 1019 77 10000 3.6 60 15:39 11.11.2020
5619 Clouds 21 1019 77 10000 4.1 70 15:21 11.11.2020
5620 Clouds 21 1019 77 10000 4.1 70 14:43 11.11.2020
5621 Clouds 21 1019 77 10000 4.1 70 14:23 11.11.2020
5622 Clouds 20 1019 77 10000 4.6 70 13:44 11.11.2020
5623 Clouds 19 1019 77 10000 4.1 70 12:59 11.11.2020
5624 Clouds 19 1018 72 10000 4.1 70 12:21 11.11.2020
5625 Clouds 19 1018 72 10000 4.1 70 11:51 11.11.2020
5626 Clouds 19 1018 72 10000 4.1 70 11:33 11.11.2020
5627 Clouds 19 1018 72 10000 4.1 70 11:33 11.11.2020
5628 Clouds 18 1017 77 10000 4.1 70 10:45 11.11.2020
5629 Clouds 18 1017 77 10000 4.1 70 10:27 11.11.2020
5630 Clear 18 1017 72 10000 4.6 60 09:55 11.11.2020
5631 Rain 18 1017 72 10000 4.6 60 09:37 11.11.2020
5632 Clear 18 1016 72 10000 3.6 60 09:19 11.11.2020
5633 Clear 19 1016 72 10000 3.6 60 08:41 11.11.2020
5634 Clear 19 1016 72 10000 5.7 60 08:22 11.11.2020
5635 Clear 19 1016 72 10000 5.7 60 07:41 11.11.2020
5636 Clear 20 1017 68 10000 5.1 60 06:31 11.11.2020
5637 Clear 21 1017 73 10000 6.7 100 04:49 11.11.2020
5638 Clear 20 1016 72 10000 6.7 120 01:37 11.11.2020
5639 Clear 20 1016 77 10000 8.2 120 00:56 11.11.2020
5640 Rain 20 1016 77 10000 8.2 120 00:22 11.11.2020
5641 Clear 21 1016 77 10000 8.2 120 23:36 10.11.2020
5642 Rain 21 1016 68 10000 7.7 120 23:18 10.11.2020
5643 Clear 22 1016 68 10000 7.7 120 22:43 10.11.2020
5644 Clear 22 1016 64 10000 7.7 120 22:20 10.11.2020
5645 Clear 23 1016 64 10000 7.7 120 21:40 10.11.2020
5646 Clear 23 1016 68 10000 8.2 120 21:22 10.11.2020
5647 Clear 23 1016 68 10000 8.2 120 20:44 10.11.2020
5648 Clear 23 1016 68 10000 8.2 120 20:24 10.11.2020
5649 Clouds 24 1017 60 10000 6.2 100 19:58 10.11.2020
5650 Clouds 24 1017 60 10000 6.2 100 19:39 10.11.2020
5651 Clouds 23 1017 64 10000 7.2 100 19:21 10.11.2020
5652 Clouds 24 1017 64 10000 7.2 100 18:42 10.11.2020
5653 Clouds 23 1017 68 10000 6.7 100 18:21 10.11.2020
5654 Clouds 23 1017 68 10000 6.7 100 17:47 10.11.2020
5655 Clouds 23 1017 68 10000 6.7 100 17:28 10.11.2020
5656 Clouds 22 1018 73 10000 5.1 100 16:58 10.11.2020
5657 Clouds 22 1018 73 10000 5.1 100 16:39 10.11.2020
5658 Clouds 22 1018 73 10000 5.1 100 16:21 10.11.2020
5659 Clouds 22 1018 73 10000 5.1 100 15:47 10.11.2020
5660 Clouds 21 1018 73 10000 5.1 100 15:27 10.11.2020
5661 Clouds 21 1018 73 10000 3.1 60 14:43 10.11.2020
5662 Clouds 21 1018 72 10000 4.1 60 14:23 10.11.2020
5663 Clouds 21 1018 72 10000 4.1 60 13:58 10.11.2020
5664 Clouds 20 1018 72 10000 4.1 60 13:37 10.11.2020
5665 Clouds 20 1018 72 10000 4.1 60 13:18 10.11.2020
5666 Clouds 20 1018 72 10000 4.1 60 12:44 10.11.2020
5667 Clouds 19 1018 72 10000 3.6 70 12:24 10.11.2020
5668 Clouds 19 1018 72 10000 3.6 70 11:41 10.11.2020
5669 Clouds 19 1017 82 10000 4.1 80 11:21 10.11.2020
5670 Clouds 18 1017 82 10000 4.1 80 10:46 10.11.2020
5671 Clouds 18 1017 82 10000 4.1 80 10:27 10.11.2020
5672 Clear 18 1017 82 10000 4.1 70 09:55 10.11.2020
5673 Clear 18 1017 82 10000 4.1 70 09:37 10.11.2020
5674 Clear 18 1017 77 10000 4.6 60 09:19 10.11.2020
5675 Clear 18 1017 77 10000 4.6 60 08:45 10.11.2020
5676 Clear 18 1017 77 10000 4.6 70 08:24 10.11.2020
5677 Clear 19 1017 77 10000 4.6 70 07:42 10.11.2020
5678 Clear 19 1017 72 10000 5.7 70 07:20 10.11.2020
5679 Clear 19 1017 72 10000 5.7 70 06:39 10.11.2020
5680 Clouds 19 1017 68 10000 5.7 80 05:34 10.11.2020
5681 Clear 20 1017 72 10000 6.2 110 04:36 10.11.2020
5682 Clouds 19 1016 77 10000 7.7 120 01:42 10.11.2020
5683 Clouds 19 1017 77 10000 8.2 110 00:59 10.11.2020
5684 Clouds 20 1017 72 10000 7.2 120 23:51 09.11.2020
5685 Clear 20 1017 68 10000 6.2 110 23:23 09.11.2020
5686 Clear 21 1017 68 10000 6.2 110 22:42 09.11.2020
5687 Clear 21 1017 68 10000 5.7 100 22:23 09.11.2020
5688 Clear 21 1017 68 10000 5.7 100 21:45 09.11.2020
5689 Clear 21 1017 68 10000 5.7 100 21:45 09.11.2020
5690 Clear 21 1017 68 10000 5.7 100 21:27 09.11.2020
5691 Clear 21 1017 68 10000 6.2 130 20:44 09.11.2020
5692 Clear 21 1018 68 10000 5.7 110 20:22 09.11.2020
5693 Rain 22 1018 68 10000 5.7 110 19:49 09.11.2020
5694 Rain 22 1018 68 10000 5.7 110 19:49 09.11.2020
5695 Clear 21 1018 68 10000 5.7 110 19:24 09.11.2020
5696 Clouds 21 1019 72 10000 5.1 110 18:58 09.11.2020
5697 Clouds 21 1019 72 10000 5.1 110 18:39 09.11.2020
5698 Clouds 21 1019 77 10000 5.7 100 18:19 09.11.2020
5699 Clouds 21 1019 77 10000 5.7 100 17:44 09.11.2020
5700 Clouds 21 1019 77 10000 5.7 100 17:25 09.11.2020
5701 Clouds 20 1020 72 10000 3.6 100 16:44 09.11.2020
5702 Clouds 20 1020 77 10000 3.1 70 16:23 09.11.2020
5703 Clouds 20 1020 77 10000 3.1 70 15:45 09.11.2020
5704 Rain 20 1020 77 10000 3.1 70 15:25 09.11.2020
5705 Rain 20 1020 77 10000 3.6 90 14:49 09.11.2020
5706 Rain 19 1020 77 10000 3.6 90 14:28 09.11.2020
5707 Rain 19 1020 77 10000 4.6 80 13:53 09.11.2020
5708 Clouds 19 1020 77 10000 4.6 80 13:28 09.11.2020
5709 Clear 19 1020 72 10000 5.1 70 12:58 09.11.2020
5710 Rain 19 1020 72 10000 5.1 70 12:40 09.11.2020
5711 Clear 19 1019 77 10000 5.1 70 12:20 09.11.2020
5712 Clear 18 1019 77 10000 5.1 70 11:42 09.11.2020
5713 Clear 19 1019 77 10000 5.1 70 11:24 09.11.2020
5714 Clear 19 1019 68 10000 4.6 70 10:44 09.11.2020
5715 Clear 19 1019 68 10000 4.6 70 10:25 09.11.2020
5716 Clear 19 1019 68 10000 4.6 50 09:54 09.11.2020
5717 Clear 19 1019 68 10000 4.6 50 09:29 09.11.2020
5718 Clear 19 1019 72 10000 5.1 50 08:50 09.11.2020
5719 Clear 19 1019 72 10000 5.1 50 08:27 09.11.2020
5720 Clear 20 1019 68 10000 5.7 60 07:43 09.11.2020
5721 Clear 20 1019 68 10000 5.1 100 07:22 09.11.2020
5722 Clouds 20 1020 76 10000 0.45 45 06:48 09.11.2020
5723 Clear 20 1019 72 10000 7.7 110 03:51 09.11.2020
5724 Clear 20 1019 72 10000 7.7 120 01:56 09.11.2020
5725 Clear 20 1019 72 10000 7.7 120 01:38 09.11.2020
5726 Clear 20 1019 77 10000 8.2 120 00:35 09.11.2020
5727 Clear 22 1018 68 10000 7.7 130 23:39 08.11.2020
5728 Clear 22 1018 73 10000 7.2 120 23:20 08.11.2020
5729 Clear 22 1018 73 10000 7.2 120 22:42 08.11.2020
5730 Clear 23 1018 64 10000 8.2 130 22:20 08.11.2020
5731 Clear 23 1018 64 10000 8.2 130 22:20 08.11.2020
5732 Clear 24 1018 64 10000 8.2 130 21:42 08.11.2020
5733 Clear 24 1018 64 10000 8.2 130 21:20 08.11.2020
5734 Clear 25 1018 64 10000 8.2 130 20:55 08.11.2020
5735 Clear 24 1018 64 10000 8.2 130 20:36 08.11.2020
5736 Clear 25 1019 57 10000 6.7 120 20:18 08.11.2020
5737 Clear 24 1019 57 10000 6.7 120 19:42 08.11.2020
5738 Clear 25 1019 57 10000 6.7 120 19:21 08.11.2020
5739 Clear 25 1019 50 10000 7.2 100 18:48 08.11.2020
5740 Clear 24 1019 56 10000 6.2 100 18:22 08.11.2020
5741 Clear 24 1019 56 10000 6.2 100 17:58 08.11.2020
5742 Clear 24 1019 56 10000 6.2 100 17:58 08.11.2020
5743 Clear 24 1019 56 10000 6.2 100 17:38 08.11.2020
5744 Clear 24 1020 64 10000 5.1 100 17:19 08.11.2020
5745 Clear 24 1020 64 10000 5.1 100 16:48 08.11.2020
5746 Clear 23 1021 68 10000 3.1 80 16:22 08.11.2020
5747 Clear 23 1021 68 10000 3.1 80 15:58 08.11.2020
5748 Clear 23 1021 68 10000 3.1 80 15:40 08.11.2020
5749 Clear 23 1020 68 10000 4.1 80 15:21 08.11.2020
5750 Clear 22 1020 68 10000 4.1 80 14:41 08.11.2020
5751 Clear 22 1021 68 10000 3.6 60 14:21 08.11.2020
5752 Clear 22 1021 68 10000 3.6 60 13:46 08.11.2020
5753 Clear 21 1021 68 10000 3.6 60 13:23 08.11.2020
5754 Clear 21 1021 68 10000 3.6 60 13:23 08.11.2020
5755 Clear 21 1021 68 10000 3.6 50 12:44 08.11.2020
5756 Clouds 21 1020 77 10000 3.6 50 12:25 08.11.2020
5757 Clouds 20 1020 77 10000 3.6 50 11:58 08.11.2020
5758 Clouds 20 1020 77 10000 3.6 50 11:39 08.11.2020
5759 Clouds 20 1020 82 10000 3.6 60 11:20 08.11.2020
5760 Clouds 20 1020 82 10000 3.6 60 11:20 08.11.2020
5761 Clouds 19 1020 82 10000 3.6 60 10:49 08.11.2020
5762 Clear 19 1020 82 10000 3.6 60 10:18 08.11.2020
5763 Clear 19 1020 82 10000 3.6 60 09:44 08.11.2020
5764 Clear 19 1020 82 10000 3.6 60 09:24 08.11.2020
5765 Clear 19 1020 82 10000 3.1 70 08:56 08.11.2020
5766 Clear 19 1020 82 10000 3.1 70 08:37 08.11.2020
5767 Clear 19 1020 82 10000 4.1 100 08:18 08.11.2020
5768 Clear 19 1020 82 10000 4.1 100 07:46 08.11.2020
5769 Clear 19 1020 77 10000 5.1 110 07:19 08.11.2020
5770 Clear 19 1021 82 10000 5.1 120 05:55 08.11.2020
5771 Clear 19 1021 82 10000 5.1 120 05:29 08.11.2020
5772 Clear 19 1021 82 10000 7.2 130 04:18 08.11.2020
5773 Clear 20 1020 72 10000 6.7 120 01:50 08.11.2020
5774 Clear 20 1020 72 10000 6.7 120 01:18 08.11.2020
5775 Clear 21 1020 68 10000 6.2 120 00:26 08.11.2020
5776 Clear 22 1020 68 10000 6.2 120 23:46 07.11.2020
5777 Clear 22 1020 68 10000 6.2 120 23:28 07.11.2020
5778 Clear 23 1019 60 10000 6.2 110 22:42 07.11.2020
5779 Clear 23 1019 60 10000 6.2 110 22:24 07.11.2020
5780 Clear 23 1019 60 10000 6.2 110 22:24 07.11.2020
5781 Clouds 24 1019 60 10000 6.2 110 21:46 07.11.2020
5782 Clouds 24 1019 60 10000 6.2 110 21:22 07.11.2020
5783 Clouds 25 1019 64 10000 5.7 100 20:50 07.11.2020
5784 Clouds 25 1019 64 10000 5.7 100 20:32 07.11.2020
5785 Clouds 24 1020 73 10000 4.6 100 19:59 07.11.2020
5786 Clouds 24 1020 73 10000 4.6 100 19:39 07.11.2020
5787 Clouds 24 1020 73 10000 5.7 90 19:19 07.11.2020
5788 Clouds 24 1020 73 10000 5.7 90 18:38 07.11.2020
5789 Clouds 24 1021 73 10000 6.2 100 18:20 07.11.2020
5790 Clouds 23 1021 73 10000 6.2 100 17:43 07.11.2020
5791 Clouds 23 1021 73 10000 6.2 100 17:43 07.11.2020
5792 Clouds 23 1021 73 10000 5.1 100 17:23 07.11.2020
5793 Clouds 23 1021 73 10000 5.1 100 16:42 07.11.2020
5794 Clouds 23 1021 73 10000 5.1 100 16:23 07.11.2020
5795 Clouds 24 1021 73 10000 3.1 70 15:46 07.11.2020
5796 Clouds 23 1021 73 10000 3.1 70 15:23 07.11.2020
5797 Clouds 23 1021 73 10000 3.1 60 14:55 07.11.2020
5798 Clouds 23 1021 73 10000 3.1 60 14:37 07.11.2020
5799 Clouds 22 1021 73 10000 2.1 70 14:18 07.11.2020
5800 Clouds 22 1021 73 10000 2.1 70 13:39 07.11.2020
5801 Clouds 21 1021 77 10000 2.1 30 13:20 07.11.2020
5802 Clouds 21 1021 77 10000 2.1 30 12:32 07.11.2020
5803 Clouds 20 1020 77 10000 3.1 50 11:45 07.11.2020
5804 Clouds 20 1020 77 10000 3.1 50 11:24 07.11.2020
5805 Clear 19 1019 82 10000 3.1 60 10:46 07.11.2020
5806 Clear 19 1019 82 10000 3.1 60 10:28 07.11.2020
5807 Clear 19 1019 77 10000 3.1 40 09:58 07.11.2020
5808 Clear 19 1019 77 10000 3.1 40 09:37 07.11.2020
5809 Clear 20 1019 77 10000 3.6 60 08:56 07.11.2020
5810 Clear 20 1019 77 10000 3.6 60 08:37 07.11.2020
5811 Clear 20 1019 88 10000 4.1 110 07:56 07.11.2020
5812 Rain 20 1019 88 10000 4.1 110 07:32 07.11.2020
5813 Clear 19 1019 88 10000 5.1 120 06:48 07.11.2020
5814 Rain 20 1019 72 10000 3.1 130 05:37 07.11.2020
5815 Clear 20 1019 72 10000 4.1 130 03:24 07.11.2020
5816 Clear 20 1018 82 10000 7.7 130 01:43 07.11.2020
5817 Clear 20 1018 82 10000 7.7 130 01:24 07.11.2020
5818 Clouds 21 1017 77 10000 7.7 130 00:22 07.11.2020
5819 Clear 22 1017 64 10000 7.2 120 23:24 06.11.2020
5820 Clear 23 1017 64 10000 7.2 120 22:45 06.11.2020
5821 Clear 23 1017 56 10000 10.8 100 22:20 06.11.2020
5822 Clear 24 1017 56 10000 10.8 100 21:47 06.11.2020
5823 Clear 24 1017 49 10000 6.7 110 21:22 06.11.2020
5824 Clear 24 1017 49 10000 6.7 110 20:59 06.11.2020
5825 Clear 24 1017 49 10000 6.7 110 20:41 06.11.2020
5826 Clouds 24 1017 44 10000 6.2 110 20:19 06.11.2020
5827 Clouds 24 1017 44 10000 6.2 110 19:45 06.11.2020
5828 Clouds 24 1017 44 10000 6.2 110 19:26 06.11.2020
5829 Clouds 24 1018 69 10000 5.1 100 18:46 06.11.2020
5830 Clouds 24 1018 69 10000 5.1 100 18:24 06.11.2020
5831 Clouds 24 1018 68 10000 2.6 80 17:51 06.11.2020
5832 Clouds 24 1018 68 10000 2.6 80 17:27 06.11.2020
5833 Clouds 23 1019 77 10000 4.1 100 16:50 06.11.2020
5834 Clouds 22 1019 77 10000 4.1 100 16:32 06.11.2020
5835 Clouds 22 1019 77 10000 4.1 100 16:32 06.11.2020
5836 Clear 21 1020 72 10000 3.1 70 15:54 06.11.2020
5837 Clear 21 1020 72 10000 3.1 70 15:33 06.11.2020
5838 Clear 22 1020 77 10000 2.6 70 14:54 06.11.2020
5839 Clear 21 1020 77 10000 2.6 70 14:28 06.11.2020
5840 Clear 21 1020 77 10000 3.6 350 13:49 06.11.2020
5841 Clear 20 1020 77 10000 3.6 350 13:25 06.11.2020
5842 Clear 19 1020 72 10000 4.1 350 12:47 06.11.2020
5843 Clear 19 1020 77 10000 4.6 10 12:25 06.11.2020
5844 Clear 19 1020 77 10000 4.6 10 11:58 06.11.2020
5845 Clear 18 1020 77 10000 4.6 10 11:36 06.11.2020
5846 Clear 17 1019 82 10000 4.6 20 10:47 06.11.2020
5847 Clear 17 1019 82 10000 4.6 20 10:27 06.11.2020
5848 Clear 18 1019 77 10000 4.1 360 09:50 06.11.2020
5849 Clear 18 1019 72 10000 5.1 20 09:23 06.11.2020
5850 Clear 18 1019 72 10000 5.1 20 08:51 06.11.2020
5851 Clear 18 1019 72 10000 5.1 20 08:31 06.11.2020
5852 Clear 18 1019 72 10000 5.7 20 07:54 06.11.2020
5853 Clear 19 1019 72 10000 5.7 20 07:35 06.11.2020
5854 Clear 19 1018 68 10000 5.1 40 06:59 06.11.2020
5855 Clear 19 1018 68 10000 5.1 40 06:32 06.11.2020
5856 Clear 20 1018 82 10000 4.1 80 05:36 06.11.2020
5857 Smoke 20 1018 77 10000 5.7 130 01:23 06.11.2020
5858 Smoke 20 1018 77 10000 5.7 130 00:23 06.11.2020
5859 Clear 21 1018 72 10000 7.2 130 23:35 05.11.2020
5860 Clear 22 1018 60 10000 6.7 110 22:58 05.11.2020
5861 Clear 22 1018 60 10000 6.7 110 22:40 05.11.2020
5862 Clear 23 1018 56 10000 5.1 110 22:21 05.11.2020
5863 Clear 23 1018 56 10000 5.1 110 21:44 05.11.2020
5864 Clear 23 1018 53 10000 3.1 110 21:22 05.11.2020
5865 Rain 23 1018 53 10000 3.1 110 20:57 05.11.2020
5866 Clear 23 1018 53 10000 3.1 110 20:39 05.11.2020
5867 Clear 24 1019 40 10000 1.5 20 20:21 05.11.2020
5868 Clear 24 1019 40 10000 1.5 20 19:42 05.11.2020
5869 Clear 24 1019 40 10000 1.5 20 19:23 05.11.2020
5870 Clear 23 1019 52 10000 2.1 50 18:46 05.11.2020
5871 Clear 23 1019 52 10000 2.1 50 18:26 05.11.2020
5872 Clear 22 1020 52 10000 3.6 50 17:52 05.11.2020
5873 Rain 22 1020 52 10000 3.6 50 17:31 05.11.2020
5874 Clear 21 1021 56 10000 4.1 50 16:59 05.11.2020
5875 Clear 21 1021 56 10000 4.1 50 16:41 05.11.2020
5876 Clear 21 1021 56 10000 4.1 50 16:20 05.11.2020
5877 Clear 21 1021 56 10000 4.1 50 15:46 05.11.2020
5878 Clear 20 1021 63 10000 4.6 50 15:22 05.11.2020
5879 Clear 19 1021 63 10000 4.6 50 14:46 05.11.2020
5880 Clear 19 1021 63 10000 4.6 50 14:27 05.11.2020
5881 Clear 18 1021 67 10000 4.1 20 13:45 05.11.2020
5882 Clear 18 1021 67 10000 4.1 20 13:26 05.11.2020
5883 Clear 17 1021 67 10000 5.1 50 12:53 05.11.2020
5884 Clear 17 1021 67 10000 5.1 50 12:27 05.11.2020
5885 Clear 17 1021 67 10000 6.7 20 11:55 05.11.2020
5886 Clear 16 1020 67 10000 6.7 30 11:30 05.11.2020
5887 Clear 16 1020 67 10000 6.7 30 10:58 05.11.2020
5888 Clear 16 1020 67 10000 6.7 30 10:39 05.11.2020
5889 Clear 16 1019 67 10000 8.7 50 10:21 05.11.2020
5890 Clear 16 1019 67 10000 8.7 50 09:44 05.11.2020
5891 Clear 16 1019 67 10000 8.7 50 09:21 05.11.2020
5892 Clear 16 1019 67 10000 8.7 50 09:21 05.11.2020
5893 Clear 16 1019 67 10000 8.7 50 08:44 05.11.2020
5894 Clear 16 1019 59 10000 8.7 40 08:25 05.11.2020
5895 Clear 17 1019 59 10000 8.7 40 07:30 05.11.2020
5896 Clear 17 1020 63 10000 8.7 50 06:52 05.11.2020
5897 Clear 17 1020 63 10000 8.7 50 06:34 05.11.2020
5898 Clear 17 1020 63 10000 8.7 50 06:34 05.11.2020
5899 Clear 18 1020 52 10000 8.7 40 05:22 05.11.2020
5900 Clear 21 1019 49 10000 6.2 50 01:23 05.11.2020
5901 Clear 22 1019 49 10000 6.2 50 00:30 05.11.2020
5902 Clear 20 1019 72 10000 7.7 100 23:44 04.11.2020
5903 Clear 20 1019 72 10000 7.7 100 23:25 04.11.2020
5904 Clear 20 1019 68 10000 8.2 110 22:48 04.11.2020
5905 Clear 21 1019 68 10000 8.2 110 22:24 04.11.2020
5906 Clear 21 1019 68 10000 8.2 110 22:24 04.11.2020
5907 Clear 21 1020 60 10000 6.7 110 21:56 04.11.2020
5908 Clear 22 1020 60 10000 6.7 110 21:36 04.11.2020
5909 Clear 22 1020 56 10000 7.2 110 21:18 04.11.2020
5910 Clear 22 1020 56 10000 7.2 110 20:41 04.11.2020
5911 Clear 22 1020 56 10000 7.2 110 20:23 04.11.2020
5912 Clear 22 1021 49 10000 5.1 70 19:44 04.11.2020
5913 Clear 22 1021 49 10000 5.1 70 19:44 04.11.2020
5914 Clear 22 1021 49 10000 5.1 70 19:26 04.11.2020
5915 Clear 22 1022 52 10000 4.1 70 18:44 04.11.2020
5916 Clear 22 1022 52 10000 4.1 70 18:25 04.11.2020
5917 Clear 22 1022 52 10000 4.1 70 18:25 04.11.2020
5918 Clear 22 1023 52 10000 4.6 50 17:57 04.11.2020
5919 Clear 21 1023 52 10000 4.6 50 17:38 04.11.2020
5920 Clear 21 1024 49 10000 4.6 50 17:19 04.11.2020
5921 Clear 21 1024 49 10000 4.6 50 16:38 04.11.2020
5922 Clear 20 1025 52 10000 5.1 50 16:20 04.11.2020
5923 Clear 20 1025 52 10000 5.1 50 15:46 04.11.2020
5924 Clear 19 1025 52 10000 5.1 50 15:24 04.11.2020
5925 Clear 19 1025 55 10000 6.2 50 14:47 04.11.2020
5926 Clear 18 1025 55 10000 6.2 50 14:26 04.11.2020
5927 Clear 18 1025 59 10000 5.1 50 13:56 04.11.2020
5928 Clear 18 1025 59 10000 5.1 50 13:37 04.11.2020
5929 Clear 17 1025 59 10000 6.2 50 13:19 04.11.2020
5930 Clear 17 1025 59 10000 6.2 50 12:47 04.11.2020
5931 Clear 17 1025 59 10000 6.2 50 12:24 04.11.2020
5932 Clear 16 1024 67 10000 7.7 50 11:48 04.11.2020
5933 Clear 16 1024 67 10000 7.7 50 11:30 04.11.2020
5934 Clear 15 1024 67 10000 7.2 50 10:52 04.11.2020
5935 Clear 16 1024 67 10000 7.2 50 10:24 04.11.2020
5936 Clear 16 1023 72 10000 7.7 40 09:58 04.11.2020
5937 Clear 16 1023 72 10000 7.7 40 09:40 04.11.2020
5938 Clear 16 1023 67 10000 7.2 50 09:20 04.11.2020
5939 Clear 16 1023 67 10000 7.2 50 08:41 04.11.2020
5940 Clear 17 1022 72 10000 6.2 30 08:18 04.11.2020
5941 Clear 16 1022 72 10000 6.2 30 08:18 04.11.2020
5942 Clear 17 1022 72 10000 6.2 30 07:42 04.11.2020
5943 Clear 17 1021 68 10000 8.7 50 07:23 04.11.2020
5944 Clear 18 1021 68 10000 8.7 50 06:41 04.11.2020
5945 Clear 18 1021 63 10000 9.8 50 05:39 04.11.2020
5946 Clear 19 1021 77 10000 9.3 100 02:31 04.11.2020
5947 Clear 19 1020 77 10000 8.7 110 01:39 04.11.2020
5948 Clear 19 1020 77 10000 8.7 110 00:25 04.11.2020
5949 Clear 20 1020 77 10000 8.7 110 23:30 03.11.2020
5950 Clear 20 1019 72 10000 9.3 110 22:58 03.11.2020
5951 Clear 20 1019 72 10000 9.3 110 22:39 03.11.2020
5952 Clear 21 1020 72 10000 8.2 110 22:19 03.11.2020
5953 Clear 21 1020 72 10000 8.2 110 21:43 03.11.2020
5954 Clear 21 1020 72 10000 8.2 110 21:24 03.11.2020
5955 Clear 21 1020 72 10000 8.2 110 21:24 03.11.2020
5956 Clear 22 1020 68 10000 7.2 110 20:49 03.11.2020
5957 Clear 22 1020 68 10000 7.2 110 20:27 03.11.2020
5958 Clouds 22 1020 64 10000 7.7 110 19:55 03.11.2020
5959 Clouds 22 1020 64 10000 7.7 110 19:37 03.11.2020
5960 Clouds 22 1021 64 10000 6.7 100 19:19 03.11.2020
5961 Clouds 22 1021 64 10000 6.7 100 18:41 03.11.2020
5962 Clouds 21 1021 77 10000 5.1 100 18:19 03.11.2020
5963 Clouds 21 1021 77 10000 5.1 100 17:46 03.11.2020
5964 Clouds 21 1021 68 10000 4.1 70 17:27 03.11.2020
5965 Clouds 21 1021 68 10000 4.1 70 16:51 03.11.2020
5966 Clouds 21 1021 68 10000 4.1 70 16:31 03.11.2020
5967 Clouds 20 1022 72 10000 4.1 80 15:55 03.11.2020
5968 Clouds 20 1022 72 10000 4.1 80 15:37 03.11.2020
5969 Clear 20 1021 72 10000 4.1 50 15:18 03.11.2020
5970 Clouds 19 1021 77 10000 3.6 60 14:42 03.11.2020
5971 Clouds 19 1021 77 10000 3.6 60 14:23 03.11.2020
5972 Clouds 19 1021 77 10000 3.6 60 13:41 03.11.2020
5973 Clouds 19 1021 77 10000 3.6 60 13:21 03.11.2020
5974 Clouds 18 1021 77 10000 4.1 60 12:45 03.11.2020
5975 Clouds 18 1021 77 10000 4.1 60 12:24 03.11.2020
5976 Clouds 18 1020 77 10000 4.6 60 11:47 03.11.2020
5977 Clouds 18 1020 77 10000 4.6 60 11:25 03.11.2020
5978 Clouds 17 1019 77 10000 4.1 60 10:55 03.11.2020
5979 Clouds 17 1019 77 10000 4.1 60 10:37 03.11.2020
5980 Clear 17 1018 77 10000 4.6 60 10:18 03.11.2020
5981 Clear 17 1018 77 10000 4.6 60 09:44 03.11.2020
5982 Clear 17 1018 82 10000 3.6 70 09:22 03.11.2020
5983 Clear 17 1018 82 10000 3.6 70 08:48 03.11.2020
5984 Clear 17 1018 82 10000 3.6 70 08:29 03.11.2020
5985 Clouds 17 1018 82 10000 5.1 110 07:41 03.11.2020
5986 Clouds 17 1018 82 10000 5.7 100 07:19 03.11.2020
5987 Clouds 18 1019 77 10000 6.7 110 06:21 03.11.2020
5988 Clouds 18 1019 77 10000 6.7 110 03:59 03.11.2020
5989 Clear 18 1018 68 10000 6.2 130 00:44 03.11.2020
5990 Clear 19 1018 59 10000 6.7 130 00:20 03.11.2020
5991 Clear 19 1018 59 10000 6.7 130 23:42 02.11.2020
5992 Clear 21 1017 52 10000 6.2 130 22:57 02.11.2020
5993 Clear 21 1017 52 10000 6.2 130 22:39 02.11.2020
5994 Clear 21 1017 60 10000 6.2 100 22:21 02.11.2020
5995 Clear 21 1017 60 10000 6.2 100 21:39 02.11.2020
5996 Clear 21 1018 43 10000 6.2 100 21:20 02.11.2020
5997 Clear 21 1018 43 10000 6.2 100 20:42 02.11.2020
5998 Clear 22 1019 52 10000 5.7 100 20:20 02.11.2020
5999 Clear 22 1019 52 10000 5.7 100 19:59 02.11.2020
6000 Clear 22 1019 52 10000 5.7 100 19:41 02.11.2020
6001 Clear 22 1019 52 10000 3.6 80 19:21 02.11.2020
6002 Clear 22 1019 52 10000 3.6 80 18:41 02.11.2020
6003 Clear 23 1020 52 10000 3.6 80 18:21 02.11.2020
6004 Clear 22 1020 52 10000 3.6 80 17:56 02.11.2020
6005 Clear 22 1020 52 10000 3.6 80 17:37 02.11.2020
6006 Clear 22 1020 60 10000 3.6 80 17:18 02.11.2020
6007 Clear 22 1020 60 10000 3.6 80 16:40 02.11.2020
6008 Clear 22 1020 60 10000 3.1 50 16:21 02.11.2020
6009 Clear 22 1020 60 10000 3.1 50 15:39 02.11.2020
6010 Clear 22 1020 64 10000 3.1 50 15:20 02.11.2020
6011 Clear 21 1020 64 10000 3.1 50 14:53 02.11.2020
6012 Clouds 21 1020 63 10000 2.6 20 14:20 02.11.2020
6013 Clouds 21 1020 63 10000 2.6 20 13:52 02.11.2020
6014 Clouds 20 1020 63 10000 2.6 20 13:23 02.11.2020
6015 Clear 20 1020 63 10000 2.6 10 12:55 02.11.2020
6016 Clear 19 1020 63 10000 2.6 10 12:30 02.11.2020
6017 Clear 18 1020 63 10000 2.6 10 11:56 02.11.2020
6018 Clear 18 1020 63 10000 2.6 10 11:37 02.11.2020
6019 Clear 16 1020 67 10000 3.1 360 11:18 02.11.2020
6020 Clear 17 1020 67 10000 3.1 360 10:40 02.11.2020
6021 Clear 16 1019 45 10000 3.6 50 10:18 02.11.2020
6022 Clear 16 1019 45 10000 3.6 50 09:43 02.11.2020
6023 Clear 17 1019 45 10000 3.6 50 09:23 02.11.2020
6024 Clear 17 1020 52 10000 2.6 70 08:40 02.11.2020
6025 Clear 17 1020 52 10000 2.6 80 08:20 02.11.2020
6026 Clear 17 1020 52 10000 2.6 80 07:49 02.11.2020
6027 Clear 18 1020 48 10000 4.1 80 06:48 02.11.2020
6028 Clear 18 1020 48 10000 4.1 80 06:23 02.11.2020
6029 Clear 19 1020 55 10000 6.2 100 01:40 02.11.2020
6030 Clear 19 1020 63 10000 5.7 110 00:43 02.11.2020
6031 Clear 20 1020 63 10000 5.7 110 00:23 02.11.2020
6032 Clear 20 1020 52 10000 6.7 110 23:40 01.11.2020
6033 Clear 21 1020 43 10000 5.7 120 23:21 01.11.2020
6034 Clear 22 1020 43 10000 5.7 120 22:45 01.11.2020
6035 Clear 22 1020 43 10000 5.7 120 22:23 01.11.2020
6036 Clear 22 1020 49 10000 5.7 100 21:46 01.11.2020
6037 Clear 22 1021 49 10000 5.7 90 21:27 01.11.2020
6038 Clear 22 1020 49 10000 5.7 100 21:27 01.11.2020
6039 Clear 22 1021 49 10000 5.7 90 20:52 01.11.2020
6040 Clear 23 1021 49 10000 5.7 90 20:30 01.11.2020
6041 Clear 22 1021 49 10000 4.1 100 19:59 01.11.2020
6042 Clear 23 1021 49 10000 4.1 100 19:41 01.11.2020
6043 Clear 22 1021 49 10000 4.1 100 19:21 01.11.2020
6044 Clouds 22 1022 49 10000 3.6 60 18:41 01.11.2020
6045 Clouds 22 1023 60 10000 3.1 60 18:19 01.11.2020
6046 Clouds 22 1023 60 10000 3.1 60 18:19 01.11.2020
6047 Clouds 22 1023 60 10000 3.1 60 17:56 01.11.2020
6048 Clouds 22 1023 60 10000 3.1 60 17:37 01.11.2020
6049 Clouds 22 1023 64 10000 3.1 50 17:18 01.11.2020
6050 Clouds 22 1023 64 10000 3.1 50 16:39 01.11.2020
6051 Clear 22 1024 63 10000 2.6 40 16:19 01.11.2020
6052 Clear 22 1024 63 10000 2.6 40 15:40 01.11.2020
6053 Clear 22 1024 63 10000 2.6 40 15:21 01.11.2020
6054 Clear 21 1024 63 10000 2.6 10 14:54 01.11.2020
6055 Clear 21 1024 63 10000 2.6 10 14:36 01.11.2020
6056 Clear 20 1024 63 10000 3.1 350 14:18 01.11.2020
6057 Clear 20 1024 63 10000 3.1 350 14:18 01.11.2020
6058 Clear 20 1024 63 10000 3.1 350 13:44 01.11.2020
6059 Clear 20 1024 63 10000 3.1 350 13:44 01.11.2020
6060 Clear 19 1024 67 10000 3.1 330 13:26 01.11.2020
6061 Clear 18 1024 67 10000 3.1 330 12:43 01.11.2020
6062 Clear 18 1024 72 10000 4.6 350 12:22 01.11.2020
6063 Clear 17 1024 72 10000 4.6 350 11:50 01.11.2020
6064 Clear 15 1024 77 10000 4.6 360 11:19 01.11.2020
6065 Clear 16 1024 77 10000 4.6 360 10:43 01.11.2020
6066 Clear 15 1024 77 10000 4.6 360 10:24 01.11.2020
6067 Clear 15 1024 77 10000 4.1 20 09:50 01.11.2020
6068 Clear 16 1024 77 10000 4.1 20 09:30 01.11.2020
6069 Clear 16 1023 72 10000 3.6 50 08:44 01.11.2020
6070 Clear 16 1024 77 10000 2.6 80 08:18 01.11.2020
6071 Clear 16 1024 77 10000 2.6 80 07:33 01.11.2020
6072 Clear 17 1024 68 10000 5.7 110 03:25 01.11.2020
6073 Clear 17 1024 59 10000 5.7 110 01:46 01.11.2020
6074 Clear 18 1024 52 10000 5.7 110 00:23 01.11.2020
6075 Clear 19 1024 45 10000 5.1 90 23:24 31.10.2020
6076 Clear 20 1024 45 10000 5.1 90 22:45 31.10.2020
6077 Clear 20 1024 45 10000 5.1 90 22:25 31.10.2020
6078 Clouds 21 1024 34 10000 4.6 100 22:25 31.10.2020
6079 Clouds 21 1024 34 10000 4.6 100 21:47 31.10.2020
6080 Clouds 21 1024 34 10000 4.6 100 21:47 31.10.2020
6081 Clouds 21 1024 34 10000 4.6 100 21:23 31.10.2020
6082 Clouds 21 1024 34 10000 4.6 100 20:59 31.10.2020
6083 Clouds 21 1024 34 10000 4.6 100 20:38 31.10.2020
6084 Clouds 21 1025 49 10000 4.1 90 20:18 31.10.2020
6085 Clouds 22 1025 49 10000 4.1 90 19:38 31.10.2020
6086 Clouds 21 1026 45 10000 3.1 70 19:19 31.10.2020
6087 Clouds 22 1026 45 10000 3.1 70 18:45 31.10.2020
6088 Clear 22 1041 31 10000 2.65 78 17:56 31.10.2020
6089 Clouds 20 1027 68 10000 2.6 50 17:37 31.10.2020
6090 Clouds 20 1027 68 10000 2.6 50 17:18 31.10.2020
6091 Clouds 20 1027 68 10000 2.6 50 16:41 31.10.2020
6092 Clouds 19 1027 72 10000 2.1 40 15:59 31.10.2020
6093 Clouds 19 1027 72 10000 2.1 40 15:38 31.10.2020
6094 Clouds 19 1027 72 10000 2.1 40 15:19 31.10.2020
6095 Clouds 18 1027 72 10000 2.1 40 14:46 31.10.2020
6096 Clouds 18 1027 72 10000 2.1 40 14:26 31.10.2020
6097 Clouds 17 1027 77 10000 2.1 60 13:49 31.10.2020
6098 Clear 17 1027 72 10000 2.1 90 13:21 31.10.2020
6099 Clear 16 1027 72 10000 2.1 90 12:32 31.10.2020
6100 Clear 14 1026 67 10000 2.6 100 11:47 31.10.2020
6101 Clear 14 1026 67 10000 2.6 100 11:28 31.10.2020
6102 Clear 12 1026 67 10000 2.6 70 10:54 31.10.2020
6103 Clear 12 1026 67 10000 2.6 70 10:33 31.10.2020
6104 Clear 12 1026 58 10000 3.1 80 09:42 31.10.2020
6105 Clear 12 1026 58 10000 3.1 80 09:21 31.10.2020
6106 Clear 13 1026 71 10000 3.1 80 08:30 31.10.2020
6107 Clear 13 1026 76 10000 4.1 80 07:49 31.10.2020
6108 Clear 14 1026 67 10000 5.1 70 07:26 31.10.2020
6109 Clear 14 1026 67 10000 5.1 70 06:38 31.10.2020
6110 Clear 14 1028 67 10000 5.1 110 03:50 31.10.2020
6111 Clear 14 1028 67 10000 5.1 110 03:21 31.10.2020
6112 Clear 15 1027 62 10000 5.7 100 01:23 31.10.2020
6113 Clear 15 1026 67 10000 5.1 100 00:46 31.10.2020
6114 Clear 16 1026 59 10000 5.1 100 23:49 30.10.2020
6115 Clear 16 1026 59 10000 5.1 100 23:23 30.10.2020
6116 Clear 17 1025 51 10000 4.1 90 22:43 30.10.2020
6117 Clear 17 1025 51 10000 4.1 90 22:24 30.10.2020
6118 Clear 17 1025 48 10000 3.6 80 21:52 30.10.2020
6119 Clear 18 1025 48 10000 3.6 80 21:29 30.10.2020
6120 Clear 17 1026 48 10000 3.6 80 20:59 30.10.2020
6121 Clear 17 1026 48 10000 3.6 80 20:37 30.10.2020
6122 Clear 17 1026 48 10000 4.1 60 20:19 30.10.2020
6123 Clear 18 1026 48 10000 4.1 60 19:44 30.10.2020
6124 Clear 17 1027 48 10000 4.1 60 19:18 30.10.2020
6125 Clear 18 1027 48 10000 4.1 60 18:45 30.10.2020
6126 Clear 18 1027 48 10000 4.1 60 18:27 30.10.2020
6127 Clear 18 1027 51 10000 3.6 70 17:48 30.10.2020
6128 Clear 17 1028 54 10000 4.1 70 17:22 30.10.2020
6129 Clear 17 1028 54 10000 4.1 70 17:22 30.10.2020
6130 Clear 17 1028 54 10000 4.1 70 16:57 30.10.2020
6131 Clear 16 1028 54 10000 4.1 70 16:26 30.10.2020
6132 Clouds 17 1028 62 10000 4.1 80 15:58 30.10.2020
6133 Clouds 17 1028 62 10000 4.1 80 15:40 30.10.2020
6134 Clouds 16 1028 62 10000 4.1 80 15:18 30.10.2020
6135 Clouds 16 1028 62 10000 4.1 80 14:44 30.10.2020
6136 Clouds 16 1028 58 10000 4.1 120 14:25 30.10.2020
6137 Clouds 15 1028 58 10000 4.1 120 13:44 30.10.2020
6138 Clear 14 1028 58 10000 4.1 130 13:21 30.10.2020
6139 Clear 13 1028 58 10000 4.1 130 12:49 30.10.2020
6140 Clear 13 1028 58 10000 4.1 130 12:22 30.10.2020
6141 Clear 12 1028 66 10000 1.5 0 11:56 30.10.2020
6142 Clear 11 1028 66 10000 1.5 0 11:22 30.10.2020
6143 Clear 10 1027 71 9000 1 0 10:50 30.10.2020
6144 Clear 9 1027 71 9000 1 0 10:26 30.10.2020
6145 Clear 9 1027 71 10000 1 0 09:56 30.10.2020
6146 Clear 9 1027 71 10000 1 0 09:38 30.10.2020
6147 Clear 9 1027 71 10000 1 0 09:19 30.10.2020
6148 Clear 9 1027 71 10000 1 0 08:32 30.10.2020
6149 Clear 10 1027 71 10000 1.5 180 07:54 30.10.2020
6150 Clear 9 1027 71 10000 1.5 180 07:36 30.10.2020
6151 Clear 10 1026 71 10000 2.6 150 06:59 30.10.2020
6152 Clear 11 1026 71 10000 4.1 150 05:53 30.10.2020
6153 Clear 14 1025 51 10000 4.1 150 02:53 30.10.2020
6154 Clear 15 1023 48 10000 4.6 160 01:20 30.10.2020
6155 Clear 16 1022 48 10000 3.1 180 23:59 29.10.2020
6156 Clear 16 1022 48 10000 3.1 180 23:41 29.10.2020
6157 Clear 16 1022 48 10000 3.1 160 23:21 29.10.2020
6158 Clear 17 1022 48 10000 3.1 160 22:44 29.10.2020
6159 Clouds 18 1022 39 10000 3.1 230 22:25 29.10.2020
6160 Clouds 18 1022 39 10000 3.1 230 21:43 29.10.2020
6161 Clouds 17 1022 39 10000 3.1 230 21:22 29.10.2020
6162 Clouds 17 1022 39 10000 3.1 230 21:22 29.10.2020
6163 Clouds 17 1022 42 10000 2.6 180 20:42 29.10.2020
6164 Clouds 18 1022 39 10000 4.1 200 20:21 29.10.2020
6165 Clouds 18 1022 39 10000 4.1 200 19:54 29.10.2020
6166 Clouds 18 1022 39 10000 4.1 200 19:36 29.10.2020
6167 Clouds 18 1023 42 10000 4.1 200 19:18 29.10.2020
6168 Clouds 18 1023 42 10000 4.1 200 18:41 29.10.2020
6169 Clouds 18 1023 44 10000 3.6 200 18:21 29.10.2020
6170 Clouds 18 1023 44 10000 3.6 200 17:42 29.10.2020
6171 Clouds 17 1023 44 10000 3.6 200 17:21 29.10.2020
6172 Clouds 17 1023 44 10000 3.6 200 16:48 29.10.2020
6173 Clouds 16 1022 51 10000 3.6 160 16:22 29.10.2020
6174 Clouds 16 1022 51 10000 3.6 160 15:57 29.10.2020
6175 Clouds 16 1022 51 10000 3.6 160 15:38 29.10.2020
6176 Clouds 15 1022 58 10000 3.6 200 15:20 29.10.2020
6177 Clouds 14 1022 58 10000 3.6 200 14:46 29.10.2020
6178 Clear 14 1021 58 10000 3.1 200 14:23 29.10.2020
6179 Clear 14 1021 58 10000 3.1 200 13:48 29.10.2020
6180 Clear 13 1021 58 10000 3.1 200 13:28 29.10.2020
6181 Clear 12 1020 66 10000 4.1 200 12:44 29.10.2020
6182 Clear 13 1020 66 10000 4.1 200 12:21 29.10.2020
6183 Clear 12 1020 66 10000 4.1 200 11:58 29.10.2020
6184 Clear 13 1020 66 10000 4.1 200 11:40 29.10.2020
6185 Clear 13 1020 66 10000 4.1 200 11:40 29.10.2020
6186 Clear 12 1018 66 10000 3.1 200 11:21 29.10.2020
6187 Clear 12 1018 66 10000 3.1 200 10:37 29.10.2020
6188 Clear 12 1018 66 10000 3.1 200 10:37 29.10.2020
6189 Clear 12 1018 66 10000 3.1 200 10:37 29.10.2020
6190 Clear 12 1017 76 10000 3.1 200 10:19 29.10.2020
6191 Clear 12 1017 76 10000 3.1 200 09:50 29.10.2020
6192 Clear 12 1017 76 10000 3.1 200 09:26 29.10.2020
6193 Clear 12 1016 76 10000 2.1 230 08:46 29.10.2020
6194 Clear 12 1016 76 10000 2.1 230 08:24 29.10.2020
6195 Clear 12 1016 82 10000 1.5 230 07:51 29.10.2020
6196 Clear 12 1016 82 10000 2.1 220 07:21 29.10.2020
6197 Clear 12 1016 82 10000 2.1 220 06:47 29.10.2020
6198 Clear 13 1016 82 10000 2.1 220 04:50 29.10.2020
6199 Clear 13 1017 87 10000 0.45 90 02:29 29.10.2020
6200 Clouds 15 1016 75 10000 0.45 135 00:45 29.10.2020
6201 Clouds 15 1016 74 10000 5.91 223 00:22 29.10.2020
6202 Clouds 15 1016 72 10000 0.45 135 23:42 28.10.2020
6203 Clouds 15 1015 71 10000 0.45 180 23:20 28.10.2020
6204 Clouds 15 1014 71 10000 0.45 90 22:43 28.10.2020
6205 Clouds 15 1013 72 10000 4.6 200 22:25 28.10.2020
6206 Clouds 15 1013 72 10000 4.6 200 21:45 28.10.2020
6207 Clouds 15 1013 72 10000 4.6 200 21:26 28.10.2020
6208 Rain 15 1012 55 9000 3.6 220 20:58 28.10.2020
6209 Rain 15 1012 55 9000 3.6 220 20:40 28.10.2020
6210 Rain 15 1011 55 10000 5.1 180 20:18 28.10.2020
6211 Rain 17 1011 55 10000 5.1 180 19:42 28.10.2020
6212 Rain 17 1011 55 10000 5.1 180 19:24 28.10.2020
6213 Clouds 17 1011 63 10000 5.1 200 18:43 28.10.2020
6214 Clouds 19 1011 45 10000 6.2 200 18:20 28.10.2020
6215 Rain 19 1011 45 10000 6.2 200 17:43 28.10.2020
6216 Clear 20 1010 43 10000 2.6 180 17:21 28.10.2020
6217 Clear 21 1010 43 10000 2.6 180 16:47 28.10.2020
6218 Clear 21 1010 43 10000 2.6 180 16:29 28.10.2020
6219 Rain 19 1011 45 10000 3.6 200 15:43 28.10.2020
6220 Clouds 19 1026 54 10000 1.34 174 15:20 28.10.2020
6221 Clouds 18 1028 60 10000 1.79 181 14:49 28.10.2020
6222 Clear 18 1009 68 10000 2.6 190 14:31 28.10.2020
6223 Clouds 17 1026 72 10000 0.45 211 13:59 28.10.2020
6224 Rain 16 1026 78 10000 0.89 128 12:37 28.10.2020
6225 Clouds 15 1026 83 10000 0.89 237 12:19 28.10.2020
6226 Clouds 14 1025 85 10000 3.62 186 11:42 28.10.2020
6227 Clouds 14 1024 85 10000 2.38 171 11:22 28.10.2020
6228 Clouds 14 1009 99 10000 2.38 171 10:53 28.10.2020
6229 Rain 14 1008 82 10000 1 0 10:34 28.10.2020
6230 Clear 14 1008 82 10000 1 0 09:56 28.10.2020
6231 Rain 14 1008 82 10000 1 0 09:37 28.10.2020
6232 Rain 14 1007 82 10000 2.1 150 09:19 28.10.2020
6233 Clear 14 1007 82 10000 2.1 150 08:43 28.10.2020
6234 Clear 14 1008 82 10000 2.6 130 08:23 28.10.2020
6235 Clear 14 1008 82 10000 2.6 130 07:44 28.10.2020
6236 Clear 14 1008 82 10000 2.6 130 07:26 28.10.2020
6237 Clear 14 1008 82 10000 3.1 130 06:40 28.10.2020
6238 Clear 15 1009 77 10000 2.1 140 05:48 28.10.2020
6239 Clear 15 1009 72 10000 2.1 160 04:52 28.10.2020
6240 Clear 16 1009 72 10000 3.6 140 04:23 28.10.2020
6241 Clear 17 1008 63 10000 3.6 140 02:25 28.10.2020
6242 Clear 18 1006 59 10000 6.7 110 00:39 28.10.2020
6243 Clear 18 1007 55 10000 6.2 110 23:51 27.10.2020
6244 Clear 19 1007 55 10000 6.2 110 23:22 27.10.2020
6245 Clear 20 1006 37 10000 5.7 100 22:45 27.10.2020
6246 Clear 21 1007 37 10000 4.6 100 22:25 27.10.2020
6247 Clear 20 1007 37 10000 4.6 100 21:57 27.10.2020
6248 Clear 21 1007 37 10000 4.6 100 21:38 27.10.2020
6249 Clear 21 1007 37 10000 4.6 80 21:20 27.10.2020
6250 Clear 21 1007 37 10000 4.6 80 20:51 27.10.2020
6251 Clear 21 1007 37 10000 4.6 80 20:25 27.10.2020
6252 Clear 21 1008 40 10000 4.1 80 19:59 27.10.2020
6253 Clear 21 1008 40 10000 4.1 80 19:38 27.10.2020
6254 Clear 21 1009 45 10000 3.6 50 19:20 27.10.2020
6255 Clear 21 1009 45 10000 3.6 50 18:45 27.10.2020
6256 Clear 21 1009 45 10000 3.6 50 18:45 27.10.2020
6257 Clear 21 1009 45 10000 3.6 50 18:27 27.10.2020
6258 Clear 21 1010 55 10000 2.6 10 17:59 27.10.2020
6259 Clear 21 1010 55 10000 2.6 10 17:40 27.10.2020
6260 Clear 20 1010 63 10000 2.1 350 17:19 27.10.2020
6261 Clear 20 1010 63 10000 2.1 350 16:44 27.10.2020
6262 Clear 19 1010 63 10000 2.1 350 16:23 27.10.2020
6263 Clouds 19 1010 68 10000 3.1 350 15:42 27.10.2020
6264 Clear 19 1011 68 10000 3.6 30 15:24 27.10.2020
6265 Clear 19 1011 68 10000 3.6 30 14:51 27.10.2020
6266 Clear 19 1011 68 10000 3.6 30 14:32 27.10.2020
6267 Clear 18 1011 52 10000 3.6 90 13:59 27.10.2020
6268 Clear 18 1011 52 10000 3.6 90 13:31 27.10.2020
6269 Rain 18 1011 59 10000 2.1 100 12:49 27.10.2020
6270 Clear 18 1011 59 10000 2.1 100 12:30 27.10.2020
6271 Clear 16 1011 63 10000 1 260 11:59 27.10.2020
6272 Clear 16 1011 63 10000 1 260 11:41 27.10.2020
6273 Clear 15 1011 58 10000 1 0 11:21 27.10.2020
6274 Clear 14 1011 58 10000 1 0 10:43 27.10.2020
6275 Clear 12 1013 83 10000 0.78 74 10:20 27.10.2020
6276 Clear 13 1011 58 10000 2.6 100 09:28 27.10.2020
6277 Clear 14 1011 58 10000 2.6 100 08:59 27.10.2020
6278 Clear 14 1011 58 10000 2.6 100 08:33 27.10.2020
6279 Clear 14 1012 62 10000 2.6 110 07:54 27.10.2020
6280 Clear 14 1012 62 10000 2.6 110 07:36 27.10.2020
6281 Clear 15 1012 55 10000 4.1 100 06:55 27.10.2020
6282 Clear 15 1013 55 10000 5.1 110 06:20 27.10.2020
6283 Clear 15 1013 55 10000 5.1 110 06:20 27.10.2020
6284 Clear 16 1013 55 10000 5.1 110 05:45 27.10.2020
6285 Clear 16 1014 55 10000 5.1 110 05:24 27.10.2020
6286 Clear 16 1014 59 10000 4.6 120 03:19 27.10.2020
6287 Clear 17 1014 48 10000 6.7 110 01:20 27.10.2020
6288 Clear 17 1014 48 10000 6.7 110 00:38 27.10.2020
6289 Clouds 18 1013 55 10000 6.7 110 23:38 26.10.2020
6290 Clouds 19 1013 59 10000 5.7 90 22:58 26.10.2020
6291 Clouds 19 1013 59 10000 5.7 90 22:39 26.10.2020
6292 Clouds 19 1012 59 10000 4.1 110 22:18 26.10.2020
6293 Clouds 20 1012 59 10000 4.1 110 21:37 26.10.2020
6294 Clear 20 1012 60 10000 5.1 70 21:18 26.10.2020
6295 Clear 20 1012 60 10000 5.1 70 20:49 26.10.2020
6296 Clear 21 1012 60 10000 5.1 70 20:27 26.10.2020
6297 Clear 21 1013 60 10000 4.6 110 19:49 26.10.2020
6298 Clear 21 1013 60 10000 4.6 110 19:49 26.10.2020
6299 Clear 21 1013 60 10000 4.6 110 19:28 26.10.2020
6300 Clear 22 1013 33 10000 4.1 160 18:58 26.10.2020
6301 Clear 22 1013 33 10000 4.1 160 18:39 26.10.2020
6302 Clear 22 1013 26 10000 4.6 160 18:19 26.10.2020
6303 Clear 21 1013 26 10000 4.6 160 17:41 26.10.2020
6304 Clear 21 1014 35 10000 5.1 180 17:23 26.10.2020
6305 Clear 21 1014 35 10000 5.1 180 16:45 26.10.2020
6306 Clear 20 1014 40 10000 5.7 180 16:22 26.10.2020
6307 Clear 20 1014 40 10000 5.7 180 15:45 26.10.2020
6308 Clear 20 1014 40 10000 5.7 180 15:26 26.10.2020
6309 Clear 19 1014 55 10000 3.1 180 14:56 26.10.2020
6310 Clear 19 1014 55 10000 3.1 180 14:56 26.10.2020
6311 Clear 19 1014 55 10000 3.1 180 14:38 26.10.2020
6312 Clear 18 1014 59 10000 3.6 200 13:48 26.10.2020
6313 Clear 18 1014 59 10000 3.6 200 13:29 26.10.2020
6314 Clear 17 1014 67 10000 3.1 180 12:58 26.10.2020
6315 Clear 16 1014 67 10000 3.1 180 12:40 26.10.2020
6316 Clear 16 1013 77 10000 2.6 200 12:20 26.10.2020
6317 Clear 16 1013 77 10000 2.6 200 11:46 26.10.2020
6318 Clouds 15 1012 82 10000 3.6 200 11:23 26.10.2020
6319 Clouds 15 1012 82 10000 3.6 200 10:57 26.10.2020
6320 Clouds 16 1012 82 10000 3.6 200 10:38 26.10.2020
6321 Clouds 15 1010 87 10000 3.6 190 10:18 26.10.2020
6322 Clouds 16 1010 87 10000 3.6 190 09:32 26.10.2020
6323 Clouds 16 1010 93 10000 3.1 210 08:58 26.10.2020
6324 Clouds 17 1009 93 10000 3.1 220 08:27 26.10.2020
6325 Clouds 17 1009 93 10000 3.1 220 07:48 26.10.2020
6326 Clouds 17 1009 93 10000 3.1 220 07:29 26.10.2020
6327 Clouds 17 1009 88 10000 2.1 0 05:46 26.10.2020
6328 Clouds 18 1008 88 10000 2.6 170 04:20 26.10.2020
6329 Clouds 19 1008 88 10000 3.1 200 03:21 26.10.2020
6330 Clouds 19 1008 88 10000 3.1 200 03:21 26.10.2020
6331 Clouds 19 1008 88 10000 3.1 200 03:21 26.10.2020
6332 Clouds 19 1008 88 10000 3.1 200 03:21 26.10.2020
6333 Clouds 20 1008 94 10000 1.5 220 01:34 26.10.2020
6334 Clouds 20 1008 94 10000 2.1 240 00:39 26.10.2020
6335 Clouds 21 1007 94 10000 1 0 00:20 26.10.2020
6336 Clouds 21 1007 94 10000 1 0 23:37 25.10.2020
6337 Clouds 21 1007 94 2500 1 140 22:50 25.10.2020
6338 Clouds 21 1006 94 10000 2.1 50 22:30 25.10.2020
6339 Clouds 21 1005 94 10000 1.5 110 21:58 25.10.2020
6340 Clouds 21 1005 94 10000 1.5 110 21:39 25.10.2020
6341 Clouds 21 1005 94 10000 2.6 100 21:19 25.10.2020
6342 Clouds 21 1005 94 10000 2.6 100 20:43 25.10.2020
6343 Clouds 21 1005 94 10000 2.6 100 20:24 25.10.2020
6344 Rain 21 1006 94 10000 3.6 60 19:56 25.10.2020
6345 Rain 21 1006 94 10000 3.6 60 19:37 25.10.2020
6346 Rain 20 1006 100 9000 5.1 50 19:19 25.10.2020
6347 Rain 21 1006 100 9000 5.1 50 18:41 25.10.2020
6348 Rain 21 1006 94 3000 7.7 50 18:22 25.10.2020
6349 Rain 20 1006 94 3000 7.7 50 17:57 25.10.2020
6350 Rain 20 1008 100 1500 3.1 50 17:38 25.10.2020
6351 Rain 21 1008 94 3000 2.6 360 17:19 25.10.2020
6352 Rain 20 1008 94 3000 2.6 360 16:44 25.10.2020
6353 Rain 20 1008 94 3000 2.6 360 16:25 25.10.2020
6354 Rain 21 1009 88 4000 3.6 310 15:50 25.10.2020
6355 Rain 21 1009 88 4000 3.6 310 15:29 25.10.2020
6356 Rain 21 1009 88 5000 3.6 320 14:54 25.10.2020
6357 Rain 21 1009 88 10000 4.1 320 14:30 25.10.2020
6358 Rain 21 1009 88 10000 4.6 330 13:46 25.10.2020
6359 Rain 21 1009 88 10000 4.6 330 13:27 25.10.2020
6360 Rain 21 1008 94 10000 4.1 30 12:57 25.10.2020
6361 Rain 21 1008 94 10000 4.1 30 12:39 25.10.2020
6362 Rain 21 1008 94 10000 5.1 40 12:21 25.10.2020
6363 Clouds 21 1008 94 10000 5.1 40 11:42 25.10.2020
6364 Clouds 20 1008 100 10000 1.5 90 11:20 25.10.2020
6365 Clouds 20 1008 100 10000 1.5 90 10:47 25.10.2020
6366 Rain 20 1008 100 10000 1.5 90 10:26 25.10.2020
6367 Rain 19 1008 100 10000 3.1 100 09:52 25.10.2020
6368 Clear 19 1008 100 10000 3.1 100 09:23 25.10.2020
6369 Clear 19 1008 100 10000 3.1 110 08:59 25.10.2020
6370 Clear 19 1008 100 10000 3.1 110 08:40 25.10.2020
6371 Clear 19 1008 93 10000 3.6 100 08:22 25.10.2020
6372 Rain 19 1008 93 10000 3.6 100 07:43 25.10.2020
6373 Rain 19 1008 93 10000 6.2 110 06:53 25.10.2020
6374 Clouds 19 1008 93 10000 6.2 110 06:27 25.10.2020
6375 Clouds 19 1010 100 10000 4.6 120 05:19 25.10.2020
6376 Clouds 19 1010 100 10000 4.6 120 04:48 25.10.2020
6377 Drizzle 18 1011 100 500 6.2 100 02:24 25.10.2020
6378 Clouds 19 1011 100 10000 7.2 100 00:53 25.10.2020
6379 Clouds 19 1011 100 10000 7.2 100 00:28 25.10.2020
6380 Clouds 20 1010 93 10000 5.7 90 23:54 24.10.2020
6381 Clouds 20 1010 93 10000 5.7 90 23:31 24.10.2020
6382 Clouds 21 1011 88 10000 5.1 90 22:58 24.10.2020
6383 Clouds 21 1011 88 10000 5.1 90 22:40 24.10.2020
6384 Clouds 21 1011 88 10000 5.1 90 22:21 24.10.2020
6385 Clouds 22 1011 88 10000 5.7 90 21:43 24.10.2020
6386 Clouds 22 1012 83 10000 5.7 90 21:21 24.10.2020
6387 Clouds 22 1012 83 10000 5.7 90 21:21 24.10.2020
6388 Clouds 22 1012 83 10000 5.7 90 20:49 24.10.2020
6389 Clouds 22 1012 83 10000 5.7 90 20:25 24.10.2020
6390 Clouds 21 1013 93 10000 5.1 90 19:57 24.10.2020
6391 Clouds 21 1013 93 10000 5.1 90 19:37 24.10.2020
6392 Clouds 21 1014 93 10000 4.6 90 19:19 24.10.2020
6393 Clouds 21 1014 93 10000 4.6 90 18:46 24.10.2020
6394 Clouds 22 1014 82 10000 5.7 100 18:26 24.10.2020
6395 Clouds 22 1014 82 10000 5.7 100 17:41 24.10.2020
6396 Clouds 22 1014 82 10000 5.7 100 17:22 24.10.2020
6397 Clouds 21 1015 88 8000 4.6 80 16:45 24.10.2020
6398 Clouds 21 1015 88 8000 4.6 80 16:26 24.10.2020
6399 Clouds 20 1015 82 6000 4.1 130 15:41 24.10.2020
6400 Clouds 19 1015 88 7000 2.6 100 15:20 24.10.2020
6401 Clouds 19 1015 88 7000 2.6 100 14:56 24.10.2020
6402 Clouds 18 1015 88 7000 2.6 100 14:29 24.10.2020
6403 Clouds 18 1015 93 6000 2.6 130 13:47 24.10.2020
6404 Clouds 18 1015 93 6000 2.6 130 13:29 24.10.2020
6405 Mist 17 1015 100 4000 1.5 120 12:55 24.10.2020
6406 Mist 18 1015 100 4000 1.5 120 12:37 24.10.2020
6407 Drizzle 18 1015 100 2000 3.1 120 12:19 24.10.2020
6408 Drizzle 17 1015 100 2000 3.1 120 11:42 24.10.2020
6409 Mist 17 1014 93 2000 3.1 130 10:54 24.10.2020
6410 Mist 17 1014 93 2000 3.1 130 10:34 24.10.2020
6411 Mist 17 1013 93 2000 5.1 130 09:56 24.10.2020
6412 Rain 17 1013 93 2000 5.1 130 09:38 24.10.2020
6413 Mist 17 1014 100 2000 5.1 140 09:19 24.10.2020
6414 Mist 17 1014 100 2000 6.7 130 08:20 24.10.2020
6415 Mist 17 1014 100 2000 6.7 130 07:55 24.10.2020
6416 Mist 17 1014 100 2000 6.7 130 07:37 24.10.2020
6417 Mist 17 1014 100 3000 6.7 130 07:18 24.10.2020
6418 Mist 18 1014 93 3000 4.1 130 06:23 24.10.2020
6419 Rain 19 1015 93 10000 4.1 100 03:37 24.10.2020
6420 Clouds 20 1014 93 10000 3.6 120 02:18 24.10.2020
6421 Clouds 20 1013 93 10000 3.1 110 00:42 24.10.2020
6422 Clouds 21 1013 88 10000 3.6 100 00:22 24.10.2020
6423 Clouds 21 1013 88 10000 3.6 100 23:50 23.10.2020
6424 Clouds 21 1013 88 10000 3.6 100 23:27 23.10.2020
6425 Clouds 21 1013 82 10000 3.6 90 22:59 23.10.2020
6426 Clouds 21 1013 82 10000 3.6 90 22:40 23.10.2020
6427 Clouds 21 1014 88 10000 4.6 100 22:20 23.10.2020
6428 Clouds 21 1014 88 10000 4.6 100 21:50 23.10.2020
6429 Clouds 21 1014 88 10000 4.6 100 21:25 23.10.2020
6430 Clouds 21 1014 88 10000 4.6 100 21:25 23.10.2020
6431 Clouds 21 1014 83 10000 5.1 100 20:41 23.10.2020
6432 Clouds 22 1014 83 10000 5.1 100 20:23 23.10.2020
6433 Clouds 22 1015 88 10000 4.1 90 19:54 23.10.2020
6434 Clouds 21 1015 88 10000 4.1 90 19:33 23.10.2020
6435 Clouds 21 1015 88 10000 4.1 90 18:57 23.10.2020
6436 Clouds 21 1015 88 10000 4.1 90 18:37 23.10.2020
6437 Clouds 21 1015 88 10000 4.1 90 18:19 23.10.2020
6438 Clouds 20 1015 88 10000 4.1 90 17:42 23.10.2020
6439 Clouds 20 1015 88 10000 4.1 90 17:20 23.10.2020
6440 Clouds 19 1016 88 10000 3.6 100 16:39 23.10.2020
6441 Clouds 19 1016 93 10000 3.6 130 16:21 23.10.2020
6442 Clouds 19 1016 93 10000 3.6 130 15:43 23.10.2020
6443 Clouds 19 1016 93 10000 3.6 100 15:24 23.10.2020
6444 Clouds 19 1016 93 10000 3.6 100 14:53 23.10.2020
6445 Clouds 18 1016 93 10000 3.6 100 14:35 23.10.2020
6446 Clouds 18 1016 93 10000 2.6 130 13:56 23.10.2020
6447 Clouds 18 1016 93 10000 2.6 130 13:37 23.10.2020
6448 Clouds 18 1016 93 10000 1.5 140 13:19 23.10.2020
6449 Clouds 18 1016 93 10000 1.5 140 12:42 23.10.2020
6450 Clouds 17 1016 100 10000 2.1 110 12:23 23.10.2020
6451 Clouds 17 1016 100 10000 2.1 110 11:46 23.10.2020
6452 Clouds 17 1016 100 10000 2.1 110 11:21 23.10.2020
6453 Clouds 17 1016 100 10000 2.1 120 10:43 23.10.2020
6454 Clouds 17 1016 100 10000 2.1 120 10:25 23.10.2020
6455 Clouds 17 1015 100 10000 3.6 100 09:44 23.10.2020
6456 Clouds 17 1015 100 10000 3.6 100 09:26 23.10.2020
6457 Clouds 17 1016 93 10000 4.1 110 08:52 23.10.2020
6458 Clouds 17 1016 93 10000 4.1 110 08:30 23.10.2020
6459 Clouds 17 1016 93 10000 4.6 110 07:33 23.10.2020
6460 Clouds 17 1017 93 8000 3.6 130 06:57 23.10.2020
6461 Clouds 16 1017 100 5000 4.6 130 06:20 23.10.2020
6462 Clouds 16 1017 93 8000 3.6 140 04:45 23.10.2020
6463 Clouds 16 1017 93 10000 4.1 140 02:32 23.10.2020
6464 Rain 17 1016 93 10000 2.6 130 01:22 23.10.2020
6465 Rain 17 1016 93 10000 2.6 130 00:33 23.10.2020
6466 Rain 17 1016 88 10000 3.1 111 23:40 22.10.2020
6467 Rain 17 1017 88 10000 4.1 110 23:19 22.10.2020
6468 Rain 17 1017 88 10000 4.1 110 22:47 22.10.2020
6469 Rain 17 1017 88 10000 4.1 110 22:26 22.10.2020
6470 Clouds 17 1018 88 10000 4.1 110 21:58 22.10.2020
6471 Clouds 17 1018 88 10000 4.1 110 21:39 22.10.2020
6472 Clouds 17 1018 88 10000 3.1 110 21:20 22.10.2020
6473 Rain 17 1018 88 10000 3.1 110 20:44 22.10.2020
6474 Clouds 17 1018 88 10000 3.1 110 20:25 22.10.2020
6475 Clouds 16 1019 87 10000 4.1 70 19:44 22.10.2020
6476 Clouds 16 1020 87 10000 5.1 70 19:21 22.10.2020
6477 Clouds 16 1020 87 10000 5.1 70 18:57 22.10.2020
6478 Clouds 16 1020 87 10000 5.1 70 18:37 22.10.2020
6479 Clouds 16 1020 93 10000 7.7 70 18:18 22.10.2020
6480 Clouds 15 1020 93 10000 7.7 70 17:42 22.10.2020
6481 Clouds 15 1021 93 2000 7.7 110 17:20 22.10.2020
6482 Clouds 15 1021 93 2000 7.7 110 16:44 22.10.2020
6483 Thunderstorm 15 1021 93 2000 7.7 110 16:24 22.10.2020
6484 Rain 14 1023 87 3000 10.3 110 15:49 22.10.2020
6485 Thunderstorm 14 1023 87 3000 10.3 110 15:27 22.10.2020
6486 Rain 14 1024 93 3000 7.7 110 14:50 22.10.2020
6487 Clouds 14 1024 93 3000 7.7 110 14:29 22.10.2020
6488 Rain 14 1024 87 4000 7.7 110 13:58 22.10.2020
6489 Rain 14 1023 87 8000 9.3 100 13:39 22.10.2020
6490 Rain 14 1021 87 8000 8.2 110 13:20 22.10.2020
6491 Clouds 15 1021 87 8000 8.2 110 12:29 22.10.2020
6492 Clouds 15 1021 87 10000 11.3 110 11:54 22.10.2020
6493 Clouds 15 1021 87 10000 11.3 110 11:36 22.10.2020
6494 Clouds 14 1022 87 10000 9.8 100 11:18 22.10.2020
6495 Clouds 14 1022 87 10000 9.8 100 10:44 22.10.2020
6496 Clouds 14 1022 87 10000 9.8 100 10:23 22.10.2020
6497 Clouds 14 1022 82 10000 10.8 100 09:42 22.10.2020
6498 Rain 14 1022 93 10000 9.8 100 09:18 22.10.2020
6499 Rain 14 1022 93 10000 9.8 100 08:39 22.10.2020
6500 Rain 14 1022 87 10000 8.2 90 08:19 22.10.2020
6501 Rain 14 1022 87 10000 8.2 90 07:43 22.10.2020
6502 Clouds 14 1023 82 10000 8.7 90 06:59 22.10.2020
6503 Clouds 14 1023 82 10000 8.7 90 06:37 22.10.2020
6504 Rain 14 1023 82 10000 8.7 90 05:42 22.10.2020
6505 Rain 14 1023 82 10000 8.7 90 05:22 22.10.2020
6506 Rain 16 1023 82 8000 11.8 110 02:40 22.10.2020
6507 Rain 16 1023 82 8000 9.8 120 00:36 22.10.2020
6508 Rain 16 1022 82 9000 11.3 110 00:18 22.10.2020
6509 Rain 16 1022 82 9000 11.3 110 23:38 21.10.2020
6510 Rain 16 1023 82 10000 9.8 110 22:58 21.10.2020
6511 Rain 16 1023 82 10000 9.8 110 22:37 21.10.2020
6512 Rain 17 1023 72 10000 10.3 120 22:18 21.10.2020
6513 Rain 17 1023 72 10000 10.3 120 21:44 21.10.2020
6514 Rain 17 1024 72 10000 10.3 110 21:19 21.10.2020
6515 Rain 17 1024 72 10000 10.3 110 20:48 21.10.2020
6516 Rain 17 1025 67 10000 9.8 110 20:19 21.10.2020
6517 Rain 17 1025 67 10000 9.8 110 19:59 21.10.2020
6518 Rain 17 1025 67 10000 9.8 110 19:39 21.10.2020
6519 Rain 17 1026 67 10000 9.8 110 19:19 21.10.2020
6520 Clouds 17 1026 67 10000 9.8 110 18:46 21.10.2020
6521 Rain 17 1026 67 10000 10.3 100 18:25 21.10.2020
6522 Rain 17 1026 67 10000 10.3 100 17:45 21.10.2020
6523 Rain 16 1027 67 10000 10.8 100 17:20 21.10.2020
6524 Rain 16 1027 67 10000 10.8 100 16:55 21.10.2020
6525 Rain 16 1027 67 10000 10.8 100 16:36 21.10.2020
6526 Clouds 16 1027 63 10000 9.8 90 16:18 21.10.2020
6527 Clouds 17 1027 63 10000 9.8 90 15:42 21.10.2020
6528 Clouds 17 1027 63 10000 9.8 90 15:20 21.10.2020
6529 Clouds 16 1027 72 10000 9.8 100 14:44 21.10.2020
6530 Clouds 16 1027 72 10000 9.8 100 14:26 21.10.2020
6531 Clouds 15 1027 72 10000 9.3 100 13:45 21.10.2020
6532 Clouds 15 1027 72 10000 9.3 100 13:26 21.10.2020
6533 Clouds 14 1026 72 10000 11.3 100 12:48 21.10.2020
6534 Clouds 13 1026 72 10000 11.3 100 12:24 21.10.2020
6535 Clouds 12 1026 71 10000 10.8 110 11:59 21.10.2020
6536 Clouds 14 1026 71 10000 10.8 110 11:40 21.10.2020
6537 Clouds 14 1026 71 10000 10.8 110 11:40 21.10.2020
6538 Clouds 14 1026 71 10000 10.8 110 11:40 21.10.2020
6539 Rain 13 1026 71 10000 10.8 110 11:19 21.10.2020
6540 Clouds 12 1026 66 10000 6.7 120 10:43 21.10.2020
6541 Clouds 12 1026 66 10000 6.7 120 10:23 21.10.2020
6542 Clouds 12 1026 54 10000 9.3 110 09:52 21.10.2020
6543 Clouds 12 1026 54 10000 9.3 110 09:30 21.10.2020
6544 Clouds 13 1027 54 10000 10.3 110 08:42 21.10.2020
6545 Clouds 13 1027 54 10000 10.3 110 08:24 21.10.2020
6546 Clouds 13 1027 47 10000 10.8 120 07:58 21.10.2020
6547 Clouds 12 1027 47 10000 10.8 120 07:29 21.10.2020
6548 Clouds 12 1027 50 10000 11.3 120 06:48 21.10.2020
6549 Clouds 12 1027 50 10000 11.3 120 06:26 21.10.2020
6550 Clouds 13 1026 58 10000 7.2 140 04:45 21.10.2020
6551 Clouds 15 1025 51 10000 10.8 120 00:50 21.10.2020
6552 Clouds 16 1025 44 10000 11.3 130 23:37 20.10.2020
6553 Clouds 16 1025 48 10000 10.8 110 22:49 20.10.2020
6554 Clouds 16 1025 48 10000 10.8 110 22:26 20.10.2020
6555 Clouds 16 1025 51 10000 9.3 110 21:48 20.10.2020
6556 Clouds 16 1025 51 10000 9.3 110 21:20 20.10.2020
6557 Clouds 16 1025 62 10000 8.7 110 20:44 20.10.2020
6558 Clouds 15 1025 62 10000 8.7 110 20:25 20.10.2020
6559 Clouds 15 1025 72 9000 8.2 110 19:57 20.10.2020
6560 Clouds 15 1025 72 9000 8.2 110 19:39 20.10.2020
6561 Rain 14 1025 76 9000 8.7 110 19:20 20.10.2020
6562 Rain 15 1025 76 9000 8.7 110 18:45 20.10.2020
6563 Rain 15 1025 76 9000 8.7 110 18:26 20.10.2020
6564 Rain 14 1025 76 8000 10.8 110 17:42 20.10.2020
6565 Clouds 14 1025 71 8000 11.3 110 17:23 20.10.2020
6566 Clouds 14 1025 71 8000 11.3 110 16:48 20.10.2020
6567 Clouds 14 1025 71 8000 11.3 110 16:48 20.10.2020
6568 Rain 14 1025 71 8000 11.3 110 16:26 20.10.2020
6569 Rain 13 1024 87 8000 8.7 140 15:50 20.10.2020
6570 Rain 12 1024 87 8000 8.7 140 15:31 20.10.2020
6571 Rain 12 1025 76 5000 10.3 110 14:55 20.10.2020
6572 Rain 12 1025 76 5000 10.3 110 14:37 20.10.2020
6573 Rain 13 1025 76 5000 10.3 110 14:19 20.10.2020
6574 Rain 13 1023 67 6000 14.4 110 13:42 20.10.2020
6575 Rain 13 1022 76 5000 12.9 110 13:21 20.10.2020
6576 Rain 13 1022 76 5000 12.9 110 12:54 20.10.2020
6577 Rain 13 1022 76 5000 12.9 110 12:31 20.10.2020
6578 Rain 13 1022 76 5000 12.3 110 11:48 20.10.2020
6579 Rain 12 1023 82 5000 8.2 140 11:30 20.10.2020
6580 Rain 12 1022 87 5000 4.6 150 10:53 20.10.2020
6581 Rain 12 1022 87 5000 4.6 150 10:28 20.10.2020
6582 Rain 13 1018 82 8000 13.9 120 09:47 20.10.2020
6583 Rain 13 1018 82 8000 13.9 120 09:20 20.10.2020
6584 Rain 13 1018 82 8000 13.9 120 09:20 20.10.2020
6585 Rain 12 1017 93 10000 8.2 130 08:50 20.10.2020
6586 Rain 13 1017 93 10000 8.2 130 08:26 20.10.2020
6587 Rain 14 1019 93 3500 6.7 140 07:48 20.10.2020
6588 Rain 13 1019 93 3500 6.7 140 07:24 20.10.2020
6589 Rain 14 1018 93 3500 7.7 120 06:24 20.10.2020
6590 Rain 15 1018 93 8000 5.7 140 04:55 20.10.2020
6591 Rain 18 1014 93 10000 8.7 130 02:31 20.10.2020
6592 Rain 18 1015 93 2700 6.2 160 01:30 20.10.2020
6593 Rain 20 1013 83 10000 5.1 160 00:52 20.10.2020
6594 Rain 20 1013 83 10000 5.1 160 00:29 20.10.2020
6595 Rain 21 1012 78 10000 4.6 160 23:54 19.10.2020
6596 Rain 21 1012 78 5000 4.6 160 23:29 19.10.2020
6597 Rain 22 1011 78 10000 4.1 180 22:56 19.10.2020
6598 Clouds 22 1011 78 10000 4.1 180 22:30 19.10.2020
6599 Clouds 24 1010 57 10000 5.1 140 21:58 19.10.2020
6600 Clouds 24 1010 57 10000 5.1 140 21:39 19.10.2020
6601 Thunderstorm 24 1010 61 10000 5.1 150 21:19 19.10.2020
6602 Clouds 25 1010 73 10000 6.2 110 20:43 19.10.2020
6603 Rain 25 1010 73 10000 6.2 110 20:25 19.10.2020
6604 Clouds 25 1010 73 10000 6.2 110 19:46 19.10.2020
6605 Clouds 26 1010 73 10000 6.2 110 19:20 19.10.2020
6606 Clouds 25 1011 73 10000 7.2 100 18:50 19.10.2020
6607 Clouds 25 1011 73 10000 7.2 100 18:28 19.10.2020
6608 Clouds 24 1011 83 10000 6.2 100 17:47 19.10.2020
6609 Clouds 24 1011 83 10000 6.2 100 17:27 19.10.2020
6610 Clouds 25 1011 78 10000 7.2 100 16:54 19.10.2020
6611 Clouds 25 1011 78 10000 7.2 100 16:30 19.10.2020
6612 Clouds 24 1012 76 10000 0.45 90 15:50 19.10.2020
6613 Clouds 24 1027 73 10000 2.68 231 15:26 19.10.2020
6614 Clouds 25 1012 71 10000 0.45 45 14:58 19.10.2020
6615 Clouds 25 1012 68 10000 0.45 90 14:38 19.10.2020
6616 Clouds 25 1011 66 10000 0.89 225 14:19 19.10.2020
6617 Clouds 24 1011 74 10000 1.79 90 13:42 19.10.2020
6618 Clouds 23 1011 79 10000 1.34 315 13:22 19.10.2020
6619 Clouds 23 1026 80 10000 2.68 193 12:45 19.10.2020
6620 Clouds 22 1012 86 10000 1.79 180 12:25 19.10.2020
6621 Clouds 23 1024 69 10000 2.68 271 11:49 19.10.2020
6622 Clear 24 1006 78 10000 2.6 360 11:22 19.10.2020
6623 Clear 24 1006 78 10000 2.6 360 10:44 19.10.2020
6624 Clear 24 1006 78 10000 2.6 360 10:23 19.10.2020
6625 Clear 24 1005 83 10000 2.1 340 09:56 19.10.2020
6626 Clear 24 1005 83 10000 2.1 340 09:26 19.10.2020
6627 Clear 24 1005 88 10000 2.6 350 08:59 19.10.2020
6628 Clear 24 1005 88 10000 2.6 350 08:41 19.10.2020
6629 Clear 24 1005 83 10000 1 350 08:20 19.10.2020
6630 Clear 25 1005 83 10000 1 0 07:20 19.10.2020
6631 Rain 25 1005 83 10000 1 0 06:36 19.10.2020
6632 Clear 26 1005 83 10000 2.1 350 04:47 19.10.2020
6633 Clear 26 1006 78 10000 6.07 20 03:45 19.10.2020
6634 Clear 26 1005 78 10000 1 100 01:33 19.10.2020
6635 Clouds 27 1005 73 10000 4.6 120 00:28 19.10.2020
6636 Clouds 28 1006 74 10000 5.7 120 23:56 18.10.2020
6637 Clouds 28 1006 74 10000 5.7 120 23:37 18.10.2020
6638 Clouds 28 1005 74 10000 4.6 100 23:18 18.10.2020
6639 Clouds 28 1005 74 10000 4.6 100 22:43 18.10.2020
6640 Clouds 29 1006 74 10000 3.6 90 22:18 18.10.2020
6641 Clouds 30 1006 74 10000 3.6 90 21:38 18.10.2020
6642 Clouds 30 1007 69 10000 3.6 70 21:20 18.10.2020
6643 Clouds 31 1007 69 10000 3.6 70 20:43 18.10.2020
6644 Clouds 31 1007 69 10000 3.6 70 20:22 18.10.2020
6645 Clouds 30 1008 69 10000 3.1 60 19:49 18.10.2020
6646 Clouds 30 1008 69 10000 3.1 60 19:26 18.10.2020
6647 Clouds 29 1008 74 10000 3.6 60 18:50 18.10.2020
6648 Clouds 28 1009 78 10000 2.6 50 18:29 18.10.2020
6649 Clouds 28 1009 78 10000 2.6 50 17:46 18.10.2020
6650 Clouds 29 1009 78 10000 2.6 50 17:25 18.10.2020
6651 Clouds 28 1009 83 10000 2.6 40 16:58 18.10.2020
6652 Clouds 27 1009 83 10000 2.6 40 16:39 18.10.2020
6653 Clouds 26 1010 83 10000 2.6 40 16:21 18.10.2020
6654 Clouds 25 1010 83 10000 2.6 40 15:42 18.10.2020
6655 Clouds 25 1010 88 10000 2.1 360 15:19 18.10.2020
6656 Clouds 23 1010 88 10000 2.1 360 14:56 18.10.2020
6657 Clear 23 1010 88 10000 2.1 360 14:30 18.10.2020
6658 Clear 22 1009 94 10000 3.6 360 13:57 18.10.2020
6659 Clear 22 1009 94 10000 3.6 360 13:38 18.10.2020
6660 Clear 21 1009 94 9000 2.6 10 13:20 18.10.2020
6661 Clear 21 1009 94 9000 2.6 10 12:42 18.10.2020
6662 Clear 21 1009 94 9000 3.6 360 12:21 18.10.2020
6663 Clear 20 1009 94 9000 3.6 360 11:42 18.10.2020
6664 Clear 20 1009 94 9000 3.6 360 11:23 18.10.2020
6665 Clear 20 1009 94 10000 3.1 10 10:43 18.10.2020
6666 Clear 20 1009 94 10000 1.5 30 10:21 18.10.2020